<?xml version="1.0" encoding="UTF-8" standalone="no" ?>
<gpx xmlns="http://www.topografix.com/GPX/1/1" xmlns:xsi="http://www.w3.org/2001/XMLSchema-instance" xsi:schemaLocation="http://www.topografix.com/GPX/1/1 http://www.topografix.com/GPX/1/1/gpx.xsd" version="1.1" creator="VisuGPX - https://www.visugpx.com">
  <metadata>
    <name>PONT NOIR</name>
    <desc><![CDATA[DEPART DU PONT,ST ANNE,RETOUR AU PONT]]></desc>
  </metadata>
  <trk>
    <name><![CDATA[PONT NOIR_1]]></name>
    <trkseg>
      <trkpt lat="48.48954" lon="-2.84102">
        <ele>97</ele>
        <time>2014-02-12T12:33:48Z</time>
      </trkpt>
      <trkpt lat="48.48952" lon="-2.84144">
        <ele>93</ele>
        <time>2014-02-12T12:34:36Z</time>
      </trkpt>
      <trkpt lat="48.48951" lon="-2.84147">
        <ele>93</ele>
        <time>2014-02-12T12:34:38Z</time>
      </trkpt>
      <trkpt lat="48.48949" lon="-2.8415">
        <ele>92</ele>
        <time>2014-02-12T12:34:40Z</time>
      </trkpt>
      <trkpt lat="48.48947" lon="-2.84152">
        <ele>92</ele>
        <time>2014-02-12T12:34:42Z</time>
      </trkpt>
      <trkpt lat="48.48945" lon="-2.84155">
        <ele>92</ele>
        <time>2014-02-12T12:34:44Z</time>
      </trkpt>
      <trkpt lat="48.48944" lon="-2.84158">
        <ele>92</ele>
        <time>2014-02-12T12:34:46Z</time>
      </trkpt>
      <trkpt lat="48.48943" lon="-2.84162">
        <ele>92</ele>
        <time>2014-02-12T12:34:48Z</time>
      </trkpt>
      <trkpt lat="48.48941" lon="-2.84165">
        <ele>92</ele>
        <time>2014-02-12T12:34:50Z</time>
      </trkpt>
      <trkpt lat="48.48938" lon="-2.84168">
        <ele>92</ele>
        <time>2014-02-12T12:34:52Z</time>
      </trkpt>
      <trkpt lat="48.48935" lon="-2.8417">
        <ele>92</ele>
        <time>2014-02-12T12:34:54Z</time>
      </trkpt>
      <trkpt lat="48.48932" lon="-2.84172">
        <ele>92</ele>
        <time>2014-02-12T12:34:56Z</time>
      </trkpt>
      <trkpt lat="48.48928" lon="-2.84173">
        <ele>92</ele>
        <time>2014-02-12T12:34:58Z</time>
      </trkpt>
      <trkpt lat="48.48926" lon="-2.84173">
        <ele>92</ele>
        <time>2014-02-12T12:35:00Z</time>
      </trkpt>
      <trkpt lat="48.48925" lon="-2.84173">
        <ele>92</ele>
        <time>2014-02-12T12:35:02Z</time>
      </trkpt>
      <trkpt lat="48.48923" lon="-2.84174">
        <ele>92</ele>
        <time>2014-02-12T12:35:04Z</time>
      </trkpt>
      <trkpt lat="48.48921" lon="-2.84174">
        <ele>92</ele>
        <time>2014-02-12T12:35:06Z</time>
      </trkpt>
      <trkpt lat="48.4892" lon="-2.84172">
        <ele>92</ele>
        <time>2014-02-12T12:35:08Z</time>
      </trkpt>
      <trkpt lat="48.48919" lon="-2.84171">
        <ele>92</ele>
        <time>2014-02-12T12:35:10Z</time>
      </trkpt>
      <trkpt lat="48.48917" lon="-2.84172">
        <ele>92</ele>
        <time>2014-02-12T12:35:31Z</time>
      </trkpt>
      <trkpt lat="48.48915" lon="-2.84172">
        <ele>92</ele>
        <time>2014-02-12T12:35:33Z</time>
      </trkpt>
      <trkpt lat="48.48912" lon="-2.84169">
        <ele>92</ele>
        <time>2014-02-12T12:35:36Z</time>
      </trkpt>
      <trkpt lat="48.4891" lon="-2.84168">
        <ele>92</ele>
        <time>2014-02-12T12:35:38Z</time>
      </trkpt>
      <trkpt lat="48.48907" lon="-2.84167">
        <ele>92</ele>
        <time>2014-02-12T12:35:40Z</time>
      </trkpt>
      <trkpt lat="48.48905" lon="-2.84167">
        <ele>92</ele>
        <time>2014-02-12T12:35:42Z</time>
      </trkpt>
      <trkpt lat="48.48903" lon="-2.84166">
        <ele>91</ele>
        <time>2014-02-12T12:35:44Z</time>
      </trkpt>
      <trkpt lat="48.48899" lon="-2.84163">
        <ele>91</ele>
        <time>2014-02-12T12:35:47Z</time>
      </trkpt>
      <trkpt lat="48.48897" lon="-2.84162">
        <ele>90</ele>
        <time>2014-02-12T12:35:49Z</time>
      </trkpt>
      <trkpt lat="48.48894" lon="-2.84161">
        <ele>90</ele>
        <time>2014-02-12T12:35:51Z</time>
      </trkpt>
      <trkpt lat="48.48891" lon="-2.84159">
        <ele>89</ele>
        <time>2014-02-12T12:35:54Z</time>
      </trkpt>
      <trkpt lat="48.48888" lon="-2.84158">
        <ele>89</ele>
        <time>2014-02-12T12:35:56Z</time>
      </trkpt>
      <trkpt lat="48.48885" lon="-2.84156">
        <ele>89</ele>
        <time>2014-02-12T12:35:58Z</time>
      </trkpt>
      <trkpt lat="48.48883" lon="-2.84155">
        <ele>88</ele>
        <time>2014-02-12T12:36:00Z</time>
      </trkpt>
      <trkpt lat="48.4888" lon="-2.84154">
        <ele>88</ele>
        <time>2014-02-12T12:36:02Z</time>
      </trkpt>
      <trkpt lat="48.48877" lon="-2.84154">
        <ele>88</ele>
        <time>2014-02-12T12:36:04Z</time>
      </trkpt>
      <trkpt lat="48.48874" lon="-2.84153">
        <ele>87</ele>
        <time>2014-02-12T12:36:06Z</time>
      </trkpt>
      <trkpt lat="48.48872" lon="-2.84151">
        <ele>87</ele>
        <time>2014-02-12T12:36:08Z</time>
      </trkpt>
      <trkpt lat="48.48869" lon="-2.84148">
        <ele>86</ele>
        <time>2014-02-12T12:36:10Z</time>
      </trkpt>
      <trkpt lat="48.48866" lon="-2.84147">
        <ele>86</ele>
        <time>2014-02-12T12:36:12Z</time>
      </trkpt>
      <trkpt lat="48.48864" lon="-2.84145">
        <ele>85</ele>
        <time>2014-02-12T12:36:14Z</time>
      </trkpt>
      <trkpt lat="48.48862" lon="-2.84143">
        <ele>84</ele>
        <time>2014-02-12T12:36:16Z</time>
      </trkpt>
      <trkpt lat="48.48859" lon="-2.84141">
        <ele>83</ele>
        <time>2014-02-12T12:36:18Z</time>
      </trkpt>
      <trkpt lat="48.48857" lon="-2.8414">
        <ele>83</ele>
        <time>2014-02-12T12:36:20Z</time>
      </trkpt>
      <trkpt lat="48.48854" lon="-2.84138">
        <ele>83</ele>
        <time>2014-02-12T12:36:22Z</time>
      </trkpt>
      <trkpt lat="48.48851" lon="-2.84137">
        <ele>83</ele>
        <time>2014-02-12T12:36:24Z</time>
      </trkpt>
      <trkpt lat="48.48848" lon="-2.84137">
        <ele>83</ele>
        <time>2014-02-12T12:36:26Z</time>
      </trkpt>
      <trkpt lat="48.48845" lon="-2.84134">
        <ele>83</ele>
        <time>2014-02-12T12:36:29Z</time>
      </trkpt>
      <trkpt lat="48.48842" lon="-2.84133">
        <ele>83</ele>
        <time>2014-02-12T12:36:31Z</time>
      </trkpt>
      <trkpt lat="48.4884" lon="-2.84131">
        <ele>83</ele>
        <time>2014-02-12T12:36:33Z</time>
      </trkpt>
      <trkpt lat="48.48837" lon="-2.8413">
        <ele>83</ele>
        <time>2014-02-12T12:36:35Z</time>
      </trkpt>
      <trkpt lat="48.48834" lon="-2.8413">
        <ele>82</ele>
        <time>2014-02-12T12:36:37Z</time>
      </trkpt>
      <trkpt lat="48.48832" lon="-2.84128">
        <ele>82</ele>
        <time>2014-02-12T12:36:39Z</time>
      </trkpt>
      <trkpt lat="48.4883" lon="-2.84127">
        <ele>82</ele>
        <time>2014-02-12T12:36:41Z</time>
      </trkpt>
      <trkpt lat="48.48827" lon="-2.84125">
        <ele>81</ele>
        <time>2014-02-12T12:36:43Z</time>
      </trkpt>
      <trkpt lat="48.48825" lon="-2.84123">
        <ele>81</ele>
        <time>2014-02-12T12:36:45Z</time>
      </trkpt>
      <trkpt lat="48.48822" lon="-2.84122">
        <ele>81</ele>
        <time>2014-02-12T12:36:47Z</time>
      </trkpt>
      <trkpt lat="48.48819" lon="-2.84121">
        <ele>81</ele>
        <time>2014-02-12T12:36:49Z</time>
      </trkpt>
      <trkpt lat="48.48817" lon="-2.8412">
        <ele>81</ele>
        <time>2014-02-12T12:36:51Z</time>
      </trkpt>
      <trkpt lat="48.48813" lon="-2.84121">
        <ele>81</ele>
        <time>2014-02-12T12:36:53Z</time>
      </trkpt>
      <trkpt lat="48.4881" lon="-2.8412">
        <ele>81</ele>
        <time>2014-02-12T12:36:55Z</time>
      </trkpt>
      <trkpt lat="48.48807" lon="-2.84118">
        <ele>81</ele>
        <time>2014-02-12T12:36:57Z</time>
      </trkpt>
      <trkpt lat="48.48804" lon="-2.84118">
        <ele>81</ele>
        <time>2014-02-12T12:36:59Z</time>
      </trkpt>
      <trkpt lat="48.48801" lon="-2.84117">
        <ele>81</ele>
        <time>2014-02-12T12:37:01Z</time>
      </trkpt>
      <trkpt lat="48.48798" lon="-2.84115">
        <ele>81</ele>
        <time>2014-02-12T12:37:03Z</time>
      </trkpt>
      <trkpt lat="48.48794" lon="-2.84114">
        <ele>82</ele>
        <time>2014-02-12T12:37:05Z</time>
      </trkpt>
      <trkpt lat="48.4879" lon="-2.84111">
        <ele>85</ele>
        <time>2014-02-12T12:37:08Z</time>
      </trkpt>
      <trkpt lat="48.48788" lon="-2.84107">
        <ele>87</ele>
        <time>2014-02-12T12:37:10Z</time>
      </trkpt>
      <trkpt lat="48.48785" lon="-2.84104">
        <ele>89</ele>
        <time>2014-02-12T12:37:12Z</time>
      </trkpt>
      <trkpt lat="48.48782" lon="-2.841">
        <ele>90</ele>
        <time>2014-02-12T12:37:14Z</time>
      </trkpt>
      <trkpt lat="48.4878" lon="-2.84096">
        <ele>92</ele>
        <time>2014-02-12T12:37:16Z</time>
      </trkpt>
      <trkpt lat="48.48778" lon="-2.84092">
        <ele>93</ele>
        <time>2014-02-12T12:37:18Z</time>
      </trkpt>
      <trkpt lat="48.48776" lon="-2.8409">
        <ele>93</ele>
        <time>2014-02-12T12:37:20Z</time>
      </trkpt>
      <trkpt lat="48.48772" lon="-2.84087">
        <ele>93</ele>
        <time>2014-02-12T12:37:23Z</time>
      </trkpt>
      <trkpt lat="48.4877" lon="-2.84085">
        <ele>93</ele>
        <time>2014-02-12T12:37:25Z</time>
      </trkpt>
      <trkpt lat="48.48767" lon="-2.84084">
        <ele>93</ele>
        <time>2014-02-12T12:37:27Z</time>
      </trkpt>
      <trkpt lat="48.48764" lon="-2.84083">
        <ele>93</ele>
        <time>2014-02-12T12:37:29Z</time>
      </trkpt>
      <trkpt lat="48.48761" lon="-2.84082">
        <ele>93</ele>
        <time>2014-02-12T12:37:31Z</time>
      </trkpt>
      <trkpt lat="48.48759" lon="-2.84081">
        <ele>93</ele>
        <time>2014-02-12T12:37:33Z</time>
      </trkpt>
      <trkpt lat="48.48756" lon="-2.8408">
        <ele>93</ele>
        <time>2014-02-12T12:37:35Z</time>
      </trkpt>
      <trkpt lat="48.48754" lon="-2.8408">
        <ele>93</ele>
        <time>2014-02-12T12:37:37Z</time>
      </trkpt>
      <trkpt lat="48.48751" lon="-2.84079">
        <ele>93</ele>
        <time>2014-02-12T12:37:39Z</time>
      </trkpt>
      <trkpt lat="48.48746" lon="-2.8408">
        <ele>93</ele>
        <time>2014-02-12T12:37:42Z</time>
      </trkpt>
      <trkpt lat="48.48743" lon="-2.8408">
        <ele>93</ele>
        <time>2014-02-12T12:37:44Z</time>
      </trkpt>
      <trkpt lat="48.4874" lon="-2.8408">
        <ele>93</ele>
        <time>2014-02-12T12:37:46Z</time>
      </trkpt>
      <trkpt lat="48.48736" lon="-2.84081">
        <ele>93</ele>
        <time>2014-02-12T12:37:48Z</time>
      </trkpt>
      <trkpt lat="48.4873" lon="-2.84082">
        <ele>93</ele>
        <time>2014-02-12T12:37:51Z</time>
      </trkpt>
      <trkpt lat="48.48727" lon="-2.84079">
        <ele>93</ele>
        <time>2014-02-12T12:37:53Z</time>
      </trkpt>
      <trkpt lat="48.48724" lon="-2.84076">
        <ele>93</ele>
        <time>2014-02-12T12:37:55Z</time>
      </trkpt>
      <trkpt lat="48.48721" lon="-2.84072">
        <ele>93</ele>
        <time>2014-02-12T12:37:58Z</time>
      </trkpt>
      <trkpt lat="48.48718" lon="-2.8407">
        <ele>93</ele>
        <time>2014-02-12T12:38:00Z</time>
      </trkpt>
      <trkpt lat="48.48715" lon="-2.84064">
        <ele>93</ele>
        <time>2014-02-12T12:38:03Z</time>
      </trkpt>
      <trkpt lat="48.48712" lon="-2.84062">
        <ele>93</ele>
        <time>2014-02-12T12:38:05Z</time>
      </trkpt>
      <trkpt lat="48.48709" lon="-2.8406">
        <ele>93</ele>
        <time>2014-02-12T12:38:07Z</time>
      </trkpt>
      <trkpt lat="48.48705" lon="-2.84055">
        <ele>93</ele>
        <time>2014-02-12T12:38:11Z</time>
      </trkpt>
      <trkpt lat="48.48703" lon="-2.84052">
        <ele>94</ele>
        <time>2014-02-12T12:38:13Z</time>
      </trkpt>
      <trkpt lat="48.487" lon="-2.84048">
        <ele>95</ele>
        <time>2014-02-12T12:38:16Z</time>
      </trkpt>
      <trkpt lat="48.48698" lon="-2.84047">
        <ele>95</ele>
        <time>2014-02-12T12:38:18Z</time>
      </trkpt>
      <trkpt lat="48.48695" lon="-2.84044">
        <ele>97</ele>
        <time>2014-02-12T12:38:21Z</time>
      </trkpt>
      <trkpt lat="48.48693" lon="-2.84039">
        <ele>98</ele>
        <time>2014-02-12T12:38:23Z</time>
      </trkpt>
      <trkpt lat="48.48691" lon="-2.84034">
        <ele>100</ele>
        <time>2014-02-12T12:38:26Z</time>
      </trkpt>
      <trkpt lat="48.48689" lon="-2.84032">
        <ele>101</ele>
        <time>2014-02-12T12:38:28Z</time>
      </trkpt>
      <trkpt lat="48.48685" lon="-2.84027">
        <ele>103</ele>
        <time>2014-02-12T12:38:31Z</time>
      </trkpt>
      <trkpt lat="48.48683" lon="-2.84025">
        <ele>104</ele>
        <time>2014-02-12T12:38:33Z</time>
      </trkpt>
      <trkpt lat="48.48679" lon="-2.8402">
        <ele>105</ele>
        <time>2014-02-12T12:38:37Z</time>
      </trkpt>
      <trkpt lat="48.48678" lon="-2.84018">
        <ele>106</ele>
        <time>2014-02-12T12:38:39Z</time>
      </trkpt>
      <trkpt lat="48.48674" lon="-2.84012">
        <ele>106</ele>
        <time>2014-02-12T12:38:43Z</time>
      </trkpt>
      <trkpt lat="48.48673" lon="-2.8401">
        <ele>106</ele>
        <time>2014-02-12T12:38:45Z</time>
      </trkpt>
      <trkpt lat="48.48671" lon="-2.84007">
        <ele>106</ele>
        <time>2014-02-12T12:38:47Z</time>
      </trkpt>
      <trkpt lat="48.48669" lon="-2.84004">
        <ele>106</ele>
        <time>2014-02-12T12:38:49Z</time>
      </trkpt>
      <trkpt lat="48.48666" lon="-2.84001">
        <ele>106</ele>
        <time>2014-02-12T12:38:51Z</time>
      </trkpt>
      <trkpt lat="48.48664" lon="-2.83999">
        <ele>107</ele>
        <time>2014-02-12T12:38:53Z</time>
      </trkpt>
      <trkpt lat="48.48663" lon="-2.83996">
        <ele>107</ele>
        <time>2014-02-12T12:38:55Z</time>
      </trkpt>
      <trkpt lat="48.4866" lon="-2.83993">
        <ele>107</ele>
        <time>2014-02-12T12:38:57Z</time>
      </trkpt>
      <trkpt lat="48.48657" lon="-2.8399">
        <ele>107</ele>
        <time>2014-02-12T12:39:00Z</time>
      </trkpt>
      <trkpt lat="48.48655" lon="-2.83987">
        <ele>107</ele>
        <time>2014-02-12T12:39:02Z</time>
      </trkpt>
      <trkpt lat="48.48652" lon="-2.83986">
        <ele>107</ele>
        <time>2014-02-12T12:39:04Z</time>
      </trkpt>
      <trkpt lat="48.48649" lon="-2.83984">
        <ele>107</ele>
        <time>2014-02-12T12:39:07Z</time>
      </trkpt>
      <trkpt lat="48.48647" lon="-2.83982">
        <ele>107</ele>
        <time>2014-02-12T12:39:09Z</time>
      </trkpt>
      <trkpt lat="48.48643" lon="-2.8398">
        <ele>107</ele>
        <time>2014-02-12T12:39:12Z</time>
      </trkpt>
      <trkpt lat="48.48641" lon="-2.83979">
        <ele>107</ele>
        <time>2014-02-12T12:39:14Z</time>
      </trkpt>
      <trkpt lat="48.48638" lon="-2.83977">
        <ele>107</ele>
        <time>2014-02-12T12:39:16Z</time>
      </trkpt>
      <trkpt lat="48.48635" lon="-2.83975">
        <ele>107</ele>
        <time>2014-02-12T12:39:18Z</time>
      </trkpt>
      <trkpt lat="48.48632" lon="-2.83973">
        <ele>107</ele>
        <time>2014-02-12T12:39:20Z</time>
      </trkpt>
      <trkpt lat="48.4863" lon="-2.83973">
        <ele>107</ele>
        <time>2014-02-12T12:39:22Z</time>
      </trkpt>
      <trkpt lat="48.48627" lon="-2.83972">
        <ele>106</ele>
        <time>2014-02-12T12:39:24Z</time>
      </trkpt>
      <trkpt lat="48.48624" lon="-2.8397">
        <ele>106</ele>
        <time>2014-02-12T12:39:26Z</time>
      </trkpt>
      <trkpt lat="48.4862" lon="-2.83968">
        <ele>106</ele>
        <time>2014-02-12T12:39:28Z</time>
      </trkpt>
      <trkpt lat="48.48619" lon="-2.83966">
        <ele>106</ele>
        <time>2014-02-12T12:39:30Z</time>
      </trkpt>
      <trkpt lat="48.48617" lon="-2.83963">
        <ele>106</ele>
        <time>2014-02-12T12:39:32Z</time>
      </trkpt>
      <trkpt lat="48.48615" lon="-2.83961">
        <ele>105</ele>
        <time>2014-02-12T12:39:34Z</time>
      </trkpt>
      <trkpt lat="48.48613" lon="-2.83958">
        <ele>104</ele>
        <time>2014-02-12T12:39:36Z</time>
      </trkpt>
      <trkpt lat="48.48611" lon="-2.83957">
        <ele>103</ele>
        <time>2014-02-12T12:39:38Z</time>
      </trkpt>
      <trkpt lat="48.48607" lon="-2.83951">
        <ele>101</ele>
        <time>2014-02-12T12:39:41Z</time>
      </trkpt>
      <trkpt lat="48.48605" lon="-2.83949">
        <ele>100</ele>
        <time>2014-02-12T12:39:43Z</time>
      </trkpt>
      <trkpt lat="48.48602" lon="-2.83948">
        <ele>97</ele>
        <time>2014-02-12T12:39:47Z</time>
      </trkpt>
      <trkpt lat="48.486" lon="-2.83947">
        <ele>96</ele>
        <time>2014-02-12T12:39:49Z</time>
      </trkpt>
      <trkpt lat="48.48597" lon="-2.83946">
        <ele>96</ele>
        <time>2014-02-12T12:39:51Z</time>
      </trkpt>
      <trkpt lat="48.48592" lon="-2.83944">
        <ele>95</ele>
        <time>2014-02-12T12:39:54Z</time>
      </trkpt>
      <trkpt lat="48.48588" lon="-2.83943">
        <ele>94</ele>
        <time>2014-02-12T12:39:57Z</time>
      </trkpt>
      <trkpt lat="48.48584" lon="-2.83941">
        <ele>93</ele>
        <time>2014-02-12T12:40:00Z</time>
      </trkpt>
      <trkpt lat="48.48582" lon="-2.83938">
        <ele>93</ele>
        <time>2014-02-12T12:40:02Z</time>
      </trkpt>
      <trkpt lat="48.48575" lon="-2.83938">
        <ele>93</ele>
        <time>2014-02-12T12:40:05Z</time>
      </trkpt>
      <trkpt lat="48.48571" lon="-2.83938">
        <ele>93</ele>
        <time>2014-02-12T12:40:07Z</time>
      </trkpt>
      <trkpt lat="48.48565" lon="-2.83938">
        <ele>93</ele>
        <time>2014-02-12T12:40:10Z</time>
      </trkpt>
      <trkpt lat="48.48561" lon="-2.83937">
        <ele>93</ele>
        <time>2014-02-12T12:40:12Z</time>
      </trkpt>
      <trkpt lat="48.48559" lon="-2.83935">
        <ele>93</ele>
        <time>2014-02-12T12:40:14Z</time>
      </trkpt>
      <trkpt lat="48.48555" lon="-2.83933">
        <ele>93</ele>
        <time>2014-02-12T12:40:17Z</time>
      </trkpt>
      <trkpt lat="48.48552" lon="-2.83931">
        <ele>92</ele>
        <time>2014-02-12T12:40:19Z</time>
      </trkpt>
      <trkpt lat="48.48549" lon="-2.83927">
        <ele>90</ele>
        <time>2014-02-12T12:40:22Z</time>
      </trkpt>
      <trkpt lat="48.48545" lon="-2.83924">
        <ele>88</ele>
        <time>2014-02-12T12:40:25Z</time>
      </trkpt>
      <trkpt lat="48.48541" lon="-2.83923">
        <ele>87</ele>
        <time>2014-02-12T12:40:27Z</time>
      </trkpt>
      <trkpt lat="48.48537" lon="-2.83922">
        <ele>86</ele>
        <time>2014-02-12T12:40:30Z</time>
      </trkpt>
      <trkpt lat="48.48533" lon="-2.8392">
        <ele>86</ele>
        <time>2014-02-12T12:40:32Z</time>
      </trkpt>
      <trkpt lat="48.48528" lon="-2.83919">
        <ele>86</ele>
        <time>2014-02-12T12:40:35Z</time>
      </trkpt>
      <trkpt lat="48.48526" lon="-2.83917">
        <ele>86</ele>
        <time>2014-02-12T12:40:37Z</time>
      </trkpt>
      <trkpt lat="48.48521" lon="-2.83912">
        <ele>86</ele>
        <time>2014-02-12T12:40:41Z</time>
      </trkpt>
      <trkpt lat="48.48518" lon="-2.83911">
        <ele>86</ele>
        <time>2014-02-12T12:40:43Z</time>
      </trkpt>
      <trkpt lat="48.48515" lon="-2.8391">
        <ele>86</ele>
        <time>2014-02-12T12:40:45Z</time>
      </trkpt>
      <trkpt lat="48.48513" lon="-2.83909">
        <ele>86</ele>
        <time>2014-02-12T12:40:47Z</time>
      </trkpt>
      <trkpt lat="48.48511" lon="-2.83908">
        <ele>86</ele>
        <time>2014-02-12T12:40:49Z</time>
      </trkpt>
      <trkpt lat="48.48507" lon="-2.83906">
        <ele>86</ele>
        <time>2014-02-12T12:40:52Z</time>
      </trkpt>
      <trkpt lat="48.48504" lon="-2.83903">
        <ele>86</ele>
        <time>2014-02-12T12:40:55Z</time>
      </trkpt>
      <trkpt lat="48.48501" lon="-2.83901">
        <ele>86</ele>
        <time>2014-02-12T12:40:58Z</time>
      </trkpt>
      <trkpt lat="48.48496" lon="-2.839">
        <ele>86</ele>
        <time>2014-02-12T12:41:01Z</time>
      </trkpt>
      <trkpt lat="48.48493" lon="-2.83899">
        <ele>86</ele>
        <time>2014-02-12T12:41:03Z</time>
      </trkpt>
      <trkpt lat="48.48489" lon="-2.83896">
        <ele>86</ele>
        <time>2014-02-12T12:41:06Z</time>
      </trkpt>
      <trkpt lat="48.48487" lon="-2.83893">
        <ele>86</ele>
        <time>2014-02-12T12:41:08Z</time>
      </trkpt>
      <trkpt lat="48.48484" lon="-2.83892">
        <ele>86</ele>
        <time>2014-02-12T12:41:10Z</time>
      </trkpt>
      <trkpt lat="48.4848" lon="-2.83889">
        <ele>86</ele>
        <time>2014-02-12T12:41:14Z</time>
      </trkpt>
      <trkpt lat="48.48476" lon="-2.83886">
        <ele>86</ele>
        <time>2014-02-12T12:41:17Z</time>
      </trkpt>
      <trkpt lat="48.48472" lon="-2.83886">
        <ele>86</ele>
        <time>2014-02-12T12:41:19Z</time>
      </trkpt>
      <trkpt lat="48.48469" lon="-2.83886">
        <ele>86</ele>
        <time>2014-02-12T12:41:21Z</time>
      </trkpt>
      <trkpt lat="48.48466" lon="-2.83885">
        <ele>86</ele>
        <time>2014-02-12T12:41:23Z</time>
      </trkpt>
      <trkpt lat="48.48463" lon="-2.83882">
        <ele>86</ele>
        <time>2014-02-12T12:41:25Z</time>
      </trkpt>
      <trkpt lat="48.48459" lon="-2.83879">
        <ele>86</ele>
        <time>2014-02-12T12:41:28Z</time>
      </trkpt>
      <trkpt lat="48.48456" lon="-2.83877">
        <ele>86</ele>
        <time>2014-02-12T12:41:31Z</time>
      </trkpt>
      <trkpt lat="48.48452" lon="-2.83875">
        <ele>86</ele>
        <time>2014-02-12T12:41:34Z</time>
      </trkpt>
      <trkpt lat="48.48448" lon="-2.83874">
        <ele>88</ele>
        <time>2014-02-12T12:41:37Z</time>
      </trkpt>
      <trkpt lat="48.48445" lon="-2.83871">
        <ele>89</ele>
        <time>2014-02-12T12:41:40Z</time>
      </trkpt>
      <trkpt lat="48.48442" lon="-2.83869">
        <ele>89</ele>
        <time>2014-02-12T12:41:42Z</time>
      </trkpt>
      <trkpt lat="48.48438" lon="-2.83867">
        <ele>89</ele>
        <time>2014-02-12T12:41:45Z</time>
      </trkpt>
      <trkpt lat="48.48436" lon="-2.83865">
        <ele>89</ele>
        <time>2014-02-12T12:41:47Z</time>
      </trkpt>
      <trkpt lat="48.48431" lon="-2.83861">
        <ele>89</ele>
        <time>2014-02-12T12:41:50Z</time>
      </trkpt>
      <trkpt lat="48.48428" lon="-2.83858">
        <ele>89</ele>
        <time>2014-02-12T12:41:52Z</time>
      </trkpt>
      <trkpt lat="48.48425" lon="-2.83854">
        <ele>89</ele>
        <time>2014-02-12T12:41:54Z</time>
      </trkpt>
      <trkpt lat="48.4842" lon="-2.83851">
        <ele>89</ele>
        <time>2014-02-12T12:41:57Z</time>
      </trkpt>
      <trkpt lat="48.48418" lon="-2.83847">
        <ele>89</ele>
        <time>2014-02-12T12:41:59Z</time>
      </trkpt>
      <trkpt lat="48.48415" lon="-2.83844">
        <ele>90</ele>
        <time>2014-02-12T12:42:02Z</time>
      </trkpt>
      <trkpt lat="48.4841" lon="-2.83843">
        <ele>92</ele>
        <time>2014-02-12T12:42:05Z</time>
      </trkpt>
      <trkpt lat="48.48407" lon="-2.83841">
        <ele>94</ele>
        <time>2014-02-12T12:42:07Z</time>
      </trkpt>
      <trkpt lat="48.48403" lon="-2.83835">
        <ele>96</ele>
        <time>2014-02-12T12:42:11Z</time>
      </trkpt>
      <trkpt lat="48.484" lon="-2.83831">
        <ele>96</ele>
        <time>2014-02-12T12:42:14Z</time>
      </trkpt>
      <trkpt lat="48.48397" lon="-2.83829">
        <ele>96</ele>
        <time>2014-02-12T12:42:16Z</time>
      </trkpt>
      <trkpt lat="48.48394" lon="-2.83826">
        <ele>96</ele>
        <time>2014-02-12T12:42:19Z</time>
      </trkpt>
      <trkpt lat="48.48392" lon="-2.83822">
        <ele>96</ele>
        <time>2014-02-12T12:42:22Z</time>
      </trkpt>
      <trkpt lat="48.48388" lon="-2.83816">
        <ele>95</ele>
        <time>2014-02-12T12:42:26Z</time>
      </trkpt>
      <trkpt lat="48.48385" lon="-2.83812">
        <ele>93</ele>
        <time>2014-02-12T12:42:29Z</time>
      </trkpt>
      <trkpt lat="48.48382" lon="-2.8381">
        <ele>93</ele>
        <time>2014-02-12T12:42:31Z</time>
      </trkpt>
      <trkpt lat="48.4838" lon="-2.83808">
        <ele>92</ele>
        <time>2014-02-12T12:42:33Z</time>
      </trkpt>
      <trkpt lat="48.48377" lon="-2.83807">
        <ele>91</ele>
        <time>2014-02-12T12:42:35Z</time>
      </trkpt>
      <trkpt lat="48.48375" lon="-2.83804">
        <ele>91</ele>
        <time>2014-02-12T12:42:37Z</time>
      </trkpt>
      <trkpt lat="48.4837" lon="-2.83801">
        <ele>90</ele>
        <time>2014-02-12T12:42:40Z</time>
      </trkpt>
      <trkpt lat="48.48366" lon="-2.838">
        <ele>90</ele>
        <time>2014-02-12T12:42:42Z</time>
      </trkpt>
      <trkpt lat="48.48362" lon="-2.838">
        <ele>90</ele>
        <time>2014-02-12T12:42:45Z</time>
      </trkpt>
      <trkpt lat="48.48359" lon="-2.838">
        <ele>90</ele>
        <time>2014-02-12T12:42:47Z</time>
      </trkpt>
      <trkpt lat="48.48355" lon="-2.838">
        <ele>90</ele>
        <time>2014-02-12T12:42:50Z</time>
      </trkpt>
      <trkpt lat="48.48352" lon="-2.83797">
        <ele>90</ele>
        <time>2014-02-12T12:42:52Z</time>
      </trkpt>
      <trkpt lat="48.4835" lon="-2.83795">
        <ele>90</ele>
        <time>2014-02-12T12:42:54Z</time>
      </trkpt>
      <trkpt lat="48.48347" lon="-2.83794">
        <ele>90</ele>
        <time>2014-02-12T12:42:56Z</time>
      </trkpt>
      <trkpt lat="48.48344" lon="-2.83793">
        <ele>90</ele>
        <time>2014-02-12T12:42:59Z</time>
      </trkpt>
      <trkpt lat="48.48342" lon="-2.83792">
        <ele>90</ele>
        <time>2014-02-12T12:43:01Z</time>
      </trkpt>
      <trkpt lat="48.48338" lon="-2.83791">
        <ele>90</ele>
        <time>2014-02-12T12:43:03Z</time>
      </trkpt>
      <trkpt lat="48.48335" lon="-2.83791">
        <ele>90</ele>
        <time>2014-02-12T12:43:05Z</time>
      </trkpt>
      <trkpt lat="48.48331" lon="-2.83791">
        <ele>90</ele>
        <time>2014-02-12T12:43:07Z</time>
      </trkpt>
      <trkpt lat="48.48327" lon="-2.83789">
        <ele>90</ele>
        <time>2014-02-12T12:43:10Z</time>
      </trkpt>
      <trkpt lat="48.48325" lon="-2.83787">
        <ele>90</ele>
        <time>2014-02-12T12:43:12Z</time>
      </trkpt>
      <trkpt lat="48.48322" lon="-2.83786">
        <ele>90</ele>
        <time>2014-02-12T12:43:14Z</time>
      </trkpt>
      <trkpt lat="48.48319" lon="-2.83784">
        <ele>90</ele>
        <time>2014-02-12T12:43:16Z</time>
      </trkpt>
      <trkpt lat="48.48317" lon="-2.83782">
        <ele>90</ele>
        <time>2014-02-12T12:43:18Z</time>
      </trkpt>
      <trkpt lat="48.48315" lon="-2.8378">
        <ele>90</ele>
        <time>2014-02-12T12:43:20Z</time>
      </trkpt>
      <trkpt lat="48.48312" lon="-2.83776">
        <ele>90</ele>
        <time>2014-02-12T12:43:23Z</time>
      </trkpt>
      <trkpt lat="48.48308" lon="-2.83774">
        <ele>90</ele>
        <time>2014-02-12T12:43:26Z</time>
      </trkpt>
      <trkpt lat="48.48305" lon="-2.83771">
        <ele>88</ele>
        <time>2014-02-12T12:43:29Z</time>
      </trkpt>
      <trkpt lat="48.483" lon="-2.83772">
        <ele>86</ele>
        <time>2014-02-12T12:43:32Z</time>
      </trkpt>
      <trkpt lat="48.48297" lon="-2.83774">
        <ele>85</ele>
        <time>2014-02-12T12:43:34Z</time>
      </trkpt>
      <trkpt lat="48.48291" lon="-2.83777">
        <ele>85</ele>
        <time>2014-02-12T12:43:37Z</time>
      </trkpt>
      <trkpt lat="48.48288" lon="-2.83779">
        <ele>85</ele>
        <time>2014-02-12T12:43:39Z</time>
      </trkpt>
      <trkpt lat="48.48284" lon="-2.83783">
        <ele>85</ele>
        <time>2014-02-12T12:43:42Z</time>
      </trkpt>
      <trkpt lat="48.48282" lon="-2.83786">
        <ele>85</ele>
        <time>2014-02-12T12:43:44Z</time>
      </trkpt>
      <trkpt lat="48.48279" lon="-2.83789">
        <ele>85</ele>
        <time>2014-02-12T12:43:47Z</time>
      </trkpt>
      <trkpt lat="48.48277" lon="-2.83792">
        <ele>85</ele>
        <time>2014-02-12T12:43:49Z</time>
      </trkpt>
      <trkpt lat="48.48273" lon="-2.83797">
        <ele>85</ele>
        <time>2014-02-12T12:43:52Z</time>
      </trkpt>
      <trkpt lat="48.48271" lon="-2.838">
        <ele>85</ele>
        <time>2014-02-12T12:43:54Z</time>
      </trkpt>
      <trkpt lat="48.48267" lon="-2.83804">
        <ele>85</ele>
        <time>2014-02-12T12:43:57Z</time>
      </trkpt>
      <trkpt lat="48.48264" lon="-2.83809">
        <ele>85</ele>
        <time>2014-02-12T12:43:59Z</time>
      </trkpt>
      <trkpt lat="48.48259" lon="-2.83814">
        <ele>86</ele>
        <time>2014-02-12T12:44:03Z</time>
      </trkpt>
      <trkpt lat="48.48257" lon="-2.83815">
        <ele>86</ele>
        <time>2014-02-12T12:44:05Z</time>
      </trkpt>
      <trkpt lat="48.48254" lon="-2.83817">
        <ele>86</ele>
        <time>2014-02-12T12:44:08Z</time>
      </trkpt>
      <trkpt lat="48.48251" lon="-2.83819">
        <ele>86</ele>
        <time>2014-02-12T12:44:10Z</time>
      </trkpt>
      <trkpt lat="48.48247" lon="-2.83824">
        <ele>86</ele>
        <time>2014-02-12T12:44:13Z</time>
      </trkpt>
      <trkpt lat="48.48244" lon="-2.83827">
        <ele>86</ele>
        <time>2014-02-12T12:44:15Z</time>
      </trkpt>
      <trkpt lat="48.48239" lon="-2.8383">
        <ele>86</ele>
        <time>2014-02-12T12:44:18Z</time>
      </trkpt>
      <trkpt lat="48.48237" lon="-2.83831">
        <ele>86</ele>
        <time>2014-02-12T12:44:20Z</time>
      </trkpt>
      <trkpt lat="48.48235" lon="-2.83833">
        <ele>86</ele>
        <time>2014-02-12T12:44:22Z</time>
      </trkpt>
      <trkpt lat="48.48232" lon="-2.83833">
        <ele>86</ele>
        <time>2014-02-12T12:44:24Z</time>
      </trkpt>
      <trkpt lat="48.4823" lon="-2.83835">
        <ele>86</ele>
        <time>2014-02-12T12:44:26Z</time>
      </trkpt>
      <trkpt lat="48.48226" lon="-2.83841">
        <ele>86</ele>
        <time>2014-02-12T12:44:29Z</time>
      </trkpt>
      <trkpt lat="48.48223" lon="-2.83843">
        <ele>86</ele>
        <time>2014-02-12T12:44:31Z</time>
      </trkpt>
      <trkpt lat="48.4822" lon="-2.83845">
        <ele>86</ele>
        <time>2014-02-12T12:44:34Z</time>
      </trkpt>
      <trkpt lat="48.48218" lon="-2.83848">
        <ele>86</ele>
        <time>2014-02-12T12:44:36Z</time>
      </trkpt>
      <trkpt lat="48.48216" lon="-2.83849">
        <ele>86</ele>
        <time>2014-02-12T12:44:38Z</time>
      </trkpt>
      <trkpt lat="48.48213" lon="-2.83849">
        <ele>86</ele>
        <time>2014-02-12T12:44:40Z</time>
      </trkpt>
      <trkpt lat="48.4821" lon="-2.8385">
        <ele>86</ele>
        <time>2014-02-12T12:44:42Z</time>
      </trkpt>
      <trkpt lat="48.48206" lon="-2.83853">
        <ele>86</ele>
        <time>2014-02-12T12:44:44Z</time>
      </trkpt>
      <trkpt lat="48.48202" lon="-2.83857">
        <ele>86</ele>
        <time>2014-02-12T12:44:46Z</time>
      </trkpt>
      <trkpt lat="48.48197" lon="-2.8386">
        <ele>86</ele>
        <time>2014-02-12T12:44:49Z</time>
      </trkpt>
      <trkpt lat="48.48196" lon="-2.8386">
        <ele>86</ele>
        <time>2014-02-12T12:44:51Z</time>
      </trkpt>
      <trkpt lat="48.48192" lon="-2.83861">
        <ele>86</ele>
        <time>2014-02-12T12:44:54Z</time>
      </trkpt>
      <trkpt lat="48.48188" lon="-2.83863">
        <ele>86</ele>
        <time>2014-02-12T12:44:56Z</time>
      </trkpt>
      <trkpt lat="48.48184" lon="-2.83864">
        <ele>86</ele>
        <time>2014-02-12T12:44:59Z</time>
      </trkpt>
      <trkpt lat="48.48182" lon="-2.83866">
        <ele>86</ele>
        <time>2014-02-12T12:45:01Z</time>
      </trkpt>
      <trkpt lat="48.48178" lon="-2.83869">
        <ele>86</ele>
        <time>2014-02-12T12:45:04Z</time>
      </trkpt>
      <trkpt lat="48.48175" lon="-2.8387">
        <ele>86</ele>
        <time>2014-02-12T12:45:06Z</time>
      </trkpt>
      <trkpt lat="48.48171" lon="-2.83869">
        <ele>86</ele>
        <time>2014-02-12T12:45:09Z</time>
      </trkpt>
      <trkpt lat="48.48167" lon="-2.8387">
        <ele>86</ele>
        <time>2014-02-12T12:45:11Z</time>
      </trkpt>
      <trkpt lat="48.48163" lon="-2.8387">
        <ele>86</ele>
        <time>2014-02-12T12:45:14Z</time>
      </trkpt>
      <trkpt lat="48.48161" lon="-2.83869">
        <ele>86</ele>
        <time>2014-02-12T12:45:16Z</time>
      </trkpt>
      <trkpt lat="48.48159" lon="-2.83867">
        <ele>86</ele>
        <time>2014-02-12T12:45:18Z</time>
      </trkpt>
      <trkpt lat="48.48156" lon="-2.83867">
        <ele>86</ele>
        <time>2014-02-12T12:45:20Z</time>
      </trkpt>
      <trkpt lat="48.48154" lon="-2.83867">
        <ele>86</ele>
        <time>2014-02-12T12:45:22Z</time>
      </trkpt>
      <trkpt lat="48.48151" lon="-2.83867">
        <ele>86</ele>
        <time>2014-02-12T12:45:24Z</time>
      </trkpt>
      <trkpt lat="48.48148" lon="-2.83868">
        <ele>86</ele>
        <time>2014-02-12T12:45:26Z</time>
      </trkpt>
      <trkpt lat="48.48145" lon="-2.83868">
        <ele>86</ele>
        <time>2014-02-12T12:45:28Z</time>
      </trkpt>
      <trkpt lat="48.48143" lon="-2.83867">
        <ele>86</ele>
        <time>2014-02-12T12:45:30Z</time>
      </trkpt>
      <trkpt lat="48.4814" lon="-2.83867">
        <ele>86</ele>
        <time>2014-02-12T12:45:32Z</time>
      </trkpt>
      <trkpt lat="48.48137" lon="-2.83867">
        <ele>86</ele>
        <time>2014-02-12T12:45:34Z</time>
      </trkpt>
      <trkpt lat="48.48134" lon="-2.83867">
        <ele>86</ele>
        <time>2014-02-12T12:45:36Z</time>
      </trkpt>
      <trkpt lat="48.48131" lon="-2.83867">
        <ele>86</ele>
        <time>2014-02-12T12:45:38Z</time>
      </trkpt>
      <trkpt lat="48.48129" lon="-2.83866">
        <ele>86</ele>
        <time>2014-02-12T12:45:40Z</time>
      </trkpt>
      <trkpt lat="48.48126" lon="-2.83866">
        <ele>86</ele>
        <time>2014-02-12T12:45:42Z</time>
      </trkpt>
      <trkpt lat="48.48123" lon="-2.83866">
        <ele>86</ele>
        <time>2014-02-12T12:45:44Z</time>
      </trkpt>
      <trkpt lat="48.4812" lon="-2.83867">
        <ele>86</ele>
        <time>2014-02-12T12:45:46Z</time>
      </trkpt>
      <trkpt lat="48.48115" lon="-2.83869">
        <ele>86</ele>
        <time>2014-02-12T12:45:49Z</time>
      </trkpt>
      <trkpt lat="48.48112" lon="-2.83869">
        <ele>86</ele>
        <time>2014-02-12T12:45:51Z</time>
      </trkpt>
      <trkpt lat="48.48108" lon="-2.83869">
        <ele>86</ele>
        <time>2014-02-12T12:45:54Z</time>
      </trkpt>
      <trkpt lat="48.48105" lon="-2.83871">
        <ele>86</ele>
        <time>2014-02-12T12:45:56Z</time>
      </trkpt>
      <trkpt lat="48.48102" lon="-2.83873">
        <ele>86</ele>
        <time>2014-02-12T12:45:58Z</time>
      </trkpt>
      <trkpt lat="48.481" lon="-2.83873">
        <ele>86</ele>
        <time>2014-02-12T12:46:00Z</time>
      </trkpt>
      <trkpt lat="48.48097" lon="-2.83874">
        <ele>86</ele>
        <time>2014-02-12T12:46:02Z</time>
      </trkpt>
      <trkpt lat="48.48094" lon="-2.83874">
        <ele>86</ele>
        <time>2014-02-12T12:46:04Z</time>
      </trkpt>
      <trkpt lat="48.48091" lon="-2.83875">
        <ele>86</ele>
        <time>2014-02-12T12:46:06Z</time>
      </trkpt>
      <trkpt lat="48.48086" lon="-2.83877">
        <ele>86</ele>
        <time>2014-02-12T12:46:09Z</time>
      </trkpt>
      <trkpt lat="48.48083" lon="-2.83877">
        <ele>86</ele>
        <time>2014-02-12T12:46:11Z</time>
      </trkpt>
      <trkpt lat="48.48081" lon="-2.83879">
        <ele>86</ele>
        <time>2014-02-12T12:46:13Z</time>
      </trkpt>
      <trkpt lat="48.48078" lon="-2.83879">
        <ele>86</ele>
        <time>2014-02-12T12:46:15Z</time>
      </trkpt>
      <trkpt lat="48.48074" lon="-2.83879">
        <ele>86</ele>
        <time>2014-02-12T12:46:17Z</time>
      </trkpt>
      <trkpt lat="48.48071" lon="-2.8388">
        <ele>86</ele>
        <time>2014-02-12T12:46:19Z</time>
      </trkpt>
      <trkpt lat="48.48068" lon="-2.8388">
        <ele>86</ele>
        <time>2014-02-12T12:46:21Z</time>
      </trkpt>
      <trkpt lat="48.48066" lon="-2.83879">
        <ele>86</ele>
        <time>2014-02-12T12:46:23Z</time>
      </trkpt>
      <trkpt lat="48.48062" lon="-2.83879">
        <ele>86</ele>
        <time>2014-02-12T12:46:25Z</time>
      </trkpt>
      <trkpt lat="48.48059" lon="-2.83878">
        <ele>86</ele>
        <time>2014-02-12T12:46:27Z</time>
      </trkpt>
      <trkpt lat="48.48056" lon="-2.83877">
        <ele>86</ele>
        <time>2014-02-12T12:46:29Z</time>
      </trkpt>
      <trkpt lat="48.48054" lon="-2.83875">
        <ele>86</ele>
        <time>2014-02-12T12:46:31Z</time>
      </trkpt>
      <trkpt lat="48.48052" lon="-2.83873">
        <ele>87</ele>
        <time>2014-02-12T12:46:33Z</time>
      </trkpt>
      <trkpt lat="48.4805" lon="-2.83871">
        <ele>88</ele>
        <time>2014-02-12T12:46:35Z</time>
      </trkpt>
      <trkpt lat="48.48048" lon="-2.8387">
        <ele>89</ele>
        <time>2014-02-12T12:46:37Z</time>
      </trkpt>
      <trkpt lat="48.48047" lon="-2.83868">
        <ele>90</ele>
        <time>2014-02-12T12:46:39Z</time>
      </trkpt>
      <trkpt lat="48.48045" lon="-2.83866">
        <ele>91</ele>
        <time>2014-02-12T12:46:41Z</time>
      </trkpt>
      <trkpt lat="48.48044" lon="-2.83863">
        <ele>91</ele>
        <time>2014-02-12T12:46:43Z</time>
      </trkpt>
      <trkpt lat="48.48042" lon="-2.83861">
        <ele>92</ele>
        <time>2014-02-12T12:46:45Z</time>
      </trkpt>
      <trkpt lat="48.48039" lon="-2.83859">
        <ele>93</ele>
        <time>2014-02-12T12:46:47Z</time>
      </trkpt>
      <trkpt lat="48.48036" lon="-2.83859">
        <ele>93</ele>
        <time>2014-02-12T12:46:49Z</time>
      </trkpt>
      <trkpt lat="48.48032" lon="-2.83857">
        <ele>95</ele>
        <time>2014-02-12T12:46:51Z</time>
      </trkpt>
      <trkpt lat="48.48031" lon="-2.83857">
        <ele>99</ele>
        <time>2014-02-12T12:46:55Z</time>
      </trkpt>
      <trkpt lat="48.48029" lon="-2.83856">
        <ele>100</ele>
        <time>2014-02-12T12:46:58Z</time>
      </trkpt>
      <trkpt lat="48.48026" lon="-2.83856">
        <ele>101</ele>
        <time>2014-02-12T12:47:00Z</time>
      </trkpt>
      <trkpt lat="48.48024" lon="-2.83854">
        <ele>102</ele>
        <time>2014-02-12T12:47:02Z</time>
      </trkpt>
      <trkpt lat="48.48022" lon="-2.83852">
        <ele>103</ele>
        <time>2014-02-12T12:47:04Z</time>
      </trkpt>
      <trkpt lat="48.48019" lon="-2.83848">
        <ele>104</ele>
        <time>2014-02-12T12:47:07Z</time>
      </trkpt>
      <trkpt lat="48.48017" lon="-2.83846">
        <ele>104</ele>
        <time>2014-02-12T12:47:09Z</time>
      </trkpt>
      <trkpt lat="48.48014" lon="-2.83843">
        <ele>104</ele>
        <time>2014-02-12T12:47:11Z</time>
      </trkpt>
      <trkpt lat="48.48013" lon="-2.83841">
        <ele>104</ele>
        <time>2014-02-12T12:47:13Z</time>
      </trkpt>
      <trkpt lat="48.48011" lon="-2.83839">
        <ele>104</ele>
        <time>2014-02-12T12:47:15Z</time>
      </trkpt>
      <trkpt lat="48.48008" lon="-2.83837">
        <ele>104</ele>
        <time>2014-02-12T12:47:17Z</time>
      </trkpt>
      <trkpt lat="48.48006" lon="-2.83834">
        <ele>104</ele>
        <time>2014-02-12T12:47:19Z</time>
      </trkpt>
      <trkpt lat="48.48003" lon="-2.83832">
        <ele>104</ele>
        <time>2014-02-12T12:47:21Z</time>
      </trkpt>
      <trkpt lat="48.48" lon="-2.83829">
        <ele>104</ele>
        <time>2014-02-12T12:47:24Z</time>
      </trkpt>
      <trkpt lat="48.47998" lon="-2.83826">
        <ele>104</ele>
        <time>2014-02-12T12:47:26Z</time>
      </trkpt>
      <trkpt lat="48.47996" lon="-2.83824">
        <ele>104</ele>
        <time>2014-02-12T12:47:28Z</time>
      </trkpt>
      <trkpt lat="48.47993" lon="-2.83822">
        <ele>104</ele>
        <time>2014-02-12T12:47:30Z</time>
      </trkpt>
      <trkpt lat="48.47991" lon="-2.83821">
        <ele>104</ele>
        <time>2014-02-12T12:47:32Z</time>
      </trkpt>
      <trkpt lat="48.47989" lon="-2.83819">
        <ele>104</ele>
        <time>2014-02-12T12:47:34Z</time>
      </trkpt>
      <trkpt lat="48.47986" lon="-2.83818">
        <ele>104</ele>
        <time>2014-02-12T12:47:36Z</time>
      </trkpt>
      <trkpt lat="48.47983" lon="-2.8382">
        <ele>104</ele>
        <time>2014-02-12T12:47:38Z</time>
      </trkpt>
      <trkpt lat="48.47981" lon="-2.83822">
        <ele>104</ele>
        <time>2014-02-12T12:47:40Z</time>
      </trkpt>
      <trkpt lat="48.4798" lon="-2.83824">
        <ele>104</ele>
        <time>2014-02-12T12:47:42Z</time>
      </trkpt>
      <trkpt lat="48.4798" lon="-2.83827">
        <ele>104</ele>
        <time>2014-02-12T12:47:44Z</time>
      </trkpt>
      <trkpt lat="48.47979" lon="-2.83832">
        <ele>104</ele>
        <time>2014-02-12T12:47:47Z</time>
      </trkpt>
      <trkpt lat="48.47978" lon="-2.83836">
        <ele>104</ele>
        <time>2014-02-12T12:47:49Z</time>
      </trkpt>
      <trkpt lat="48.47977" lon="-2.8384">
        <ele>104</ele>
        <time>2014-02-12T12:47:51Z</time>
      </trkpt>
      <trkpt lat="48.47977" lon="-2.83843">
        <ele>104</ele>
        <time>2014-02-12T12:47:53Z</time>
      </trkpt>
      <trkpt lat="48.47976" lon="-2.83847">
        <ele>104</ele>
        <time>2014-02-12T12:47:55Z</time>
      </trkpt>
      <trkpt lat="48.47974" lon="-2.83851">
        <ele>104</ele>
        <time>2014-02-12T12:47:57Z</time>
      </trkpt>
      <trkpt lat="48.47973" lon="-2.83853">
        <ele>104</ele>
        <time>2014-02-12T12:47:59Z</time>
      </trkpt>
      <trkpt lat="48.47971" lon="-2.83856">
        <ele>104</ele>
        <time>2014-02-12T12:48:01Z</time>
      </trkpt>
      <trkpt lat="48.47969" lon="-2.8386">
        <ele>104</ele>
        <time>2014-02-12T12:48:03Z</time>
      </trkpt>
      <trkpt lat="48.47966" lon="-2.83863">
        <ele>104</ele>
        <time>2014-02-12T12:48:05Z</time>
      </trkpt>
      <trkpt lat="48.47963" lon="-2.83866">
        <ele>104</ele>
        <time>2014-02-12T12:48:07Z</time>
      </trkpt>
      <trkpt lat="48.47961" lon="-2.83868">
        <ele>104</ele>
        <time>2014-02-12T12:48:09Z</time>
      </trkpt>
      <trkpt lat="48.47958" lon="-2.83869">
        <ele>104</ele>
        <time>2014-02-12T12:48:11Z</time>
      </trkpt>
      <trkpt lat="48.47955" lon="-2.8387">
        <ele>104</ele>
        <time>2014-02-12T12:48:13Z</time>
      </trkpt>
      <trkpt lat="48.47953" lon="-2.83869">
        <ele>104</ele>
        <time>2014-02-12T12:48:15Z</time>
      </trkpt>
      <trkpt lat="48.4795" lon="-2.83867">
        <ele>104</ele>
        <time>2014-02-12T12:48:18Z</time>
      </trkpt>
      <trkpt lat="48.47946" lon="-2.83867">
        <ele>103</ele>
        <time>2014-02-12T12:48:20Z</time>
      </trkpt>
      <trkpt lat="48.47943" lon="-2.83867">
        <ele>103</ele>
        <time>2014-02-12T12:48:22Z</time>
      </trkpt>
      <trkpt lat="48.4794" lon="-2.83866">
        <ele>103</ele>
        <time>2014-02-12T12:48:24Z</time>
      </trkpt>
      <trkpt lat="48.47938" lon="-2.83866">
        <ele>103</ele>
        <time>2014-02-12T12:48:26Z</time>
      </trkpt>
      <trkpt lat="48.47935" lon="-2.83866">
        <ele>103</ele>
        <time>2014-02-12T12:48:28Z</time>
      </trkpt>
      <trkpt lat="48.47932" lon="-2.83867">
        <ele>103</ele>
        <time>2014-02-12T12:48:30Z</time>
      </trkpt>
      <trkpt lat="48.47929" lon="-2.83867">
        <ele>103</ele>
        <time>2014-02-12T12:48:32Z</time>
      </trkpt>
      <trkpt lat="48.47927" lon="-2.83867">
        <ele>103</ele>
        <time>2014-02-12T12:48:34Z</time>
      </trkpt>
      <trkpt lat="48.47924" lon="-2.83869">
        <ele>103</ele>
        <time>2014-02-12T12:48:36Z</time>
      </trkpt>
      <trkpt lat="48.47921" lon="-2.83869">
        <ele>103</ele>
        <time>2014-02-12T12:48:38Z</time>
      </trkpt>
      <trkpt lat="48.47918" lon="-2.8387">
        <ele>103</ele>
        <time>2014-02-12T12:48:40Z</time>
      </trkpt>
      <trkpt lat="48.47915" lon="-2.83871">
        <ele>103</ele>
        <time>2014-02-12T12:48:42Z</time>
      </trkpt>
      <trkpt lat="48.47912" lon="-2.83872">
        <ele>103</ele>
        <time>2014-02-12T12:48:44Z</time>
      </trkpt>
      <trkpt lat="48.47908" lon="-2.83873">
        <ele>103</ele>
        <time>2014-02-12T12:48:46Z</time>
      </trkpt>
      <trkpt lat="48.47905" lon="-2.83874">
        <ele>104</ele>
        <time>2014-02-12T12:48:48Z</time>
      </trkpt>
      <trkpt lat="48.47901" lon="-2.83876">
        <ele>105</ele>
        <time>2014-02-12T12:48:50Z</time>
      </trkpt>
      <trkpt lat="48.47897" lon="-2.83878">
        <ele>105</ele>
        <time>2014-02-12T12:48:52Z</time>
      </trkpt>
      <trkpt lat="48.47895" lon="-2.83878">
        <ele>106</ele>
        <time>2014-02-12T12:48:54Z</time>
      </trkpt>
      <trkpt lat="48.47892" lon="-2.83879">
        <ele>106</ele>
        <time>2014-02-12T12:48:56Z</time>
      </trkpt>
      <trkpt lat="48.47889" lon="-2.83878">
        <ele>106</ele>
        <time>2014-02-12T12:48:58Z</time>
      </trkpt>
      <trkpt lat="48.47886" lon="-2.8388">
        <ele>107</ele>
        <time>2014-02-12T12:49:00Z</time>
      </trkpt>
      <trkpt lat="48.47882" lon="-2.83882">
        <ele>107</ele>
        <time>2014-02-12T12:49:02Z</time>
      </trkpt>
      <trkpt lat="48.47879" lon="-2.83883">
        <ele>107</ele>
        <time>2014-02-12T12:49:04Z</time>
      </trkpt>
      <trkpt lat="48.47876" lon="-2.83885">
        <ele>107</ele>
        <time>2014-02-12T12:49:06Z</time>
      </trkpt>
      <trkpt lat="48.47873" lon="-2.83885">
        <ele>107</ele>
        <time>2014-02-12T12:49:08Z</time>
      </trkpt>
      <trkpt lat="48.47871" lon="-2.83884">
        <ele>107</ele>
        <time>2014-02-12T12:49:10Z</time>
      </trkpt>
      <trkpt lat="48.47868" lon="-2.83886">
        <ele>107</ele>
        <time>2014-02-12T12:49:12Z</time>
      </trkpt>
      <trkpt lat="48.47865" lon="-2.83886">
        <ele>107</ele>
        <time>2014-02-12T12:49:14Z</time>
      </trkpt>
      <trkpt lat="48.47862" lon="-2.83887">
        <ele>107</ele>
        <time>2014-02-12T12:49:16Z</time>
      </trkpt>
      <trkpt lat="48.47859" lon="-2.83888">
        <ele>107</ele>
        <time>2014-02-12T12:49:18Z</time>
      </trkpt>
      <trkpt lat="48.47856" lon="-2.83888">
        <ele>107</ele>
        <time>2014-02-12T12:49:20Z</time>
      </trkpt>
      <trkpt lat="48.47853" lon="-2.83889">
        <ele>107</ele>
        <time>2014-02-12T12:49:22Z</time>
      </trkpt>
      <trkpt lat="48.4785" lon="-2.8389">
        <ele>107</ele>
        <time>2014-02-12T12:49:24Z</time>
      </trkpt>
      <trkpt lat="48.47847" lon="-2.83889">
        <ele>107</ele>
        <time>2014-02-12T12:49:26Z</time>
      </trkpt>
      <trkpt lat="48.47843" lon="-2.83888">
        <ele>107</ele>
        <time>2014-02-12T12:49:29Z</time>
      </trkpt>
      <trkpt lat="48.47841" lon="-2.83887">
        <ele>107</ele>
        <time>2014-02-12T12:49:31Z</time>
      </trkpt>
      <trkpt lat="48.47837" lon="-2.83885">
        <ele>106</ele>
        <time>2014-02-12T12:49:34Z</time>
      </trkpt>
      <trkpt lat="48.47836" lon="-2.83884">
        <ele>105</ele>
        <time>2014-02-12T12:49:36Z</time>
      </trkpt>
      <trkpt lat="48.47834" lon="-2.83884">
        <ele>104</ele>
        <time>2014-02-12T12:49:38Z</time>
      </trkpt>
      <trkpt lat="48.47832" lon="-2.83882">
        <ele>102</ele>
        <time>2014-02-12T12:49:40Z</time>
      </trkpt>
      <trkpt lat="48.4783" lon="-2.83882">
        <ele>101</ele>
        <time>2014-02-12T12:49:42Z</time>
      </trkpt>
      <trkpt lat="48.47827" lon="-2.83881">
        <ele>101</ele>
        <time>2014-02-12T12:49:44Z</time>
      </trkpt>
      <trkpt lat="48.47824" lon="-2.83879">
        <ele>101</ele>
        <time>2014-02-12T12:49:46Z</time>
      </trkpt>
      <trkpt lat="48.47821" lon="-2.83879">
        <ele>101</ele>
        <time>2014-02-12T12:49:48Z</time>
      </trkpt>
      <trkpt lat="48.47818" lon="-2.83879">
        <ele>101</ele>
        <time>2014-02-12T12:49:50Z</time>
      </trkpt>
      <trkpt lat="48.47815" lon="-2.83877">
        <ele>101</ele>
        <time>2014-02-12T12:49:52Z</time>
      </trkpt>
      <trkpt lat="48.47812" lon="-2.83876">
        <ele>101</ele>
        <time>2014-02-12T12:49:54Z</time>
      </trkpt>
      <trkpt lat="48.47809" lon="-2.83875">
        <ele>101</ele>
        <time>2014-02-12T12:49:56Z</time>
      </trkpt>
      <trkpt lat="48.47806" lon="-2.83873">
        <ele>101</ele>
        <time>2014-02-12T12:49:58Z</time>
      </trkpt>
      <trkpt lat="48.47804" lon="-2.83873">
        <ele>101</ele>
        <time>2014-02-12T12:50:00Z</time>
      </trkpt>
      <trkpt lat="48.47799" lon="-2.83875">
        <ele>101</ele>
        <time>2014-02-12T12:50:02Z</time>
      </trkpt>
      <trkpt lat="48.47796" lon="-2.83876">
        <ele>101</ele>
        <time>2014-02-12T12:50:04Z</time>
      </trkpt>
      <trkpt lat="48.47794" lon="-2.83876">
        <ele>101</ele>
        <time>2014-02-12T12:50:06Z</time>
      </trkpt>
      <trkpt lat="48.47791" lon="-2.83875">
        <ele>101</ele>
        <time>2014-02-12T12:50:08Z</time>
      </trkpt>
      <trkpt lat="48.47787" lon="-2.83874">
        <ele>101</ele>
        <time>2014-02-12T12:50:10Z</time>
      </trkpt>
      <trkpt lat="48.47785" lon="-2.83872">
        <ele>101</ele>
        <time>2014-02-12T12:50:12Z</time>
      </trkpt>
      <trkpt lat="48.47782" lon="-2.83871">
        <ele>101</ele>
        <time>2014-02-12T12:50:14Z</time>
      </trkpt>
      <trkpt lat="48.47779" lon="-2.8387">
        <ele>102</ele>
        <time>2014-02-12T12:50:16Z</time>
      </trkpt>
      <trkpt lat="48.47777" lon="-2.83869">
        <ele>102</ele>
        <time>2014-02-12T12:50:18Z</time>
      </trkpt>
      <trkpt lat="48.47775" lon="-2.83869">
        <ele>102</ele>
        <time>2014-02-12T12:50:20Z</time>
      </trkpt>
      <trkpt lat="48.47773" lon="-2.83869">
        <ele>102</ele>
        <time>2014-02-12T12:50:22Z</time>
      </trkpt>
      <trkpt lat="48.47769" lon="-2.8387">
        <ele>102</ele>
        <time>2014-02-12T12:50:25Z</time>
      </trkpt>
      <trkpt lat="48.47766" lon="-2.83871">
        <ele>102</ele>
        <time>2014-02-12T12:50:27Z</time>
      </trkpt>
      <trkpt lat="48.47763" lon="-2.8387">
        <ele>102</ele>
        <time>2014-02-12T12:50:29Z</time>
      </trkpt>
      <trkpt lat="48.4776" lon="-2.8387">
        <ele>102</ele>
        <time>2014-02-12T12:50:31Z</time>
      </trkpt>
      <trkpt lat="48.47757" lon="-2.83869">
        <ele>102</ele>
        <time>2014-02-12T12:50:33Z</time>
      </trkpt>
      <trkpt lat="48.47754" lon="-2.83867">
        <ele>102</ele>
        <time>2014-02-12T12:50:35Z</time>
      </trkpt>
      <trkpt lat="48.47751" lon="-2.83867">
        <ele>102</ele>
        <time>2014-02-12T12:50:37Z</time>
      </trkpt>
      <trkpt lat="48.47748" lon="-2.83867">
        <ele>102</ele>
        <time>2014-02-12T12:50:39Z</time>
      </trkpt>
      <trkpt lat="48.47745" lon="-2.83867">
        <ele>102</ele>
        <time>2014-02-12T12:50:41Z</time>
      </trkpt>
      <trkpt lat="48.47742" lon="-2.83867">
        <ele>102</ele>
        <time>2014-02-12T12:50:43Z</time>
      </trkpt>
      <trkpt lat="48.47739" lon="-2.83865">
        <ele>102</ele>
        <time>2014-02-12T12:50:45Z</time>
      </trkpt>
      <trkpt lat="48.47737" lon="-2.83863">
        <ele>102</ele>
        <time>2014-02-12T12:50:47Z</time>
      </trkpt>
      <trkpt lat="48.47734" lon="-2.83863">
        <ele>102</ele>
        <time>2014-02-12T12:50:49Z</time>
      </trkpt>
      <trkpt lat="48.47731" lon="-2.83862">
        <ele>102</ele>
        <time>2014-02-12T12:50:51Z</time>
      </trkpt>
      <trkpt lat="48.47728" lon="-2.83861">
        <ele>102</ele>
        <time>2014-02-12T12:50:53Z</time>
      </trkpt>
      <trkpt lat="48.47725" lon="-2.8386">
        <ele>102</ele>
        <time>2014-02-12T12:50:55Z</time>
      </trkpt>
      <trkpt lat="48.47722" lon="-2.83859">
        <ele>102</ele>
        <time>2014-02-12T12:50:57Z</time>
      </trkpt>
      <trkpt lat="48.47719" lon="-2.83859">
        <ele>102</ele>
        <time>2014-02-12T12:50:59Z</time>
      </trkpt>
      <trkpt lat="48.47716" lon="-2.83859">
        <ele>102</ele>
        <time>2014-02-12T12:51:01Z</time>
      </trkpt>
      <trkpt lat="48.47713" lon="-2.8386">
        <ele>102</ele>
        <time>2014-02-12T12:51:03Z</time>
      </trkpt>
      <trkpt lat="48.4771" lon="-2.8386">
        <ele>102</ele>
        <time>2014-02-12T12:51:05Z</time>
      </trkpt>
      <trkpt lat="48.47707" lon="-2.83861">
        <ele>102</ele>
        <time>2014-02-12T12:51:07Z</time>
      </trkpt>
      <trkpt lat="48.47704" lon="-2.83862">
        <ele>102</ele>
        <time>2014-02-12T12:51:09Z</time>
      </trkpt>
      <trkpt lat="48.47701" lon="-2.83863">
        <ele>102</ele>
        <time>2014-02-12T12:51:11Z</time>
      </trkpt>
      <trkpt lat="48.47698" lon="-2.83862">
        <ele>102</ele>
        <time>2014-02-12T12:51:13Z</time>
      </trkpt>
      <trkpt lat="48.47696" lon="-2.83863">
        <ele>102</ele>
        <time>2014-02-12T12:51:15Z</time>
      </trkpt>
      <trkpt lat="48.47692" lon="-2.83863">
        <ele>101</ele>
        <time>2014-02-12T12:51:17Z</time>
      </trkpt>
      <trkpt lat="48.47689" lon="-2.83865">
        <ele>101</ele>
        <time>2014-02-12T12:51:19Z</time>
      </trkpt>
      <trkpt lat="48.47686" lon="-2.83864">
        <ele>100</ele>
        <time>2014-02-12T12:51:21Z</time>
      </trkpt>
      <trkpt lat="48.47684" lon="-2.83864">
        <ele>99</ele>
        <time>2014-02-12T12:51:23Z</time>
      </trkpt>
      <trkpt lat="48.47681" lon="-2.83866">
        <ele>98</ele>
        <time>2014-02-12T12:51:25Z</time>
      </trkpt>
      <trkpt lat="48.47678" lon="-2.83866">
        <ele>97</ele>
        <time>2014-02-12T12:51:27Z</time>
      </trkpt>
      <trkpt lat="48.47676" lon="-2.83866">
        <ele>96</ele>
        <time>2014-02-12T12:51:29Z</time>
      </trkpt>
      <trkpt lat="48.47673" lon="-2.83866">
        <ele>94</ele>
        <time>2014-02-12T12:51:32Z</time>
      </trkpt>
      <trkpt lat="48.4767" lon="-2.83865">
        <ele>93</ele>
        <time>2014-02-12T12:51:34Z</time>
      </trkpt>
      <trkpt lat="48.47667" lon="-2.83864">
        <ele>92</ele>
        <time>2014-02-12T12:51:36Z</time>
      </trkpt>
      <trkpt lat="48.47665" lon="-2.83863">
        <ele>90</ele>
        <time>2014-02-12T12:51:38Z</time>
      </trkpt>
      <trkpt lat="48.47663" lon="-2.83862">
        <ele>88</ele>
        <time>2014-02-12T12:51:40Z</time>
      </trkpt>
      <trkpt lat="48.47659" lon="-2.83861">
        <ele>85</ele>
        <time>2014-02-12T12:51:43Z</time>
      </trkpt>
      <trkpt lat="48.47657" lon="-2.83861">
        <ele>83</ele>
        <time>2014-02-12T12:51:45Z</time>
      </trkpt>
      <trkpt lat="48.47654" lon="-2.83861">
        <ele>82</ele>
        <time>2014-02-12T12:51:47Z</time>
      </trkpt>
      <trkpt lat="48.47651" lon="-2.8386">
        <ele>82</ele>
        <time>2014-02-12T12:51:49Z</time>
      </trkpt>
      <trkpt lat="48.47648" lon="-2.8386">
        <ele>81</ele>
        <time>2014-02-12T12:51:51Z</time>
      </trkpt>
      <trkpt lat="48.47645" lon="-2.8386">
        <ele>80</ele>
        <time>2014-02-12T12:51:53Z</time>
      </trkpt>
      <trkpt lat="48.47642" lon="-2.8386">
        <ele>79</ele>
        <time>2014-02-12T12:51:55Z</time>
      </trkpt>
      <trkpt lat="48.47638" lon="-2.83861">
        <ele>78</ele>
        <time>2014-02-12T12:51:57Z</time>
      </trkpt>
      <trkpt lat="48.47636" lon="-2.83861">
        <ele>77</ele>
        <time>2014-02-12T12:51:59Z</time>
      </trkpt>
      <trkpt lat="48.47632" lon="-2.83861">
        <ele>77</ele>
        <time>2014-02-12T12:52:01Z</time>
      </trkpt>
      <trkpt lat="48.47629" lon="-2.83862">
        <ele>77</ele>
        <time>2014-02-12T12:52:03Z</time>
      </trkpt>
      <trkpt lat="48.47625" lon="-2.83862">
        <ele>77</ele>
        <time>2014-02-12T12:52:05Z</time>
      </trkpt>
      <trkpt lat="48.47623" lon="-2.83862">
        <ele>77</ele>
        <time>2014-02-12T12:52:07Z</time>
      </trkpt>
      <trkpt lat="48.4762" lon="-2.83862">
        <ele>77</ele>
        <time>2014-02-12T12:52:09Z</time>
      </trkpt>
      <trkpt lat="48.47617" lon="-2.83861">
        <ele>77</ele>
        <time>2014-02-12T12:52:11Z</time>
      </trkpt>
      <trkpt lat="48.47615" lon="-2.8386">
        <ele>77</ele>
        <time>2014-02-12T12:52:13Z</time>
      </trkpt>
      <trkpt lat="48.4761" lon="-2.8386">
        <ele>77</ele>
        <time>2014-02-12T12:52:15Z</time>
      </trkpt>
      <trkpt lat="48.47607" lon="-2.83859">
        <ele>77</ele>
        <time>2014-02-12T12:52:17Z</time>
      </trkpt>
      <trkpt lat="48.47604" lon="-2.83859">
        <ele>77</ele>
        <time>2014-02-12T12:52:19Z</time>
      </trkpt>
      <trkpt lat="48.47601" lon="-2.83858">
        <ele>77</ele>
        <time>2014-02-12T12:52:21Z</time>
      </trkpt>
      <trkpt lat="48.47597" lon="-2.83859">
        <ele>77</ele>
        <time>2014-02-12T12:52:23Z</time>
      </trkpt>
      <trkpt lat="48.47594" lon="-2.83857">
        <ele>77</ele>
        <time>2014-02-12T12:52:25Z</time>
      </trkpt>
      <trkpt lat="48.47591" lon="-2.83858">
        <ele>77</ele>
        <time>2014-02-12T12:52:27Z</time>
      </trkpt>
      <trkpt lat="48.47588" lon="-2.83859">
        <ele>77</ele>
        <time>2014-02-12T12:52:29Z</time>
      </trkpt>
      <trkpt lat="48.47585" lon="-2.83859">
        <ele>77</ele>
        <time>2014-02-12T12:52:31Z</time>
      </trkpt>
      <trkpt lat="48.4758" lon="-2.8386">
        <ele>77</ele>
        <time>2014-02-12T12:52:33Z</time>
      </trkpt>
      <trkpt lat="48.47573" lon="-2.8386">
        <ele>79</ele>
        <time>2014-02-12T12:52:35Z</time>
      </trkpt>
      <trkpt lat="48.47569" lon="-2.8386">
        <ele>81</ele>
        <time>2014-02-12T12:52:37Z</time>
      </trkpt>
      <trkpt lat="48.47567" lon="-2.83858">
        <ele>83</ele>
        <time>2014-02-12T12:52:39Z</time>
      </trkpt>
      <trkpt lat="48.47564" lon="-2.83857">
        <ele>85</ele>
        <time>2014-02-12T12:52:41Z</time>
      </trkpt>
      <trkpt lat="48.47561" lon="-2.83855">
        <ele>85</ele>
        <time>2014-02-12T12:52:44Z</time>
      </trkpt>
      <trkpt lat="48.47559" lon="-2.83854">
        <ele>85</ele>
        <time>2014-02-12T12:52:46Z</time>
      </trkpt>
      <trkpt lat="48.47556" lon="-2.83853">
        <ele>85</ele>
        <time>2014-02-12T12:52:48Z</time>
      </trkpt>
      <trkpt lat="48.47553" lon="-2.83852">
        <ele>85</ele>
        <time>2014-02-12T12:52:50Z</time>
      </trkpt>
      <trkpt lat="48.47549" lon="-2.83852">
        <ele>84</ele>
        <time>2014-02-12T12:52:52Z</time>
      </trkpt>
      <trkpt lat="48.47544" lon="-2.83852">
        <ele>84</ele>
        <time>2014-02-12T12:52:54Z</time>
      </trkpt>
      <trkpt lat="48.4754" lon="-2.83853">
        <ele>84</ele>
        <time>2014-02-12T12:52:56Z</time>
      </trkpt>
      <trkpt lat="48.47535" lon="-2.83854">
        <ele>86</ele>
        <time>2014-02-12T12:52:58Z</time>
      </trkpt>
      <trkpt lat="48.47531" lon="-2.83855">
        <ele>88</ele>
        <time>2014-02-12T12:53:00Z</time>
      </trkpt>
      <trkpt lat="48.47527" lon="-2.83855">
        <ele>90</ele>
        <time>2014-02-12T12:53:02Z</time>
      </trkpt>
      <trkpt lat="48.47524" lon="-2.83855">
        <ele>92</ele>
        <time>2014-02-12T12:53:04Z</time>
      </trkpt>
      <trkpt lat="48.47521" lon="-2.83854">
        <ele>94</ele>
        <time>2014-02-12T12:53:06Z</time>
      </trkpt>
      <trkpt lat="48.47518" lon="-2.83854">
        <ele>96</ele>
        <time>2014-02-12T12:53:08Z</time>
      </trkpt>
      <trkpt lat="48.47514" lon="-2.83854">
        <ele>98</ele>
        <time>2014-02-12T12:53:10Z</time>
      </trkpt>
      <trkpt lat="48.47511" lon="-2.83854">
        <ele>98</ele>
        <time>2014-02-12T12:53:12Z</time>
      </trkpt>
      <trkpt lat="48.47509" lon="-2.83853">
        <ele>99</ele>
        <time>2014-02-12T12:53:14Z</time>
      </trkpt>
      <trkpt lat="48.47506" lon="-2.83852">
        <ele>99</ele>
        <time>2014-02-12T12:53:16Z</time>
      </trkpt>
      <trkpt lat="48.47503" lon="-2.83852">
        <ele>99</ele>
        <time>2014-02-12T12:53:18Z</time>
      </trkpt>
      <trkpt lat="48.47499" lon="-2.83852">
        <ele>99</ele>
        <time>2014-02-12T12:53:20Z</time>
      </trkpt>
      <trkpt lat="48.47496" lon="-2.83851">
        <ele>99</ele>
        <time>2014-02-12T12:53:22Z</time>
      </trkpt>
      <trkpt lat="48.47493" lon="-2.8385">
        <ele>99</ele>
        <time>2014-02-12T12:53:24Z</time>
      </trkpt>
      <trkpt lat="48.47491" lon="-2.83849">
        <ele>99</ele>
        <time>2014-02-12T12:53:26Z</time>
      </trkpt>
      <trkpt lat="48.47488" lon="-2.83848">
        <ele>99</ele>
        <time>2014-02-12T12:53:28Z</time>
      </trkpt>
      <trkpt lat="48.47485" lon="-2.83848">
        <ele>99</ele>
        <time>2014-02-12T12:53:30Z</time>
      </trkpt>
      <trkpt lat="48.47482" lon="-2.83845">
        <ele>99</ele>
        <time>2014-02-12T12:53:33Z</time>
      </trkpt>
      <trkpt lat="48.47479" lon="-2.83844">
        <ele>99</ele>
        <time>2014-02-12T12:53:35Z</time>
      </trkpt>
      <trkpt lat="48.47475" lon="-2.83843">
        <ele>99</ele>
        <time>2014-02-12T12:53:37Z</time>
      </trkpt>
      <trkpt lat="48.47473" lon="-2.83841">
        <ele>99</ele>
        <time>2014-02-12T12:53:39Z</time>
      </trkpt>
      <trkpt lat="48.47471" lon="-2.8384">
        <ele>99</ele>
        <time>2014-02-12T12:53:41Z</time>
      </trkpt>
      <trkpt lat="48.47468" lon="-2.83839">
        <ele>99</ele>
        <time>2014-02-12T12:53:43Z</time>
      </trkpt>
      <trkpt lat="48.47465" lon="-2.83837">
        <ele>99</ele>
        <time>2014-02-12T12:53:45Z</time>
      </trkpt>
      <trkpt lat="48.47464" lon="-2.83835">
        <ele>99</ele>
        <time>2014-02-12T12:53:47Z</time>
      </trkpt>
      <trkpt lat="48.47462" lon="-2.83833">
        <ele>99</ele>
        <time>2014-02-12T12:53:49Z</time>
      </trkpt>
      <trkpt lat="48.4746" lon="-2.83832">
        <ele>99</ele>
        <time>2014-02-12T12:53:51Z</time>
      </trkpt>
      <trkpt lat="48.47458" lon="-2.83829">
        <ele>99</ele>
        <time>2014-02-12T12:53:53Z</time>
      </trkpt>
      <trkpt lat="48.47456" lon="-2.83828">
        <ele>99</ele>
        <time>2014-02-12T12:53:55Z</time>
      </trkpt>
      <trkpt lat="48.47455" lon="-2.83827">
        <ele>99</ele>
        <time>2014-02-12T12:53:57Z</time>
      </trkpt>
      <trkpt lat="48.47451" lon="-2.83825">
        <ele>98</ele>
        <time>2014-02-12T12:54:00Z</time>
      </trkpt>
      <trkpt lat="48.47448" lon="-2.83825">
        <ele>98</ele>
        <time>2014-02-12T12:54:02Z</time>
      </trkpt>
      <trkpt lat="48.47444" lon="-2.83826">
        <ele>98</ele>
        <time>2014-02-12T12:54:04Z</time>
      </trkpt>
      <trkpt lat="48.47442" lon="-2.83827">
        <ele>98</ele>
        <time>2014-02-12T12:54:06Z</time>
      </trkpt>
      <trkpt lat="48.4744" lon="-2.83828">
        <ele>98</ele>
        <time>2014-02-12T12:54:08Z</time>
      </trkpt>
      <trkpt lat="48.47437" lon="-2.8383">
        <ele>98</ele>
        <time>2014-02-12T12:54:10Z</time>
      </trkpt>
      <trkpt lat="48.47435" lon="-2.83831">
        <ele>98</ele>
        <time>2014-02-12T12:54:12Z</time>
      </trkpt>
      <trkpt lat="48.47433" lon="-2.83833">
        <ele>98</ele>
        <time>2014-02-12T12:54:14Z</time>
      </trkpt>
      <trkpt lat="48.47432" lon="-2.83834">
        <ele>98</ele>
        <time>2014-02-12T12:54:16Z</time>
      </trkpt>
      <trkpt lat="48.4743" lon="-2.83836">
        <ele>98</ele>
        <time>2014-02-12T12:54:18Z</time>
      </trkpt>
      <trkpt lat="48.47427" lon="-2.83838">
        <ele>97</ele>
        <time>2014-02-12T12:54:20Z</time>
      </trkpt>
      <trkpt lat="48.47426" lon="-2.8384">
        <ele>96</ele>
        <time>2014-02-12T12:54:22Z</time>
      </trkpt>
      <trkpt lat="48.47424" lon="-2.83842">
        <ele>95</ele>
        <time>2014-02-12T12:54:24Z</time>
      </trkpt>
      <trkpt lat="48.47421" lon="-2.83845">
        <ele>94</ele>
        <time>2014-02-12T12:54:27Z</time>
      </trkpt>
      <trkpt lat="48.47417" lon="-2.83847">
        <ele>92</ele>
        <time>2014-02-12T12:54:30Z</time>
      </trkpt>
      <trkpt lat="48.47414" lon="-2.83847">
        <ele>92</ele>
        <time>2014-02-12T12:54:32Z</time>
      </trkpt>
      <trkpt lat="48.47411" lon="-2.83846">
        <ele>91</ele>
        <time>2014-02-12T12:54:34Z</time>
      </trkpt>
      <trkpt lat="48.47408" lon="-2.83844">
        <ele>90</ele>
        <time>2014-02-12T12:54:36Z</time>
      </trkpt>
      <trkpt lat="48.47406" lon="-2.83843">
        <ele>89</ele>
        <time>2014-02-12T12:54:38Z</time>
      </trkpt>
      <trkpt lat="48.47401" lon="-2.83843">
        <ele>89</ele>
        <time>2014-02-12T12:54:41Z</time>
      </trkpt>
      <trkpt lat="48.47398" lon="-2.83842">
        <ele>89</ele>
        <time>2014-02-12T12:54:44Z</time>
      </trkpt>
      <trkpt lat="48.47397" lon="-2.8384">
        <ele>89</ele>
        <time>2014-02-12T12:54:47Z</time>
      </trkpt>
      <trkpt lat="48.47396" lon="-2.83838">
        <ele>89</ele>
        <time>2014-02-12T12:54:49Z</time>
      </trkpt>
      <trkpt lat="48.47395" lon="-2.83835">
        <ele>89</ele>
        <time>2014-02-12T12:54:51Z</time>
      </trkpt>
      <trkpt lat="48.47393" lon="-2.83832">
        <ele>89</ele>
        <time>2014-02-12T12:54:53Z</time>
      </trkpt>
      <trkpt lat="48.47389" lon="-2.8383">
        <ele>89</ele>
        <time>2014-02-12T12:54:56Z</time>
      </trkpt>
      <trkpt lat="48.47385" lon="-2.8383">
        <ele>89</ele>
        <time>2014-02-12T12:54:59Z</time>
      </trkpt>
      <trkpt lat="48.47382" lon="-2.83832">
        <ele>89</ele>
        <time>2014-02-12T12:55:01Z</time>
      </trkpt>
      <trkpt lat="48.47379" lon="-2.83832">
        <ele>89</ele>
        <time>2014-02-12T12:55:03Z</time>
      </trkpt>
      <trkpt lat="48.47375" lon="-2.83834">
        <ele>89</ele>
        <time>2014-02-12T12:55:05Z</time>
      </trkpt>
      <trkpt lat="48.47373" lon="-2.83834">
        <ele>89</ele>
        <time>2014-02-12T12:55:07Z</time>
      </trkpt>
      <trkpt lat="48.4737" lon="-2.83836">
        <ele>89</ele>
        <time>2014-02-12T12:55:09Z</time>
      </trkpt>
      <trkpt lat="48.47368" lon="-2.83836">
        <ele>89</ele>
        <time>2014-02-12T12:55:11Z</time>
      </trkpt>
      <trkpt lat="48.47365" lon="-2.83836">
        <ele>90</ele>
        <time>2014-02-12T12:55:14Z</time>
      </trkpt>
      <trkpt lat="48.47364" lon="-2.83837">
        <ele>90</ele>
        <time>2014-02-12T12:55:16Z</time>
      </trkpt>
      <trkpt lat="48.47363" lon="-2.83839">
        <ele>90</ele>
        <time>2014-02-12T12:55:18Z</time>
      </trkpt>
      <trkpt lat="48.47359" lon="-2.83843">
        <ele>90</ele>
        <time>2014-02-12T12:55:21Z</time>
      </trkpt>
      <trkpt lat="48.47357" lon="-2.83846">
        <ele>91</ele>
        <time>2014-02-12T12:55:23Z</time>
      </trkpt>
      <trkpt lat="48.47354" lon="-2.83851">
        <ele>92</ele>
        <time>2014-02-12T12:55:26Z</time>
      </trkpt>
      <trkpt lat="48.47353" lon="-2.83855">
        <ele>92</ele>
        <time>2014-02-12T12:55:28Z</time>
      </trkpt>
      <trkpt lat="48.47352" lon="-2.83858">
        <ele>92</ele>
        <time>2014-02-12T12:55:30Z</time>
      </trkpt>
      <trkpt lat="48.47349" lon="-2.83862">
        <ele>92</ele>
        <time>2014-02-12T12:55:32Z</time>
      </trkpt>
      <trkpt lat="48.47346" lon="-2.83866">
        <ele>92</ele>
        <time>2014-02-12T12:55:34Z</time>
      </trkpt>
      <trkpt lat="48.47345" lon="-2.83869">
        <ele>92</ele>
        <time>2014-02-12T12:55:36Z</time>
      </trkpt>
      <trkpt lat="48.47343" lon="-2.83872">
        <ele>92</ele>
        <time>2014-02-12T12:55:38Z</time>
      </trkpt>
      <trkpt lat="48.47342" lon="-2.83875">
        <ele>92</ele>
        <time>2014-02-12T12:55:40Z</time>
      </trkpt>
      <trkpt lat="48.4734" lon="-2.83879">
        <ele>92</ele>
        <time>2014-02-12T12:55:42Z</time>
      </trkpt>
      <trkpt lat="48.47339" lon="-2.83882">
        <ele>92</ele>
        <time>2014-02-12T12:55:44Z</time>
      </trkpt>
      <trkpt lat="48.47337" lon="-2.83886">
        <ele>93</ele>
        <time>2014-02-12T12:55:46Z</time>
      </trkpt>
      <trkpt lat="48.47335" lon="-2.83891">
        <ele>93</ele>
        <time>2014-02-12T12:55:49Z</time>
      </trkpt>
      <trkpt lat="48.47334" lon="-2.83896">
        <ele>94</ele>
        <time>2014-02-12T12:55:51Z</time>
      </trkpt>
      <trkpt lat="48.47333" lon="-2.839">
        <ele>94</ele>
        <time>2014-02-12T12:55:53Z</time>
      </trkpt>
      <trkpt lat="48.47332" lon="-2.83905">
        <ele>95</ele>
        <time>2014-02-12T12:55:55Z</time>
      </trkpt>
      <trkpt lat="48.47332" lon="-2.83909">
        <ele>95</ele>
        <time>2014-02-12T12:55:57Z</time>
      </trkpt>
      <trkpt lat="48.4733" lon="-2.83913">
        <ele>95</ele>
        <time>2014-02-12T12:56:00Z</time>
      </trkpt>
      <trkpt lat="48.47329" lon="-2.83916">
        <ele>95</ele>
        <time>2014-02-12T12:56:02Z</time>
      </trkpt>
      <trkpt lat="48.47327" lon="-2.83921">
        <ele>95</ele>
        <time>2014-02-12T12:56:05Z</time>
      </trkpt>
      <trkpt lat="48.47325" lon="-2.83925">
        <ele>95</ele>
        <time>2014-02-12T12:56:07Z</time>
      </trkpt>
      <trkpt lat="48.47322" lon="-2.83928">
        <ele>95</ele>
        <time>2014-02-12T12:56:09Z</time>
      </trkpt>
      <trkpt lat="48.4732" lon="-2.83932">
        <ele>95</ele>
        <time>2014-02-12T12:56:12Z</time>
      </trkpt>
      <trkpt lat="48.47319" lon="-2.83934">
        <ele>95</ele>
        <time>2014-02-12T12:56:14Z</time>
      </trkpt>
      <trkpt lat="48.47316" lon="-2.83939">
        <ele>95</ele>
        <time>2014-02-12T12:56:17Z</time>
      </trkpt>
      <trkpt lat="48.47314" lon="-2.83942">
        <ele>95</ele>
        <time>2014-02-12T12:56:19Z</time>
      </trkpt>
      <trkpt lat="48.47312" lon="-2.83945">
        <ele>95</ele>
        <time>2014-02-12T12:56:21Z</time>
      </trkpt>
      <trkpt lat="48.47309" lon="-2.83949">
        <ele>95</ele>
        <time>2014-02-12T12:56:25Z</time>
      </trkpt>
      <trkpt lat="48.47306" lon="-2.83952">
        <ele>95</ele>
        <time>2014-02-12T12:56:27Z</time>
      </trkpt>
      <trkpt lat="48.47304" lon="-2.83955">
        <ele>95</ele>
        <time>2014-02-12T12:56:30Z</time>
      </trkpt>
      <trkpt lat="48.47303" lon="-2.83958">
        <ele>95</ele>
        <time>2014-02-12T12:56:32Z</time>
      </trkpt>
      <trkpt lat="48.47301" lon="-2.8396">
        <ele>94</ele>
        <time>2014-02-12T12:56:34Z</time>
      </trkpt>
      <trkpt lat="48.47299" lon="-2.83962">
        <ele>93</ele>
        <time>2014-02-12T12:56:36Z</time>
      </trkpt>
      <trkpt lat="48.47298" lon="-2.83963">
        <ele>93</ele>
        <time>2014-02-12T12:56:38Z</time>
      </trkpt>
      <trkpt lat="48.47294" lon="-2.83965">
        <ele>91</ele>
        <time>2014-02-12T12:56:41Z</time>
      </trkpt>
      <trkpt lat="48.47291" lon="-2.83966">
        <ele>90</ele>
        <time>2014-02-12T12:56:43Z</time>
      </trkpt>
      <trkpt lat="48.47289" lon="-2.83969">
        <ele>88</ele>
        <time>2014-02-12T12:56:45Z</time>
      </trkpt>
      <trkpt lat="48.47287" lon="-2.83969">
        <ele>87</ele>
        <time>2014-02-12T12:56:47Z</time>
      </trkpt>
      <trkpt lat="48.47284" lon="-2.83969">
        <ele>85</ele>
        <time>2014-02-12T12:56:49Z</time>
      </trkpt>
      <trkpt lat="48.47282" lon="-2.83969">
        <ele>84</ele>
        <time>2014-02-12T12:56:51Z</time>
      </trkpt>
      <trkpt lat="48.47278" lon="-2.83968">
        <ele>83</ele>
        <time>2014-02-12T12:56:53Z</time>
      </trkpt>
      <trkpt lat="48.47276" lon="-2.83967">
        <ele>83</ele>
        <time>2014-02-12T12:56:55Z</time>
      </trkpt>
      <trkpt lat="48.47274" lon="-2.83966">
        <ele>82</ele>
        <time>2014-02-12T12:56:57Z</time>
      </trkpt>
      <trkpt lat="48.47273" lon="-2.83964">
        <ele>81</ele>
        <time>2014-02-12T12:56:59Z</time>
      </trkpt>
      <trkpt lat="48.47271" lon="-2.83964">
        <ele>80</ele>
        <time>2014-02-12T12:57:01Z</time>
      </trkpt>
      <trkpt lat="48.47269" lon="-2.83966">
        <ele>80</ele>
        <time>2014-02-12T12:57:04Z</time>
      </trkpt>
      <trkpt lat="48.47266" lon="-2.83968">
        <ele>80</ele>
        <time>2014-02-12T12:57:07Z</time>
      </trkpt>
      <trkpt lat="48.47264" lon="-2.83969">
        <ele>80</ele>
        <time>2014-02-12T12:57:09Z</time>
      </trkpt>
      <trkpt lat="48.47261" lon="-2.8397">
        <ele>80</ele>
        <time>2014-02-12T12:57:11Z</time>
      </trkpt>
      <trkpt lat="48.47258" lon="-2.83971">
        <ele>80</ele>
        <time>2014-02-12T12:57:13Z</time>
      </trkpt>
      <trkpt lat="48.47256" lon="-2.83971">
        <ele>80</ele>
        <time>2014-02-12T12:57:15Z</time>
      </trkpt>
      <trkpt lat="48.47255" lon="-2.83972">
        <ele>80</ele>
        <time>2014-02-12T12:57:17Z</time>
      </trkpt>
      <trkpt lat="48.47253" lon="-2.83972">
        <ele>80</ele>
        <time>2014-02-12T12:57:19Z</time>
      </trkpt>
      <trkpt lat="48.4725" lon="-2.83973">
        <ele>79</ele>
        <time>2014-02-12T12:57:21Z</time>
      </trkpt>
      <trkpt lat="48.47247" lon="-2.83972">
        <ele>78</ele>
        <time>2014-02-12T12:57:23Z</time>
      </trkpt>
      <trkpt lat="48.47244" lon="-2.83972">
        <ele>78</ele>
        <time>2014-02-12T12:57:25Z</time>
      </trkpt>
      <trkpt lat="48.47241" lon="-2.83972">
        <ele>78</ele>
        <time>2014-02-12T12:57:27Z</time>
      </trkpt>
      <trkpt lat="48.47238" lon="-2.83972">
        <ele>78</ele>
        <time>2014-02-12T12:57:29Z</time>
      </trkpt>
      <trkpt lat="48.47235" lon="-2.83971">
        <ele>78</ele>
        <time>2014-02-12T12:57:31Z</time>
      </trkpt>
      <trkpt lat="48.47231" lon="-2.83971">
        <ele>78</ele>
        <time>2014-02-12T12:57:33Z</time>
      </trkpt>
      <trkpt lat="48.47228" lon="-2.83971">
        <ele>79</ele>
        <time>2014-02-12T12:57:35Z</time>
      </trkpt>
      <trkpt lat="48.47225" lon="-2.8397">
        <ele>80</ele>
        <time>2014-02-12T12:57:37Z</time>
      </trkpt>
      <trkpt lat="48.47222" lon="-2.8397">
        <ele>81</ele>
        <time>2014-02-12T12:57:39Z</time>
      </trkpt>
      <trkpt lat="48.4722" lon="-2.8397">
        <ele>81</ele>
        <time>2014-02-12T12:57:41Z</time>
      </trkpt>
      <trkpt lat="48.47217" lon="-2.83971">
        <ele>81</ele>
        <time>2014-02-12T12:57:43Z</time>
      </trkpt>
      <trkpt lat="48.47215" lon="-2.83971">
        <ele>81</ele>
        <time>2014-02-12T12:57:45Z</time>
      </trkpt>
      <trkpt lat="48.47212" lon="-2.8397">
        <ele>81</ele>
        <time>2014-02-12T12:57:47Z</time>
      </trkpt>
      <trkpt lat="48.47209" lon="-2.83969">
        <ele>81</ele>
        <time>2014-02-12T12:57:49Z</time>
      </trkpt>
      <trkpt lat="48.47208" lon="-2.83969">
        <ele>81</ele>
        <time>2014-02-12T12:57:51Z</time>
      </trkpt>
      <trkpt lat="48.47205" lon="-2.83969">
        <ele>81</ele>
        <time>2014-02-12T12:57:54Z</time>
      </trkpt>
      <trkpt lat="48.47201" lon="-2.8397">
        <ele>81</ele>
        <time>2014-02-12T12:57:56Z</time>
      </trkpt>
      <trkpt lat="48.47199" lon="-2.83969">
        <ele>81</ele>
        <time>2014-02-12T12:57:58Z</time>
      </trkpt>
      <trkpt lat="48.47196" lon="-2.83968">
        <ele>81</ele>
        <time>2014-02-12T12:58:00Z</time>
      </trkpt>
      <trkpt lat="48.47193" lon="-2.83967">
        <ele>81</ele>
        <time>2014-02-12T12:58:02Z</time>
      </trkpt>
      <trkpt lat="48.47189" lon="-2.83966">
        <ele>81</ele>
        <time>2014-02-12T12:58:04Z</time>
      </trkpt>
      <trkpt lat="48.47186" lon="-2.83966">
        <ele>81</ele>
        <time>2014-02-12T12:58:06Z</time>
      </trkpt>
      <trkpt lat="48.47182" lon="-2.83966">
        <ele>82</ele>
        <time>2014-02-12T12:58:08Z</time>
      </trkpt>
      <trkpt lat="48.47179" lon="-2.83965">
        <ele>82</ele>
        <time>2014-02-12T12:58:10Z</time>
      </trkpt>
      <trkpt lat="48.47177" lon="-2.83965">
        <ele>82</ele>
        <time>2014-02-12T12:58:12Z</time>
      </trkpt>
      <trkpt lat="48.47174" lon="-2.83964">
        <ele>82</ele>
        <time>2014-02-12T12:58:14Z</time>
      </trkpt>
      <trkpt lat="48.47169" lon="-2.83968">
        <ele>82</ele>
        <time>2014-02-12T12:58:16Z</time>
      </trkpt>
      <trkpt lat="48.47164" lon="-2.8397">
        <ele>82</ele>
        <time>2014-02-12T12:58:18Z</time>
      </trkpt>
      <trkpt lat="48.4716" lon="-2.8397">
        <ele>84</ele>
        <time>2014-02-12T12:58:20Z</time>
      </trkpt>
      <trkpt lat="48.47157" lon="-2.83969">
        <ele>86</ele>
        <time>2014-02-12T12:58:22Z</time>
      </trkpt>
      <trkpt lat="48.47154" lon="-2.83968">
        <ele>86</ele>
        <time>2014-02-12T12:58:24Z</time>
      </trkpt>
      <trkpt lat="48.47152" lon="-2.83967">
        <ele>86</ele>
        <time>2014-02-12T12:58:26Z</time>
      </trkpt>
      <trkpt lat="48.47149" lon="-2.83966">
        <ele>86</ele>
        <time>2014-02-12T12:58:28Z</time>
      </trkpt>
      <trkpt lat="48.47146" lon="-2.83965">
        <ele>86</ele>
        <time>2014-02-12T12:58:30Z</time>
      </trkpt>
      <trkpt lat="48.47143" lon="-2.83964">
        <ele>86</ele>
        <time>2014-02-12T12:58:32Z</time>
      </trkpt>
      <trkpt lat="48.47141" lon="-2.83963">
        <ele>86</ele>
        <time>2014-02-12T12:58:34Z</time>
      </trkpt>
      <trkpt lat="48.47138" lon="-2.83962">
        <ele>86</ele>
        <time>2014-02-12T12:58:36Z</time>
      </trkpt>
      <trkpt lat="48.47135" lon="-2.83962">
        <ele>85</ele>
        <time>2014-02-12T12:58:38Z</time>
      </trkpt>
      <trkpt lat="48.47132" lon="-2.83961">
        <ele>85</ele>
        <time>2014-02-12T12:58:40Z</time>
      </trkpt>
      <trkpt lat="48.47129" lon="-2.8396">
        <ele>84</ele>
        <time>2014-02-12T12:58:42Z</time>
      </trkpt>
      <trkpt lat="48.47124" lon="-2.83959">
        <ele>84</ele>
        <time>2014-02-12T12:58:44Z</time>
      </trkpt>
      <trkpt lat="48.47121" lon="-2.83958">
        <ele>84</ele>
        <time>2014-02-12T12:58:46Z</time>
      </trkpt>
      <trkpt lat="48.47116" lon="-2.83958">
        <ele>84</ele>
        <time>2014-02-12T12:58:48Z</time>
      </trkpt>
      <trkpt lat="48.47113" lon="-2.83957">
        <ele>84</ele>
        <time>2014-02-12T12:58:50Z</time>
      </trkpt>
      <trkpt lat="48.47109" lon="-2.83956">
        <ele>84</ele>
        <time>2014-02-12T12:58:52Z</time>
      </trkpt>
      <trkpt lat="48.47106" lon="-2.83955">
        <ele>84</ele>
        <time>2014-02-12T12:58:54Z</time>
      </trkpt>
      <trkpt lat="48.47102" lon="-2.83955">
        <ele>84</ele>
        <time>2014-02-12T12:58:56Z</time>
      </trkpt>
      <trkpt lat="48.47099" lon="-2.83954">
        <ele>84</ele>
        <time>2014-02-12T12:58:58Z</time>
      </trkpt>
      <trkpt lat="48.47097" lon="-2.83953">
        <ele>84</ele>
        <time>2014-02-12T12:59:00Z</time>
      </trkpt>
      <trkpt lat="48.47094" lon="-2.83952">
        <ele>84</ele>
        <time>2014-02-12T12:59:02Z</time>
      </trkpt>
      <trkpt lat="48.47092" lon="-2.8395">
        <ele>84</ele>
        <time>2014-02-12T12:59:04Z</time>
      </trkpt>
      <trkpt lat="48.47088" lon="-2.83949">
        <ele>84</ele>
        <time>2014-02-12T12:59:06Z</time>
      </trkpt>
      <trkpt lat="48.47085" lon="-2.83948">
        <ele>84</ele>
        <time>2014-02-12T12:59:08Z</time>
      </trkpt>
      <trkpt lat="48.47081" lon="-2.83947">
        <ele>84</ele>
        <time>2014-02-12T12:59:10Z</time>
      </trkpt>
      <trkpt lat="48.47078" lon="-2.83946">
        <ele>84</ele>
        <time>2014-02-12T12:59:12Z</time>
      </trkpt>
      <trkpt lat="48.47075" lon="-2.83945">
        <ele>84</ele>
        <time>2014-02-12T12:59:14Z</time>
      </trkpt>
      <trkpt lat="48.47073" lon="-2.83944">
        <ele>84</ele>
        <time>2014-02-12T12:59:16Z</time>
      </trkpt>
      <trkpt lat="48.4707" lon="-2.83944">
        <ele>84</ele>
        <time>2014-02-12T12:59:18Z</time>
      </trkpt>
      <trkpt lat="48.47066" lon="-2.83943">
        <ele>83</ele>
        <time>2014-02-12T12:59:20Z</time>
      </trkpt>
      <trkpt lat="48.47064" lon="-2.83941">
        <ele>82</ele>
        <time>2014-02-12T12:59:22Z</time>
      </trkpt>
      <trkpt lat="48.47062" lon="-2.83939">
        <ele>81</ele>
        <time>2014-02-12T12:59:24Z</time>
      </trkpt>
      <trkpt lat="48.47059" lon="-2.83937">
        <ele>80</ele>
        <time>2014-02-12T12:59:26Z</time>
      </trkpt>
      <trkpt lat="48.47056" lon="-2.83935">
        <ele>78</ele>
        <time>2014-02-12T12:59:28Z</time>
      </trkpt>
      <trkpt lat="48.47053" lon="-2.83934">
        <ele>75</ele>
        <time>2014-02-12T12:59:31Z</time>
      </trkpt>
      <trkpt lat="48.4705" lon="-2.83933">
        <ele>73</ele>
        <time>2014-02-12T12:59:33Z</time>
      </trkpt>
      <trkpt lat="48.47047" lon="-2.83929">
        <ele>71</ele>
        <time>2014-02-12T12:59:36Z</time>
      </trkpt>
      <trkpt lat="48.47045" lon="-2.83927">
        <ele>69</ele>
        <time>2014-02-12T12:59:38Z</time>
      </trkpt>
      <trkpt lat="48.47041" lon="-2.83925">
        <ele>66</ele>
        <time>2014-02-12T12:59:41Z</time>
      </trkpt>
      <trkpt lat="48.47039" lon="-2.83924">
        <ele>65</ele>
        <time>2014-02-12T12:59:43Z</time>
      </trkpt>
      <trkpt lat="48.47036" lon="-2.83922">
        <ele>64</ele>
        <time>2014-02-12T12:59:45Z</time>
      </trkpt>
      <trkpt lat="48.47032" lon="-2.8392">
        <ele>62</ele>
        <time>2014-02-12T12:59:48Z</time>
      </trkpt>
      <trkpt lat="48.47029" lon="-2.83918">
        <ele>60</ele>
        <time>2014-02-12T12:59:50Z</time>
      </trkpt>
      <trkpt lat="48.47027" lon="-2.83917">
        <ele>58</ele>
        <time>2014-02-12T12:59:52Z</time>
      </trkpt>
      <trkpt lat="48.47024" lon="-2.83916">
        <ele>56</ele>
        <time>2014-02-12T12:59:54Z</time>
      </trkpt>
      <trkpt lat="48.47021" lon="-2.83915">
        <ele>54</ele>
        <time>2014-02-12T12:59:56Z</time>
      </trkpt>
      <trkpt lat="48.47019" lon="-2.83915">
        <ele>52</ele>
        <time>2014-02-12T12:59:58Z</time>
      </trkpt>
      <trkpt lat="48.47016" lon="-2.83914">
        <ele>50</ele>
        <time>2014-02-12T13:00:00Z</time>
      </trkpt>
      <trkpt lat="48.47013" lon="-2.83913">
        <ele>48</ele>
        <time>2014-02-12T13:00:03Z</time>
      </trkpt>
      <trkpt lat="48.47009" lon="-2.83914">
        <ele>47</ele>
        <time>2014-02-12T13:00:05Z</time>
      </trkpt>
      <trkpt lat="48.47004" lon="-2.83915">
        <ele>47</ele>
        <time>2014-02-12T13:00:07Z</time>
      </trkpt>
      <trkpt lat="48.46999" lon="-2.83917">
        <ele>47</ele>
        <time>2014-02-12T13:00:10Z</time>
      </trkpt>
      <trkpt lat="48.46996" lon="-2.83919">
        <ele>49</ele>
        <time>2014-02-12T13:00:12Z</time>
      </trkpt>
      <trkpt lat="48.46992" lon="-2.8392">
        <ele>50</ele>
        <time>2014-02-12T13:00:14Z</time>
      </trkpt>
      <trkpt lat="48.46989" lon="-2.83922">
        <ele>51</ele>
        <time>2014-02-12T13:00:16Z</time>
      </trkpt>
      <trkpt lat="48.46987" lon="-2.83924">
        <ele>52</ele>
        <time>2014-02-12T13:00:18Z</time>
      </trkpt>
      <trkpt lat="48.46983" lon="-2.83925">
        <ele>53</ele>
        <time>2014-02-12T13:00:20Z</time>
      </trkpt>
      <trkpt lat="48.46979" lon="-2.83927">
        <ele>54</ele>
        <time>2014-02-12T13:00:22Z</time>
      </trkpt>
      <trkpt lat="48.46975" lon="-2.83929">
        <ele>56</ele>
        <time>2014-02-12T13:00:24Z</time>
      </trkpt>
      <trkpt lat="48.46971" lon="-2.8393">
        <ele>58</ele>
        <time>2014-02-12T13:00:26Z</time>
      </trkpt>
      <trkpt lat="48.46968" lon="-2.8393">
        <ele>59</ele>
        <time>2014-02-12T13:00:28Z</time>
      </trkpt>
      <trkpt lat="48.46965" lon="-2.83931">
        <ele>60</ele>
        <time>2014-02-12T13:00:30Z</time>
      </trkpt>
      <trkpt lat="48.46962" lon="-2.83932">
        <ele>60</ele>
        <time>2014-02-12T13:00:32Z</time>
      </trkpt>
      <trkpt lat="48.4696" lon="-2.83933">
        <ele>60</ele>
        <time>2014-02-12T13:00:34Z</time>
      </trkpt>
      <trkpt lat="48.46956" lon="-2.83933">
        <ele>61</ele>
        <time>2014-02-12T13:00:36Z</time>
      </trkpt>
      <trkpt lat="48.46953" lon="-2.83933">
        <ele>61</ele>
        <time>2014-02-12T13:00:38Z</time>
      </trkpt>
      <trkpt lat="48.4695" lon="-2.83935">
        <ele>61</ele>
        <time>2014-02-12T13:00:40Z</time>
      </trkpt>
      <trkpt lat="48.46947" lon="-2.83937">
        <ele>62</ele>
        <time>2014-02-12T13:00:42Z</time>
      </trkpt>
      <trkpt lat="48.46945" lon="-2.83938">
        <ele>62</ele>
        <time>2014-02-12T13:00:44Z</time>
      </trkpt>
      <trkpt lat="48.46942" lon="-2.8394">
        <ele>64</ele>
        <time>2014-02-12T13:00:47Z</time>
      </trkpt>
      <trkpt lat="48.4694" lon="-2.83942">
        <ele>65</ele>
        <time>2014-02-12T13:00:49Z</time>
      </trkpt>
      <trkpt lat="48.46937" lon="-2.83945">
        <ele>66</ele>
        <time>2014-02-12T13:00:51Z</time>
      </trkpt>
      <trkpt lat="48.46935" lon="-2.83949">
        <ele>66</ele>
        <time>2014-02-12T13:00:53Z</time>
      </trkpt>
      <trkpt lat="48.46932" lon="-2.83952">
        <ele>67</ele>
        <time>2014-02-12T13:00:55Z</time>
      </trkpt>
      <trkpt lat="48.46928" lon="-2.83957">
        <ele>68</ele>
        <time>2014-02-12T13:00:58Z</time>
      </trkpt>
      <trkpt lat="48.46926" lon="-2.8396">
        <ele>68</ele>
        <time>2014-02-12T13:01:00Z</time>
      </trkpt>
      <trkpt lat="48.46923" lon="-2.83963">
        <ele>68</ele>
        <time>2014-02-12T13:01:02Z</time>
      </trkpt>
      <trkpt lat="48.4692" lon="-2.83966">
        <ele>68</ele>
        <time>2014-02-12T13:01:04Z</time>
      </trkpt>
      <trkpt lat="48.46918" lon="-2.83967">
        <ele>68</ele>
        <time>2014-02-12T13:01:06Z</time>
      </trkpt>
      <trkpt lat="48.46915" lon="-2.83968">
        <ele>68</ele>
        <time>2014-02-12T13:01:08Z</time>
      </trkpt>
      <trkpt lat="48.46913" lon="-2.83968">
        <ele>68</ele>
        <time>2014-02-12T13:01:10Z</time>
      </trkpt>
      <trkpt lat="48.4691" lon="-2.83967">
        <ele>68</ele>
        <time>2014-02-12T13:01:12Z</time>
      </trkpt>
      <trkpt lat="48.46906" lon="-2.83965">
        <ele>68</ele>
        <time>2014-02-12T13:01:14Z</time>
      </trkpt>
      <trkpt lat="48.46903" lon="-2.83963">
        <ele>68</ele>
        <time>2014-02-12T13:01:17Z</time>
      </trkpt>
      <trkpt lat="48.46901" lon="-2.83961">
        <ele>68</ele>
        <time>2014-02-12T13:01:19Z</time>
      </trkpt>
      <trkpt lat="48.469" lon="-2.83958">
        <ele>67</ele>
        <time>2014-02-12T13:01:21Z</time>
      </trkpt>
      <trkpt lat="48.46899" lon="-2.83955">
        <ele>66</ele>
        <time>2014-02-12T13:01:23Z</time>
      </trkpt>
      <trkpt lat="48.46898" lon="-2.83952">
        <ele>64</ele>
        <time>2014-02-12T13:01:25Z</time>
      </trkpt>
      <trkpt lat="48.46896" lon="-2.83949">
        <ele>63</ele>
        <time>2014-02-12T13:01:27Z</time>
      </trkpt>
      <trkpt lat="48.46894" lon="-2.83945">
        <ele>63</ele>
        <time>2014-02-12T13:01:30Z</time>
      </trkpt>
      <trkpt lat="48.46893" lon="-2.83942">
        <ele>62</ele>
        <time>2014-02-12T13:01:32Z</time>
      </trkpt>
      <trkpt lat="48.46891" lon="-2.83941">
        <ele>62</ele>
        <time>2014-02-12T13:01:34Z</time>
      </trkpt>
      <trkpt lat="48.46888" lon="-2.8394">
        <ele>62</ele>
        <time>2014-02-12T13:01:36Z</time>
      </trkpt>
      <trkpt lat="48.46886" lon="-2.83939">
        <ele>62</ele>
        <time>2014-02-12T13:01:38Z</time>
      </trkpt>
      <trkpt lat="48.46884" lon="-2.83937">
        <ele>64</ele>
        <time>2014-02-12T13:01:40Z</time>
      </trkpt>
      <trkpt lat="48.46883" lon="-2.83934">
        <ele>66</ele>
        <time>2014-02-12T13:01:42Z</time>
      </trkpt>
      <trkpt lat="48.46882" lon="-2.83932">
        <ele>68</ele>
        <time>2014-02-12T13:01:44Z</time>
      </trkpt>
      <trkpt lat="48.46882" lon="-2.8393">
        <ele>71</ele>
        <time>2014-02-12T13:01:46Z</time>
      </trkpt>
      <trkpt lat="48.46882" lon="-2.83928">
        <ele>73</ele>
        <time>2014-02-12T13:01:48Z</time>
      </trkpt>
      <trkpt lat="48.46882" lon="-2.83926">
        <ele>76</ele>
        <time>2014-02-12T13:01:50Z</time>
      </trkpt>
      <trkpt lat="48.46882" lon="-2.83923">
        <ele>78</ele>
        <time>2014-02-12T13:01:52Z</time>
      </trkpt>
      <trkpt lat="48.46882" lon="-2.83921">
        <ele>81</ele>
        <time>2014-02-12T13:01:54Z</time>
      </trkpt>
      <trkpt lat="48.46881" lon="-2.8392">
        <ele>86</ele>
        <time>2014-02-12T13:01:59Z</time>
      </trkpt>
      <trkpt lat="48.46881" lon="-2.83918">
        <ele>88</ele>
        <time>2014-02-12T13:02:01Z</time>
      </trkpt>
      <trkpt lat="48.46882" lon="-2.83916">
        <ele>90</ele>
        <time>2014-02-12T13:02:03Z</time>
      </trkpt>
      <trkpt lat="48.46883" lon="-2.83913">
        <ele>92</ele>
        <time>2014-02-12T13:02:05Z</time>
      </trkpt>
      <trkpt lat="48.46883" lon="-2.8391">
        <ele>93</ele>
        <time>2014-02-12T13:02:07Z</time>
      </trkpt>
      <trkpt lat="48.46883" lon="-2.83907">
        <ele>94</ele>
        <time>2014-02-12T13:02:09Z</time>
      </trkpt>
      <trkpt lat="48.46884" lon="-2.83904">
        <ele>95</ele>
        <time>2014-02-12T13:02:11Z</time>
      </trkpt>
      <trkpt lat="48.46885" lon="-2.83901">
        <ele>95</ele>
        <time>2014-02-12T13:02:13Z</time>
      </trkpt>
      <trkpt lat="48.46886" lon="-2.83899">
        <ele>96</ele>
        <time>2014-02-12T13:02:15Z</time>
      </trkpt>
      <trkpt lat="48.46888" lon="-2.83896">
        <ele>96</ele>
        <time>2014-02-12T13:02:17Z</time>
      </trkpt>
      <trkpt lat="48.46889" lon="-2.83894">
        <ele>97</ele>
        <time>2014-02-12T13:02:19Z</time>
      </trkpt>
      <trkpt lat="48.46891" lon="-2.83892">
        <ele>97</ele>
        <time>2014-02-12T13:02:21Z</time>
      </trkpt>
      <trkpt lat="48.46893" lon="-2.8389">
        <ele>98</ele>
        <time>2014-02-12T13:02:23Z</time>
      </trkpt>
      <trkpt lat="48.46894" lon="-2.83888">
        <ele>99</ele>
        <time>2014-02-12T13:02:25Z</time>
      </trkpt>
      <trkpt lat="48.46896" lon="-2.83886">
        <ele>100</ele>
        <time>2014-02-12T13:02:27Z</time>
      </trkpt>
      <trkpt lat="48.46897" lon="-2.83882">
        <ele>101</ele>
        <time>2014-02-12T13:02:30Z</time>
      </trkpt>
      <trkpt lat="48.46898" lon="-2.8388">
        <ele>102</ele>
        <time>2014-02-12T13:02:33Z</time>
      </trkpt>
      <trkpt lat="48.46899" lon="-2.83878">
        <ele>102</ele>
        <time>2014-02-12T13:02:35Z</time>
      </trkpt>
      <trkpt lat="48.46903" lon="-2.83874">
        <ele>103</ele>
        <time>2014-02-12T13:02:38Z</time>
      </trkpt>
      <trkpt lat="48.46905" lon="-2.83868">
        <ele>103</ele>
        <time>2014-02-12T13:02:41Z</time>
      </trkpt>
      <trkpt lat="48.46906" lon="-2.83865">
        <ele>103</ele>
        <time>2014-02-12T13:02:43Z</time>
      </trkpt>
      <trkpt lat="48.46907" lon="-2.8386">
        <ele>103</ele>
        <time>2014-02-12T13:02:46Z</time>
      </trkpt>
      <trkpt lat="48.46907" lon="-2.83856">
        <ele>103</ele>
        <time>2014-02-12T13:02:48Z</time>
      </trkpt>
      <trkpt lat="48.46907" lon="-2.83852">
        <ele>103</ele>
        <time>2014-02-12T13:02:50Z</time>
      </trkpt>
      <trkpt lat="48.46906" lon="-2.83848">
        <ele>103</ele>
        <time>2014-02-12T13:02:52Z</time>
      </trkpt>
      <trkpt lat="48.46904" lon="-2.83842">
        <ele>103</ele>
        <time>2014-02-12T13:02:55Z</time>
      </trkpt>
      <trkpt lat="48.46902" lon="-2.83839">
        <ele>103</ele>
        <time>2014-02-12T13:02:57Z</time>
      </trkpt>
      <trkpt lat="48.46901" lon="-2.83835">
        <ele>103</ele>
        <time>2014-02-12T13:02:59Z</time>
      </trkpt>
      <trkpt lat="48.469" lon="-2.8383">
        <ele>103</ele>
        <time>2014-02-12T13:03:01Z</time>
      </trkpt>
      <trkpt lat="48.46899" lon="-2.83825">
        <ele>103</ele>
        <time>2014-02-12T13:03:03Z</time>
      </trkpt>
      <trkpt lat="48.46899" lon="-2.83821">
        <ele>102</ele>
        <time>2014-02-12T13:03:05Z</time>
      </trkpt>
      <trkpt lat="48.46899" lon="-2.83817">
        <ele>101</ele>
        <time>2014-02-12T13:03:07Z</time>
      </trkpt>
      <trkpt lat="48.46899" lon="-2.83814">
        <ele>101</ele>
        <time>2014-02-12T13:03:09Z</time>
      </trkpt>
      <trkpt lat="48.46898" lon="-2.8381">
        <ele>101</ele>
        <time>2014-02-12T13:03:11Z</time>
      </trkpt>
      <trkpt lat="48.46898" lon="-2.83806">
        <ele>101</ele>
        <time>2014-02-12T13:03:13Z</time>
      </trkpt>
      <trkpt lat="48.46897" lon="-2.83803">
        <ele>101</ele>
        <time>2014-02-12T13:03:15Z</time>
      </trkpt>
      <trkpt lat="48.46897" lon="-2.83801">
        <ele>101</ele>
        <time>2014-02-12T13:03:17Z</time>
      </trkpt>
      <trkpt lat="48.46898" lon="-2.83799">
        <ele>101</ele>
        <time>2014-02-12T13:03:19Z</time>
      </trkpt>
      <trkpt lat="48.46898" lon="-2.83795">
        <ele>101</ele>
        <time>2014-02-12T13:03:21Z</time>
      </trkpt>
      <trkpt lat="48.46898" lon="-2.8379">
        <ele>101</ele>
        <time>2014-02-12T13:03:23Z</time>
      </trkpt>
      <trkpt lat="48.46898" lon="-2.83787">
        <ele>101</ele>
        <time>2014-02-12T13:03:25Z</time>
      </trkpt>
      <trkpt lat="48.46899" lon="-2.83784">
        <ele>101</ele>
        <time>2014-02-12T13:03:27Z</time>
      </trkpt>
      <trkpt lat="48.46899" lon="-2.83779">
        <ele>101</ele>
        <time>2014-02-12T13:03:29Z</time>
      </trkpt>
      <trkpt lat="48.469" lon="-2.83775">
        <ele>101</ele>
        <time>2014-02-12T13:03:31Z</time>
      </trkpt>
      <trkpt lat="48.469" lon="-2.83771">
        <ele>101</ele>
        <time>2014-02-12T13:03:33Z</time>
      </trkpt>
      <trkpt lat="48.46901" lon="-2.83768">
        <ele>101</ele>
        <time>2014-02-12T13:03:35Z</time>
      </trkpt>
      <trkpt lat="48.469" lon="-2.83762">
        <ele>101</ele>
        <time>2014-02-12T13:03:37Z</time>
      </trkpt>
      <trkpt lat="48.469" lon="-2.83758">
        <ele>101</ele>
        <time>2014-02-12T13:03:39Z</time>
      </trkpt>
      <trkpt lat="48.46899" lon="-2.83753">
        <ele>101</ele>
        <time>2014-02-12T13:03:41Z</time>
      </trkpt>
      <trkpt lat="48.46899" lon="-2.83748">
        <ele>101</ele>
        <time>2014-02-12T13:03:44Z</time>
      </trkpt>
      <trkpt lat="48.46898" lon="-2.83745">
        <ele>101</ele>
        <time>2014-02-12T13:03:46Z</time>
      </trkpt>
      <trkpt lat="48.46898" lon="-2.83739">
        <ele>101</ele>
        <time>2014-02-12T13:03:48Z</time>
      </trkpt>
      <trkpt lat="48.46897" lon="-2.83735">
        <ele>102</ele>
        <time>2014-02-12T13:03:50Z</time>
      </trkpt>
      <trkpt lat="48.46894" lon="-2.83729">
        <ele>103</ele>
        <time>2014-02-12T13:03:53Z</time>
      </trkpt>
      <trkpt lat="48.46893" lon="-2.83726">
        <ele>104</ele>
        <time>2014-02-12T13:03:55Z</time>
      </trkpt>
      <trkpt lat="48.46892" lon="-2.83722">
        <ele>104</ele>
        <time>2014-02-12T13:03:57Z</time>
      </trkpt>
      <trkpt lat="48.4689" lon="-2.83718">
        <ele>105</ele>
        <time>2014-02-12T13:03:59Z</time>
      </trkpt>
      <trkpt lat="48.46889" lon="-2.83714">
        <ele>105</ele>
        <time>2014-02-12T13:04:01Z</time>
      </trkpt>
      <trkpt lat="48.46887" lon="-2.8371">
        <ele>106</ele>
        <time>2014-02-12T13:04:03Z</time>
      </trkpt>
      <trkpt lat="48.46885" lon="-2.83707">
        <ele>106</ele>
        <time>2014-02-12T13:04:05Z</time>
      </trkpt>
      <trkpt lat="48.46883" lon="-2.83703">
        <ele>107</ele>
        <time>2014-02-12T13:04:07Z</time>
      </trkpt>
      <trkpt lat="48.4688" lon="-2.83697">
        <ele>107</ele>
        <time>2014-02-12T13:04:10Z</time>
      </trkpt>
      <trkpt lat="48.46879" lon="-2.83693">
        <ele>107</ele>
        <time>2014-02-12T13:04:12Z</time>
      </trkpt>
      <trkpt lat="48.46878" lon="-2.83689">
        <ele>107</ele>
        <time>2014-02-12T13:04:14Z</time>
      </trkpt>
      <trkpt lat="48.46877" lon="-2.83684">
        <ele>107</ele>
        <time>2014-02-12T13:04:16Z</time>
      </trkpt>
      <trkpt lat="48.46875" lon="-2.83682">
        <ele>107</ele>
        <time>2014-02-12T13:04:18Z</time>
      </trkpt>
      <trkpt lat="48.46872" lon="-2.83679">
        <ele>107</ele>
        <time>2014-02-12T13:04:20Z</time>
      </trkpt>
      <trkpt lat="48.4687" lon="-2.83677">
        <ele>107</ele>
        <time>2014-02-12T13:04:23Z</time>
      </trkpt>
      <trkpt lat="48.46869" lon="-2.83673">
        <ele>107</ele>
        <time>2014-02-12T13:04:25Z</time>
      </trkpt>
      <trkpt lat="48.46867" lon="-2.8367">
        <ele>107</ele>
        <time>2014-02-12T13:04:27Z</time>
      </trkpt>
      <trkpt lat="48.46866" lon="-2.83666">
        <ele>107</ele>
        <time>2014-02-12T13:04:29Z</time>
      </trkpt>
      <trkpt lat="48.46865" lon="-2.83662">
        <ele>107</ele>
        <time>2014-02-12T13:04:31Z</time>
      </trkpt>
      <trkpt lat="48.46864" lon="-2.83658">
        <ele>107</ele>
        <time>2014-02-12T13:04:33Z</time>
      </trkpt>
      <trkpt lat="48.46863" lon="-2.83654">
        <ele>107</ele>
        <time>2014-02-12T13:04:35Z</time>
      </trkpt>
      <trkpt lat="48.46862" lon="-2.83651">
        <ele>107</ele>
        <time>2014-02-12T13:04:37Z</time>
      </trkpt>
      <trkpt lat="48.4686" lon="-2.83648">
        <ele>108</ele>
        <time>2014-02-12T13:04:39Z</time>
      </trkpt>
      <trkpt lat="48.46859" lon="-2.83645">
        <ele>108</ele>
        <time>2014-02-12T13:04:41Z</time>
      </trkpt>
      <trkpt lat="48.46858" lon="-2.8364">
        <ele>109</ele>
        <time>2014-02-12T13:04:43Z</time>
      </trkpt>
      <trkpt lat="48.46857" lon="-2.83637">
        <ele>109</ele>
        <time>2014-02-12T13:04:45Z</time>
      </trkpt>
      <trkpt lat="48.46856" lon="-2.83634">
        <ele>109</ele>
        <time>2014-02-12T13:04:47Z</time>
      </trkpt>
      <trkpt lat="48.46856" lon="-2.83631">
        <ele>109</ele>
        <time>2014-02-12T13:04:49Z</time>
      </trkpt>
      <trkpt lat="48.46857" lon="-2.83627">
        <ele>110</ele>
        <time>2014-02-12T13:04:51Z</time>
      </trkpt>
      <trkpt lat="48.46856" lon="-2.83624">
        <ele>110</ele>
        <time>2014-02-12T13:04:53Z</time>
      </trkpt>
      <trkpt lat="48.46857" lon="-2.83619">
        <ele>110</ele>
        <time>2014-02-12T13:04:56Z</time>
      </trkpt>
      <trkpt lat="48.46858" lon="-2.83615">
        <ele>110</ele>
        <time>2014-02-12T13:04:58Z</time>
      </trkpt>
      <trkpt lat="48.4686" lon="-2.83612">
        <ele>110</ele>
        <time>2014-02-12T13:05:01Z</time>
      </trkpt>
      <trkpt lat="48.46861" lon="-2.83609">
        <ele>110</ele>
        <time>2014-02-12T13:05:03Z</time>
      </trkpt>
      <trkpt lat="48.46861" lon="-2.83605">
        <ele>110</ele>
        <time>2014-02-12T13:05:05Z</time>
      </trkpt>
      <trkpt lat="48.46861" lon="-2.836">
        <ele>110</ele>
        <time>2014-02-12T13:05:07Z</time>
      </trkpt>
      <trkpt lat="48.46861" lon="-2.83596">
        <ele>110</ele>
        <time>2014-02-12T13:05:09Z</time>
      </trkpt>
      <trkpt lat="48.4686" lon="-2.83592">
        <ele>110</ele>
        <time>2014-02-12T13:05:11Z</time>
      </trkpt>
      <trkpt lat="48.46859" lon="-2.83586">
        <ele>110</ele>
        <time>2014-02-12T13:05:13Z</time>
      </trkpt>
      <trkpt lat="48.46857" lon="-2.83582">
        <ele>110</ele>
        <time>2014-02-12T13:05:15Z</time>
      </trkpt>
      <trkpt lat="48.46855" lon="-2.83578">
        <ele>110</ele>
        <time>2014-02-12T13:05:17Z</time>
      </trkpt>
      <trkpt lat="48.46854" lon="-2.83572">
        <ele>110</ele>
        <time>2014-02-12T13:05:19Z</time>
      </trkpt>
      <trkpt lat="48.46852" lon="-2.83569">
        <ele>110</ele>
        <time>2014-02-12T13:05:21Z</time>
      </trkpt>
      <trkpt lat="48.46851" lon="-2.83566">
        <ele>110</ele>
        <time>2014-02-12T13:05:23Z</time>
      </trkpt>
      <trkpt lat="48.46848" lon="-2.83563">
        <ele>110</ele>
        <time>2014-02-12T13:05:25Z</time>
      </trkpt>
      <trkpt lat="48.46845" lon="-2.83561">
        <ele>110</ele>
        <time>2014-02-12T13:05:27Z</time>
      </trkpt>
      <trkpt lat="48.46842" lon="-2.8356">
        <ele>110</ele>
        <time>2014-02-12T13:05:29Z</time>
      </trkpt>
      <trkpt lat="48.46838" lon="-2.83561">
        <ele>110</ele>
        <time>2014-02-12T13:05:32Z</time>
      </trkpt>
      <trkpt lat="48.46835" lon="-2.83562">
        <ele>110</ele>
        <time>2014-02-12T13:05:34Z</time>
      </trkpt>
      <trkpt lat="48.46832" lon="-2.83563">
        <ele>110</ele>
        <time>2014-02-12T13:05:36Z</time>
      </trkpt>
      <trkpt lat="48.4683" lon="-2.83564">
        <ele>110</ele>
        <time>2014-02-12T13:05:38Z</time>
      </trkpt>
      <trkpt lat="48.46828" lon="-2.83565">
        <ele>110</ele>
        <time>2014-02-12T13:05:40Z</time>
      </trkpt>
      <trkpt lat="48.46825" lon="-2.83569">
        <ele>110</ele>
        <time>2014-02-12T13:05:42Z</time>
      </trkpt>
      <trkpt lat="48.46822" lon="-2.83574">
        <ele>110</ele>
        <time>2014-02-12T13:05:44Z</time>
      </trkpt>
      <trkpt lat="48.46819" lon="-2.83574">
        <ele>110</ele>
        <time>2014-02-12T13:05:46Z</time>
      </trkpt>
      <trkpt lat="48.46816" lon="-2.83575">
        <ele>109</ele>
        <time>2014-02-12T13:05:49Z</time>
      </trkpt>
      <trkpt lat="48.46814" lon="-2.83576">
        <ele>108</ele>
        <time>2014-02-12T13:05:51Z</time>
      </trkpt>
      <trkpt lat="48.46812" lon="-2.83576">
        <ele>107</ele>
        <time>2014-02-12T13:05:53Z</time>
      </trkpt>
      <trkpt lat="48.46809" lon="-2.83575">
        <ele>106</ele>
        <time>2014-02-12T13:05:55Z</time>
      </trkpt>
      <trkpt lat="48.46807" lon="-2.83577">
        <ele>106</ele>
        <time>2014-02-12T13:05:57Z</time>
      </trkpt>
      <trkpt lat="48.46804" lon="-2.83579">
        <ele>106</ele>
        <time>2014-02-12T13:05:59Z</time>
      </trkpt>
      <trkpt lat="48.46801" lon="-2.83579">
        <ele>106</ele>
        <time>2014-02-12T13:06:01Z</time>
      </trkpt>
      <trkpt lat="48.46798" lon="-2.8358">
        <ele>106</ele>
        <time>2014-02-12T13:06:03Z</time>
      </trkpt>
      <trkpt lat="48.46796" lon="-2.8358">
        <ele>106</ele>
        <time>2014-02-12T13:06:05Z</time>
      </trkpt>
      <trkpt lat="48.46793" lon="-2.83581">
        <ele>106</ele>
        <time>2014-02-12T13:06:07Z</time>
      </trkpt>
      <trkpt lat="48.4679" lon="-2.83582">
        <ele>106</ele>
        <time>2014-02-12T13:06:09Z</time>
      </trkpt>
      <trkpt lat="48.46787" lon="-2.83582">
        <ele>106</ele>
        <time>2014-02-12T13:06:11Z</time>
      </trkpt>
      <trkpt lat="48.46784" lon="-2.83584">
        <ele>106</ele>
        <time>2014-02-12T13:06:13Z</time>
      </trkpt>
      <trkpt lat="48.46781" lon="-2.83584">
        <ele>106</ele>
        <time>2014-02-12T13:06:15Z</time>
      </trkpt>
      <trkpt lat="48.46778" lon="-2.83586">
        <ele>106</ele>
        <time>2014-02-12T13:06:17Z</time>
      </trkpt>
      <trkpt lat="48.46776" lon="-2.83587">
        <ele>106</ele>
        <time>2014-02-12T13:06:19Z</time>
      </trkpt>
      <trkpt lat="48.46773" lon="-2.83587">
        <ele>106</ele>
        <time>2014-02-12T13:06:21Z</time>
      </trkpt>
      <trkpt lat="48.4677" lon="-2.83586">
        <ele>106</ele>
        <time>2014-02-12T13:06:23Z</time>
      </trkpt>
      <trkpt lat="48.46767" lon="-2.83586">
        <ele>106</ele>
        <time>2014-02-12T13:06:25Z</time>
      </trkpt>
      <trkpt lat="48.46765" lon="-2.83585">
        <ele>106</ele>
        <time>2014-02-12T13:06:27Z</time>
      </trkpt>
      <trkpt lat="48.46762" lon="-2.83585">
        <ele>106</ele>
        <time>2014-02-12T13:06:29Z</time>
      </trkpt>
      <trkpt lat="48.46759" lon="-2.83583">
        <ele>106</ele>
        <time>2014-02-12T13:06:31Z</time>
      </trkpt>
      <trkpt lat="48.46756" lon="-2.83583">
        <ele>106</ele>
        <time>2014-02-12T13:06:33Z</time>
      </trkpt>
      <trkpt lat="48.46754" lon="-2.83582">
        <ele>106</ele>
        <time>2014-02-12T13:06:35Z</time>
      </trkpt>
      <trkpt lat="48.46751" lon="-2.83581">
        <ele>106</ele>
        <time>2014-02-12T13:06:37Z</time>
      </trkpt>
      <trkpt lat="48.46749" lon="-2.83579">
        <ele>106</ele>
        <time>2014-02-12T13:06:39Z</time>
      </trkpt>
      <trkpt lat="48.46746" lon="-2.83579">
        <ele>106</ele>
        <time>2014-02-12T13:06:41Z</time>
      </trkpt>
      <trkpt lat="48.46744" lon="-2.83577">
        <ele>106</ele>
        <time>2014-02-12T13:06:43Z</time>
      </trkpt>
      <trkpt lat="48.46742" lon="-2.83573">
        <ele>106</ele>
        <time>2014-02-12T13:06:45Z</time>
      </trkpt>
      <trkpt lat="48.4674" lon="-2.8357">
        <ele>106</ele>
        <time>2014-02-12T13:06:47Z</time>
      </trkpt>
      <trkpt lat="48.46738" lon="-2.83569">
        <ele>107</ele>
        <time>2014-02-12T13:06:49Z</time>
      </trkpt>
      <trkpt lat="48.46735" lon="-2.83567">
        <ele>107</ele>
        <time>2014-02-12T13:06:51Z</time>
      </trkpt>
      <trkpt lat="48.46732" lon="-2.83565">
        <ele>108</ele>
        <time>2014-02-12T13:06:53Z</time>
      </trkpt>
      <trkpt lat="48.46729" lon="-2.83561">
        <ele>108</ele>
        <time>2014-02-12T13:06:56Z</time>
      </trkpt>
      <trkpt lat="48.46727" lon="-2.83558">
        <ele>108</ele>
        <time>2014-02-12T13:06:58Z</time>
      </trkpt>
      <trkpt lat="48.46724" lon="-2.83554">
        <ele>108</ele>
        <time>2014-02-12T13:07:00Z</time>
      </trkpt>
      <trkpt lat="48.46721" lon="-2.8355">
        <ele>108</ele>
        <time>2014-02-12T13:07:03Z</time>
      </trkpt>
      <trkpt lat="48.4672" lon="-2.83547">
        <ele>109</ele>
        <time>2014-02-12T13:07:05Z</time>
      </trkpt>
      <trkpt lat="48.46719" lon="-2.83545">
        <ele>109</ele>
        <time>2014-02-12T13:07:07Z</time>
      </trkpt>
      <trkpt lat="48.46717" lon="-2.83542">
        <ele>109</ele>
        <time>2014-02-12T13:07:09Z</time>
      </trkpt>
      <trkpt lat="48.46716" lon="-2.83538">
        <ele>109</ele>
        <time>2014-02-12T13:07:11Z</time>
      </trkpt>
      <trkpt lat="48.46714" lon="-2.83535">
        <ele>109</ele>
        <time>2014-02-12T13:07:13Z</time>
      </trkpt>
      <trkpt lat="48.46713" lon="-2.83532">
        <ele>109</ele>
        <time>2014-02-12T13:07:15Z</time>
      </trkpt>
      <trkpt lat="48.4671" lon="-2.8353">
        <ele>109</ele>
        <time>2014-02-12T13:07:17Z</time>
      </trkpt>
      <trkpt lat="48.46707" lon="-2.83529">
        <ele>109</ele>
        <time>2014-02-12T13:07:19Z</time>
      </trkpt>
      <trkpt lat="48.46704" lon="-2.83526">
        <ele>107</ele>
        <time>2014-02-12T13:07:22Z</time>
      </trkpt>
      <trkpt lat="48.46702" lon="-2.83524">
        <ele>106</ele>
        <time>2014-02-12T13:07:24Z</time>
      </trkpt>
      <trkpt lat="48.46699" lon="-2.83521">
        <ele>106</ele>
        <time>2014-02-12T13:07:26Z</time>
      </trkpt>
      <trkpt lat="48.46696" lon="-2.83519">
        <ele>106</ele>
        <time>2014-02-12T13:07:28Z</time>
      </trkpt>
      <trkpt lat="48.46694" lon="-2.83518">
        <ele>106</ele>
        <time>2014-02-12T13:07:30Z</time>
      </trkpt>
      <trkpt lat="48.46692" lon="-2.83516">
        <ele>106</ele>
        <time>2014-02-12T13:07:32Z</time>
      </trkpt>
      <trkpt lat="48.46689" lon="-2.83514">
        <ele>106</ele>
        <time>2014-02-12T13:07:34Z</time>
      </trkpt>
      <trkpt lat="48.46685" lon="-2.83513">
        <ele>106</ele>
        <time>2014-02-12T13:07:36Z</time>
      </trkpt>
      <trkpt lat="48.46682" lon="-2.83511">
        <ele>105</ele>
        <time>2014-02-12T13:07:38Z</time>
      </trkpt>
      <trkpt lat="48.46681" lon="-2.83507">
        <ele>105</ele>
        <time>2014-02-12T13:07:40Z</time>
      </trkpt>
      <trkpt lat="48.46678" lon="-2.83505">
        <ele>105</ele>
        <time>2014-02-12T13:07:42Z</time>
      </trkpt>
      <trkpt lat="48.46676" lon="-2.83501">
        <ele>105</ele>
        <time>2014-02-12T13:07:45Z</time>
      </trkpt>
      <trkpt lat="48.46674" lon="-2.83498">
        <ele>105</ele>
        <time>2014-02-12T13:07:47Z</time>
      </trkpt>
      <trkpt lat="48.46672" lon="-2.83495">
        <ele>105</ele>
        <time>2014-02-12T13:07:49Z</time>
      </trkpt>
      <trkpt lat="48.4667" lon="-2.83491">
        <ele>105</ele>
        <time>2014-02-12T13:07:51Z</time>
      </trkpt>
      <trkpt lat="48.46667" lon="-2.83488">
        <ele>106</ele>
        <time>2014-02-12T13:07:53Z</time>
      </trkpt>
      <trkpt lat="48.46665" lon="-2.83486">
        <ele>107</ele>
        <time>2014-02-12T13:07:55Z</time>
      </trkpt>
      <trkpt lat="48.46662" lon="-2.83484">
        <ele>107</ele>
        <time>2014-02-12T13:07:57Z</time>
      </trkpt>
      <trkpt lat="48.46659" lon="-2.83484">
        <ele>108</ele>
        <time>2014-02-12T13:08:00Z</time>
      </trkpt>
      <trkpt lat="48.46657" lon="-2.83484">
        <ele>108</ele>
        <time>2014-02-12T13:08:02Z</time>
      </trkpt>
      <trkpt lat="48.46656" lon="-2.83484">
        <ele>108</ele>
        <time>2014-02-12T13:08:04Z</time>
      </trkpt>
      <trkpt lat="48.46654" lon="-2.83485">
        <ele>108</ele>
        <time>2014-02-12T13:08:06Z</time>
      </trkpt>
      <trkpt lat="48.46652" lon="-2.83487">
        <ele>108</ele>
        <time>2014-02-12T13:08:08Z</time>
      </trkpt>
      <trkpt lat="48.4665" lon="-2.83489">
        <ele>108</ele>
        <time>2014-02-12T13:08:10Z</time>
      </trkpt>
      <trkpt lat="48.46646" lon="-2.83494">
        <ele>108</ele>
        <time>2014-02-12T13:08:13Z</time>
      </trkpt>
      <trkpt lat="48.46643" lon="-2.83499">
        <ele>108</ele>
        <time>2014-02-12T13:08:15Z</time>
      </trkpt>
      <trkpt lat="48.46642" lon="-2.83502">
        <ele>108</ele>
        <time>2014-02-12T13:08:17Z</time>
      </trkpt>
      <trkpt lat="48.46641" lon="-2.83506">
        <ele>108</ele>
        <time>2014-02-12T13:08:20Z</time>
      </trkpt>
      <trkpt lat="48.4664" lon="-2.83507">
        <ele>108</ele>
        <time>2014-02-12T13:08:22Z</time>
      </trkpt>
      <trkpt lat="48.46637" lon="-2.83509">
        <ele>108</ele>
        <time>2014-02-12T13:08:24Z</time>
      </trkpt>
      <trkpt lat="48.46634" lon="-2.83511">
        <ele>107</ele>
        <time>2014-02-12T13:08:27Z</time>
      </trkpt>
      <trkpt lat="48.46632" lon="-2.83513">
        <ele>105</ele>
        <time>2014-02-12T13:08:29Z</time>
      </trkpt>
      <trkpt lat="48.46629" lon="-2.83517">
        <ele>103</ele>
        <time>2014-02-12T13:08:31Z</time>
      </trkpt>
      <trkpt lat="48.46628" lon="-2.83521">
        <ele>102</ele>
        <time>2014-02-12T13:08:33Z</time>
      </trkpt>
      <trkpt lat="48.46628" lon="-2.83524">
        <ele>102</ele>
        <time>2014-02-12T13:08:35Z</time>
      </trkpt>
      <trkpt lat="48.46627" lon="-2.83527">
        <ele>101</ele>
        <time>2014-02-12T13:08:37Z</time>
      </trkpt>
      <trkpt lat="48.46626" lon="-2.83532">
        <ele>101</ele>
        <time>2014-02-12T13:08:39Z</time>
      </trkpt>
      <trkpt lat="48.46624" lon="-2.83537">
        <ele>100</ele>
        <time>2014-02-12T13:08:41Z</time>
      </trkpt>
      <trkpt lat="48.46622" lon="-2.83543">
        <ele>100</ele>
        <time>2014-02-12T13:08:43Z</time>
      </trkpt>
      <trkpt lat="48.4662" lon="-2.83548">
        <ele>100</ele>
        <time>2014-02-12T13:08:45Z</time>
      </trkpt>
      <trkpt lat="48.46619" lon="-2.83555">
        <ele>100</ele>
        <time>2014-02-12T13:08:47Z</time>
      </trkpt>
      <trkpt lat="48.46617" lon="-2.8356">
        <ele>100</ele>
        <time>2014-02-12T13:08:49Z</time>
      </trkpt>
      <trkpt lat="48.46616" lon="-2.83564">
        <ele>100</ele>
        <time>2014-02-12T13:08:51Z</time>
      </trkpt>
      <trkpt lat="48.46614" lon="-2.83567">
        <ele>100</ele>
        <time>2014-02-12T13:08:53Z</time>
      </trkpt>
      <trkpt lat="48.46612" lon="-2.83571">
        <ele>100</ele>
        <time>2014-02-12T13:08:55Z</time>
      </trkpt>
      <trkpt lat="48.46611" lon="-2.83575">
        <ele>101</ele>
        <time>2014-02-12T13:08:57Z</time>
      </trkpt>
      <trkpt lat="48.4661" lon="-2.83579">
        <ele>102</ele>
        <time>2014-02-12T13:08:59Z</time>
      </trkpt>
      <trkpt lat="48.46608" lon="-2.83582">
        <ele>103</ele>
        <time>2014-02-12T13:09:01Z</time>
      </trkpt>
      <trkpt lat="48.46605" lon="-2.83586">
        <ele>103</ele>
        <time>2014-02-12T13:09:04Z</time>
      </trkpt>
      <trkpt lat="48.46603" lon="-2.83587">
        <ele>103</ele>
        <time>2014-02-12T13:09:06Z</time>
      </trkpt>
      <trkpt lat="48.46602" lon="-2.83588">
        <ele>103</ele>
        <time>2014-02-12T13:09:08Z</time>
      </trkpt>
      <trkpt lat="48.466" lon="-2.8359">
        <ele>103</ele>
        <time>2014-02-12T13:09:10Z</time>
      </trkpt>
      <trkpt lat="48.46599" lon="-2.83591">
        <ele>103</ele>
        <time>2014-02-12T13:09:12Z</time>
      </trkpt>
      <trkpt lat="48.46597" lon="-2.83593">
        <ele>101</ele>
        <time>2014-02-12T13:09:14Z</time>
      </trkpt>
      <trkpt lat="48.46596" lon="-2.83595">
        <ele>100</ele>
        <time>2014-02-12T13:09:16Z</time>
      </trkpt>
      <trkpt lat="48.46594" lon="-2.83598">
        <ele>100</ele>
        <time>2014-02-12T13:09:18Z</time>
      </trkpt>
      <trkpt lat="48.46592" lon="-2.83601">
        <ele>98</ele>
        <time>2014-02-12T13:09:21Z</time>
      </trkpt>
      <trkpt lat="48.46589" lon="-2.83607">
        <ele>97</ele>
        <time>2014-02-12T13:09:24Z</time>
      </trkpt>
      <trkpt lat="48.46589" lon="-2.83611">
        <ele>97</ele>
        <time>2014-02-12T13:09:26Z</time>
      </trkpt>
      <trkpt lat="48.46587" lon="-2.83612">
        <ele>97</ele>
        <time>2014-02-12T13:09:28Z</time>
      </trkpt>
      <trkpt lat="48.46585" lon="-2.83616">
        <ele>97</ele>
        <time>2014-02-12T13:09:30Z</time>
      </trkpt>
      <trkpt lat="48.46584" lon="-2.83619">
        <ele>97</ele>
        <time>2014-02-12T13:09:32Z</time>
      </trkpt>
      <trkpt lat="48.46582" lon="-2.83624">
        <ele>97</ele>
        <time>2014-02-12T13:09:34Z</time>
      </trkpt>
      <trkpt lat="48.46581" lon="-2.83627">
        <ele>97</ele>
        <time>2014-02-12T13:09:36Z</time>
      </trkpt>
      <trkpt lat="48.46577" lon="-2.8363">
        <ele>98</ele>
        <time>2014-02-12T13:09:38Z</time>
      </trkpt>
      <trkpt lat="48.46574" lon="-2.83632">
        <ele>99</ele>
        <time>2014-02-12T13:09:40Z</time>
      </trkpt>
      <trkpt lat="48.4657" lon="-2.83633">
        <ele>99</ele>
        <time>2014-02-12T13:09:42Z</time>
      </trkpt>
      <trkpt lat="48.46566" lon="-2.83634">
        <ele>99</ele>
        <time>2014-02-12T13:09:44Z</time>
      </trkpt>
      <trkpt lat="48.46564" lon="-2.83636">
        <ele>99</ele>
        <time>2014-02-12T13:09:46Z</time>
      </trkpt>
      <trkpt lat="48.46561" lon="-2.83636">
        <ele>99</ele>
        <time>2014-02-12T13:09:48Z</time>
      </trkpt>
      <trkpt lat="48.46559" lon="-2.83636">
        <ele>98</ele>
        <time>2014-02-12T13:09:50Z</time>
      </trkpt>
      <trkpt lat="48.46556" lon="-2.83636">
        <ele>97</ele>
        <time>2014-02-12T13:09:52Z</time>
      </trkpt>
      <trkpt lat="48.46553" lon="-2.83636">
        <ele>95</ele>
        <time>2014-02-12T13:09:54Z</time>
      </trkpt>
      <trkpt lat="48.4655" lon="-2.83636">
        <ele>94</ele>
        <time>2014-02-12T13:09:56Z</time>
      </trkpt>
      <trkpt lat="48.46547" lon="-2.83635">
        <ele>93</ele>
        <time>2014-02-12T13:09:58Z</time>
      </trkpt>
      <trkpt lat="48.46544" lon="-2.83633">
        <ele>91</ele>
        <time>2014-02-12T13:10:00Z</time>
      </trkpt>
      <trkpt lat="48.46542" lon="-2.83633">
        <ele>89</ele>
        <time>2014-02-12T13:10:02Z</time>
      </trkpt>
      <trkpt lat="48.46539" lon="-2.83633">
        <ele>87</ele>
        <time>2014-02-12T13:10:04Z</time>
      </trkpt>
      <trkpt lat="48.46536" lon="-2.83631">
        <ele>86</ele>
        <time>2014-02-12T13:10:06Z</time>
      </trkpt>
      <trkpt lat="48.46534" lon="-2.83631">
        <ele>86</ele>
        <time>2014-02-12T13:10:08Z</time>
      </trkpt>
      <trkpt lat="48.46531" lon="-2.8363">
        <ele>85</ele>
        <time>2014-02-12T13:10:10Z</time>
      </trkpt>
      <trkpt lat="48.46528" lon="-2.83629">
        <ele>85</ele>
        <time>2014-02-12T13:10:12Z</time>
      </trkpt>
      <trkpt lat="48.46524" lon="-2.83629">
        <ele>85</ele>
        <time>2014-02-12T13:10:14Z</time>
      </trkpt>
      <trkpt lat="48.46522" lon="-2.83629">
        <ele>85</ele>
        <time>2014-02-12T13:10:16Z</time>
      </trkpt>
      <trkpt lat="48.46519" lon="-2.83628">
        <ele>85</ele>
        <time>2014-02-12T13:10:18Z</time>
      </trkpt>
      <trkpt lat="48.46516" lon="-2.83628">
        <ele>85</ele>
        <time>2014-02-12T13:10:20Z</time>
      </trkpt>
      <trkpt lat="48.46512" lon="-2.83628">
        <ele>85</ele>
        <time>2014-02-12T13:10:22Z</time>
      </trkpt>
      <trkpt lat="48.46509" lon="-2.83627">
        <ele>85</ele>
        <time>2014-02-12T13:10:24Z</time>
      </trkpt>
      <trkpt lat="48.46506" lon="-2.83626">
        <ele>85</ele>
        <time>2014-02-12T13:10:26Z</time>
      </trkpt>
      <trkpt lat="48.46503" lon="-2.83626">
        <ele>85</ele>
        <time>2014-02-12T13:10:28Z</time>
      </trkpt>
      <trkpt lat="48.465" lon="-2.83626">
        <ele>85</ele>
        <time>2014-02-12T13:10:30Z</time>
      </trkpt>
      <trkpt lat="48.46496" lon="-2.83624">
        <ele>85</ele>
        <time>2014-02-12T13:10:33Z</time>
      </trkpt>
      <trkpt lat="48.46493" lon="-2.83623">
        <ele>84</ele>
        <time>2014-02-12T13:10:36Z</time>
      </trkpt>
      <trkpt lat="48.4649" lon="-2.83623">
        <ele>83</ele>
        <time>2014-02-12T13:10:38Z</time>
      </trkpt>
      <trkpt lat="48.46486" lon="-2.83622">
        <ele>82</ele>
        <time>2014-02-12T13:10:40Z</time>
      </trkpt>
      <trkpt lat="48.46484" lon="-2.8362">
        <ele>82</ele>
        <time>2014-02-12T13:10:42Z</time>
      </trkpt>
      <trkpt lat="48.4648" lon="-2.83618">
        <ele>81</ele>
        <time>2014-02-12T13:10:45Z</time>
      </trkpt>
      <trkpt lat="48.46478" lon="-2.83618">
        <ele>80</ele>
        <time>2014-02-12T13:10:47Z</time>
      </trkpt>
      <trkpt lat="48.46475" lon="-2.83617">
        <ele>80</ele>
        <time>2014-02-12T13:10:49Z</time>
      </trkpt>
      <trkpt lat="48.46471" lon="-2.83616">
        <ele>80</ele>
        <time>2014-02-12T13:10:51Z</time>
      </trkpt>
      <trkpt lat="48.46468" lon="-2.83614">
        <ele>80</ele>
        <time>2014-02-12T13:10:53Z</time>
      </trkpt>
      <trkpt lat="48.46465" lon="-2.83613">
        <ele>80</ele>
        <time>2014-02-12T13:10:55Z</time>
      </trkpt>
      <trkpt lat="48.46463" lon="-2.83612">
        <ele>80</ele>
        <time>2014-02-12T13:10:57Z</time>
      </trkpt>
      <trkpt lat="48.4646" lon="-2.83611">
        <ele>80</ele>
        <time>2014-02-12T13:10:59Z</time>
      </trkpt>
      <trkpt lat="48.46457" lon="-2.83611">
        <ele>80</ele>
        <time>2014-02-12T13:11:01Z</time>
      </trkpt>
      <trkpt lat="48.46453" lon="-2.83611">
        <ele>79</ele>
        <time>2014-02-12T13:11:04Z</time>
      </trkpt>
      <trkpt lat="48.4645" lon="-2.83611">
        <ele>79</ele>
        <time>2014-02-12T13:11:06Z</time>
      </trkpt>
      <trkpt lat="48.46447" lon="-2.83612">
        <ele>79</ele>
        <time>2014-02-12T13:11:08Z</time>
      </trkpt>
      <trkpt lat="48.46443" lon="-2.83613">
        <ele>79</ele>
        <time>2014-02-12T13:11:10Z</time>
      </trkpt>
      <trkpt lat="48.4644" lon="-2.83614">
        <ele>79</ele>
        <time>2014-02-12T13:11:12Z</time>
      </trkpt>
      <trkpt lat="48.46437" lon="-2.83614">
        <ele>79</ele>
        <time>2014-02-12T13:11:14Z</time>
      </trkpt>
      <trkpt lat="48.46434" lon="-2.83613">
        <ele>79</ele>
        <time>2014-02-12T13:11:16Z</time>
      </trkpt>
      <trkpt lat="48.46431" lon="-2.83614">
        <ele>79</ele>
        <time>2014-02-12T13:11:18Z</time>
      </trkpt>
      <trkpt lat="48.46429" lon="-2.83613">
        <ele>79</ele>
        <time>2014-02-12T13:11:20Z</time>
      </trkpt>
      <trkpt lat="48.46427" lon="-2.8361">
        <ele>79</ele>
        <time>2014-02-12T13:11:22Z</time>
      </trkpt>
      <trkpt lat="48.46425" lon="-2.83608">
        <ele>79</ele>
        <time>2014-02-12T13:11:24Z</time>
      </trkpt>
      <trkpt lat="48.46424" lon="-2.83606">
        <ele>79</ele>
        <time>2014-02-12T13:11:26Z</time>
      </trkpt>
      <trkpt lat="48.46425" lon="-2.83604">
        <ele>79</ele>
        <time>2014-02-12T13:11:28Z</time>
      </trkpt>
      <trkpt lat="48.46426" lon="-2.83601">
        <ele>82</ele>
        <time>2014-02-12T13:11:31Z</time>
      </trkpt>
      <trkpt lat="48.46426" lon="-2.83597">
        <ele>84</ele>
        <time>2014-02-12T13:11:34Z</time>
      </trkpt>
      <trkpt lat="48.46427" lon="-2.83594">
        <ele>85</ele>
        <time>2014-02-12T13:11:36Z</time>
      </trkpt>
      <trkpt lat="48.46427" lon="-2.83591">
        <ele>86</ele>
        <time>2014-02-12T13:11:38Z</time>
      </trkpt>
      <trkpt lat="48.46427" lon="-2.83587">
        <ele>86</ele>
        <time>2014-02-12T13:11:40Z</time>
      </trkpt>
      <trkpt lat="48.46425" lon="-2.83582">
        <ele>87</ele>
        <time>2014-02-12T13:11:43Z</time>
      </trkpt>
      <trkpt lat="48.46424" lon="-2.83578">
        <ele>88</ele>
        <time>2014-02-12T13:11:45Z</time>
      </trkpt>
      <trkpt lat="48.46423" lon="-2.83575">
        <ele>89</ele>
        <time>2014-02-12T13:11:47Z</time>
      </trkpt>
      <trkpt lat="48.46422" lon="-2.83571">
        <ele>89</ele>
        <time>2014-02-12T13:11:49Z</time>
      </trkpt>
      <trkpt lat="48.46421" lon="-2.83569">
        <ele>89</ele>
        <time>2014-02-12T13:11:51Z</time>
      </trkpt>
      <trkpt lat="48.46418" lon="-2.83565">
        <ele>90</ele>
        <time>2014-02-12T13:11:54Z</time>
      </trkpt>
      <trkpt lat="48.46416" lon="-2.8356">
        <ele>90</ele>
        <time>2014-02-12T13:11:56Z</time>
      </trkpt>
      <trkpt lat="48.46413" lon="-2.83556">
        <ele>90</ele>
        <time>2014-02-12T13:11:58Z</time>
      </trkpt>
      <trkpt lat="48.46412" lon="-2.83552">
        <ele>90</ele>
        <time>2014-02-12T13:12:00Z</time>
      </trkpt>
      <trkpt lat="48.46409" lon="-2.8355">
        <ele>91</ele>
        <time>2014-02-12T13:12:02Z</time>
      </trkpt>
      <trkpt lat="48.46407" lon="-2.83545">
        <ele>92</ele>
        <time>2014-02-12T13:12:05Z</time>
      </trkpt>
      <trkpt lat="48.46405" lon="-2.83543">
        <ele>95</ele>
        <time>2014-02-12T13:12:10Z</time>
      </trkpt>
      <trkpt lat="48.46403" lon="-2.83541">
        <ele>95</ele>
        <time>2014-02-12T13:12:12Z</time>
      </trkpt>
      <trkpt lat="48.464" lon="-2.83541">
        <ele>96</ele>
        <time>2014-02-12T13:12:14Z</time>
      </trkpt>
      <trkpt lat="48.46397" lon="-2.8354">
        <ele>96</ele>
        <time>2014-02-12T13:12:16Z</time>
      </trkpt>
      <trkpt lat="48.46395" lon="-2.8354">
        <ele>96</ele>
        <time>2014-02-12T13:12:18Z</time>
      </trkpt>
      <trkpt lat="48.46391" lon="-2.8354">
        <ele>96</ele>
        <time>2014-02-12T13:12:21Z</time>
      </trkpt>
      <trkpt lat="48.46389" lon="-2.8354">
        <ele>96</ele>
        <time>2014-02-12T13:12:23Z</time>
      </trkpt>
      <trkpt lat="48.46387" lon="-2.83541">
        <ele>94</ele>
        <time>2014-02-12T13:12:25Z</time>
      </trkpt>
      <trkpt lat="48.46385" lon="-2.83542">
        <ele>93</ele>
        <time>2014-02-12T13:12:27Z</time>
      </trkpt>
      <trkpt lat="48.46383" lon="-2.83544">
        <ele>91</ele>
        <time>2014-02-12T13:12:29Z</time>
      </trkpt>
      <trkpt lat="48.46379" lon="-2.83544">
        <ele>90</ele>
        <time>2014-02-12T13:12:32Z</time>
      </trkpt>
      <trkpt lat="48.46377" lon="-2.83544">
        <ele>89</ele>
        <time>2014-02-12T13:12:34Z</time>
      </trkpt>
      <trkpt lat="48.46375" lon="-2.83545">
        <ele>89</ele>
        <time>2014-02-12T13:12:36Z</time>
      </trkpt>
      <trkpt lat="48.46373" lon="-2.83545">
        <ele>88</ele>
        <time>2014-02-12T13:12:38Z</time>
      </trkpt>
      <trkpt lat="48.46372" lon="-2.83548">
        <ele>88</ele>
        <time>2014-02-12T13:12:40Z</time>
      </trkpt>
      <trkpt lat="48.4637" lon="-2.8355">
        <ele>87</ele>
        <time>2014-02-12T13:12:42Z</time>
      </trkpt>
      <trkpt lat="48.46367" lon="-2.83553">
        <ele>87</ele>
        <time>2014-02-12T13:12:44Z</time>
      </trkpt>
      <trkpt lat="48.46364" lon="-2.83555">
        <ele>87</ele>
        <time>2014-02-12T13:12:47Z</time>
      </trkpt>
      <trkpt lat="48.46362" lon="-2.83557">
        <ele>86</ele>
        <time>2014-02-12T13:12:49Z</time>
      </trkpt>
      <trkpt lat="48.4636" lon="-2.83558">
        <ele>86</ele>
        <time>2014-02-12T13:12:51Z</time>
      </trkpt>
      <trkpt lat="48.46358" lon="-2.8356">
        <ele>85</ele>
        <time>2014-02-12T13:12:53Z</time>
      </trkpt>
      <trkpt lat="48.46355" lon="-2.83562">
        <ele>84</ele>
        <time>2014-02-12T13:12:55Z</time>
      </trkpt>
      <trkpt lat="48.46352" lon="-2.83564">
        <ele>82</ele>
        <time>2014-02-12T13:12:57Z</time>
      </trkpt>
      <trkpt lat="48.4635" lon="-2.83565">
        <ele>80</ele>
        <time>2014-02-12T13:12:59Z</time>
      </trkpt>
      <trkpt lat="48.46348" lon="-2.83566">
        <ele>80</ele>
        <time>2014-02-12T13:13:01Z</time>
      </trkpt>
      <trkpt lat="48.46345" lon="-2.83565">
        <ele>79</ele>
        <time>2014-02-12T13:13:03Z</time>
      </trkpt>
      <trkpt lat="48.46342" lon="-2.83565">
        <ele>78</ele>
        <time>2014-02-12T13:13:05Z</time>
      </trkpt>
      <trkpt lat="48.46339" lon="-2.83565">
        <ele>78</ele>
        <time>2014-02-12T13:13:07Z</time>
      </trkpt>
      <trkpt lat="48.46336" lon="-2.83565">
        <ele>77</ele>
        <time>2014-02-12T13:13:09Z</time>
      </trkpt>
      <trkpt lat="48.46333" lon="-2.83564">
        <ele>77</ele>
        <time>2014-02-12T13:13:11Z</time>
      </trkpt>
      <trkpt lat="48.46331" lon="-2.83563">
        <ele>76</ele>
        <time>2014-02-12T13:13:13Z</time>
      </trkpt>
      <trkpt lat="48.46328" lon="-2.83562">
        <ele>76</ele>
        <time>2014-02-12T13:13:15Z</time>
      </trkpt>
      <trkpt lat="48.46325" lon="-2.83561">
        <ele>76</ele>
        <time>2014-02-12T13:13:17Z</time>
      </trkpt>
      <trkpt lat="48.46322" lon="-2.8356">
        <ele>76</ele>
        <time>2014-02-12T13:13:19Z</time>
      </trkpt>
      <trkpt lat="48.46319" lon="-2.83558">
        <ele>76</ele>
        <time>2014-02-12T13:13:21Z</time>
      </trkpt>
      <trkpt lat="48.46316" lon="-2.83556">
        <ele>76</ele>
        <time>2014-02-12T13:13:23Z</time>
      </trkpt>
      <trkpt lat="48.46313" lon="-2.83555">
        <ele>76</ele>
        <time>2014-02-12T13:13:25Z</time>
      </trkpt>
      <trkpt lat="48.4631" lon="-2.83554">
        <ele>76</ele>
        <time>2014-02-12T13:13:27Z</time>
      </trkpt>
      <trkpt lat="48.46307" lon="-2.83552">
        <ele>76</ele>
        <time>2014-02-12T13:13:29Z</time>
      </trkpt>
      <trkpt lat="48.46304" lon="-2.83549">
        <ele>76</ele>
        <time>2014-02-12T13:13:32Z</time>
      </trkpt>
      <trkpt lat="48.46302" lon="-2.83547">
        <ele>76</ele>
        <time>2014-02-12T13:13:34Z</time>
      </trkpt>
      <trkpt lat="48.46301" lon="-2.83545">
        <ele>76</ele>
        <time>2014-02-12T13:13:36Z</time>
      </trkpt>
      <trkpt lat="48.46299" lon="-2.83542">
        <ele>76</ele>
        <time>2014-02-12T13:13:38Z</time>
      </trkpt>
      <trkpt lat="48.46298" lon="-2.83539">
        <ele>76</ele>
        <time>2014-02-12T13:13:40Z</time>
      </trkpt>
      <trkpt lat="48.46296" lon="-2.83536">
        <ele>76</ele>
        <time>2014-02-12T13:13:42Z</time>
      </trkpt>
      <trkpt lat="48.46294" lon="-2.83533">
        <ele>76</ele>
        <time>2014-02-12T13:13:44Z</time>
      </trkpt>
      <trkpt lat="48.46292" lon="-2.8353">
        <ele>76</ele>
        <time>2014-02-12T13:13:46Z</time>
      </trkpt>
      <trkpt lat="48.46289" lon="-2.83527">
        <ele>79</ele>
        <time>2014-02-12T13:13:49Z</time>
      </trkpt>
      <trkpt lat="48.46287" lon="-2.83524">
        <ele>81</ele>
        <time>2014-02-12T13:13:51Z</time>
      </trkpt>
      <trkpt lat="48.46285" lon="-2.83519">
        <ele>84</ele>
        <time>2014-02-12T13:13:54Z</time>
      </trkpt>
      <trkpt lat="48.46284" lon="-2.83517">
        <ele>86</ele>
        <time>2014-02-12T13:13:56Z</time>
      </trkpt>
      <trkpt lat="48.46282" lon="-2.83512">
        <ele>88</ele>
        <time>2014-02-12T13:13:58Z</time>
      </trkpt>
      <trkpt lat="48.4628" lon="-2.83509">
        <ele>90</ele>
        <time>2014-02-12T13:14:00Z</time>
      </trkpt>
      <trkpt lat="48.46278" lon="-2.83505">
        <ele>91</ele>
        <time>2014-02-12T13:14:02Z</time>
      </trkpt>
      <trkpt lat="48.46276" lon="-2.83501">
        <ele>91</ele>
        <time>2014-02-12T13:14:04Z</time>
      </trkpt>
      <trkpt lat="48.46274" lon="-2.83497">
        <ele>92</ele>
        <time>2014-02-12T13:14:06Z</time>
      </trkpt>
      <trkpt lat="48.46271" lon="-2.83494">
        <ele>93</ele>
        <time>2014-02-12T13:14:08Z</time>
      </trkpt>
      <trkpt lat="48.46269" lon="-2.8349">
        <ele>94</ele>
        <time>2014-02-12T13:14:10Z</time>
      </trkpt>
      <trkpt lat="48.46267" lon="-2.83487">
        <ele>95</ele>
        <time>2014-02-12T13:14:12Z</time>
      </trkpt>
      <trkpt lat="48.46265" lon="-2.83483">
        <ele>95</ele>
        <time>2014-02-12T13:14:14Z</time>
      </trkpt>
      <trkpt lat="48.46264" lon="-2.83479">
        <ele>96</ele>
        <time>2014-02-12T13:14:16Z</time>
      </trkpt>
      <trkpt lat="48.46262" lon="-2.83475">
        <ele>96</ele>
        <time>2014-02-12T13:14:18Z</time>
      </trkpt>
      <trkpt lat="48.4626" lon="-2.83471">
        <ele>97</ele>
        <time>2014-02-12T13:14:20Z</time>
      </trkpt>
      <trkpt lat="48.46259" lon="-2.83468">
        <ele>97</ele>
        <time>2014-02-12T13:14:22Z</time>
      </trkpt>
      <trkpt lat="48.46258" lon="-2.83464">
        <ele>97</ele>
        <time>2014-02-12T13:14:24Z</time>
      </trkpt>
      <trkpt lat="48.46256" lon="-2.83459">
        <ele>97</ele>
        <time>2014-02-12T13:14:26Z</time>
      </trkpt>
      <trkpt lat="48.46255" lon="-2.83455">
        <ele>97</ele>
        <time>2014-02-12T13:14:28Z</time>
      </trkpt>
      <trkpt lat="48.46254" lon="-2.83452">
        <ele>97</ele>
        <time>2014-02-12T13:14:30Z</time>
      </trkpt>
      <trkpt lat="48.46254" lon="-2.83448">
        <ele>97</ele>
        <time>2014-02-12T13:14:32Z</time>
      </trkpt>
      <trkpt lat="48.46253" lon="-2.83444">
        <ele>97</ele>
        <time>2014-02-12T13:14:34Z</time>
      </trkpt>
      <trkpt lat="48.46253" lon="-2.8344">
        <ele>97</ele>
        <time>2014-02-12T13:14:36Z</time>
      </trkpt>
      <trkpt lat="48.46252" lon="-2.83436">
        <ele>97</ele>
        <time>2014-02-12T13:14:38Z</time>
      </trkpt>
      <trkpt lat="48.46252" lon="-2.83431">
        <ele>97</ele>
        <time>2014-02-12T13:14:40Z</time>
      </trkpt>
      <trkpt lat="48.46251" lon="-2.83427">
        <ele>97</ele>
        <time>2014-02-12T13:14:43Z</time>
      </trkpt>
      <trkpt lat="48.46249" lon="-2.83423">
        <ele>97</ele>
        <time>2014-02-12T13:14:45Z</time>
      </trkpt>
      <trkpt lat="48.46247" lon="-2.8342">
        <ele>97</ele>
        <time>2014-02-12T13:14:47Z</time>
      </trkpt>
      <trkpt lat="48.46244" lon="-2.83416">
        <ele>97</ele>
        <time>2014-02-12T13:14:50Z</time>
      </trkpt>
      <trkpt lat="48.46242" lon="-2.83414">
        <ele>97</ele>
        <time>2014-02-12T13:14:52Z</time>
      </trkpt>
      <trkpt lat="48.46239" lon="-2.83412">
        <ele>97</ele>
        <time>2014-02-12T13:14:54Z</time>
      </trkpt>
      <trkpt lat="48.46236" lon="-2.8341">
        <ele>97</ele>
        <time>2014-02-12T13:14:56Z</time>
      </trkpt>
      <trkpt lat="48.46233" lon="-2.83409">
        <ele>97</ele>
        <time>2014-02-12T13:14:58Z</time>
      </trkpt>
      <trkpt lat="48.46229" lon="-2.8341">
        <ele>95</ele>
        <time>2014-02-12T13:15:01Z</time>
      </trkpt>
      <trkpt lat="48.46226" lon="-2.83409">
        <ele>94</ele>
        <time>2014-02-12T13:15:03Z</time>
      </trkpt>
      <trkpt lat="48.46223" lon="-2.83408">
        <ele>93</ele>
        <time>2014-02-12T13:15:05Z</time>
      </trkpt>
      <trkpt lat="48.46221" lon="-2.83407">
        <ele>91</ele>
        <time>2014-02-12T13:15:07Z</time>
      </trkpt>
      <trkpt lat="48.46217" lon="-2.83406">
        <ele>90</ele>
        <time>2014-02-12T13:15:09Z</time>
      </trkpt>
      <trkpt lat="48.46214" lon="-2.83406">
        <ele>89</ele>
        <time>2014-02-12T13:15:11Z</time>
      </trkpt>
      <trkpt lat="48.46212" lon="-2.83406">
        <ele>88</ele>
        <time>2014-02-12T13:15:13Z</time>
      </trkpt>
      <trkpt lat="48.4621" lon="-2.83404">
        <ele>87</ele>
        <time>2014-02-12T13:15:15Z</time>
      </trkpt>
      <trkpt lat="48.46207" lon="-2.83401">
        <ele>87</ele>
        <time>2014-02-12T13:15:17Z</time>
      </trkpt>
      <trkpt lat="48.46205" lon="-2.83399">
        <ele>87</ele>
        <time>2014-02-12T13:15:19Z</time>
      </trkpt>
      <trkpt lat="48.46203" lon="-2.83396">
        <ele>86</ele>
        <time>2014-02-12T13:15:21Z</time>
      </trkpt>
      <trkpt lat="48.462" lon="-2.83391">
        <ele>85</ele>
        <time>2014-02-12T13:15:24Z</time>
      </trkpt>
      <trkpt lat="48.46198" lon="-2.83388">
        <ele>85</ele>
        <time>2014-02-12T13:15:26Z</time>
      </trkpt>
      <trkpt lat="48.46195" lon="-2.83384">
        <ele>85</ele>
        <time>2014-02-12T13:15:28Z</time>
      </trkpt>
      <trkpt lat="48.46193" lon="-2.83382">
        <ele>85</ele>
        <time>2014-02-12T13:15:30Z</time>
      </trkpt>
      <trkpt lat="48.46189" lon="-2.83377">
        <ele>85</ele>
        <time>2014-02-12T13:15:33Z</time>
      </trkpt>
      <trkpt lat="48.46188" lon="-2.83375">
        <ele>85</ele>
        <time>2014-02-12T13:15:35Z</time>
      </trkpt>
      <trkpt lat="48.46186" lon="-2.83371">
        <ele>85</ele>
        <time>2014-02-12T13:15:37Z</time>
      </trkpt>
      <trkpt lat="48.46184" lon="-2.83368">
        <ele>85</ele>
        <time>2014-02-12T13:15:39Z</time>
      </trkpt>
      <trkpt lat="48.46182" lon="-2.83364">
        <ele>85</ele>
        <time>2014-02-12T13:15:41Z</time>
      </trkpt>
      <trkpt lat="48.4618" lon="-2.83361">
        <ele>85</ele>
        <time>2014-02-12T13:15:43Z</time>
      </trkpt>
      <trkpt lat="48.46178" lon="-2.83358">
        <ele>85</ele>
        <time>2014-02-12T13:15:45Z</time>
      </trkpt>
      <trkpt lat="48.46176" lon="-2.83353">
        <ele>85</ele>
        <time>2014-02-12T13:15:48Z</time>
      </trkpt>
      <trkpt lat="48.46175" lon="-2.83351">
        <ele>86</ele>
        <time>2014-02-12T13:15:50Z</time>
      </trkpt>
      <trkpt lat="48.46174" lon="-2.83349">
        <ele>88</ele>
        <time>2014-02-12T13:15:52Z</time>
      </trkpt>
      <trkpt lat="48.46173" lon="-2.83347">
        <ele>90</ele>
        <time>2014-02-12T13:15:54Z</time>
      </trkpt>
      <trkpt lat="48.46173" lon="-2.83344">
        <ele>92</ele>
        <time>2014-02-12T13:15:56Z</time>
      </trkpt>
      <trkpt lat="48.46173" lon="-2.83342">
        <ele>94</ele>
        <time>2014-02-12T13:15:58Z</time>
      </trkpt>
      <trkpt lat="48.46172" lon="-2.83341">
        <ele>95</ele>
        <time>2014-02-12T13:16:00Z</time>
      </trkpt>
      <trkpt lat="48.46172" lon="-2.83339">
        <ele>96</ele>
        <time>2014-02-12T13:16:02Z</time>
      </trkpt>
      <trkpt lat="48.46171" lon="-2.83335">
        <ele>97</ele>
        <time>2014-02-12T13:16:04Z</time>
      </trkpt>
      <trkpt lat="48.46171" lon="-2.8333">
        <ele>97</ele>
        <time>2014-02-12T13:16:07Z</time>
      </trkpt>
      <trkpt lat="48.4617" lon="-2.83326">
        <ele>97</ele>
        <time>2014-02-12T13:16:09Z</time>
      </trkpt>
      <trkpt lat="48.4617" lon="-2.83323">
        <ele>97</ele>
        <time>2014-02-12T13:16:11Z</time>
      </trkpt>
      <trkpt lat="48.4617" lon="-2.83319">
        <ele>97</ele>
        <time>2014-02-12T13:16:13Z</time>
      </trkpt>
      <trkpt lat="48.4617" lon="-2.83315">
        <ele>97</ele>
        <time>2014-02-12T13:16:15Z</time>
      </trkpt>
      <trkpt lat="48.46171" lon="-2.83311">
        <ele>97</ele>
        <time>2014-02-12T13:16:17Z</time>
      </trkpt>
      <trkpt lat="48.4617" lon="-2.83308">
        <ele>97</ele>
        <time>2014-02-12T13:16:19Z</time>
      </trkpt>
      <trkpt lat="48.4617" lon="-2.83304">
        <ele>97</ele>
        <time>2014-02-12T13:16:21Z</time>
      </trkpt>
      <trkpt lat="48.46169" lon="-2.833">
        <ele>97</ele>
        <time>2014-02-12T13:16:23Z</time>
      </trkpt>
      <trkpt lat="48.46169" lon="-2.83297">
        <ele>97</ele>
        <time>2014-02-12T13:16:25Z</time>
      </trkpt>
      <trkpt lat="48.46167" lon="-2.83292">
        <ele>97</ele>
        <time>2014-02-12T13:16:28Z</time>
      </trkpt>
      <trkpt lat="48.46166" lon="-2.83288">
        <ele>98</ele>
        <time>2014-02-12T13:16:31Z</time>
      </trkpt>
      <trkpt lat="48.46165" lon="-2.83284">
        <ele>98</ele>
        <time>2014-02-12T13:16:33Z</time>
      </trkpt>
      <trkpt lat="48.46164" lon="-2.83281">
        <ele>99</ele>
        <time>2014-02-12T13:16:35Z</time>
      </trkpt>
      <trkpt lat="48.46163" lon="-2.83279">
        <ele>100</ele>
        <time>2014-02-12T13:16:37Z</time>
      </trkpt>
      <trkpt lat="48.4616" lon="-2.83275">
        <ele>101</ele>
        <time>2014-02-12T13:16:40Z</time>
      </trkpt>
      <trkpt lat="48.46158" lon="-2.83272">
        <ele>102</ele>
        <time>2014-02-12T13:16:42Z</time>
      </trkpt>
      <trkpt lat="48.46156" lon="-2.83269">
        <ele>103</ele>
        <time>2014-02-12T13:16:44Z</time>
      </trkpt>
      <trkpt lat="48.46155" lon="-2.83265">
        <ele>103</ele>
        <time>2014-02-12T13:16:46Z</time>
      </trkpt>
      <trkpt lat="48.46153" lon="-2.83263">
        <ele>103</ele>
        <time>2014-02-12T13:16:48Z</time>
      </trkpt>
      <trkpt lat="48.46151" lon="-2.83261">
        <ele>103</ele>
        <time>2014-02-12T13:16:50Z</time>
      </trkpt>
      <trkpt lat="48.46149" lon="-2.83258">
        <ele>104</ele>
        <time>2014-02-12T13:16:52Z</time>
      </trkpt>
      <trkpt lat="48.46147" lon="-2.83254">
        <ele>105</ele>
        <time>2014-02-12T13:16:55Z</time>
      </trkpt>
      <trkpt lat="48.46145" lon="-2.8325">
        <ele>105</ele>
        <time>2014-02-12T13:16:57Z</time>
      </trkpt>
      <trkpt lat="48.46144" lon="-2.83247">
        <ele>106</ele>
        <time>2014-02-12T13:16:59Z</time>
      </trkpt>
      <trkpt lat="48.46143" lon="-2.83245">
        <ele>106</ele>
        <time>2014-02-12T13:17:01Z</time>
      </trkpt>
      <trkpt lat="48.46141" lon="-2.83241">
        <ele>106</ele>
        <time>2014-02-12T13:17:03Z</time>
      </trkpt>
      <trkpt lat="48.46141" lon="-2.8324">
        <ele>106</ele>
        <time>2014-02-12T13:17:05Z</time>
      </trkpt>
      <trkpt lat="48.4614" lon="-2.83238">
        <ele>106</ele>
        <time>2014-02-12T13:17:11Z</time>
      </trkpt>
      <trkpt lat="48.46139" lon="-2.83237">
        <ele>106</ele>
        <time>2014-02-12T13:17:17Z</time>
      </trkpt>
      <trkpt lat="48.46138" lon="-2.83237">
        <ele>106</ele>
        <time>2014-02-12T13:17:19Z</time>
      </trkpt>
      <trkpt lat="48.46136" lon="-2.83236">
        <ele>106</ele>
        <time>2014-02-12T13:17:22Z</time>
      </trkpt>
      <trkpt lat="48.46135" lon="-2.83236">
        <ele>106</ele>
        <time>2014-02-12T13:17:25Z</time>
      </trkpt>
      <trkpt lat="48.46134" lon="-2.83234">
        <ele>106</ele>
        <time>2014-02-12T13:17:28Z</time>
      </trkpt>
      <trkpt lat="48.46133" lon="-2.83233">
        <ele>106</ele>
        <time>2014-02-12T13:17:30Z</time>
      </trkpt>
      <trkpt lat="48.46132" lon="-2.83232">
        <ele>106</ele>
        <time>2014-02-12T13:17:33Z</time>
      </trkpt>
      <trkpt lat="48.4613" lon="-2.83232">
        <ele>106</ele>
        <time>2014-02-12T13:17:35Z</time>
      </trkpt>
      <trkpt lat="48.46128" lon="-2.83231">
        <ele>106</ele>
        <time>2014-02-12T13:17:37Z</time>
      </trkpt>
      <trkpt lat="48.46126" lon="-2.83229">
        <ele>106</ele>
        <time>2014-02-12T13:17:39Z</time>
      </trkpt>
      <trkpt lat="48.46125" lon="-2.83228">
        <ele>106</ele>
        <time>2014-02-12T13:17:43Z</time>
      </trkpt>
      <trkpt lat="48.46125" lon="-2.83226">
        <ele>106</ele>
        <time>2014-02-12T13:17:46Z</time>
      </trkpt>
      <trkpt lat="48.46123" lon="-2.83224">
        <ele>106</ele>
        <time>2014-02-12T13:17:48Z</time>
      </trkpt>
      <trkpt lat="48.46122" lon="-2.83222">
        <ele>106</ele>
        <time>2014-02-12T13:17:50Z</time>
      </trkpt>
      <trkpt lat="48.46122" lon="-2.8322">
        <ele>106</ele>
        <time>2014-02-12T13:17:52Z</time>
      </trkpt>
      <trkpt lat="48.46122" lon="-2.83218">
        <ele>106</ele>
        <time>2014-02-12T13:17:57Z</time>
      </trkpt>
      <trkpt lat="48.4612" lon="-2.83216">
        <ele>106</ele>
        <time>2014-02-12T13:17:59Z</time>
      </trkpt>
      <trkpt lat="48.46119" lon="-2.83214">
        <ele>106</ele>
        <time>2014-02-12T13:18:01Z</time>
      </trkpt>
      <trkpt lat="48.46118" lon="-2.83213">
        <ele>106</ele>
        <time>2014-02-12T13:18:05Z</time>
      </trkpt>
      <trkpt lat="48.46117" lon="-2.83211">
        <ele>106</ele>
        <time>2014-02-12T13:18:08Z</time>
      </trkpt>
      <trkpt lat="48.46116" lon="-2.83209">
        <ele>106</ele>
        <time>2014-02-12T13:18:10Z</time>
      </trkpt>
      <trkpt lat="48.46114" lon="-2.83208">
        <ele>106</ele>
        <time>2014-02-12T13:18:13Z</time>
      </trkpt>
      <trkpt lat="48.46113" lon="-2.83206">
        <ele>104</ele>
        <time>2014-02-12T13:18:16Z</time>
      </trkpt>
      <trkpt lat="48.46112" lon="-2.83204">
        <ele>103</ele>
        <time>2014-02-12T13:18:18Z</time>
      </trkpt>
      <trkpt lat="48.46112" lon="-2.83202">
        <ele>101</ele>
        <time>2014-02-12T13:18:20Z</time>
      </trkpt>
      <trkpt lat="48.4611" lon="-2.832">
        <ele>100</ele>
        <time>2014-02-12T13:18:24Z</time>
      </trkpt>
      <trkpt lat="48.46108" lon="-2.832">
        <ele>100</ele>
        <time>2014-02-12T13:18:26Z</time>
      </trkpt>
      <trkpt lat="48.46106" lon="-2.83199">
        <ele>100</ele>
        <time>2014-02-12T13:18:28Z</time>
      </trkpt>
      <trkpt lat="48.46105" lon="-2.83198">
        <ele>100</ele>
        <time>2014-02-12T13:18:30Z</time>
      </trkpt>
      <trkpt lat="48.46103" lon="-2.83198">
        <ele>100</ele>
        <time>2014-02-12T13:18:32Z</time>
      </trkpt>
      <trkpt lat="48.46102" lon="-2.83197">
        <ele>100</ele>
        <time>2014-02-12T13:18:34Z</time>
      </trkpt>
      <trkpt lat="48.461" lon="-2.83196">
        <ele>100</ele>
        <time>2014-02-12T13:18:36Z</time>
      </trkpt>
      <trkpt lat="48.46099" lon="-2.83194">
        <ele>100</ele>
        <time>2014-02-12T13:18:38Z</time>
      </trkpt>
      <trkpt lat="48.46097" lon="-2.83193">
        <ele>100</ele>
        <time>2014-02-12T13:18:40Z</time>
      </trkpt>
      <trkpt lat="48.46096" lon="-2.83192">
        <ele>100</ele>
        <time>2014-02-12T13:18:42Z</time>
      </trkpt>
      <trkpt lat="48.46095" lon="-2.83192">
        <ele>100</ele>
        <time>2014-02-12T13:18:46Z</time>
      </trkpt>
      <trkpt lat="48.46094" lon="-2.83191">
        <ele>100</ele>
        <time>2014-02-12T13:18:48Z</time>
      </trkpt>
      <trkpt lat="48.46092" lon="-2.8319">
        <ele>100</ele>
        <time>2014-02-12T13:18:51Z</time>
      </trkpt>
      <trkpt lat="48.46091" lon="-2.83188">
        <ele>100</ele>
        <time>2014-02-12T13:18:54Z</time>
      </trkpt>
      <trkpt lat="48.4609" lon="-2.83188">
        <ele>100</ele>
        <time>2014-02-12T13:18:57Z</time>
      </trkpt>
      <trkpt lat="48.46088" lon="-2.83188">
        <ele>100</ele>
        <time>2014-02-12T13:18:59Z</time>
      </trkpt>
      <trkpt lat="48.46087" lon="-2.83188">
        <ele>100</ele>
        <time>2014-02-12T13:19:01Z</time>
      </trkpt>
      <trkpt lat="48.46085" lon="-2.83187">
        <ele>100</ele>
        <time>2014-02-12T13:19:03Z</time>
      </trkpt>
      <trkpt lat="48.46084" lon="-2.83187">
        <ele>100</ele>
        <time>2014-02-12T13:19:05Z</time>
      </trkpt>
      <trkpt lat="48.46083" lon="-2.83186">
        <ele>100</ele>
        <time>2014-02-12T13:19:07Z</time>
      </trkpt>
      <trkpt lat="48.46081" lon="-2.83184">
        <ele>100</ele>
        <time>2014-02-12T13:19:09Z</time>
      </trkpt>
      <trkpt lat="48.46079" lon="-2.83183">
        <ele>99</ele>
        <time>2014-02-12T13:19:11Z</time>
      </trkpt>
      <trkpt lat="48.46077" lon="-2.8318">
        <ele>99</ele>
        <time>2014-02-12T13:19:14Z</time>
      </trkpt>
      <trkpt lat="48.46075" lon="-2.83179">
        <ele>98</ele>
        <time>2014-02-12T13:19:16Z</time>
      </trkpt>
      <trkpt lat="48.46073" lon="-2.83178">
        <ele>97</ele>
        <time>2014-02-12T13:19:18Z</time>
      </trkpt>
      <trkpt lat="48.46071" lon="-2.83176">
        <ele>97</ele>
        <time>2014-02-12T13:19:20Z</time>
      </trkpt>
      <trkpt lat="48.46068" lon="-2.83176">
        <ele>97</ele>
        <time>2014-02-12T13:19:23Z</time>
      </trkpt>
      <trkpt lat="48.46067" lon="-2.83175">
        <ele>97</ele>
        <time>2014-02-12T13:19:25Z</time>
      </trkpt>
      <trkpt lat="48.46065" lon="-2.83175">
        <ele>96</ele>
        <time>2014-02-12T13:19:27Z</time>
      </trkpt>
      <trkpt lat="48.46063" lon="-2.83174">
        <ele>96</ele>
        <time>2014-02-12T13:19:29Z</time>
      </trkpt>
      <trkpt lat="48.46061" lon="-2.83173">
        <ele>96</ele>
        <time>2014-02-12T13:19:31Z</time>
      </trkpt>
      <trkpt lat="48.4606" lon="-2.83172">
        <ele>95</ele>
        <time>2014-02-12T13:19:35Z</time>
      </trkpt>
      <trkpt lat="48.46059" lon="-2.83173">
        <ele>95</ele>
        <time>2014-02-12T13:19:37Z</time>
      </trkpt>
      <trkpt lat="48.46057" lon="-2.83172">
        <ele>94</ele>
        <time>2014-02-12T13:19:39Z</time>
      </trkpt>
      <trkpt lat="48.46056" lon="-2.83172">
        <ele>94</ele>
        <time>2014-02-12T13:19:41Z</time>
      </trkpt>
      <trkpt lat="48.46054" lon="-2.83171">
        <ele>94</ele>
        <time>2014-02-12T13:19:43Z</time>
      </trkpt>
      <trkpt lat="48.46053" lon="-2.83171">
        <ele>93</ele>
        <time>2014-02-12T13:19:45Z</time>
      </trkpt>
      <trkpt lat="48.46051" lon="-2.83171">
        <ele>93</ele>
        <time>2014-02-12T13:19:47Z</time>
      </trkpt>
      <trkpt lat="48.46049" lon="-2.83171">
        <ele>93</ele>
        <time>2014-02-12T13:19:49Z</time>
      </trkpt>
      <trkpt lat="48.46048" lon="-2.83171">
        <ele>93</ele>
        <time>2014-02-12T13:19:52Z</time>
      </trkpt>
      <trkpt lat="48.46047" lon="-2.83171">
        <ele>93</ele>
        <time>2014-02-12T13:19:56Z</time>
      </trkpt>
      <trkpt lat="48.46046" lon="-2.83173">
        <ele>92</ele>
        <time>2014-02-12T13:20:03Z</time>
      </trkpt>
      <trkpt lat="48.46046" lon="-2.83174">
        <ele>92</ele>
        <time>2014-02-12T13:20:05Z</time>
      </trkpt>
      <trkpt lat="48.46048" lon="-2.83176">
        <ele>92</ele>
        <time>2014-02-12T13:20:07Z</time>
      </trkpt>
      <trkpt lat="48.46049" lon="-2.83177">
        <ele>92</ele>
        <time>2014-02-12T13:20:09Z</time>
      </trkpt>
      <trkpt lat="48.4605" lon="-2.8318">
        <ele>92</ele>
        <time>2014-02-12T13:20:11Z</time>
      </trkpt>
      <trkpt lat="48.46049" lon="-2.83181">
        <ele>92</ele>
        <time>2014-02-12T13:20:14Z</time>
      </trkpt>
      <trkpt lat="48.46048" lon="-2.83182">
        <ele>92</ele>
        <time>2014-02-12T13:20:17Z</time>
      </trkpt>
      <trkpt lat="48.46046" lon="-2.83182">
        <ele>92</ele>
        <time>2014-02-12T13:20:19Z</time>
      </trkpt>
      <trkpt lat="48.46045" lon="-2.83182">
        <ele>92</ele>
        <time>2014-02-12T13:20:21Z</time>
      </trkpt>
      <trkpt lat="48.46043" lon="-2.83182">
        <ele>92</ele>
        <time>2014-02-12T13:20:27Z</time>
      </trkpt>
      <trkpt lat="48.46041" lon="-2.83182">
        <ele>92</ele>
        <time>2014-02-12T13:20:29Z</time>
      </trkpt>
      <trkpt lat="48.46042" lon="-2.83179">
        <ele>92</ele>
        <time>2014-02-12T13:20:31Z</time>
      </trkpt>
      <trkpt lat="48.46043" lon="-2.83178">
        <ele>90</ele>
        <time>2014-02-12T13:20:33Z</time>
      </trkpt>
      <trkpt lat="48.46044" lon="-2.83179">
        <ele>87</ele>
        <time>2014-02-12T13:20:45Z</time>
      </trkpt>
      <trkpt lat="48.46045" lon="-2.83182">
        <ele>88</ele>
        <time>2014-02-12T13:20:52Z</time>
      </trkpt>
      <trkpt lat="48.46047" lon="-2.83182">
        <ele>89</ele>
        <time>2014-02-12T13:20:54Z</time>
      </trkpt>
      <trkpt lat="48.46049" lon="-2.83183">
        <ele>89</ele>
        <time>2014-02-12T13:20:56Z</time>
      </trkpt>
      <trkpt lat="48.46052" lon="-2.83186">
        <ele>89</ele>
        <time>2014-02-12T13:20:58Z</time>
      </trkpt>
      <trkpt lat="48.46056" lon="-2.83189">
        <ele>90</ele>
        <time>2014-02-12T13:21:00Z</time>
      </trkpt>
      <trkpt lat="48.46057" lon="-2.83195">
        <ele>93</ele>
        <time>2014-02-12T13:21:03Z</time>
      </trkpt>
      <trkpt lat="48.46056" lon="-2.832">
        <ele>98</ele>
        <time>2014-02-12T13:21:08Z</time>
      </trkpt>
      <trkpt lat="48.46058" lon="-2.83202">
        <ele>99</ele>
        <time>2014-02-12T13:21:10Z</time>
      </trkpt>
      <trkpt lat="48.46059" lon="-2.83204">
        <ele>99</ele>
        <time>2014-02-12T13:21:12Z</time>
      </trkpt>
      <trkpt lat="48.4606" lon="-2.83206">
        <ele>99</ele>
        <time>2014-02-12T13:21:14Z</time>
      </trkpt>
      <trkpt lat="48.46059" lon="-2.83207">
        <ele>99</ele>
        <time>2014-02-12T13:21:19Z</time>
      </trkpt>
      <trkpt lat="48.46059" lon="-2.83209">
        <ele>99</ele>
        <time>2014-02-12T13:21:27Z</time>
      </trkpt>
      <trkpt lat="48.4606" lon="-2.83214">
        <ele>99</ele>
        <time>2014-02-12T13:21:31Z</time>
      </trkpt>
      <trkpt lat="48.46061" lon="-2.83216">
        <ele>99</ele>
        <time>2014-02-12T13:21:33Z</time>
      </trkpt>
      <trkpt lat="48.46061" lon="-2.83218">
        <ele>99</ele>
        <time>2014-02-12T13:21:35Z</time>
      </trkpt>
      <trkpt lat="48.46061" lon="-2.8322">
        <ele>99</ele>
        <time>2014-02-12T13:21:39Z</time>
      </trkpt>
      <trkpt lat="48.46059" lon="-2.83223">
        <ele>98</ele>
        <time>2014-02-12T13:21:43Z</time>
      </trkpt>
      <trkpt lat="48.46059" lon="-2.83226">
        <ele>93</ele>
        <time>2014-02-12T13:22:01Z</time>
      </trkpt>
      <trkpt lat="48.46057" lon="-2.8323">
        <ele>92</ele>
        <time>2014-02-12T13:22:04Z</time>
      </trkpt>
      <trkpt lat="48.46056" lon="-2.83232">
        <ele>91</ele>
        <time>2014-02-12T13:22:07Z</time>
      </trkpt>
      <trkpt lat="48.46053" lon="-2.83232">
        <ele>90</ele>
        <time>2014-02-12T13:22:09Z</time>
      </trkpt>
      <trkpt lat="48.46054" lon="-2.83231">
        <ele>89</ele>
        <time>2014-02-12T13:22:19Z</time>
      </trkpt>
      <trkpt lat="48.46058" lon="-2.83233">
        <ele>89</ele>
        <time>2014-02-12T13:22:23Z</time>
      </trkpt>
      <trkpt lat="48.46057" lon="-2.83232">
        <ele>89</ele>
        <time>2014-02-12T13:22:42Z</time>
      </trkpt>
      <trkpt lat="48.46056" lon="-2.83234">
        <ele>87</ele>
        <time>2014-02-12T13:22:49Z</time>
      </trkpt>
      <trkpt lat="48.46056" lon="-2.83232">
        <ele>87</ele>
        <time>2014-02-12T13:23:01Z</time>
      </trkpt>
      <trkpt lat="48.46057" lon="-2.83227">
        <ele>86</ele>
        <time>2014-02-12T13:23:04Z</time>
      </trkpt>
      <trkpt lat="48.46059" lon="-2.83224">
        <ele>86</ele>
        <time>2014-02-12T13:23:06Z</time>
      </trkpt>
      <trkpt lat="48.46061" lon="-2.83218">
        <ele>86</ele>
        <time>2014-02-12T13:23:09Z</time>
      </trkpt>
      <trkpt lat="48.4606" lon="-2.83214">
        <ele>85</ele>
        <time>2014-02-12T13:23:11Z</time>
      </trkpt>
      <trkpt lat="48.46059" lon="-2.8321">
        <ele>85</ele>
        <time>2014-02-12T13:23:13Z</time>
      </trkpt>
      <trkpt lat="48.46056" lon="-2.83206">
        <ele>85</ele>
        <time>2014-02-12T13:23:15Z</time>
      </trkpt>
      <trkpt lat="48.46055" lon="-2.83203">
        <ele>85</ele>
        <time>2014-02-12T13:23:18Z</time>
      </trkpt>
      <trkpt lat="48.46051" lon="-2.83198">
        <ele>85</ele>
        <time>2014-02-12T13:23:21Z</time>
      </trkpt>
      <trkpt lat="48.46049" lon="-2.83196">
        <ele>85</ele>
        <time>2014-02-12T13:23:24Z</time>
      </trkpt>
      <trkpt lat="48.46047" lon="-2.8319">
        <ele>85</ele>
        <time>2014-02-12T13:23:27Z</time>
      </trkpt>
      <trkpt lat="48.46045" lon="-2.83189">
        <ele>85</ele>
        <time>2014-02-12T13:23:30Z</time>
      </trkpt>
      <trkpt lat="48.46042" lon="-2.83186">
        <ele>85</ele>
        <time>2014-02-12T13:23:33Z</time>
      </trkpt>
      <trkpt lat="48.4604" lon="-2.83182">
        <ele>85</ele>
        <time>2014-02-12T13:23:35Z</time>
      </trkpt>
      <trkpt lat="48.46036" lon="-2.83179">
        <ele>85</ele>
        <time>2014-02-12T13:23:37Z</time>
      </trkpt>
      <trkpt lat="48.46034" lon="-2.83177">
        <ele>85</ele>
        <time>2014-02-12T13:23:40Z</time>
      </trkpt>
      <trkpt lat="48.4603" lon="-2.83174">
        <ele>85</ele>
        <time>2014-02-12T13:23:42Z</time>
      </trkpt>
      <trkpt lat="48.46029" lon="-2.83171">
        <ele>85</ele>
        <time>2014-02-12T13:23:45Z</time>
      </trkpt>
      <trkpt lat="48.46026" lon="-2.83169">
        <ele>85</ele>
        <time>2014-02-12T13:23:47Z</time>
      </trkpt>
      <trkpt lat="48.46022" lon="-2.83166">
        <ele>85</ele>
        <time>2014-02-12T13:23:50Z</time>
      </trkpt>
      <trkpt lat="48.46017" lon="-2.83167">
        <ele>85</ele>
        <time>2014-02-12T13:23:52Z</time>
      </trkpt>
      <trkpt lat="48.46016" lon="-2.83165">
        <ele>85</ele>
        <time>2014-02-12T13:23:54Z</time>
      </trkpt>
      <trkpt lat="48.46014" lon="-2.83165">
        <ele>85</ele>
        <time>2014-02-12T13:23:57Z</time>
      </trkpt>
      <trkpt lat="48.46011" lon="-2.83165">
        <ele>85</ele>
        <time>2014-02-12T13:24:00Z</time>
      </trkpt>
      <trkpt lat="48.46009" lon="-2.83164">
        <ele>85</ele>
        <time>2014-02-12T13:24:03Z</time>
      </trkpt>
      <trkpt lat="48.46008" lon="-2.83163">
        <ele>85</ele>
        <time>2014-02-12T13:24:05Z</time>
      </trkpt>
      <trkpt lat="48.46007" lon="-2.83163">
        <ele>85</ele>
        <time>2014-02-12T13:24:09Z</time>
      </trkpt>
      <trkpt lat="48.46003" lon="-2.83165">
        <ele>85</ele>
        <time>2014-02-12T13:24:12Z</time>
      </trkpt>
      <trkpt lat="48.46003" lon="-2.83167">
        <ele>85</ele>
        <time>2014-02-12T13:24:18Z</time>
      </trkpt>
      <trkpt lat="48.45999" lon="-2.83166">
        <ele>85</ele>
        <time>2014-02-12T13:24:20Z</time>
      </trkpt>
      <trkpt lat="48.45996" lon="-2.83166">
        <ele>85</ele>
        <time>2014-02-12T13:24:23Z</time>
      </trkpt>
      <trkpt lat="48.45991" lon="-2.83166">
        <ele>85</ele>
        <time>2014-02-12T13:24:25Z</time>
      </trkpt>
      <trkpt lat="48.45988" lon="-2.83166">
        <ele>85</ele>
        <time>2014-02-12T13:24:28Z</time>
      </trkpt>
      <trkpt lat="48.45984" lon="-2.83165">
        <ele>85</ele>
        <time>2014-02-12T13:24:31Z</time>
      </trkpt>
      <trkpt lat="48.45979" lon="-2.83163">
        <ele>85</ele>
        <time>2014-02-12T13:24:34Z</time>
      </trkpt>
      <trkpt lat="48.45975" lon="-2.83164">
        <ele>85</ele>
        <time>2014-02-12T13:24:36Z</time>
      </trkpt>
      <trkpt lat="48.45972" lon="-2.83164">
        <ele>84</ele>
        <time>2014-02-12T13:24:39Z</time>
      </trkpt>
      <trkpt lat="48.45968" lon="-2.83163">
        <ele>83</ele>
        <time>2014-02-12T13:24:41Z</time>
      </trkpt>
      <trkpt lat="48.45965" lon="-2.83164">
        <ele>82</ele>
        <time>2014-02-12T13:24:44Z</time>
      </trkpt>
      <trkpt lat="48.4596" lon="-2.83165">
        <ele>80</ele>
        <time>2014-02-12T13:24:46Z</time>
      </trkpt>
      <trkpt lat="48.45956" lon="-2.83167">
        <ele>80</ele>
        <time>2014-02-12T13:24:49Z</time>
      </trkpt>
      <trkpt lat="48.45952" lon="-2.83167">
        <ele>79</ele>
        <time>2014-02-12T13:24:51Z</time>
      </trkpt>
      <trkpt lat="48.45948" lon="-2.83169">
        <ele>77</ele>
        <time>2014-02-12T13:24:53Z</time>
      </trkpt>
      <trkpt lat="48.45945" lon="-2.8317">
        <ele>77</ele>
        <time>2014-02-12T13:24:55Z</time>
      </trkpt>
      <trkpt lat="48.45941" lon="-2.83172">
        <ele>77</ele>
        <time>2014-02-12T13:24:57Z</time>
      </trkpt>
      <trkpt lat="48.45938" lon="-2.83174">
        <ele>77</ele>
        <time>2014-02-12T13:24:59Z</time>
      </trkpt>
      <trkpt lat="48.45934" lon="-2.83176">
        <ele>77</ele>
        <time>2014-02-12T13:25:01Z</time>
      </trkpt>
      <trkpt lat="48.4593" lon="-2.83179">
        <ele>77</ele>
        <time>2014-02-12T13:25:04Z</time>
      </trkpt>
      <trkpt lat="48.45925" lon="-2.8318">
        <ele>77</ele>
        <time>2014-02-12T13:25:07Z</time>
      </trkpt>
      <trkpt lat="48.45921" lon="-2.83182">
        <ele>77</ele>
        <time>2014-02-12T13:25:09Z</time>
      </trkpt>
      <trkpt lat="48.45918" lon="-2.83183">
        <ele>77</ele>
        <time>2014-02-12T13:25:11Z</time>
      </trkpt>
      <trkpt lat="48.45915" lon="-2.83183">
        <ele>77</ele>
        <time>2014-02-12T13:25:14Z</time>
      </trkpt>
      <trkpt lat="48.45911" lon="-2.83184">
        <ele>77</ele>
        <time>2014-02-12T13:25:17Z</time>
      </trkpt>
      <trkpt lat="48.45908" lon="-2.83185">
        <ele>77</ele>
        <time>2014-02-12T13:25:19Z</time>
      </trkpt>
      <trkpt lat="48.45906" lon="-2.83185">
        <ele>78</ele>
        <time>2014-02-12T13:25:21Z</time>
      </trkpt>
      <trkpt lat="48.45903" lon="-2.83185">
        <ele>79</ele>
        <time>2014-02-12T13:25:24Z</time>
      </trkpt>
      <trkpt lat="48.45898" lon="-2.83185">
        <ele>81</ele>
        <time>2014-02-12T13:25:26Z</time>
      </trkpt>
      <trkpt lat="48.45895" lon="-2.83184">
        <ele>82</ele>
        <time>2014-02-12T13:25:29Z</time>
      </trkpt>
      <trkpt lat="48.45891" lon="-2.83185">
        <ele>84</ele>
        <time>2014-02-12T13:25:31Z</time>
      </trkpt>
      <trkpt lat="48.45889" lon="-2.83184">
        <ele>84</ele>
        <time>2014-02-12T13:25:34Z</time>
      </trkpt>
      <trkpt lat="48.45885" lon="-2.83184">
        <ele>84</ele>
        <time>2014-02-12T13:25:36Z</time>
      </trkpt>
      <trkpt lat="48.45882" lon="-2.83184">
        <ele>84</ele>
        <time>2014-02-12T13:25:39Z</time>
      </trkpt>
      <trkpt lat="48.45878" lon="-2.83186">
        <ele>84</ele>
        <time>2014-02-12T13:25:41Z</time>
      </trkpt>
      <trkpt lat="48.45875" lon="-2.83187">
        <ele>84</ele>
        <time>2014-02-12T13:25:43Z</time>
      </trkpt>
      <trkpt lat="48.45873" lon="-2.83189">
        <ele>86</ele>
        <time>2014-02-12T13:25:45Z</time>
      </trkpt>
      <trkpt lat="48.4587" lon="-2.83191">
        <ele>88</ele>
        <time>2014-02-12T13:25:47Z</time>
      </trkpt>
      <trkpt lat="48.45867" lon="-2.83192">
        <ele>90</ele>
        <time>2014-02-12T13:25:49Z</time>
      </trkpt>
      <trkpt lat="48.45864" lon="-2.83193">
        <ele>92</ele>
        <time>2014-02-12T13:25:51Z</time>
      </trkpt>
      <trkpt lat="48.45862" lon="-2.83195">
        <ele>93</ele>
        <time>2014-02-12T13:25:53Z</time>
      </trkpt>
      <trkpt lat="48.45859" lon="-2.83197">
        <ele>93</ele>
        <time>2014-02-12T13:25:55Z</time>
      </trkpt>
      <trkpt lat="48.45855" lon="-2.83199">
        <ele>93</ele>
        <time>2014-02-12T13:25:57Z</time>
      </trkpt>
      <trkpt lat="48.45852" lon="-2.832">
        <ele>93</ele>
        <time>2014-02-12T13:25:59Z</time>
      </trkpt>
      <trkpt lat="48.45849" lon="-2.83203">
        <ele>93</ele>
        <time>2014-02-12T13:26:01Z</time>
      </trkpt>
      <trkpt lat="48.45845" lon="-2.83206">
        <ele>93</ele>
        <time>2014-02-12T13:26:04Z</time>
      </trkpt>
      <trkpt lat="48.4584" lon="-2.8321">
        <ele>93</ele>
        <time>2014-02-12T13:26:06Z</time>
      </trkpt>
      <trkpt lat="48.45836" lon="-2.83212">
        <ele>93</ele>
        <time>2014-02-12T13:26:08Z</time>
      </trkpt>
      <trkpt lat="48.45833" lon="-2.83213">
        <ele>93</ele>
        <time>2014-02-12T13:26:10Z</time>
      </trkpt>
      <trkpt lat="48.4583" lon="-2.83216">
        <ele>93</ele>
        <time>2014-02-12T13:26:12Z</time>
      </trkpt>
      <trkpt lat="48.45827" lon="-2.83219">
        <ele>93</ele>
        <time>2014-02-12T13:26:14Z</time>
      </trkpt>
      <trkpt lat="48.45824" lon="-2.83221">
        <ele>93</ele>
        <time>2014-02-12T13:26:17Z</time>
      </trkpt>
      <trkpt lat="48.45822" lon="-2.83222">
        <ele>93</ele>
        <time>2014-02-12T13:26:19Z</time>
      </trkpt>
      <trkpt lat="48.45819" lon="-2.83223">
        <ele>93</ele>
        <time>2014-02-12T13:26:21Z</time>
      </trkpt>
      <trkpt lat="48.45816" lon="-2.83223">
        <ele>93</ele>
        <time>2014-02-12T13:26:23Z</time>
      </trkpt>
      <trkpt lat="48.45813" lon="-2.83224">
        <ele>92</ele>
        <time>2014-02-12T13:26:25Z</time>
      </trkpt>
      <trkpt lat="48.45809" lon="-2.83224">
        <ele>91</ele>
        <time>2014-02-12T13:26:28Z</time>
      </trkpt>
      <trkpt lat="48.45807" lon="-2.83224">
        <ele>89</ele>
        <time>2014-02-12T13:26:30Z</time>
      </trkpt>
      <trkpt lat="48.45803" lon="-2.83226">
        <ele>87</ele>
        <time>2014-02-12T13:26:32Z</time>
      </trkpt>
      <trkpt lat="48.458" lon="-2.83226">
        <ele>85</ele>
        <time>2014-02-12T13:26:35Z</time>
      </trkpt>
      <trkpt lat="48.45795" lon="-2.83226">
        <ele>83</ele>
        <time>2014-02-12T13:26:37Z</time>
      </trkpt>
      <trkpt lat="48.45791" lon="-2.83226">
        <ele>82</ele>
        <time>2014-02-12T13:26:40Z</time>
      </trkpt>
      <trkpt lat="48.45787" lon="-2.83227">
        <ele>81</ele>
        <time>2014-02-12T13:26:42Z</time>
      </trkpt>
      <trkpt lat="48.45784" lon="-2.83227">
        <ele>80</ele>
        <time>2014-02-12T13:26:45Z</time>
      </trkpt>
      <trkpt lat="48.45779" lon="-2.83228">
        <ele>79</ele>
        <time>2014-02-12T13:26:47Z</time>
      </trkpt>
      <trkpt lat="48.45777" lon="-2.83228">
        <ele>78</ele>
        <time>2014-02-12T13:26:50Z</time>
      </trkpt>
      <trkpt lat="48.45773" lon="-2.83227">
        <ele>76</ele>
        <time>2014-02-12T13:26:52Z</time>
      </trkpt>
      <trkpt lat="48.4577" lon="-2.83227">
        <ele>75</ele>
        <time>2014-02-12T13:26:55Z</time>
      </trkpt>
      <trkpt lat="48.45766" lon="-2.83227">
        <ele>74</ele>
        <time>2014-02-12T13:26:57Z</time>
      </trkpt>
      <trkpt lat="48.45763" lon="-2.83226">
        <ele>73</ele>
        <time>2014-02-12T13:27:00Z</time>
      </trkpt>
      <trkpt lat="48.4576" lon="-2.83228">
        <ele>73</ele>
        <time>2014-02-12T13:27:07Z</time>
      </trkpt>
      <trkpt lat="48.45759" lon="-2.83228">
        <ele>75</ele>
        <time>2014-02-12T13:27:09Z</time>
      </trkpt>
      <trkpt lat="48.45757" lon="-2.83228">
        <ele>76</ele>
        <time>2014-02-12T13:27:12Z</time>
      </trkpt>
      <trkpt lat="48.45753" lon="-2.83225">
        <ele>76</ele>
        <time>2014-02-12T13:27:14Z</time>
      </trkpt>
      <trkpt lat="48.45752" lon="-2.83225">
        <ele>76</ele>
        <time>2014-02-12T13:27:17Z</time>
      </trkpt>
      <trkpt lat="48.45747" lon="-2.83224">
        <ele>76</ele>
        <time>2014-02-12T13:27:20Z</time>
      </trkpt>
      <trkpt lat="48.45744" lon="-2.83225">
        <ele>76</ele>
        <time>2014-02-12T13:27:22Z</time>
      </trkpt>
      <trkpt lat="48.45741" lon="-2.83225">
        <ele>76</ele>
        <time>2014-02-12T13:27:24Z</time>
      </trkpt>
      <trkpt lat="48.45738" lon="-2.83225">
        <ele>76</ele>
        <time>2014-02-12T13:27:26Z</time>
      </trkpt>
      <trkpt lat="48.45734" lon="-2.83225">
        <ele>76</ele>
        <time>2014-02-12T13:27:28Z</time>
      </trkpt>
      <trkpt lat="48.45731" lon="-2.83224">
        <ele>76</ele>
        <time>2014-02-12T13:27:30Z</time>
      </trkpt>
      <trkpt lat="48.45729" lon="-2.83225">
        <ele>76</ele>
        <time>2014-02-12T13:27:32Z</time>
      </trkpt>
      <trkpt lat="48.45725" lon="-2.83226">
        <ele>76</ele>
        <time>2014-02-12T13:27:34Z</time>
      </trkpt>
      <trkpt lat="48.45723" lon="-2.83227">
        <ele>76</ele>
        <time>2014-02-12T13:27:37Z</time>
      </trkpt>
      <trkpt lat="48.45721" lon="-2.83228">
        <ele>76</ele>
        <time>2014-02-12T13:27:39Z</time>
      </trkpt>
      <trkpt lat="48.45719" lon="-2.83228">
        <ele>76</ele>
        <time>2014-02-12T13:27:41Z</time>
      </trkpt>
      <trkpt lat="48.45717" lon="-2.83227">
        <ele>76</ele>
        <time>2014-02-12T13:27:43Z</time>
      </trkpt>
      <trkpt lat="48.45715" lon="-2.83227">
        <ele>76</ele>
        <time>2014-02-12T13:27:45Z</time>
      </trkpt>
      <trkpt lat="48.45714" lon="-2.83229">
        <ele>76</ele>
        <time>2014-02-12T13:27:48Z</time>
      </trkpt>
      <trkpt lat="48.45714" lon="-2.83231">
        <ele>76</ele>
        <time>2014-02-12T13:27:58Z</time>
      </trkpt>
      <trkpt lat="48.45715" lon="-2.83232">
        <ele>81</ele>
        <time>2014-02-12T13:28:11Z</time>
      </trkpt>
      <trkpt lat="48.45715" lon="-2.83234">
        <ele>83</ele>
        <time>2014-02-12T13:28:16Z</time>
      </trkpt>
      <trkpt lat="48.45713" lon="-2.83233">
        <ele>86</ele>
        <time>2014-02-12T13:28:19Z</time>
      </trkpt>
      <trkpt lat="48.45715" lon="-2.83234">
        <ele>90</ele>
        <time>2014-02-12T13:28:29Z</time>
      </trkpt>
      <trkpt lat="48.45713" lon="-2.83235">
        <ele>92</ele>
        <time>2014-02-12T13:28:40Z</time>
      </trkpt>
      <trkpt lat="48.4571" lon="-2.83233">
        <ele>92</ele>
        <time>2014-02-12T13:28:43Z</time>
      </trkpt>
      <trkpt lat="48.45707" lon="-2.83233">
        <ele>92</ele>
        <time>2014-02-12T13:28:45Z</time>
      </trkpt>
      <trkpt lat="48.45703" lon="-2.83234">
        <ele>92</ele>
        <time>2014-02-12T13:28:47Z</time>
      </trkpt>
      <trkpt lat="48.45699" lon="-2.83234">
        <ele>92</ele>
        <time>2014-02-12T13:28:49Z</time>
      </trkpt>
      <trkpt lat="48.45696" lon="-2.83234">
        <ele>92</ele>
        <time>2014-02-12T13:28:51Z</time>
      </trkpt>
      <trkpt lat="48.45693" lon="-2.83232">
        <ele>92</ele>
        <time>2014-02-12T13:28:53Z</time>
      </trkpt>
      <trkpt lat="48.45691" lon="-2.83231">
        <ele>92</ele>
        <time>2014-02-12T13:28:56Z</time>
      </trkpt>
      <trkpt lat="48.45686" lon="-2.83229">
        <ele>91</ele>
        <time>2014-02-12T13:28:58Z</time>
      </trkpt>
      <trkpt lat="48.45683" lon="-2.83228">
        <ele>89</ele>
        <time>2014-02-12T13:29:01Z</time>
      </trkpt>
      <trkpt lat="48.45678" lon="-2.83226">
        <ele>86</ele>
        <time>2014-02-12T13:29:03Z</time>
      </trkpt>
      <trkpt lat="48.45674" lon="-2.83226">
        <ele>85</ele>
        <time>2014-02-12T13:29:05Z</time>
      </trkpt>
      <trkpt lat="48.4567" lon="-2.83227">
        <ele>84</ele>
        <time>2014-02-12T13:29:07Z</time>
      </trkpt>
      <trkpt lat="48.45667" lon="-2.83228">
        <ele>84</ele>
        <time>2014-02-12T13:29:09Z</time>
      </trkpt>
      <trkpt lat="48.45664" lon="-2.83228">
        <ele>84</ele>
        <time>2014-02-12T13:29:11Z</time>
      </trkpt>
      <trkpt lat="48.45661" lon="-2.8323">
        <ele>84</ele>
        <time>2014-02-12T13:29:13Z</time>
      </trkpt>
      <trkpt lat="48.45658" lon="-2.8323">
        <ele>84</ele>
        <time>2014-02-12T13:29:15Z</time>
      </trkpt>
      <trkpt lat="48.45656" lon="-2.8323">
        <ele>84</ele>
        <time>2014-02-12T13:29:17Z</time>
      </trkpt>
      <trkpt lat="48.45653" lon="-2.8323">
        <ele>84</ele>
        <time>2014-02-12T13:29:19Z</time>
      </trkpt>
      <trkpt lat="48.45651" lon="-2.83229">
        <ele>84</ele>
        <time>2014-02-12T13:29:24Z</time>
      </trkpt>
      <trkpt lat="48.4565" lon="-2.83231">
        <ele>84</ele>
        <time>2014-02-12T13:29:29Z</time>
      </trkpt>
      <trkpt lat="48.45648" lon="-2.83232">
        <ele>84</ele>
        <time>2014-02-12T13:29:31Z</time>
      </trkpt>
      <trkpt lat="48.45646" lon="-2.83234">
        <ele>84</ele>
        <time>2014-02-12T13:29:33Z</time>
      </trkpt>
      <trkpt lat="48.45644" lon="-2.83237">
        <ele>84</ele>
        <time>2014-02-12T13:29:35Z</time>
      </trkpt>
      <trkpt lat="48.45643" lon="-2.83239">
        <ele>84</ele>
        <time>2014-02-12T13:29:37Z</time>
      </trkpt>
      <trkpt lat="48.45641" lon="-2.8324">
        <ele>84</ele>
        <time>2014-02-12T13:29:39Z</time>
      </trkpt>
      <trkpt lat="48.45638" lon="-2.83242">
        <ele>84</ele>
        <time>2014-02-12T13:29:41Z</time>
      </trkpt>
      <trkpt lat="48.45636" lon="-2.83243">
        <ele>84</ele>
        <time>2014-02-12T13:29:43Z</time>
      </trkpt>
      <trkpt lat="48.45633" lon="-2.83243">
        <ele>84</ele>
        <time>2014-02-12T13:29:46Z</time>
      </trkpt>
      <trkpt lat="48.45629" lon="-2.83245">
        <ele>82</ele>
        <time>2014-02-12T13:29:48Z</time>
      </trkpt>
      <trkpt lat="48.45627" lon="-2.83247">
        <ele>81</ele>
        <time>2014-02-12T13:29:50Z</time>
      </trkpt>
      <trkpt lat="48.45624" lon="-2.83249">
        <ele>81</ele>
        <time>2014-02-12T13:29:52Z</time>
      </trkpt>
      <trkpt lat="48.45621" lon="-2.8325">
        <ele>80</ele>
        <time>2014-02-12T13:29:54Z</time>
      </trkpt>
      <trkpt lat="48.45618" lon="-2.8325">
        <ele>79</ele>
        <time>2014-02-12T13:29:56Z</time>
      </trkpt>
      <trkpt lat="48.45615" lon="-2.8325">
        <ele>78</ele>
        <time>2014-02-12T13:29:58Z</time>
      </trkpt>
      <trkpt lat="48.45612" lon="-2.8325">
        <ele>77</ele>
        <time>2014-02-12T13:30:00Z</time>
      </trkpt>
      <trkpt lat="48.45609" lon="-2.83251">
        <ele>77</ele>
        <time>2014-02-12T13:30:02Z</time>
      </trkpt>
      <trkpt lat="48.45606" lon="-2.83251">
        <ele>76</ele>
        <time>2014-02-12T13:30:04Z</time>
      </trkpt>
      <trkpt lat="48.45603" lon="-2.83252">
        <ele>76</ele>
        <time>2014-02-12T13:30:06Z</time>
      </trkpt>
      <trkpt lat="48.456" lon="-2.83255">
        <ele>76</ele>
        <time>2014-02-12T13:30:08Z</time>
      </trkpt>
      <trkpt lat="48.45596" lon="-2.83259">
        <ele>76</ele>
        <time>2014-02-12T13:30:10Z</time>
      </trkpt>
      <trkpt lat="48.45593" lon="-2.83261">
        <ele>76</ele>
        <time>2014-02-12T13:30:12Z</time>
      </trkpt>
      <trkpt lat="48.4559" lon="-2.83262">
        <ele>76</ele>
        <time>2014-02-12T13:30:15Z</time>
      </trkpt>
      <trkpt lat="48.45589" lon="-2.83264">
        <ele>77</ele>
        <time>2014-02-12T13:30:19Z</time>
      </trkpt>
      <trkpt lat="48.45589" lon="-2.83266">
        <ele>79</ele>
        <time>2014-02-12T13:30:21Z</time>
      </trkpt>
      <trkpt lat="48.4559" lon="-2.83267">
        <ele>83</ele>
        <time>2014-02-12T13:30:25Z</time>
      </trkpt>
      <trkpt lat="48.45591" lon="-2.83269">
        <ele>87</ele>
        <time>2014-02-12T13:30:30Z</time>
      </trkpt>
      <trkpt lat="48.45587" lon="-2.83271">
        <ele>91</ele>
        <time>2014-02-12T13:30:33Z</time>
      </trkpt>
      <trkpt lat="48.45585" lon="-2.83274">
        <ele>93</ele>
        <time>2014-02-12T13:30:35Z</time>
      </trkpt>
      <trkpt lat="48.45583" lon="-2.83276">
        <ele>95</ele>
        <time>2014-02-12T13:30:37Z</time>
      </trkpt>
      <trkpt lat="48.45582" lon="-2.83278">
        <ele>96</ele>
        <time>2014-02-12T13:30:40Z</time>
      </trkpt>
      <trkpt lat="48.45581" lon="-2.83283">
        <ele>96</ele>
        <time>2014-02-12T13:30:42Z</time>
      </trkpt>
      <trkpt lat="48.45581" lon="-2.83286">
        <ele>96</ele>
        <time>2014-02-12T13:30:45Z</time>
      </trkpt>
      <trkpt lat="48.45581" lon="-2.83292">
        <ele>96</ele>
        <time>2014-02-12T13:30:47Z</time>
      </trkpt>
      <trkpt lat="48.45581" lon="-2.83295">
        <ele>96</ele>
        <time>2014-02-12T13:30:50Z</time>
      </trkpt>
      <trkpt lat="48.4558" lon="-2.83299">
        <ele>96</ele>
        <time>2014-02-12T13:30:52Z</time>
      </trkpt>
      <trkpt lat="48.4558" lon="-2.83301">
        <ele>96</ele>
        <time>2014-02-12T13:30:55Z</time>
      </trkpt>
      <trkpt lat="48.45579" lon="-2.83306">
        <ele>96</ele>
        <time>2014-02-12T13:30:58Z</time>
      </trkpt>
      <trkpt lat="48.45578" lon="-2.83308">
        <ele>95</ele>
        <time>2014-02-12T13:31:01Z</time>
      </trkpt>
      <trkpt lat="48.45578" lon="-2.83312">
        <ele>95</ele>
        <time>2014-02-12T13:31:03Z</time>
      </trkpt>
      <trkpt lat="48.45577" lon="-2.83316">
        <ele>94</ele>
        <time>2014-02-12T13:31:05Z</time>
      </trkpt>
      <trkpt lat="48.45578" lon="-2.8332">
        <ele>94</ele>
        <time>2014-02-12T13:31:08Z</time>
      </trkpt>
      <trkpt lat="48.4558" lon="-2.83323">
        <ele>94</ele>
        <time>2014-02-12T13:31:10Z</time>
      </trkpt>
      <trkpt lat="48.4558" lon="-2.83328">
        <ele>94</ele>
        <time>2014-02-12T13:31:12Z</time>
      </trkpt>
      <trkpt lat="48.45581" lon="-2.83333">
        <ele>94</ele>
        <time>2014-02-12T13:31:15Z</time>
      </trkpt>
      <trkpt lat="48.4558" lon="-2.83337">
        <ele>94</ele>
        <time>2014-02-12T13:31:18Z</time>
      </trkpt>
      <trkpt lat="48.4558" lon="-2.8334">
        <ele>95</ele>
        <time>2014-02-12T13:31:21Z</time>
      </trkpt>
      <trkpt lat="48.4558" lon="-2.83342">
        <ele>97</ele>
        <time>2014-02-12T13:31:24Z</time>
      </trkpt>
      <trkpt lat="48.4558" lon="-2.83344">
        <ele>98</ele>
        <time>2014-02-12T13:31:27Z</time>
      </trkpt>
      <trkpt lat="48.45581" lon="-2.83344">
        <ele>101</ele>
        <time>2014-02-12T13:31:30Z</time>
      </trkpt>
      <trkpt lat="48.45583" lon="-2.83346">
        <ele>103</ele>
        <time>2014-02-12T13:31:32Z</time>
      </trkpt>
      <trkpt lat="48.45584" lon="-2.83349">
        <ele>104</ele>
        <time>2014-02-12T13:31:34Z</time>
      </trkpt>
      <trkpt lat="48.45584" lon="-2.83352">
        <ele>105</ele>
        <time>2014-02-12T13:31:36Z</time>
      </trkpt>
      <trkpt lat="48.45585" lon="-2.83355">
        <ele>105</ele>
        <time>2014-02-12T13:31:38Z</time>
      </trkpt>
      <trkpt lat="48.45586" lon="-2.83361">
        <ele>105</ele>
        <time>2014-02-12T13:31:40Z</time>
      </trkpt>
      <trkpt lat="48.45586" lon="-2.83365">
        <ele>106</ele>
        <time>2014-02-12T13:31:42Z</time>
      </trkpt>
      <trkpt lat="48.45587" lon="-2.83371">
        <ele>106</ele>
        <time>2014-02-12T13:31:45Z</time>
      </trkpt>
      <trkpt lat="48.45588" lon="-2.83375">
        <ele>106</ele>
        <time>2014-02-12T13:31:47Z</time>
      </trkpt>
      <trkpt lat="48.45589" lon="-2.8338">
        <ele>108</ele>
        <time>2014-02-12T13:31:50Z</time>
      </trkpt>
      <trkpt lat="48.45589" lon="-2.83383">
        <ele>108</ele>
        <time>2014-02-12T13:31:52Z</time>
      </trkpt>
      <trkpt lat="48.45591" lon="-2.83385">
        <ele>108</ele>
        <time>2014-02-12T13:31:54Z</time>
      </trkpt>
      <trkpt lat="48.45592" lon="-2.83386">
        <ele>108</ele>
        <time>2014-02-12T13:31:59Z</time>
      </trkpt>
      <trkpt lat="48.45594" lon="-2.83388">
        <ele>108</ele>
        <time>2014-02-12T13:32:03Z</time>
      </trkpt>
      <trkpt lat="48.45595" lon="-2.83389">
        <ele>108</ele>
        <time>2014-02-12T13:32:05Z</time>
      </trkpt>
      <trkpt lat="48.45597" lon="-2.83391">
        <ele>108</ele>
        <time>2014-02-12T13:32:07Z</time>
      </trkpt>
      <trkpt lat="48.45599" lon="-2.83396">
        <ele>108</ele>
        <time>2014-02-12T13:32:10Z</time>
      </trkpt>
      <trkpt lat="48.456" lon="-2.83401">
        <ele>108</ele>
        <time>2014-02-12T13:32:13Z</time>
      </trkpt>
      <trkpt lat="48.45601" lon="-2.83403">
        <ele>108</ele>
        <time>2014-02-12T13:32:15Z</time>
      </trkpt>
      <trkpt lat="48.45602" lon="-2.83405">
        <ele>108</ele>
        <time>2014-02-12T13:32:18Z</time>
      </trkpt>
      <trkpt lat="48.45603" lon="-2.83406">
        <ele>108</ele>
        <time>2014-02-12T13:32:20Z</time>
      </trkpt>
      <trkpt lat="48.45604" lon="-2.83407">
        <ele>108</ele>
        <time>2014-02-12T13:32:22Z</time>
      </trkpt>
      <trkpt lat="48.45606" lon="-2.83408">
        <ele>108</ele>
        <time>2014-02-12T13:32:25Z</time>
      </trkpt>
      <trkpt lat="48.45609" lon="-2.8341">
        <ele>108</ele>
        <time>2014-02-12T13:32:27Z</time>
      </trkpt>
      <trkpt lat="48.45612" lon="-2.83415">
        <ele>108</ele>
        <time>2014-02-12T13:32:29Z</time>
      </trkpt>
      <trkpt lat="48.45615" lon="-2.83418">
        <ele>108</ele>
        <time>2014-02-12T13:32:31Z</time>
      </trkpt>
      <trkpt lat="48.45617" lon="-2.83421">
        <ele>108</ele>
        <time>2014-02-12T13:32:33Z</time>
      </trkpt>
      <trkpt lat="48.4562" lon="-2.83424">
        <ele>108</ele>
        <time>2014-02-12T13:32:35Z</time>
      </trkpt>
      <trkpt lat="48.45622" lon="-2.83426">
        <ele>108</ele>
        <time>2014-02-12T13:32:37Z</time>
      </trkpt>
      <trkpt lat="48.45625" lon="-2.83428">
        <ele>108</ele>
        <time>2014-02-12T13:32:39Z</time>
      </trkpt>
      <trkpt lat="48.45628" lon="-2.8343">
        <ele>108</ele>
        <time>2014-02-12T13:32:41Z</time>
      </trkpt>
      <trkpt lat="48.45631" lon="-2.83431">
        <ele>108</ele>
        <time>2014-02-12T13:32:43Z</time>
      </trkpt>
      <trkpt lat="48.45634" lon="-2.83432">
        <ele>108</ele>
        <time>2014-02-12T13:32:45Z</time>
      </trkpt>
      <trkpt lat="48.45638" lon="-2.83434">
        <ele>108</ele>
        <time>2014-02-12T13:32:48Z</time>
      </trkpt>
      <trkpt lat="48.45641" lon="-2.83435">
        <ele>108</ele>
        <time>2014-02-12T13:32:50Z</time>
      </trkpt>
      <trkpt lat="48.45644" lon="-2.83436">
        <ele>108</ele>
        <time>2014-02-12T13:32:52Z</time>
      </trkpt>
      <trkpt lat="48.45646" lon="-2.83436">
        <ele>108</ele>
        <time>2014-02-12T13:32:54Z</time>
      </trkpt>
      <trkpt lat="48.45649" lon="-2.83437">
        <ele>108</ele>
        <time>2014-02-12T13:32:56Z</time>
      </trkpt>
      <trkpt lat="48.45652" lon="-2.83437">
        <ele>108</ele>
        <time>2014-02-12T13:32:58Z</time>
      </trkpt>
      <trkpt lat="48.45654" lon="-2.83437">
        <ele>108</ele>
        <time>2014-02-12T13:33:00Z</time>
      </trkpt>
      <trkpt lat="48.45656" lon="-2.83438">
        <ele>108</ele>
        <time>2014-02-12T13:33:02Z</time>
      </trkpt>
      <trkpt lat="48.45659" lon="-2.83438">
        <ele>108</ele>
        <time>2014-02-12T13:33:04Z</time>
      </trkpt>
      <trkpt lat="48.45661" lon="-2.83438">
        <ele>108</ele>
        <time>2014-02-12T13:33:06Z</time>
      </trkpt>
      <trkpt lat="48.45664" lon="-2.83437">
        <ele>108</ele>
        <time>2014-02-12T13:33:08Z</time>
      </trkpt>
      <trkpt lat="48.45665" lon="-2.83436">
        <ele>108</ele>
        <time>2014-02-12T13:33:10Z</time>
      </trkpt>
      <trkpt lat="48.45668" lon="-2.83436">
        <ele>108</ele>
        <time>2014-02-12T13:33:12Z</time>
      </trkpt>
      <trkpt lat="48.4567" lon="-2.83436">
        <ele>108</ele>
        <time>2014-02-12T13:33:14Z</time>
      </trkpt>
      <trkpt lat="48.45673" lon="-2.83437">
        <ele>108</ele>
        <time>2014-02-12T13:33:16Z</time>
      </trkpt>
      <trkpt lat="48.45675" lon="-2.83435">
        <ele>108</ele>
        <time>2014-02-12T13:33:18Z</time>
      </trkpt>
      <trkpt lat="48.45678" lon="-2.83432">
        <ele>108</ele>
        <time>2014-02-12T13:33:21Z</time>
      </trkpt>
      <trkpt lat="48.45681" lon="-2.83431">
        <ele>108</ele>
        <time>2014-02-12T13:33:23Z</time>
      </trkpt>
      <trkpt lat="48.45684" lon="-2.83429">
        <ele>108</ele>
        <time>2014-02-12T13:33:25Z</time>
      </trkpt>
      <trkpt lat="48.45687" lon="-2.83427">
        <ele>108</ele>
        <time>2014-02-12T13:33:27Z</time>
      </trkpt>
      <trkpt lat="48.45689" lon="-2.83424">
        <ele>108</ele>
        <time>2014-02-12T13:33:29Z</time>
      </trkpt>
      <trkpt lat="48.4569" lon="-2.83423">
        <ele>108</ele>
        <time>2014-02-12T13:33:31Z</time>
      </trkpt>
      <trkpt lat="48.45692" lon="-2.83424">
        <ele>108</ele>
        <time>2014-02-12T13:33:34Z</time>
      </trkpt>
      <trkpt lat="48.45694" lon="-2.83422">
        <ele>109</ele>
        <time>2014-02-12T13:33:37Z</time>
      </trkpt>
      <trkpt lat="48.45695" lon="-2.83418">
        <ele>110</ele>
        <time>2014-02-12T13:33:40Z</time>
      </trkpt>
      <trkpt lat="48.45696" lon="-2.83416">
        <ele>110</ele>
        <time>2014-02-12T13:33:42Z</time>
      </trkpt>
      <trkpt lat="48.45699" lon="-2.83413">
        <ele>110</ele>
        <time>2014-02-12T13:33:44Z</time>
      </trkpt>
      <trkpt lat="48.45701" lon="-2.83409">
        <ele>110</ele>
        <time>2014-02-12T13:33:46Z</time>
      </trkpt>
      <trkpt lat="48.45704" lon="-2.83405">
        <ele>110</ele>
        <time>2014-02-12T13:33:49Z</time>
      </trkpt>
      <trkpt lat="48.45706" lon="-2.83402">
        <ele>110</ele>
        <time>2014-02-12T13:33:51Z</time>
      </trkpt>
      <trkpt lat="48.45708" lon="-2.83401">
        <ele>110</ele>
        <time>2014-02-12T13:33:53Z</time>
      </trkpt>
      <trkpt lat="48.45711" lon="-2.834">
        <ele>110</ele>
        <time>2014-02-12T13:33:55Z</time>
      </trkpt>
      <trkpt lat="48.45714" lon="-2.83399">
        <ele>110</ele>
        <time>2014-02-12T13:33:57Z</time>
      </trkpt>
      <trkpt lat="48.45717" lon="-2.83399">
        <ele>110</ele>
        <time>2014-02-12T13:33:59Z</time>
      </trkpt>
      <trkpt lat="48.45719" lon="-2.83396">
        <ele>110</ele>
        <time>2014-02-12T13:34:01Z</time>
      </trkpt>
      <trkpt lat="48.45722" lon="-2.83396">
        <ele>110</ele>
        <time>2014-02-12T13:34:03Z</time>
      </trkpt>
      <trkpt lat="48.45724" lon="-2.83395">
        <ele>110</ele>
        <time>2014-02-12T13:34:05Z</time>
      </trkpt>
      <trkpt lat="48.45726" lon="-2.83394">
        <ele>110</ele>
        <time>2014-02-12T13:34:07Z</time>
      </trkpt>
      <trkpt lat="48.45729" lon="-2.83393">
        <ele>110</ele>
        <time>2014-02-12T13:34:09Z</time>
      </trkpt>
      <trkpt lat="48.45731" lon="-2.83393">
        <ele>110</ele>
        <time>2014-02-12T13:34:11Z</time>
      </trkpt>
      <trkpt lat="48.45734" lon="-2.8339">
        <ele>110</ele>
        <time>2014-02-12T13:34:14Z</time>
      </trkpt>
      <trkpt lat="48.45736" lon="-2.83387">
        <ele>110</ele>
        <time>2014-02-12T13:34:16Z</time>
      </trkpt>
      <trkpt lat="48.45739" lon="-2.83386">
        <ele>110</ele>
        <time>2014-02-12T13:34:18Z</time>
      </trkpt>
      <trkpt lat="48.4574" lon="-2.83385">
        <ele>110</ele>
        <time>2014-02-12T13:34:20Z</time>
      </trkpt>
      <trkpt lat="48.45742" lon="-2.83385">
        <ele>110</ele>
        <time>2014-02-12T13:34:23Z</time>
      </trkpt>
      <trkpt lat="48.45743" lon="-2.83384">
        <ele>110</ele>
        <time>2014-02-12T13:34:25Z</time>
      </trkpt>
      <trkpt lat="48.45744" lon="-2.83383">
        <ele>110</ele>
        <time>2014-02-12T13:34:28Z</time>
      </trkpt>
      <trkpt lat="48.45744" lon="-2.83381">
        <ele>110</ele>
        <time>2014-02-12T13:34:31Z</time>
      </trkpt>
      <trkpt lat="48.45745" lon="-2.83378">
        <ele>110</ele>
        <time>2014-02-12T13:34:33Z</time>
      </trkpt>
      <trkpt lat="48.45745" lon="-2.83376">
        <ele>110</ele>
        <time>2014-02-12T13:34:35Z</time>
      </trkpt>
      <trkpt lat="48.45745" lon="-2.83373">
        <ele>110</ele>
        <time>2014-02-12T13:34:37Z</time>
      </trkpt>
      <trkpt lat="48.45747" lon="-2.83371">
        <ele>110</ele>
        <time>2014-02-12T13:34:39Z</time>
      </trkpt>
      <trkpt lat="48.45748" lon="-2.8337">
        <ele>110</ele>
        <time>2014-02-12T13:34:41Z</time>
      </trkpt>
      <trkpt lat="48.45749" lon="-2.83368">
        <ele>110</ele>
        <time>2014-02-12T13:34:43Z</time>
      </trkpt>
      <trkpt lat="48.45751" lon="-2.83366">
        <ele>110</ele>
        <time>2014-02-12T13:34:45Z</time>
      </trkpt>
      <trkpt lat="48.45752" lon="-2.83365">
        <ele>109</ele>
        <time>2014-02-12T13:34:47Z</time>
      </trkpt>
      <trkpt lat="48.45754" lon="-2.83363">
        <ele>108</ele>
        <time>2014-02-12T13:34:49Z</time>
      </trkpt>
      <trkpt lat="48.45756" lon="-2.83361">
        <ele>108</ele>
        <time>2014-02-12T13:34:51Z</time>
      </trkpt>
      <trkpt lat="48.45757" lon="-2.83357">
        <ele>108</ele>
        <time>2014-02-12T13:34:53Z</time>
      </trkpt>
      <trkpt lat="48.4576" lon="-2.83354">
        <ele>107</ele>
        <time>2014-02-12T13:34:56Z</time>
      </trkpt>
      <trkpt lat="48.45762" lon="-2.83351">
        <ele>107</ele>
        <time>2014-02-12T13:34:58Z</time>
      </trkpt>
      <trkpt lat="48.45766" lon="-2.83347">
        <ele>106</ele>
        <time>2014-02-12T13:35:01Z</time>
      </trkpt>
      <trkpt lat="48.45768" lon="-2.83345">
        <ele>106</ele>
        <time>2014-02-12T13:35:03Z</time>
      </trkpt>
      <trkpt lat="48.45771" lon="-2.83344">
        <ele>106</ele>
        <time>2014-02-12T13:35:05Z</time>
      </trkpt>
      <trkpt lat="48.45774" lon="-2.83345">
        <ele>105</ele>
        <time>2014-02-12T13:35:08Z</time>
      </trkpt>
      <trkpt lat="48.45777" lon="-2.83345">
        <ele>105</ele>
        <time>2014-02-12T13:35:10Z</time>
      </trkpt>
      <trkpt lat="48.45781" lon="-2.83344">
        <ele>105</ele>
        <time>2014-02-12T13:35:12Z</time>
      </trkpt>
      <trkpt lat="48.45784" lon="-2.83344">
        <ele>105</ele>
        <time>2014-02-12T13:35:15Z</time>
      </trkpt>
      <trkpt lat="48.45787" lon="-2.83344">
        <ele>105</ele>
        <time>2014-02-12T13:35:17Z</time>
      </trkpt>
      <trkpt lat="48.4579" lon="-2.83345">
        <ele>105</ele>
        <time>2014-02-12T13:35:20Z</time>
      </trkpt>
      <trkpt lat="48.45793" lon="-2.83345">
        <ele>105</ele>
        <time>2014-02-12T13:35:22Z</time>
      </trkpt>
      <trkpt lat="48.45795" lon="-2.83346">
        <ele>105</ele>
        <time>2014-02-12T13:35:24Z</time>
      </trkpt>
      <trkpt lat="48.45798" lon="-2.83346">
        <ele>105</ele>
        <time>2014-02-12T13:35:26Z</time>
      </trkpt>
      <trkpt lat="48.45801" lon="-2.83347">
        <ele>105</ele>
        <time>2014-02-12T13:35:28Z</time>
      </trkpt>
      <trkpt lat="48.45803" lon="-2.83347">
        <ele>105</ele>
        <time>2014-02-12T13:35:30Z</time>
      </trkpt>
      <trkpt lat="48.45807" lon="-2.83347">
        <ele>105</ele>
        <time>2014-02-12T13:35:32Z</time>
      </trkpt>
      <trkpt lat="48.45808" lon="-2.83347">
        <ele>105</ele>
        <time>2014-02-12T13:35:34Z</time>
      </trkpt>
      <trkpt lat="48.4581" lon="-2.83346">
        <ele>106</ele>
        <time>2014-02-12T13:35:36Z</time>
      </trkpt>
      <trkpt lat="48.45811" lon="-2.83346">
        <ele>106</ele>
        <time>2014-02-12T13:35:38Z</time>
      </trkpt>
      <trkpt lat="48.45812" lon="-2.83345">
        <ele>106</ele>
        <time>2014-02-12T13:35:44Z</time>
      </trkpt>
      <trkpt lat="48.45811" lon="-2.83344">
        <ele>106</ele>
        <time>2014-02-12T13:35:52Z</time>
      </trkpt>
      <trkpt lat="48.4581" lon="-2.83342">
        <ele>106</ele>
        <time>2014-02-12T13:36:00Z</time>
      </trkpt>
      <trkpt lat="48.45811" lon="-2.83342">
        <ele>106</ele>
        <time>2014-02-12T13:36:05Z</time>
      </trkpt>
      <trkpt lat="48.45814" lon="-2.83341">
        <ele>106</ele>
        <time>2014-02-12T13:36:07Z</time>
      </trkpt>
      <trkpt lat="48.45816" lon="-2.8334">
        <ele>106</ele>
        <time>2014-02-12T13:36:09Z</time>
      </trkpt>
      <trkpt lat="48.45817" lon="-2.83338">
        <ele>106</ele>
        <time>2014-02-12T13:36:11Z</time>
      </trkpt>
      <trkpt lat="48.45818" lon="-2.83337">
        <ele>106</ele>
        <time>2014-02-12T13:36:13Z</time>
      </trkpt>
      <trkpt lat="48.4582" lon="-2.83337">
        <ele>106</ele>
        <time>2014-02-12T13:36:15Z</time>
      </trkpt>
      <trkpt lat="48.45821" lon="-2.83337">
        <ele>106</ele>
        <time>2014-02-12T13:36:18Z</time>
      </trkpt>
      <trkpt lat="48.45823" lon="-2.83335">
        <ele>107</ele>
        <time>2014-02-12T13:36:23Z</time>
      </trkpt>
      <trkpt lat="48.45824" lon="-2.83334">
        <ele>107</ele>
        <time>2014-02-12T13:36:25Z</time>
      </trkpt>
      <trkpt lat="48.45826" lon="-2.83332">
        <ele>107</ele>
        <time>2014-02-12T13:36:27Z</time>
      </trkpt>
      <trkpt lat="48.45829" lon="-2.8333">
        <ele>107</ele>
        <time>2014-02-12T13:36:29Z</time>
      </trkpt>
      <trkpt lat="48.4583" lon="-2.83328">
        <ele>107</ele>
        <time>2014-02-12T13:36:31Z</time>
      </trkpt>
      <trkpt lat="48.45832" lon="-2.83326">
        <ele>107</ele>
        <time>2014-02-12T13:36:33Z</time>
      </trkpt>
      <trkpt lat="48.45834" lon="-2.83324">
        <ele>107</ele>
        <time>2014-02-12T13:36:35Z</time>
      </trkpt>
      <trkpt lat="48.45837" lon="-2.83323">
        <ele>107</ele>
        <time>2014-02-12T13:36:37Z</time>
      </trkpt>
      <trkpt lat="48.4584" lon="-2.83322">
        <ele>107</ele>
        <time>2014-02-12T13:36:39Z</time>
      </trkpt>
      <trkpt lat="48.45843" lon="-2.83323">
        <ele>107</ele>
        <time>2014-02-12T13:36:41Z</time>
      </trkpt>
      <trkpt lat="48.45845" lon="-2.83322">
        <ele>107</ele>
        <time>2014-02-12T13:36:43Z</time>
      </trkpt>
      <trkpt lat="48.45847" lon="-2.83323">
        <ele>106</ele>
        <time>2014-02-12T13:36:45Z</time>
      </trkpt>
      <trkpt lat="48.45849" lon="-2.83325">
        <ele>104</ele>
        <time>2014-02-12T13:36:47Z</time>
      </trkpt>
      <trkpt lat="48.45852" lon="-2.83326">
        <ele>104</ele>
        <time>2014-02-12T13:36:49Z</time>
      </trkpt>
      <trkpt lat="48.45854" lon="-2.83327">
        <ele>103</ele>
        <time>2014-02-12T13:36:51Z</time>
      </trkpt>
      <trkpt lat="48.45856" lon="-2.83328">
        <ele>103</ele>
        <time>2014-02-12T13:36:53Z</time>
      </trkpt>
      <trkpt lat="48.45858" lon="-2.83329">
        <ele>103</ele>
        <time>2014-02-12T13:36:55Z</time>
      </trkpt>
      <trkpt lat="48.4586" lon="-2.83329">
        <ele>103</ele>
        <time>2014-02-12T13:36:57Z</time>
      </trkpt>
      <trkpt lat="48.45861" lon="-2.83328">
        <ele>103</ele>
        <time>2014-02-12T13:36:59Z</time>
      </trkpt>
      <trkpt lat="48.45864" lon="-2.8333">
        <ele>103</ele>
        <time>2014-02-12T13:37:01Z</time>
      </trkpt>
      <trkpt lat="48.45866" lon="-2.83331">
        <ele>103</ele>
        <time>2014-02-12T13:37:03Z</time>
      </trkpt>
      <trkpt lat="48.45869" lon="-2.83332">
        <ele>103</ele>
        <time>2014-02-12T13:37:05Z</time>
      </trkpt>
      <trkpt lat="48.45872" lon="-2.83335">
        <ele>103</ele>
        <time>2014-02-12T13:37:07Z</time>
      </trkpt>
      <trkpt lat="48.45874" lon="-2.83336">
        <ele>103</ele>
        <time>2014-02-12T13:37:09Z</time>
      </trkpt>
      <trkpt lat="48.45877" lon="-2.83334">
        <ele>103</ele>
        <time>2014-02-12T13:37:11Z</time>
      </trkpt>
      <trkpt lat="48.4588" lon="-2.83333">
        <ele>103</ele>
        <time>2014-02-12T13:37:13Z</time>
      </trkpt>
      <trkpt lat="48.45882" lon="-2.83331">
        <ele>103</ele>
        <time>2014-02-12T13:37:15Z</time>
      </trkpt>
      <trkpt lat="48.45886" lon="-2.83327">
        <ele>103</ele>
        <time>2014-02-12T13:37:18Z</time>
      </trkpt>
      <trkpt lat="48.45887" lon="-2.83324">
        <ele>103</ele>
        <time>2014-02-12T13:37:20Z</time>
      </trkpt>
      <trkpt lat="48.45889" lon="-2.83319">
        <ele>103</ele>
        <time>2014-02-12T13:37:23Z</time>
      </trkpt>
      <trkpt lat="48.45888" lon="-2.83317">
        <ele>103</ele>
        <time>2014-02-12T13:37:25Z</time>
      </trkpt>
      <trkpt lat="48.45889" lon="-2.83313">
        <ele>103</ele>
        <time>2014-02-12T13:37:27Z</time>
      </trkpt>
      <trkpt lat="48.45889" lon="-2.83306">
        <ele>103</ele>
        <time>2014-02-12T13:37:29Z</time>
      </trkpt>
      <trkpt lat="48.45889" lon="-2.833">
        <ele>103</ele>
        <time>2014-02-12T13:37:31Z</time>
      </trkpt>
      <trkpt lat="48.45889" lon="-2.83296">
        <ele>103</ele>
        <time>2014-02-12T13:37:33Z</time>
      </trkpt>
      <trkpt lat="48.45892" lon="-2.83293">
        <ele>102</ele>
        <time>2014-02-12T13:37:36Z</time>
      </trkpt>
      <trkpt lat="48.45894" lon="-2.83293">
        <ele>102</ele>
        <time>2014-02-12T13:37:38Z</time>
      </trkpt>
      <trkpt lat="48.45895" lon="-2.83291">
        <ele>102</ele>
        <time>2014-02-12T13:37:40Z</time>
      </trkpt>
      <trkpt lat="48.45898" lon="-2.83291">
        <ele>102</ele>
        <time>2014-02-12T13:37:42Z</time>
      </trkpt>
      <trkpt lat="48.459" lon="-2.83292">
        <ele>102</ele>
        <time>2014-02-12T13:37:44Z</time>
      </trkpt>
      <trkpt lat="48.45901" lon="-2.83293">
        <ele>102</ele>
        <time>2014-02-12T13:37:46Z</time>
      </trkpt>
      <trkpt lat="48.45903" lon="-2.83294">
        <ele>102</ele>
        <time>2014-02-12T13:37:48Z</time>
      </trkpt>
      <trkpt lat="48.45906" lon="-2.83296">
        <ele>102</ele>
        <time>2014-02-12T13:37:51Z</time>
      </trkpt>
      <trkpt lat="48.45908" lon="-2.83297">
        <ele>102</ele>
        <time>2014-02-12T13:37:53Z</time>
      </trkpt>
      <trkpt lat="48.45909" lon="-2.83299">
        <ele>103</ele>
        <time>2014-02-12T13:37:55Z</time>
      </trkpt>
      <trkpt lat="48.4591" lon="-2.83301">
        <ele>103</ele>
        <time>2014-02-12T13:37:58Z</time>
      </trkpt>
      <trkpt lat="48.45912" lon="-2.83301">
        <ele>103</ele>
        <time>2014-02-12T13:38:00Z</time>
      </trkpt>
      <trkpt lat="48.45913" lon="-2.83301">
        <ele>103</ele>
        <time>2014-02-12T13:38:02Z</time>
      </trkpt>
      <trkpt lat="48.45915" lon="-2.83301">
        <ele>103</ele>
        <time>2014-02-12T13:38:04Z</time>
      </trkpt>
      <trkpt lat="48.45917" lon="-2.833">
        <ele>103</ele>
        <time>2014-02-12T13:38:06Z</time>
      </trkpt>
      <trkpt lat="48.45919" lon="-2.833">
        <ele>103</ele>
        <time>2014-02-12T13:38:08Z</time>
      </trkpt>
      <trkpt lat="48.45922" lon="-2.833">
        <ele>103</ele>
        <time>2014-02-12T13:38:10Z</time>
      </trkpt>
      <trkpt lat="48.45924" lon="-2.83299">
        <ele>103</ele>
        <time>2014-02-12T13:38:12Z</time>
      </trkpt>
      <trkpt lat="48.45928" lon="-2.83298">
        <ele>103</ele>
        <time>2014-02-12T13:38:14Z</time>
      </trkpt>
      <trkpt lat="48.4593" lon="-2.83297">
        <ele>103</ele>
        <time>2014-02-12T13:38:16Z</time>
      </trkpt>
      <trkpt lat="48.45932" lon="-2.83296">
        <ele>103</ele>
        <time>2014-02-12T13:38:18Z</time>
      </trkpt>
      <trkpt lat="48.45936" lon="-2.83296">
        <ele>103</ele>
        <time>2014-02-12T13:38:20Z</time>
      </trkpt>
      <trkpt lat="48.4594" lon="-2.83296">
        <ele>103</ele>
        <time>2014-02-12T13:38:22Z</time>
      </trkpt>
      <trkpt lat="48.45943" lon="-2.83295">
        <ele>103</ele>
        <time>2014-02-12T13:38:24Z</time>
      </trkpt>
      <trkpt lat="48.45945" lon="-2.83294">
        <ele>103</ele>
        <time>2014-02-12T13:38:26Z</time>
      </trkpt>
      <trkpt lat="48.45948" lon="-2.83293">
        <ele>103</ele>
        <time>2014-02-12T13:38:28Z</time>
      </trkpt>
      <trkpt lat="48.45951" lon="-2.8329">
        <ele>103</ele>
        <time>2014-02-12T13:38:30Z</time>
      </trkpt>
      <trkpt lat="48.45954" lon="-2.8329">
        <ele>103</ele>
        <time>2014-02-12T13:38:32Z</time>
      </trkpt>
      <trkpt lat="48.45957" lon="-2.8329">
        <ele>103</ele>
        <time>2014-02-12T13:38:34Z</time>
      </trkpt>
      <trkpt lat="48.4596" lon="-2.8329">
        <ele>103</ele>
        <time>2014-02-12T13:38:36Z</time>
      </trkpt>
      <trkpt lat="48.45963" lon="-2.83288">
        <ele>103</ele>
        <time>2014-02-12T13:38:38Z</time>
      </trkpt>
      <trkpt lat="48.45965" lon="-2.83286">
        <ele>103</ele>
        <time>2014-02-12T13:38:40Z</time>
      </trkpt>
      <trkpt lat="48.45968" lon="-2.83286">
        <ele>103</ele>
        <time>2014-02-12T13:38:42Z</time>
      </trkpt>
      <trkpt lat="48.45971" lon="-2.83285">
        <ele>103</ele>
        <time>2014-02-12T13:38:44Z</time>
      </trkpt>
      <trkpt lat="48.45974" lon="-2.83284">
        <ele>103</ele>
        <time>2014-02-12T13:38:46Z</time>
      </trkpt>
      <trkpt lat="48.45977" lon="-2.83283">
        <ele>103</ele>
        <time>2014-02-12T13:38:48Z</time>
      </trkpt>
      <trkpt lat="48.4598" lon="-2.83283">
        <ele>103</ele>
        <time>2014-02-12T13:38:50Z</time>
      </trkpt>
      <trkpt lat="48.45983" lon="-2.83283">
        <ele>103</ele>
        <time>2014-02-12T13:38:52Z</time>
      </trkpt>
      <trkpt lat="48.45987" lon="-2.83282">
        <ele>103</ele>
        <time>2014-02-12T13:38:55Z</time>
      </trkpt>
      <trkpt lat="48.4599" lon="-2.83282">
        <ele>103</ele>
        <time>2014-02-12T13:38:57Z</time>
      </trkpt>
      <trkpt lat="48.45993" lon="-2.83283">
        <ele>103</ele>
        <time>2014-02-12T13:38:59Z</time>
      </trkpt>
      <trkpt lat="48.45997" lon="-2.83283">
        <ele>102</ele>
        <time>2014-02-12T13:39:02Z</time>
      </trkpt>
      <trkpt lat="48.46001" lon="-2.83284">
        <ele>101</ele>
        <time>2014-02-12T13:39:04Z</time>
      </trkpt>
      <trkpt lat="48.46003" lon="-2.83286">
        <ele>99</ele>
        <time>2014-02-12T13:39:06Z</time>
      </trkpt>
      <trkpt lat="48.46007" lon="-2.83287">
        <ele>98</ele>
        <time>2014-02-12T13:39:08Z</time>
      </trkpt>
      <trkpt lat="48.4601" lon="-2.83291">
        <ele>98</ele>
        <time>2014-02-12T13:39:10Z</time>
      </trkpt>
      <trkpt lat="48.46013" lon="-2.83294">
        <ele>98</ele>
        <time>2014-02-12T13:39:12Z</time>
      </trkpt>
      <trkpt lat="48.46016" lon="-2.83296">
        <ele>98</ele>
        <time>2014-02-12T13:39:14Z</time>
      </trkpt>
      <trkpt lat="48.46018" lon="-2.833">
        <ele>98</ele>
        <time>2014-02-12T13:39:16Z</time>
      </trkpt>
      <trkpt lat="48.4602" lon="-2.83305">
        <ele>98</ele>
        <time>2014-02-12T13:39:18Z</time>
      </trkpt>
      <trkpt lat="48.46021" lon="-2.83309">
        <ele>98</ele>
        <time>2014-02-12T13:39:20Z</time>
      </trkpt>
      <trkpt lat="48.46023" lon="-2.83313">
        <ele>97</ele>
        <time>2014-02-12T13:39:22Z</time>
      </trkpt>
      <trkpt lat="48.46026" lon="-2.83316">
        <ele>97</ele>
        <time>2014-02-12T13:39:24Z</time>
      </trkpt>
      <trkpt lat="48.46027" lon="-2.8332">
        <ele>97</ele>
        <time>2014-02-12T13:39:26Z</time>
      </trkpt>
      <trkpt lat="48.46029" lon="-2.83324">
        <ele>97</ele>
        <time>2014-02-12T13:39:28Z</time>
      </trkpt>
      <trkpt lat="48.4603" lon="-2.83328">
        <ele>97</ele>
        <time>2014-02-12T13:39:30Z</time>
      </trkpt>
      <trkpt lat="48.46032" lon="-2.83332">
        <ele>98</ele>
        <time>2014-02-12T13:39:32Z</time>
      </trkpt>
      <trkpt lat="48.46032" lon="-2.83336">
        <ele>98</ele>
        <time>2014-02-12T13:39:34Z</time>
      </trkpt>
      <trkpt lat="48.46033" lon="-2.83338">
        <ele>99</ele>
        <time>2014-02-12T13:39:36Z</time>
      </trkpt>
      <trkpt lat="48.46034" lon="-2.83341">
        <ele>99</ele>
        <time>2014-02-12T13:39:38Z</time>
      </trkpt>
      <trkpt lat="48.46035" lon="-2.83344">
        <ele>99</ele>
        <time>2014-02-12T13:39:40Z</time>
      </trkpt>
      <trkpt lat="48.46037" lon="-2.83346">
        <ele>99</ele>
        <time>2014-02-12T13:39:42Z</time>
      </trkpt>
      <trkpt lat="48.46039" lon="-2.83349">
        <ele>99</ele>
        <time>2014-02-12T13:39:44Z</time>
      </trkpt>
      <trkpt lat="48.4604" lon="-2.83353">
        <ele>99</ele>
        <time>2014-02-12T13:39:46Z</time>
      </trkpt>
      <trkpt lat="48.46043" lon="-2.83358">
        <ele>99</ele>
        <time>2014-02-12T13:39:48Z</time>
      </trkpt>
      <trkpt lat="48.46045" lon="-2.83361">
        <ele>100</ele>
        <time>2014-02-12T13:39:50Z</time>
      </trkpt>
      <trkpt lat="48.46046" lon="-2.83365">
        <ele>101</ele>
        <time>2014-02-12T13:39:52Z</time>
      </trkpt>
      <trkpt lat="48.46048" lon="-2.83369">
        <ele>102</ele>
        <time>2014-02-12T13:39:54Z</time>
      </trkpt>
      <trkpt lat="48.46051" lon="-2.83372">
        <ele>102</ele>
        <time>2014-02-12T13:39:56Z</time>
      </trkpt>
      <trkpt lat="48.46054" lon="-2.83376">
        <ele>102</ele>
        <time>2014-02-12T13:39:58Z</time>
      </trkpt>
      <trkpt lat="48.46057" lon="-2.8338">
        <ele>102</ele>
        <time>2014-02-12T13:40:00Z</time>
      </trkpt>
      <trkpt lat="48.4606" lon="-2.83383">
        <ele>102</ele>
        <time>2014-02-12T13:40:02Z</time>
      </trkpt>
      <trkpt lat="48.46064" lon="-2.83388">
        <ele>102</ele>
        <time>2014-02-12T13:40:04Z</time>
      </trkpt>
      <trkpt lat="48.46067" lon="-2.83392">
        <ele>102</ele>
        <time>2014-02-12T13:40:06Z</time>
      </trkpt>
      <trkpt lat="48.46069" lon="-2.83396">
        <ele>102</ele>
        <time>2014-02-12T13:40:08Z</time>
      </trkpt>
      <trkpt lat="48.4607" lon="-2.83401">
        <ele>102</ele>
        <time>2014-02-12T13:40:10Z</time>
      </trkpt>
      <trkpt lat="48.4607" lon="-2.83406">
        <ele>102</ele>
        <time>2014-02-12T13:40:12Z</time>
      </trkpt>
      <trkpt lat="48.46072" lon="-2.8341">
        <ele>102</ele>
        <time>2014-02-12T13:40:14Z</time>
      </trkpt>
      <trkpt lat="48.46073" lon="-2.83415">
        <ele>102</ele>
        <time>2014-02-12T13:40:16Z</time>
      </trkpt>
      <trkpt lat="48.46073" lon="-2.83419">
        <ele>102</ele>
        <time>2014-02-12T13:40:18Z</time>
      </trkpt>
      <trkpt lat="48.46075" lon="-2.83423">
        <ele>102</ele>
        <time>2014-02-12T13:40:20Z</time>
      </trkpt>
      <trkpt lat="48.46076" lon="-2.83428">
        <ele>102</ele>
        <time>2014-02-12T13:40:22Z</time>
      </trkpt>
      <trkpt lat="48.46077" lon="-2.83433">
        <ele>102</ele>
        <time>2014-02-12T13:40:24Z</time>
      </trkpt>
      <trkpt lat="48.46078" lon="-2.83435">
        <ele>102</ele>
        <time>2014-02-12T13:40:26Z</time>
      </trkpt>
      <trkpt lat="48.4608" lon="-2.83439">
        <ele>102</ele>
        <time>2014-02-12T13:40:28Z</time>
      </trkpt>
      <trkpt lat="48.46082" lon="-2.83444">
        <ele>102</ele>
        <time>2014-02-12T13:40:30Z</time>
      </trkpt>
      <trkpt lat="48.46083" lon="-2.83448">
        <ele>102</ele>
        <time>2014-02-12T13:40:32Z</time>
      </trkpt>
      <trkpt lat="48.46086" lon="-2.83453">
        <ele>102</ele>
        <time>2014-02-12T13:40:35Z</time>
      </trkpt>
      <trkpt lat="48.46089" lon="-2.83456">
        <ele>102</ele>
        <time>2014-02-12T13:40:38Z</time>
      </trkpt>
      <trkpt lat="48.46091" lon="-2.83459">
        <ele>102</ele>
        <time>2014-02-12T13:40:40Z</time>
      </trkpt>
      <trkpt lat="48.46093" lon="-2.83465">
        <ele>102</ele>
        <time>2014-02-12T13:40:43Z</time>
      </trkpt>
      <trkpt lat="48.46095" lon="-2.83469">
        <ele>102</ele>
        <time>2014-02-12T13:40:45Z</time>
      </trkpt>
      <trkpt lat="48.46095" lon="-2.83474">
        <ele>102</ele>
        <time>2014-02-12T13:40:47Z</time>
      </trkpt>
      <trkpt lat="48.46096" lon="-2.83478">
        <ele>102</ele>
        <time>2014-02-12T13:40:49Z</time>
      </trkpt>
      <trkpt lat="48.46097" lon="-2.83483">
        <ele>103</ele>
        <time>2014-02-12T13:40:52Z</time>
      </trkpt>
      <trkpt lat="48.46098" lon="-2.83486">
        <ele>104</ele>
        <time>2014-02-12T13:40:54Z</time>
      </trkpt>
      <trkpt lat="48.46099" lon="-2.83489">
        <ele>105</ele>
        <time>2014-02-12T13:40:56Z</time>
      </trkpt>
      <trkpt lat="48.46098" lon="-2.83494">
        <ele>105</ele>
        <time>2014-02-12T13:40:58Z</time>
      </trkpt>
      <trkpt lat="48.46097" lon="-2.83497">
        <ele>105</ele>
        <time>2014-02-12T13:41:00Z</time>
      </trkpt>
      <trkpt lat="48.46097" lon="-2.83501">
        <ele>105</ele>
        <time>2014-02-12T13:41:02Z</time>
      </trkpt>
      <trkpt lat="48.46098" lon="-2.83505">
        <ele>105</ele>
        <time>2014-02-12T13:41:04Z</time>
      </trkpt>
      <trkpt lat="48.46098" lon="-2.83509">
        <ele>105</ele>
        <time>2014-02-12T13:41:06Z</time>
      </trkpt>
      <trkpt lat="48.46099" lon="-2.83513">
        <ele>105</ele>
        <time>2014-02-12T13:41:08Z</time>
      </trkpt>
      <trkpt lat="48.461" lon="-2.83516">
        <ele>105</ele>
        <time>2014-02-12T13:41:10Z</time>
      </trkpt>
      <trkpt lat="48.46102" lon="-2.83521">
        <ele>105</ele>
        <time>2014-02-12T13:41:12Z</time>
      </trkpt>
      <trkpt lat="48.46104" lon="-2.83526">
        <ele>105</ele>
        <time>2014-02-12T13:41:15Z</time>
      </trkpt>
      <trkpt lat="48.46104" lon="-2.8353">
        <ele>105</ele>
        <time>2014-02-12T13:41:17Z</time>
      </trkpt>
      <trkpt lat="48.46106" lon="-2.83533">
        <ele>105</ele>
        <time>2014-02-12T13:41:19Z</time>
      </trkpt>
      <trkpt lat="48.46108" lon="-2.83535">
        <ele>105</ele>
        <time>2014-02-12T13:41:21Z</time>
      </trkpt>
      <trkpt lat="48.46109" lon="-2.83539">
        <ele>105</ele>
        <time>2014-02-12T13:41:23Z</time>
      </trkpt>
      <trkpt lat="48.46111" lon="-2.83542">
        <ele>103</ele>
        <time>2014-02-12T13:41:25Z</time>
      </trkpt>
      <trkpt lat="48.46113" lon="-2.83546">
        <ele>103</ele>
        <time>2014-02-12T13:41:27Z</time>
      </trkpt>
      <trkpt lat="48.46114" lon="-2.83551">
        <ele>102</ele>
        <time>2014-02-12T13:41:29Z</time>
      </trkpt>
      <trkpt lat="48.46116" lon="-2.83554">
        <ele>102</ele>
        <time>2014-02-12T13:41:31Z</time>
      </trkpt>
      <trkpt lat="48.46118" lon="-2.83558">
        <ele>102</ele>
        <time>2014-02-12T13:41:33Z</time>
      </trkpt>
      <trkpt lat="48.46119" lon="-2.83561">
        <ele>102</ele>
        <time>2014-02-12T13:41:35Z</time>
      </trkpt>
      <trkpt lat="48.4612" lon="-2.83565">
        <ele>102</ele>
        <time>2014-02-12T13:41:37Z</time>
      </trkpt>
      <trkpt lat="48.46121" lon="-2.8357">
        <ele>102</ele>
        <time>2014-02-12T13:41:39Z</time>
      </trkpt>
      <trkpt lat="48.46123" lon="-2.83574">
        <ele>102</ele>
        <time>2014-02-12T13:41:41Z</time>
      </trkpt>
      <trkpt lat="48.46123" lon="-2.83579">
        <ele>102</ele>
        <time>2014-02-12T13:41:43Z</time>
      </trkpt>
      <trkpt lat="48.46124" lon="-2.83583">
        <ele>102</ele>
        <time>2014-02-12T13:41:45Z</time>
      </trkpt>
      <trkpt lat="48.46125" lon="-2.83586">
        <ele>102</ele>
        <time>2014-02-12T13:41:47Z</time>
      </trkpt>
      <trkpt lat="48.46127" lon="-2.83589">
        <ele>103</ele>
        <time>2014-02-12T13:41:49Z</time>
      </trkpt>
      <trkpt lat="48.46128" lon="-2.83591">
        <ele>103</ele>
        <time>2014-02-12T13:41:51Z</time>
      </trkpt>
      <trkpt lat="48.46127" lon="-2.83595">
        <ele>103</ele>
        <time>2014-02-12T13:41:53Z</time>
      </trkpt>
      <trkpt lat="48.46127" lon="-2.83597">
        <ele>103</ele>
        <time>2014-02-12T13:41:56Z</time>
      </trkpt>
      <trkpt lat="48.46126" lon="-2.83601">
        <ele>103</ele>
        <time>2014-02-12T13:41:58Z</time>
      </trkpt>
      <trkpt lat="48.46126" lon="-2.83606">
        <ele>104</ele>
        <time>2014-02-12T13:42:00Z</time>
      </trkpt>
      <trkpt lat="48.46126" lon="-2.83612">
        <ele>105</ele>
        <time>2014-02-12T13:42:03Z</time>
      </trkpt>
      <trkpt lat="48.46127" lon="-2.83615">
        <ele>106</ele>
        <time>2014-02-12T13:42:05Z</time>
      </trkpt>
      <trkpt lat="48.46128" lon="-2.83619">
        <ele>106</ele>
        <time>2014-02-12T13:42:07Z</time>
      </trkpt>
      <trkpt lat="48.46129" lon="-2.83622">
        <ele>106</ele>
        <time>2014-02-12T13:42:09Z</time>
      </trkpt>
      <trkpt lat="48.4613" lon="-2.83625">
        <ele>106</ele>
        <time>2014-02-12T13:42:11Z</time>
      </trkpt>
      <trkpt lat="48.46132" lon="-2.83628">
        <ele>106</ele>
        <time>2014-02-12T13:42:13Z</time>
      </trkpt>
      <trkpt lat="48.46134" lon="-2.8363">
        <ele>106</ele>
        <time>2014-02-12T13:42:15Z</time>
      </trkpt>
      <trkpt lat="48.46135" lon="-2.83633">
        <ele>107</ele>
        <time>2014-02-12T13:42:17Z</time>
      </trkpt>
      <trkpt lat="48.46137" lon="-2.83635">
        <ele>107</ele>
        <time>2014-02-12T13:42:19Z</time>
      </trkpt>
      <trkpt lat="48.46139" lon="-2.83638">
        <ele>107</ele>
        <time>2014-02-12T13:42:21Z</time>
      </trkpt>
      <trkpt lat="48.4614" lon="-2.83641">
        <ele>107</ele>
        <time>2014-02-12T13:42:23Z</time>
      </trkpt>
      <trkpt lat="48.46143" lon="-2.83642">
        <ele>107</ele>
        <time>2014-02-12T13:42:25Z</time>
      </trkpt>
      <trkpt lat="48.46145" lon="-2.83645">
        <ele>107</ele>
        <time>2014-02-12T13:42:27Z</time>
      </trkpt>
      <trkpt lat="48.46146" lon="-2.83648">
        <ele>107</ele>
        <time>2014-02-12T13:42:29Z</time>
      </trkpt>
      <trkpt lat="48.46148" lon="-2.83651">
        <ele>107</ele>
        <time>2014-02-12T13:42:31Z</time>
      </trkpt>
      <trkpt lat="48.46149" lon="-2.83653">
        <ele>107</ele>
        <time>2014-02-12T13:42:33Z</time>
      </trkpt>
      <trkpt lat="48.46152" lon="-2.83656">
        <ele>107</ele>
        <time>2014-02-12T13:42:35Z</time>
      </trkpt>
      <trkpt lat="48.46154" lon="-2.83658">
        <ele>107</ele>
        <time>2014-02-12T13:42:37Z</time>
      </trkpt>
      <trkpt lat="48.46158" lon="-2.8366">
        <ele>107</ele>
        <time>2014-02-12T13:42:40Z</time>
      </trkpt>
      <trkpt lat="48.46161" lon="-2.83662">
        <ele>107</ele>
        <time>2014-02-12T13:42:43Z</time>
      </trkpt>
      <trkpt lat="48.46164" lon="-2.83665">
        <ele>107</ele>
        <time>2014-02-12T13:42:45Z</time>
      </trkpt>
      <trkpt lat="48.46167" lon="-2.83668">
        <ele>107</ele>
        <time>2014-02-12T13:42:48Z</time>
      </trkpt>
      <trkpt lat="48.4617" lon="-2.83672">
        <ele>107</ele>
        <time>2014-02-12T13:42:50Z</time>
      </trkpt>
      <trkpt lat="48.46173" lon="-2.83675">
        <ele>107</ele>
        <time>2014-02-12T13:42:52Z</time>
      </trkpt>
      <trkpt lat="48.46175" lon="-2.83678">
        <ele>107</ele>
        <time>2014-02-12T13:42:54Z</time>
      </trkpt>
      <trkpt lat="48.46178" lon="-2.83682">
        <ele>107</ele>
        <time>2014-02-12T13:42:56Z</time>
      </trkpt>
      <trkpt lat="48.4618" lon="-2.83686">
        <ele>107</ele>
        <time>2014-02-12T13:42:58Z</time>
      </trkpt>
      <trkpt lat="48.46182" lon="-2.83691">
        <ele>107</ele>
        <time>2014-02-12T13:43:00Z</time>
      </trkpt>
      <trkpt lat="48.46184" lon="-2.83695">
        <ele>107</ele>
        <time>2014-02-12T13:43:02Z</time>
      </trkpt>
      <trkpt lat="48.46186" lon="-2.83698">
        <ele>107</ele>
        <time>2014-02-12T13:43:04Z</time>
      </trkpt>
      <trkpt lat="48.46189" lon="-2.83702">
        <ele>107</ele>
        <time>2014-02-12T13:43:07Z</time>
      </trkpt>
      <trkpt lat="48.46192" lon="-2.83706">
        <ele>107</ele>
        <time>2014-02-12T13:43:10Z</time>
      </trkpt>
      <trkpt lat="48.46194" lon="-2.83708">
        <ele>107</ele>
        <time>2014-02-12T13:43:12Z</time>
      </trkpt>
      <trkpt lat="48.46195" lon="-2.83711">
        <ele>107</ele>
        <time>2014-02-12T13:43:14Z</time>
      </trkpt>
      <trkpt lat="48.46196" lon="-2.83712">
        <ele>107</ele>
        <time>2014-02-12T13:43:16Z</time>
      </trkpt>
      <trkpt lat="48.46198" lon="-2.83712">
        <ele>107</ele>
        <time>2014-02-12T13:43:18Z</time>
      </trkpt>
      <trkpt lat="48.462" lon="-2.83713">
        <ele>107</ele>
        <time>2014-02-12T13:43:20Z</time>
      </trkpt>
      <trkpt lat="48.46201" lon="-2.83714">
        <ele>107</ele>
        <time>2014-02-12T13:43:22Z</time>
      </trkpt>
      <trkpt lat="48.46203" lon="-2.83717">
        <ele>107</ele>
        <time>2014-02-12T13:43:24Z</time>
      </trkpt>
      <trkpt lat="48.46207" lon="-2.83719">
        <ele>107</ele>
        <time>2014-02-12T13:43:26Z</time>
      </trkpt>
      <trkpt lat="48.4621" lon="-2.83723">
        <ele>107</ele>
        <time>2014-02-12T13:43:28Z</time>
      </trkpt>
      <trkpt lat="48.46214" lon="-2.83728">
        <ele>107</ele>
        <time>2014-02-12T13:43:30Z</time>
      </trkpt>
      <trkpt lat="48.46215" lon="-2.83734">
        <ele>107</ele>
        <time>2014-02-12T13:43:32Z</time>
      </trkpt>
      <trkpt lat="48.46215" lon="-2.83739">
        <ele>106</ele>
        <time>2014-02-12T13:43:34Z</time>
      </trkpt>
      <trkpt lat="48.46215" lon="-2.83745">
        <ele>104</ele>
        <time>2014-02-12T13:43:36Z</time>
      </trkpt>
      <trkpt lat="48.46216" lon="-2.8375">
        <ele>103</ele>
        <time>2014-02-12T13:43:38Z</time>
      </trkpt>
      <trkpt lat="48.46218" lon="-2.83754">
        <ele>102</ele>
        <time>2014-02-12T13:43:40Z</time>
      </trkpt>
      <trkpt lat="48.46219" lon="-2.83759">
        <ele>101</ele>
        <time>2014-02-12T13:43:42Z</time>
      </trkpt>
      <trkpt lat="48.46221" lon="-2.83763">
        <ele>101</ele>
        <time>2014-02-12T13:43:44Z</time>
      </trkpt>
      <trkpt lat="48.46222" lon="-2.83766">
        <ele>100</ele>
        <time>2014-02-12T13:43:46Z</time>
      </trkpt>
      <trkpt lat="48.46223" lon="-2.83768">
        <ele>99</ele>
        <time>2014-02-12T13:43:48Z</time>
      </trkpt>
      <trkpt lat="48.46225" lon="-2.8377">
        <ele>98</ele>
        <time>2014-02-12T13:43:50Z</time>
      </trkpt>
      <trkpt lat="48.46229" lon="-2.83771">
        <ele>97</ele>
        <time>2014-02-12T13:43:53Z</time>
      </trkpt>
      <trkpt lat="48.46232" lon="-2.83771">
        <ele>97</ele>
        <time>2014-02-12T13:43:55Z</time>
      </trkpt>
      <trkpt lat="48.46236" lon="-2.8377">
        <ele>97</ele>
        <time>2014-02-12T13:43:58Z</time>
      </trkpt>
      <trkpt lat="48.46239" lon="-2.83769">
        <ele>97</ele>
        <time>2014-02-12T13:44:00Z</time>
      </trkpt>
      <trkpt lat="48.46244" lon="-2.83769">
        <ele>97</ele>
        <time>2014-02-12T13:44:03Z</time>
      </trkpt>
      <trkpt lat="48.46246" lon="-2.83769">
        <ele>97</ele>
        <time>2014-02-12T13:44:05Z</time>
      </trkpt>
      <trkpt lat="48.46249" lon="-2.83767">
        <ele>97</ele>
        <time>2014-02-12T13:44:07Z</time>
      </trkpt>
      <trkpt lat="48.46251" lon="-2.83765">
        <ele>97</ele>
        <time>2014-02-12T13:44:09Z</time>
      </trkpt>
      <trkpt lat="48.46253" lon="-2.83765">
        <ele>97</ele>
        <time>2014-02-12T13:44:11Z</time>
      </trkpt>
      <trkpt lat="48.46256" lon="-2.83765">
        <ele>97</ele>
        <time>2014-02-12T13:44:13Z</time>
      </trkpt>
      <trkpt lat="48.46259" lon="-2.83765">
        <ele>97</ele>
        <time>2014-02-12T13:44:15Z</time>
      </trkpt>
      <trkpt lat="48.46261" lon="-2.83766">
        <ele>97</ele>
        <time>2014-02-12T13:44:17Z</time>
      </trkpt>
      <trkpt lat="48.46262" lon="-2.83767">
        <ele>97</ele>
        <time>2014-02-12T13:44:19Z</time>
      </trkpt>
      <trkpt lat="48.46265" lon="-2.83768">
        <ele>97</ele>
        <time>2014-02-12T13:44:21Z</time>
      </trkpt>
      <trkpt lat="48.46268" lon="-2.8377">
        <ele>97</ele>
        <time>2014-02-12T13:44:23Z</time>
      </trkpt>
      <trkpt lat="48.46272" lon="-2.83771">
        <ele>97</ele>
        <time>2014-02-12T13:44:25Z</time>
      </trkpt>
      <trkpt lat="48.46273" lon="-2.83772">
        <ele>97</ele>
        <time>2014-02-12T13:44:27Z</time>
      </trkpt>
      <trkpt lat="48.46276" lon="-2.83774">
        <ele>97</ele>
        <time>2014-02-12T13:44:29Z</time>
      </trkpt>
      <trkpt lat="48.46279" lon="-2.83776">
        <ele>97</ele>
        <time>2014-02-12T13:44:31Z</time>
      </trkpt>
      <trkpt lat="48.46281" lon="-2.83778">
        <ele>97</ele>
        <time>2014-02-12T13:44:33Z</time>
      </trkpt>
      <trkpt lat="48.46283" lon="-2.83778">
        <ele>97</ele>
        <time>2014-02-12T13:44:35Z</time>
      </trkpt>
      <trkpt lat="48.46286" lon="-2.8378">
        <ele>97</ele>
        <time>2014-02-12T13:44:37Z</time>
      </trkpt>
      <trkpt lat="48.46289" lon="-2.83781">
        <ele>97</ele>
        <time>2014-02-12T13:44:39Z</time>
      </trkpt>
      <trkpt lat="48.46293" lon="-2.83785">
        <ele>97</ele>
        <time>2014-02-12T13:44:42Z</time>
      </trkpt>
      <trkpt lat="48.46295" lon="-2.83787">
        <ele>97</ele>
        <time>2014-02-12T13:44:44Z</time>
      </trkpt>
      <trkpt lat="48.46297" lon="-2.83788">
        <ele>98</ele>
        <time>2014-02-12T13:44:46Z</time>
      </trkpt>
      <trkpt lat="48.46298" lon="-2.83791">
        <ele>99</ele>
        <time>2014-02-12T13:44:48Z</time>
      </trkpt>
      <trkpt lat="48.463" lon="-2.83793">
        <ele>100</ele>
        <time>2014-02-12T13:44:50Z</time>
      </trkpt>
      <trkpt lat="48.46303" lon="-2.83797">
        <ele>100</ele>
        <time>2014-02-12T13:44:53Z</time>
      </trkpt>
      <trkpt lat="48.46306" lon="-2.838">
        <ele>101</ele>
        <time>2014-02-12T13:44:55Z</time>
      </trkpt>
      <trkpt lat="48.4631" lon="-2.83802">
        <ele>102</ele>
        <time>2014-02-12T13:44:57Z</time>
      </trkpt>
      <trkpt lat="48.46311" lon="-2.83804">
        <ele>103</ele>
        <time>2014-02-12T13:44:59Z</time>
      </trkpt>
      <trkpt lat="48.46312" lon="-2.83806">
        <ele>103</ele>
        <time>2014-02-12T13:45:01Z</time>
      </trkpt>
      <trkpt lat="48.46313" lon="-2.83811">
        <ele>103</ele>
        <time>2014-02-12T13:45:03Z</time>
      </trkpt>
      <trkpt lat="48.46316" lon="-2.83815">
        <ele>103</ele>
        <time>2014-02-12T13:45:06Z</time>
      </trkpt>
      <trkpt lat="48.46318" lon="-2.83818">
        <ele>103</ele>
        <time>2014-02-12T13:45:08Z</time>
      </trkpt>
      <trkpt lat="48.4632" lon="-2.83821">
        <ele>103</ele>
        <time>2014-02-12T13:45:10Z</time>
      </trkpt>
      <trkpt lat="48.46323" lon="-2.83825">
        <ele>103</ele>
        <time>2014-02-12T13:45:13Z</time>
      </trkpt>
      <trkpt lat="48.46325" lon="-2.83826">
        <ele>103</ele>
        <time>2014-02-12T13:45:15Z</time>
      </trkpt>
      <trkpt lat="48.46327" lon="-2.83828">
        <ele>103</ele>
        <time>2014-02-12T13:45:17Z</time>
      </trkpt>
      <trkpt lat="48.46329" lon="-2.83829">
        <ele>103</ele>
        <time>2014-02-12T13:45:19Z</time>
      </trkpt>
      <trkpt lat="48.46333" lon="-2.8383">
        <ele>103</ele>
        <time>2014-02-12T13:45:22Z</time>
      </trkpt>
      <trkpt lat="48.46336" lon="-2.8383">
        <ele>103</ele>
        <time>2014-02-12T13:45:24Z</time>
      </trkpt>
      <trkpt lat="48.46339" lon="-2.8383">
        <ele>103</ele>
        <time>2014-02-12T13:45:26Z</time>
      </trkpt>
      <trkpt lat="48.46341" lon="-2.8383">
        <ele>102</ele>
        <time>2014-02-12T13:45:28Z</time>
      </trkpt>
      <trkpt lat="48.46345" lon="-2.83829">
        <ele>102</ele>
        <time>2014-02-12T13:45:30Z</time>
      </trkpt>
      <trkpt lat="48.46348" lon="-2.83827">
        <ele>102</ele>
        <time>2014-02-12T13:45:32Z</time>
      </trkpt>
      <trkpt lat="48.46352" lon="-2.83823">
        <ele>102</ele>
        <time>2014-02-12T13:45:35Z</time>
      </trkpt>
      <trkpt lat="48.46354" lon="-2.83821">
        <ele>102</ele>
        <time>2014-02-12T13:45:37Z</time>
      </trkpt>
      <trkpt lat="48.46357" lon="-2.8382">
        <ele>102</ele>
        <time>2014-02-12T13:45:39Z</time>
      </trkpt>
      <trkpt lat="48.4636" lon="-2.8382">
        <ele>102</ele>
        <time>2014-02-12T13:45:41Z</time>
      </trkpt>
      <trkpt lat="48.46363" lon="-2.8382">
        <ele>102</ele>
        <time>2014-02-12T13:45:43Z</time>
      </trkpt>
      <trkpt lat="48.46365" lon="-2.83821">
        <ele>102</ele>
        <time>2014-02-12T13:45:45Z</time>
      </trkpt>
      <trkpt lat="48.46368" lon="-2.83822">
        <ele>102</ele>
        <time>2014-02-12T13:45:48Z</time>
      </trkpt>
      <trkpt lat="48.4637" lon="-2.83822">
        <ele>102</ele>
        <time>2014-02-12T13:45:50Z</time>
      </trkpt>
      <trkpt lat="48.46374" lon="-2.83823">
        <ele>102</ele>
        <time>2014-02-12T13:45:52Z</time>
      </trkpt>
      <trkpt lat="48.46376" lon="-2.83822">
        <ele>103</ele>
        <time>2014-02-12T13:45:54Z</time>
      </trkpt>
      <trkpt lat="48.46379" lon="-2.83822">
        <ele>103</ele>
        <time>2014-02-12T13:45:56Z</time>
      </trkpt>
      <trkpt lat="48.46382" lon="-2.83823">
        <ele>103</ele>
        <time>2014-02-12T13:45:58Z</time>
      </trkpt>
      <trkpt lat="48.46385" lon="-2.83824">
        <ele>103</ele>
        <time>2014-02-12T13:46:00Z</time>
      </trkpt>
      <trkpt lat="48.46388" lon="-2.83825">
        <ele>103</ele>
        <time>2014-02-12T13:46:03Z</time>
      </trkpt>
      <trkpt lat="48.4639" lon="-2.83825">
        <ele>103</ele>
        <time>2014-02-12T13:46:05Z</time>
      </trkpt>
      <trkpt lat="48.46394" lon="-2.83827">
        <ele>103</ele>
        <time>2014-02-12T13:46:08Z</time>
      </trkpt>
      <trkpt lat="48.46398" lon="-2.83829">
        <ele>103</ele>
        <time>2014-02-12T13:46:11Z</time>
      </trkpt>
      <trkpt lat="48.464" lon="-2.8383">
        <ele>103</ele>
        <time>2014-02-12T13:46:13Z</time>
      </trkpt>
      <trkpt lat="48.46403" lon="-2.83832">
        <ele>103</ele>
        <time>2014-02-12T13:46:15Z</time>
      </trkpt>
      <trkpt lat="48.46407" lon="-2.83833">
        <ele>103</ele>
        <time>2014-02-12T13:46:17Z</time>
      </trkpt>
      <trkpt lat="48.46409" lon="-2.83834">
        <ele>103</ele>
        <time>2014-02-12T13:46:19Z</time>
      </trkpt>
      <trkpt lat="48.46412" lon="-2.83836">
        <ele>103</ele>
        <time>2014-02-12T13:46:21Z</time>
      </trkpt>
      <trkpt lat="48.46416" lon="-2.83835">
        <ele>103</ele>
        <time>2014-02-12T13:46:24Z</time>
      </trkpt>
      <trkpt lat="48.46419" lon="-2.83835">
        <ele>103</ele>
        <time>2014-02-12T13:46:26Z</time>
      </trkpt>
      <trkpt lat="48.46422" lon="-2.83836">
        <ele>103</ele>
        <time>2014-02-12T13:46:28Z</time>
      </trkpt>
      <trkpt lat="48.46426" lon="-2.83837">
        <ele>103</ele>
        <time>2014-02-12T13:46:30Z</time>
      </trkpt>
      <trkpt lat="48.46429" lon="-2.83838">
        <ele>103</ele>
        <time>2014-02-12T13:46:32Z</time>
      </trkpt>
      <trkpt lat="48.46432" lon="-2.83839">
        <ele>103</ele>
        <time>2014-02-12T13:46:34Z</time>
      </trkpt>
      <trkpt lat="48.46436" lon="-2.83839">
        <ele>103</ele>
        <time>2014-02-12T13:46:37Z</time>
      </trkpt>
      <trkpt lat="48.46439" lon="-2.8384">
        <ele>103</ele>
        <time>2014-02-12T13:46:39Z</time>
      </trkpt>
      <trkpt lat="48.46442" lon="-2.8384">
        <ele>103</ele>
        <time>2014-02-12T13:46:41Z</time>
      </trkpt>
      <trkpt lat="48.46446" lon="-2.8384">
        <ele>103</ele>
        <time>2014-02-12T13:46:43Z</time>
      </trkpt>
      <trkpt lat="48.46448" lon="-2.83839">
        <ele>103</ele>
        <time>2014-02-12T13:46:45Z</time>
      </trkpt>
      <trkpt lat="48.46451" lon="-2.8384">
        <ele>103</ele>
        <time>2014-02-12T13:46:47Z</time>
      </trkpt>
      <trkpt lat="48.46454" lon="-2.83841">
        <ele>103</ele>
        <time>2014-02-12T13:46:49Z</time>
      </trkpt>
      <trkpt lat="48.46457" lon="-2.83841">
        <ele>103</ele>
        <time>2014-02-12T13:46:51Z</time>
      </trkpt>
      <trkpt lat="48.4646" lon="-2.83842">
        <ele>103</ele>
        <time>2014-02-12T13:46:53Z</time>
      </trkpt>
      <trkpt lat="48.46462" lon="-2.83843">
        <ele>103</ele>
        <time>2014-02-12T13:46:55Z</time>
      </trkpt>
      <trkpt lat="48.46465" lon="-2.83844">
        <ele>103</ele>
        <time>2014-02-12T13:46:57Z</time>
      </trkpt>
      <trkpt lat="48.46468" lon="-2.83844">
        <ele>103</ele>
        <time>2014-02-12T13:46:59Z</time>
      </trkpt>
      <trkpt lat="48.46471" lon="-2.83844">
        <ele>103</ele>
        <time>2014-02-12T13:47:01Z</time>
      </trkpt>
      <trkpt lat="48.46473" lon="-2.83844">
        <ele>103</ele>
        <time>2014-02-12T13:47:03Z</time>
      </trkpt>
      <trkpt lat="48.46477" lon="-2.83842">
        <ele>103</ele>
        <time>2014-02-12T13:47:06Z</time>
      </trkpt>
      <trkpt lat="48.4648" lon="-2.8384">
        <ele>103</ele>
        <time>2014-02-12T13:47:08Z</time>
      </trkpt>
      <trkpt lat="48.46484" lon="-2.8384">
        <ele>103</ele>
        <time>2014-02-12T13:47:10Z</time>
      </trkpt>
      <trkpt lat="48.46487" lon="-2.8384">
        <ele>103</ele>
        <time>2014-02-12T13:47:12Z</time>
      </trkpt>
      <trkpt lat="48.4649" lon="-2.83842">
        <ele>103</ele>
        <time>2014-02-12T13:47:14Z</time>
      </trkpt>
      <trkpt lat="48.46493" lon="-2.83841">
        <ele>103</ele>
        <time>2014-02-12T13:47:16Z</time>
      </trkpt>
      <trkpt lat="48.46496" lon="-2.8384">
        <ele>103</ele>
        <time>2014-02-12T13:47:18Z</time>
      </trkpt>
      <trkpt lat="48.46499" lon="-2.83841">
        <ele>103</ele>
        <time>2014-02-12T13:47:20Z</time>
      </trkpt>
      <trkpt lat="48.46502" lon="-2.83842">
        <ele>103</ele>
        <time>2014-02-12T13:47:23Z</time>
      </trkpt>
      <trkpt lat="48.46504" lon="-2.83841">
        <ele>103</ele>
        <time>2014-02-12T13:47:25Z</time>
      </trkpt>
      <trkpt lat="48.46507" lon="-2.8384">
        <ele>103</ele>
        <time>2014-02-12T13:47:27Z</time>
      </trkpt>
      <trkpt lat="48.4651" lon="-2.8384">
        <ele>103</ele>
        <time>2014-02-12T13:47:29Z</time>
      </trkpt>
      <trkpt lat="48.46514" lon="-2.83841">
        <ele>103</ele>
        <time>2014-02-12T13:47:31Z</time>
      </trkpt>
      <trkpt lat="48.46518" lon="-2.83841">
        <ele>103</ele>
        <time>2014-02-12T13:47:33Z</time>
      </trkpt>
      <trkpt lat="48.46522" lon="-2.83839">
        <ele>103</ele>
        <time>2014-02-12T13:47:36Z</time>
      </trkpt>
      <trkpt lat="48.46526" lon="-2.8384">
        <ele>103</ele>
        <time>2014-02-12T13:47:39Z</time>
      </trkpt>
      <trkpt lat="48.46529" lon="-2.8384">
        <ele>103</ele>
        <time>2014-02-12T13:47:41Z</time>
      </trkpt>
      <trkpt lat="48.46532" lon="-2.83837">
        <ele>103</ele>
        <time>2014-02-12T13:47:43Z</time>
      </trkpt>
      <trkpt lat="48.46535" lon="-2.83836">
        <ele>103</ele>
        <time>2014-02-12T13:47:45Z</time>
      </trkpt>
      <trkpt lat="48.46539" lon="-2.83834">
        <ele>104</ele>
        <time>2014-02-12T13:47:47Z</time>
      </trkpt>
      <trkpt lat="48.46541" lon="-2.83834">
        <ele>104</ele>
        <time>2014-02-12T13:47:49Z</time>
      </trkpt>
      <trkpt lat="48.46545" lon="-2.83834">
        <ele>104</ele>
        <time>2014-02-12T13:47:51Z</time>
      </trkpt>
      <trkpt lat="48.46547" lon="-2.83834">
        <ele>104</ele>
        <time>2014-02-12T13:47:53Z</time>
      </trkpt>
      <trkpt lat="48.46549" lon="-2.83834">
        <ele>104</ele>
        <time>2014-02-12T13:47:55Z</time>
      </trkpt>
      <trkpt lat="48.46552" lon="-2.83834">
        <ele>104</ele>
        <time>2014-02-12T13:47:57Z</time>
      </trkpt>
      <trkpt lat="48.46556" lon="-2.83836">
        <ele>104</ele>
        <time>2014-02-12T13:47:59Z</time>
      </trkpt>
      <trkpt lat="48.4656" lon="-2.83836">
        <ele>104</ele>
        <time>2014-02-12T13:48:01Z</time>
      </trkpt>
      <trkpt lat="48.46563" lon="-2.83835">
        <ele>104</ele>
        <time>2014-02-12T13:48:03Z</time>
      </trkpt>
      <trkpt lat="48.46567" lon="-2.83836">
        <ele>104</ele>
        <time>2014-02-12T13:48:05Z</time>
      </trkpt>
      <trkpt lat="48.46569" lon="-2.83837">
        <ele>104</ele>
        <time>2014-02-12T13:48:07Z</time>
      </trkpt>
      <trkpt lat="48.46571" lon="-2.83837">
        <ele>104</ele>
        <time>2014-02-12T13:48:09Z</time>
      </trkpt>
      <trkpt lat="48.46574" lon="-2.83837">
        <ele>104</ele>
        <time>2014-02-12T13:48:11Z</time>
      </trkpt>
      <trkpt lat="48.46577" lon="-2.83837">
        <ele>104</ele>
        <time>2014-02-12T13:48:13Z</time>
      </trkpt>
      <trkpt lat="48.4658" lon="-2.83838">
        <ele>104</ele>
        <time>2014-02-12T13:48:15Z</time>
      </trkpt>
      <trkpt lat="48.46582" lon="-2.83837">
        <ele>104</ele>
        <time>2014-02-12T13:48:17Z</time>
      </trkpt>
      <trkpt lat="48.46584" lon="-2.83837">
        <ele>104</ele>
        <time>2014-02-12T13:48:19Z</time>
      </trkpt>
      <trkpt lat="48.46588" lon="-2.83837">
        <ele>104</ele>
        <time>2014-02-12T13:48:21Z</time>
      </trkpt>
      <trkpt lat="48.46592" lon="-2.83837">
        <ele>104</ele>
        <time>2014-02-12T13:48:23Z</time>
      </trkpt>
      <trkpt lat="48.46595" lon="-2.83838">
        <ele>104</ele>
        <time>2014-02-12T13:48:25Z</time>
      </trkpt>
      <trkpt lat="48.46598" lon="-2.83838">
        <ele>104</ele>
        <time>2014-02-12T13:48:27Z</time>
      </trkpt>
      <trkpt lat="48.466" lon="-2.8384">
        <ele>104</ele>
        <time>2014-02-12T13:48:29Z</time>
      </trkpt>
      <trkpt lat="48.46604" lon="-2.8384">
        <ele>104</ele>
        <time>2014-02-12T13:48:31Z</time>
      </trkpt>
      <trkpt lat="48.46607" lon="-2.83841">
        <ele>104</ele>
        <time>2014-02-12T13:48:33Z</time>
      </trkpt>
      <trkpt lat="48.46609" lon="-2.83843">
        <ele>104</ele>
        <time>2014-02-12T13:48:35Z</time>
      </trkpt>
      <trkpt lat="48.46611" lon="-2.83843">
        <ele>104</ele>
        <time>2014-02-12T13:48:37Z</time>
      </trkpt>
      <trkpt lat="48.46614" lon="-2.83845">
        <ele>104</ele>
        <time>2014-02-12T13:48:39Z</time>
      </trkpt>
      <trkpt lat="48.46616" lon="-2.83847">
        <ele>104</ele>
        <time>2014-02-12T13:48:41Z</time>
      </trkpt>
      <trkpt lat="48.46619" lon="-2.83849">
        <ele>104</ele>
        <time>2014-02-12T13:48:43Z</time>
      </trkpt>
      <trkpt lat="48.46622" lon="-2.83851">
        <ele>104</ele>
        <time>2014-02-12T13:48:45Z</time>
      </trkpt>
      <trkpt lat="48.46624" lon="-2.83855">
        <ele>104</ele>
        <time>2014-02-12T13:48:47Z</time>
      </trkpt>
      <trkpt lat="48.46627" lon="-2.83857">
        <ele>104</ele>
        <time>2014-02-12T13:48:49Z</time>
      </trkpt>
      <trkpt lat="48.4663" lon="-2.83859">
        <ele>104</ele>
        <time>2014-02-12T13:48:51Z</time>
      </trkpt>
      <trkpt lat="48.46633" lon="-2.8386">
        <ele>104</ele>
        <time>2014-02-12T13:48:53Z</time>
      </trkpt>
      <trkpt lat="48.46636" lon="-2.83862">
        <ele>104</ele>
        <time>2014-02-12T13:48:55Z</time>
      </trkpt>
      <trkpt lat="48.4664" lon="-2.83862">
        <ele>104</ele>
        <time>2014-02-12T13:48:58Z</time>
      </trkpt>
      <trkpt lat="48.46643" lon="-2.83862">
        <ele>104</ele>
        <time>2014-02-12T13:49:00Z</time>
      </trkpt>
      <trkpt lat="48.46647" lon="-2.83862">
        <ele>104</ele>
        <time>2014-02-12T13:49:02Z</time>
      </trkpt>
      <trkpt lat="48.46651" lon="-2.83862">
        <ele>104</ele>
        <time>2014-02-12T13:49:04Z</time>
      </trkpt>
      <trkpt lat="48.46653" lon="-2.83862">
        <ele>104</ele>
        <time>2014-02-12T13:49:06Z</time>
      </trkpt>
      <trkpt lat="48.46657" lon="-2.83861">
        <ele>104</ele>
        <time>2014-02-12T13:49:08Z</time>
      </trkpt>
      <trkpt lat="48.46659" lon="-2.83861">
        <ele>104</ele>
        <time>2014-02-12T13:49:10Z</time>
      </trkpt>
      <trkpt lat="48.46663" lon="-2.83861">
        <ele>104</ele>
        <time>2014-02-12T13:49:13Z</time>
      </trkpt>
      <trkpt lat="48.46667" lon="-2.83863">
        <ele>104</ele>
        <time>2014-02-12T13:49:15Z</time>
      </trkpt>
      <trkpt lat="48.46669" lon="-2.83862">
        <ele>104</ele>
        <time>2014-02-12T13:49:17Z</time>
      </trkpt>
      <trkpt lat="48.46673" lon="-2.83861">
        <ele>104</ele>
        <time>2014-02-12T13:49:20Z</time>
      </trkpt>
      <trkpt lat="48.46676" lon="-2.8386">
        <ele>104</ele>
        <time>2014-02-12T13:49:22Z</time>
      </trkpt>
      <trkpt lat="48.46679" lon="-2.83861">
        <ele>104</ele>
        <time>2014-02-12T13:49:24Z</time>
      </trkpt>
      <trkpt lat="48.46682" lon="-2.83862">
        <ele>104</ele>
        <time>2014-02-12T13:49:26Z</time>
      </trkpt>
      <trkpt lat="48.46685" lon="-2.83863">
        <ele>104</ele>
        <time>2014-02-12T13:49:28Z</time>
      </trkpt>
      <trkpt lat="48.46688" lon="-2.83865">
        <ele>104</ele>
        <time>2014-02-12T13:49:30Z</time>
      </trkpt>
      <trkpt lat="48.4669" lon="-2.83867">
        <ele>104</ele>
        <time>2014-02-12T13:49:32Z</time>
      </trkpt>
      <trkpt lat="48.46693" lon="-2.83869">
        <ele>104</ele>
        <time>2014-02-12T13:49:34Z</time>
      </trkpt>
      <trkpt lat="48.46695" lon="-2.83872">
        <ele>104</ele>
        <time>2014-02-12T13:49:36Z</time>
      </trkpt>
      <trkpt lat="48.46698" lon="-2.83875">
        <ele>104</ele>
        <time>2014-02-12T13:49:38Z</time>
      </trkpt>
      <trkpt lat="48.46701" lon="-2.83877">
        <ele>104</ele>
        <time>2014-02-12T13:49:40Z</time>
      </trkpt>
      <trkpt lat="48.46703" lon="-2.83881">
        <ele>104</ele>
        <time>2014-02-12T13:49:42Z</time>
      </trkpt>
      <trkpt lat="48.46704" lon="-2.83884">
        <ele>104</ele>
        <time>2014-02-12T13:49:44Z</time>
      </trkpt>
      <trkpt lat="48.46706" lon="-2.83888">
        <ele>104</ele>
        <time>2014-02-12T13:49:46Z</time>
      </trkpt>
      <trkpt lat="48.46709" lon="-2.83891">
        <ele>104</ele>
        <time>2014-02-12T13:49:48Z</time>
      </trkpt>
      <trkpt lat="48.46711" lon="-2.83895">
        <ele>104</ele>
        <time>2014-02-12T13:49:50Z</time>
      </trkpt>
      <trkpt lat="48.46714" lon="-2.83899">
        <ele>103</ele>
        <time>2014-02-12T13:49:52Z</time>
      </trkpt>
      <trkpt lat="48.46716" lon="-2.83901">
        <ele>102</ele>
        <time>2014-02-12T13:49:54Z</time>
      </trkpt>
      <trkpt lat="48.46717" lon="-2.83904">
        <ele>101</ele>
        <time>2014-02-12T13:49:56Z</time>
      </trkpt>
      <trkpt lat="48.46719" lon="-2.83907">
        <ele>100</ele>
        <time>2014-02-12T13:49:58Z</time>
      </trkpt>
      <trkpt lat="48.46721" lon="-2.83912">
        <ele>98</ele>
        <time>2014-02-12T13:50:01Z</time>
      </trkpt>
      <trkpt lat="48.46724" lon="-2.83915">
        <ele>96</ele>
        <time>2014-02-12T13:50:04Z</time>
      </trkpt>
      <trkpt lat="48.46727" lon="-2.83919">
        <ele>95</ele>
        <time>2014-02-12T13:50:07Z</time>
      </trkpt>
      <trkpt lat="48.46729" lon="-2.83922">
        <ele>94</ele>
        <time>2014-02-12T13:50:09Z</time>
      </trkpt>
      <trkpt lat="48.46732" lon="-2.83927">
        <ele>94</ele>
        <time>2014-02-12T13:50:12Z</time>
      </trkpt>
      <trkpt lat="48.46733" lon="-2.83931">
        <ele>94</ele>
        <time>2014-02-12T13:50:14Z</time>
      </trkpt>
      <trkpt lat="48.46735" lon="-2.83935">
        <ele>94</ele>
        <time>2014-02-12T13:50:16Z</time>
      </trkpt>
      <trkpt lat="48.46737" lon="-2.83939">
        <ele>94</ele>
        <time>2014-02-12T13:50:18Z</time>
      </trkpt>
      <trkpt lat="48.46739" lon="-2.83943">
        <ele>94</ele>
        <time>2014-02-12T13:50:20Z</time>
      </trkpt>
      <trkpt lat="48.46741" lon="-2.83947">
        <ele>94</ele>
        <time>2014-02-12T13:50:22Z</time>
      </trkpt>
      <trkpt lat="48.46743" lon="-2.83952">
        <ele>94</ele>
        <time>2014-02-12T13:50:25Z</time>
      </trkpt>
      <trkpt lat="48.46744" lon="-2.83955">
        <ele>94</ele>
        <time>2014-02-12T13:50:27Z</time>
      </trkpt>
      <trkpt lat="48.46744" lon="-2.8396">
        <ele>94</ele>
        <time>2014-02-12T13:50:29Z</time>
      </trkpt>
      <trkpt lat="48.46745" lon="-2.83965">
        <ele>94</ele>
        <time>2014-02-12T13:50:31Z</time>
      </trkpt>
      <trkpt lat="48.46746" lon="-2.83969">
        <ele>94</ele>
        <time>2014-02-12T13:50:33Z</time>
      </trkpt>
      <trkpt lat="48.46747" lon="-2.83975">
        <ele>94</ele>
        <time>2014-02-12T13:50:35Z</time>
      </trkpt>
      <trkpt lat="48.46748" lon="-2.8398">
        <ele>94</ele>
        <time>2014-02-12T13:50:37Z</time>
      </trkpt>
      <trkpt lat="48.46748" lon="-2.83985">
        <ele>94</ele>
        <time>2014-02-12T13:50:39Z</time>
      </trkpt>
      <trkpt lat="48.46748" lon="-2.83989">
        <ele>94</ele>
        <time>2014-02-12T13:50:41Z</time>
      </trkpt>
      <trkpt lat="48.46748" lon="-2.83994">
        <ele>94</ele>
        <time>2014-02-12T13:50:43Z</time>
      </trkpt>
      <trkpt lat="48.46749" lon="-2.83998">
        <ele>94</ele>
        <time>2014-02-12T13:50:45Z</time>
      </trkpt>
      <trkpt lat="48.46751" lon="-2.84002">
        <ele>94</ele>
        <time>2014-02-12T13:50:47Z</time>
      </trkpt>
      <trkpt lat="48.46752" lon="-2.84006">
        <ele>94</ele>
        <time>2014-02-12T13:50:49Z</time>
      </trkpt>
      <trkpt lat="48.46753" lon="-2.84011">
        <ele>95</ele>
        <time>2014-02-12T13:50:52Z</time>
      </trkpt>
      <trkpt lat="48.46754" lon="-2.84015">
        <ele>96</ele>
        <time>2014-02-12T13:50:54Z</time>
      </trkpt>
      <trkpt lat="48.46754" lon="-2.84019">
        <ele>98</ele>
        <time>2014-02-12T13:50:56Z</time>
      </trkpt>
      <trkpt lat="48.46754" lon="-2.84023">
        <ele>99</ele>
        <time>2014-02-12T13:50:58Z</time>
      </trkpt>
      <trkpt lat="48.46755" lon="-2.84027">
        <ele>99</ele>
        <time>2014-02-12T13:51:00Z</time>
      </trkpt>
      <trkpt lat="48.46757" lon="-2.8403">
        <ele>99</ele>
        <time>2014-02-12T13:51:02Z</time>
      </trkpt>
      <trkpt lat="48.46757" lon="-2.84033">
        <ele>99</ele>
        <time>2014-02-12T13:51:04Z</time>
      </trkpt>
      <trkpt lat="48.46758" lon="-2.84036">
        <ele>99</ele>
        <time>2014-02-12T13:51:06Z</time>
      </trkpt>
      <trkpt lat="48.4676" lon="-2.84041">
        <ele>99</ele>
        <time>2014-02-12T13:51:09Z</time>
      </trkpt>
      <trkpt lat="48.46761" lon="-2.84044">
        <ele>101</ele>
        <time>2014-02-12T13:51:11Z</time>
      </trkpt>
      <trkpt lat="48.46761" lon="-2.84047">
        <ele>103</ele>
        <time>2014-02-12T13:51:13Z</time>
      </trkpt>
      <trkpt lat="48.46762" lon="-2.8405">
        <ele>104</ele>
        <time>2014-02-12T13:51:15Z</time>
      </trkpt>
      <trkpt lat="48.46761" lon="-2.84054">
        <ele>104</ele>
        <time>2014-02-12T13:51:17Z</time>
      </trkpt>
      <trkpt lat="48.46761" lon="-2.84057">
        <ele>104</ele>
        <time>2014-02-12T13:51:19Z</time>
      </trkpt>
      <trkpt lat="48.46763" lon="-2.8406">
        <ele>104</ele>
        <time>2014-02-12T13:51:21Z</time>
      </trkpt>
      <trkpt lat="48.46762" lon="-2.84064">
        <ele>104</ele>
        <time>2014-02-12T13:51:23Z</time>
      </trkpt>
      <trkpt lat="48.46763" lon="-2.84067">
        <ele>104</ele>
        <time>2014-02-12T13:51:25Z</time>
      </trkpt>
      <trkpt lat="48.46763" lon="-2.84071">
        <ele>104</ele>
        <time>2014-02-12T13:51:27Z</time>
      </trkpt>
      <trkpt lat="48.46764" lon="-2.84075">
        <ele>104</ele>
        <time>2014-02-12T13:51:30Z</time>
      </trkpt>
      <trkpt lat="48.46764" lon="-2.84078">
        <ele>104</ele>
        <time>2014-02-12T13:51:32Z</time>
      </trkpt>
      <trkpt lat="48.46765" lon="-2.84082">
        <ele>104</ele>
        <time>2014-02-12T13:51:34Z</time>
      </trkpt>
      <trkpt lat="48.46765" lon="-2.84085">
        <ele>104</ele>
        <time>2014-02-12T13:51:36Z</time>
      </trkpt>
      <trkpt lat="48.46765" lon="-2.84088">
        <ele>104</ele>
        <time>2014-02-12T13:51:38Z</time>
      </trkpt>
      <trkpt lat="48.46765" lon="-2.84091">
        <ele>105</ele>
        <time>2014-02-12T13:51:40Z</time>
      </trkpt>
      <trkpt lat="48.46765" lon="-2.84096">
        <ele>106</ele>
        <time>2014-02-12T13:51:43Z</time>
      </trkpt>
      <trkpt lat="48.46766" lon="-2.84098">
        <ele>106</ele>
        <time>2014-02-12T13:51:45Z</time>
      </trkpt>
      <trkpt lat="48.46767" lon="-2.841">
        <ele>107</ele>
        <time>2014-02-12T13:51:47Z</time>
      </trkpt>
      <trkpt lat="48.46767" lon="-2.84103">
        <ele>108</ele>
        <time>2014-02-12T13:51:49Z</time>
      </trkpt>
      <trkpt lat="48.46769" lon="-2.84106">
        <ele>109</ele>
        <time>2014-02-12T13:51:51Z</time>
      </trkpt>
      <trkpt lat="48.4677" lon="-2.84108">
        <ele>110</ele>
        <time>2014-02-12T13:51:53Z</time>
      </trkpt>
      <trkpt lat="48.4677" lon="-2.8411">
        <ele>111</ele>
        <time>2014-02-12T13:51:55Z</time>
      </trkpt>
      <trkpt lat="48.46771" lon="-2.84113">
        <ele>111</ele>
        <time>2014-02-12T13:51:57Z</time>
      </trkpt>
      <trkpt lat="48.46772" lon="-2.84115">
        <ele>111</ele>
        <time>2014-02-12T13:51:59Z</time>
      </trkpt>
      <trkpt lat="48.46773" lon="-2.84118">
        <ele>111</ele>
        <time>2014-02-12T13:52:01Z</time>
      </trkpt>
      <trkpt lat="48.46774" lon="-2.8412">
        <ele>112</ele>
        <time>2014-02-12T13:52:03Z</time>
      </trkpt>
      <trkpt lat="48.46775" lon="-2.84125">
        <ele>113</ele>
        <time>2014-02-12T13:52:06Z</time>
      </trkpt>
      <trkpt lat="48.46777" lon="-2.84129">
        <ele>113</ele>
        <time>2014-02-12T13:52:08Z</time>
      </trkpt>
      <trkpt lat="48.46778" lon="-2.84132">
        <ele>114</ele>
        <time>2014-02-12T13:52:10Z</time>
      </trkpt>
      <trkpt lat="48.46779" lon="-2.84135">
        <ele>114</ele>
        <time>2014-02-12T13:52:12Z</time>
      </trkpt>
      <trkpt lat="48.46779" lon="-2.84138">
        <ele>114</ele>
        <time>2014-02-12T13:52:14Z</time>
      </trkpt>
      <trkpt lat="48.4678" lon="-2.8414">
        <ele>114</ele>
        <time>2014-02-12T13:52:16Z</time>
      </trkpt>
      <trkpt lat="48.46781" lon="-2.84142">
        <ele>114</ele>
        <time>2014-02-12T13:52:18Z</time>
      </trkpt>
      <trkpt lat="48.46781" lon="-2.84145">
        <ele>114</ele>
        <time>2014-02-12T13:52:20Z</time>
      </trkpt>
      <trkpt lat="48.46782" lon="-2.84148">
        <ele>114</ele>
        <time>2014-02-12T13:52:22Z</time>
      </trkpt>
      <trkpt lat="48.46783" lon="-2.84151">
        <ele>114</ele>
        <time>2014-02-12T13:52:24Z</time>
      </trkpt>
      <trkpt lat="48.46785" lon="-2.84155">
        <ele>114</ele>
        <time>2014-02-12T13:52:27Z</time>
      </trkpt>
      <trkpt lat="48.46786" lon="-2.84158">
        <ele>114</ele>
        <time>2014-02-12T13:52:29Z</time>
      </trkpt>
      <trkpt lat="48.46786" lon="-2.8416">
        <ele>114</ele>
        <time>2014-02-12T13:52:31Z</time>
      </trkpt>
      <trkpt lat="48.46787" lon="-2.8416">
        <ele>115</ele>
        <time>2014-02-12T13:52:33Z</time>
      </trkpt>
      <trkpt lat="48.46788" lon="-2.84162">
        <ele>115</ele>
        <time>2014-02-12T13:52:35Z</time>
      </trkpt>
      <trkpt lat="48.46788" lon="-2.84164">
        <ele>116</ele>
        <time>2014-02-12T13:52:37Z</time>
      </trkpt>
      <trkpt lat="48.4679" lon="-2.84168">
        <ele>116</ele>
        <time>2014-02-12T13:52:39Z</time>
      </trkpt>
      <trkpt lat="48.46793" lon="-2.84172">
        <ele>116</ele>
        <time>2014-02-12T13:52:42Z</time>
      </trkpt>
      <trkpt lat="48.46795" lon="-2.84174">
        <ele>116</ele>
        <time>2014-02-12T13:52:44Z</time>
      </trkpt>
      <trkpt lat="48.46796" lon="-2.84176">
        <ele>116</ele>
        <time>2014-02-12T13:52:46Z</time>
      </trkpt>
      <trkpt lat="48.46797" lon="-2.84177">
        <ele>116</ele>
        <time>2014-02-12T13:52:48Z</time>
      </trkpt>
      <trkpt lat="48.46798" lon="-2.84179">
        <ele>116</ele>
        <time>2014-02-12T13:52:50Z</time>
      </trkpt>
      <trkpt lat="48.468" lon="-2.84181">
        <ele>116</ele>
        <time>2014-02-12T13:52:52Z</time>
      </trkpt>
      <trkpt lat="48.46802" lon="-2.84183">
        <ele>116</ele>
        <time>2014-02-12T13:52:54Z</time>
      </trkpt>
      <trkpt lat="48.46805" lon="-2.84185">
        <ele>116</ele>
        <time>2014-02-12T13:52:56Z</time>
      </trkpt>
      <trkpt lat="48.46806" lon="-2.84187">
        <ele>116</ele>
        <time>2014-02-12T13:52:58Z</time>
      </trkpt>
      <trkpt lat="48.46809" lon="-2.84189">
        <ele>116</ele>
        <time>2014-02-12T13:53:00Z</time>
      </trkpt>
      <trkpt lat="48.46812" lon="-2.84191">
        <ele>116</ele>
        <time>2014-02-12T13:53:02Z</time>
      </trkpt>
      <trkpt lat="48.46814" lon="-2.84193">
        <ele>116</ele>
        <time>2014-02-12T13:53:04Z</time>
      </trkpt>
      <trkpt lat="48.46817" lon="-2.84197">
        <ele>116</ele>
        <time>2014-02-12T13:53:06Z</time>
      </trkpt>
      <trkpt lat="48.46819" lon="-2.842">
        <ele>116</ele>
        <time>2014-02-12T13:53:08Z</time>
      </trkpt>
      <trkpt lat="48.46822" lon="-2.84205">
        <ele>116</ele>
        <time>2014-02-12T13:53:11Z</time>
      </trkpt>
      <trkpt lat="48.46825" lon="-2.84208">
        <ele>116</ele>
        <time>2014-02-12T13:53:13Z</time>
      </trkpt>
      <trkpt lat="48.46827" lon="-2.84212">
        <ele>116</ele>
        <time>2014-02-12T13:53:15Z</time>
      </trkpt>
      <trkpt lat="48.46828" lon="-2.84214">
        <ele>116</ele>
        <time>2014-02-12T13:53:17Z</time>
      </trkpt>
      <trkpt lat="48.4683" lon="-2.84216">
        <ele>116</ele>
        <time>2014-02-12T13:53:19Z</time>
      </trkpt>
      <trkpt lat="48.46833" lon="-2.84219">
        <ele>116</ele>
        <time>2014-02-12T13:53:22Z</time>
      </trkpt>
      <trkpt lat="48.46835" lon="-2.84222">
        <ele>117</ele>
        <time>2014-02-12T13:53:24Z</time>
      </trkpt>
      <trkpt lat="48.46837" lon="-2.84225">
        <ele>118</ele>
        <time>2014-02-12T13:53:26Z</time>
      </trkpt>
      <trkpt lat="48.46839" lon="-2.84227">
        <ele>119</ele>
        <time>2014-02-12T13:53:28Z</time>
      </trkpt>
      <trkpt lat="48.4684" lon="-2.8423">
        <ele>120</ele>
        <time>2014-02-12T13:53:30Z</time>
      </trkpt>
      <trkpt lat="48.46843" lon="-2.84234">
        <ele>121</ele>
        <time>2014-02-12T13:53:33Z</time>
      </trkpt>
      <trkpt lat="48.46846" lon="-2.84238">
        <ele>121</ele>
        <time>2014-02-12T13:53:36Z</time>
      </trkpt>
      <trkpt lat="48.46849" lon="-2.84241">
        <ele>122</ele>
        <time>2014-02-12T13:53:38Z</time>
      </trkpt>
      <trkpt lat="48.46852" lon="-2.84243">
        <ele>123</ele>
        <time>2014-02-12T13:53:41Z</time>
      </trkpt>
      <trkpt lat="48.46855" lon="-2.84246">
        <ele>124</ele>
        <time>2014-02-12T13:53:44Z</time>
      </trkpt>
      <trkpt lat="48.46856" lon="-2.84249">
        <ele>125</ele>
        <time>2014-02-12T13:53:46Z</time>
      </trkpt>
      <trkpt lat="48.46859" lon="-2.84252">
        <ele>125</ele>
        <time>2014-02-12T13:53:51Z</time>
      </trkpt>
      <trkpt lat="48.4686" lon="-2.84252">
        <ele>125</ele>
        <time>2014-02-12T13:53:54Z</time>
      </trkpt>
      <trkpt lat="48.46862" lon="-2.84254">
        <ele>125</ele>
        <time>2014-02-12T13:53:57Z</time>
      </trkpt>
      <trkpt lat="48.46863" lon="-2.84257">
        <ele>125</ele>
        <time>2014-02-12T13:53:59Z</time>
      </trkpt>
      <trkpt lat="48.46864" lon="-2.84259">
        <ele>125</ele>
        <time>2014-02-12T13:54:01Z</time>
      </trkpt>
      <trkpt lat="48.46864" lon="-2.84262">
        <ele>125</ele>
        <time>2014-02-12T13:54:03Z</time>
      </trkpt>
      <trkpt lat="48.46865" lon="-2.84263">
        <ele>125</ele>
        <time>2014-02-12T13:54:05Z</time>
      </trkpt>
      <trkpt lat="48.46866" lon="-2.84266">
        <ele>125</ele>
        <time>2014-02-12T13:54:07Z</time>
      </trkpt>
      <trkpt lat="48.46866" lon="-2.84268">
        <ele>125</ele>
        <time>2014-02-12T13:54:09Z</time>
      </trkpt>
      <trkpt lat="48.46867" lon="-2.84271">
        <ele>125</ele>
        <time>2014-02-12T13:54:11Z</time>
      </trkpt>
      <trkpt lat="48.46869" lon="-2.84272">
        <ele>124</ele>
        <time>2014-02-12T13:54:16Z</time>
      </trkpt>
      <trkpt lat="48.46871" lon="-2.84274">
        <ele>123</ele>
        <time>2014-02-12T13:54:18Z</time>
      </trkpt>
      <trkpt lat="48.46874" lon="-2.84277">
        <ele>123</ele>
        <time>2014-02-12T13:54:20Z</time>
      </trkpt>
      <trkpt lat="48.46877" lon="-2.8428">
        <ele>123</ele>
        <time>2014-02-12T13:54:23Z</time>
      </trkpt>
      <trkpt lat="48.4688" lon="-2.84284">
        <ele>123</ele>
        <time>2014-02-12T13:54:26Z</time>
      </trkpt>
      <trkpt lat="48.46882" lon="-2.84287">
        <ele>123</ele>
        <time>2014-02-12T13:54:28Z</time>
      </trkpt>
      <trkpt lat="48.46884" lon="-2.84289">
        <ele>123</ele>
        <time>2014-02-12T13:54:30Z</time>
      </trkpt>
      <trkpt lat="48.46888" lon="-2.84293">
        <ele>123</ele>
        <time>2014-02-12T13:54:33Z</time>
      </trkpt>
      <trkpt lat="48.4689" lon="-2.84294">
        <ele>123</ele>
        <time>2014-02-12T13:54:35Z</time>
      </trkpt>
      <trkpt lat="48.46893" lon="-2.84297">
        <ele>123</ele>
        <time>2014-02-12T13:54:38Z</time>
      </trkpt>
      <trkpt lat="48.46896" lon="-2.84298">
        <ele>123</ele>
        <time>2014-02-12T13:54:40Z</time>
      </trkpt>
      <trkpt lat="48.46899" lon="-2.843">
        <ele>123</ele>
        <time>2014-02-12T13:54:42Z</time>
      </trkpt>
      <trkpt lat="48.46903" lon="-2.84301">
        <ele>123</ele>
        <time>2014-02-12T13:54:44Z</time>
      </trkpt>
      <trkpt lat="48.46906" lon="-2.84304">
        <ele>123</ele>
        <time>2014-02-12T13:54:48Z</time>
      </trkpt>
      <trkpt lat="48.46909" lon="-2.84305">
        <ele>122</ele>
        <time>2014-02-12T13:54:50Z</time>
      </trkpt>
      <trkpt lat="48.46912" lon="-2.84307">
        <ele>122</ele>
        <time>2014-02-12T13:54:52Z</time>
      </trkpt>
      <trkpt lat="48.46915" lon="-2.84309">
        <ele>122</ele>
        <time>2014-02-12T13:54:54Z</time>
      </trkpt>
      <trkpt lat="48.4692" lon="-2.84313">
        <ele>122</ele>
        <time>2014-02-12T13:54:57Z</time>
      </trkpt>
      <trkpt lat="48.46922" lon="-2.84315">
        <ele>121</ele>
        <time>2014-02-12T13:54:59Z</time>
      </trkpt>
      <trkpt lat="48.46925" lon="-2.84319">
        <ele>121</ele>
        <time>2014-02-12T13:55:01Z</time>
      </trkpt>
      <trkpt lat="48.46929" lon="-2.84325">
        <ele>121</ele>
        <time>2014-02-12T13:55:04Z</time>
      </trkpt>
      <trkpt lat="48.46931" lon="-2.84326">
        <ele>121</ele>
        <time>2014-02-12T13:55:06Z</time>
      </trkpt>
      <trkpt lat="48.46934" lon="-2.84328">
        <ele>121</ele>
        <time>2014-02-12T13:55:08Z</time>
      </trkpt>
      <trkpt lat="48.46936" lon="-2.84331">
        <ele>121</ele>
        <time>2014-02-12T13:55:10Z</time>
      </trkpt>
      <trkpt lat="48.46939" lon="-2.84334">
        <ele>121</ele>
        <time>2014-02-12T13:55:12Z</time>
      </trkpt>
      <trkpt lat="48.46942" lon="-2.84337">
        <ele>121</ele>
        <time>2014-02-12T13:55:14Z</time>
      </trkpt>
      <trkpt lat="48.46944" lon="-2.84341">
        <ele>121</ele>
        <time>2014-02-12T13:55:16Z</time>
      </trkpt>
      <trkpt lat="48.46946" lon="-2.84345">
        <ele>121</ele>
        <time>2014-02-12T13:55:18Z</time>
      </trkpt>
      <trkpt lat="48.46949" lon="-2.84348">
        <ele>121</ele>
        <time>2014-02-12T13:55:20Z</time>
      </trkpt>
      <trkpt lat="48.46951" lon="-2.84352">
        <ele>121</ele>
        <time>2014-02-12T13:55:22Z</time>
      </trkpt>
      <trkpt lat="48.46954" lon="-2.84355">
        <ele>121</ele>
        <time>2014-02-12T13:55:24Z</time>
      </trkpt>
      <trkpt lat="48.46956" lon="-2.84358">
        <ele>121</ele>
        <time>2014-02-12T13:55:26Z</time>
      </trkpt>
      <trkpt lat="48.46958" lon="-2.84361">
        <ele>121</ele>
        <time>2014-02-12T13:55:28Z</time>
      </trkpt>
      <trkpt lat="48.46961" lon="-2.84365">
        <ele>121</ele>
        <time>2014-02-12T13:55:31Z</time>
      </trkpt>
      <trkpt lat="48.46964" lon="-2.84368">
        <ele>121</ele>
        <time>2014-02-12T13:55:33Z</time>
      </trkpt>
      <trkpt lat="48.46965" lon="-2.84371">
        <ele>121</ele>
        <time>2014-02-12T13:55:35Z</time>
      </trkpt>
      <trkpt lat="48.46968" lon="-2.84374">
        <ele>121</ele>
        <time>2014-02-12T13:55:37Z</time>
      </trkpt>
      <trkpt lat="48.4697" lon="-2.84377">
        <ele>121</ele>
        <time>2014-02-12T13:55:39Z</time>
      </trkpt>
      <trkpt lat="48.46973" lon="-2.84379">
        <ele>121</ele>
        <time>2014-02-12T13:55:41Z</time>
      </trkpt>
      <trkpt lat="48.46977" lon="-2.84382">
        <ele>121</ele>
        <time>2014-02-12T13:55:43Z</time>
      </trkpt>
      <trkpt lat="48.46979" lon="-2.84384">
        <ele>121</ele>
        <time>2014-02-12T13:55:45Z</time>
      </trkpt>
      <trkpt lat="48.46981" lon="-2.84388">
        <ele>120</ele>
        <time>2014-02-12T13:55:47Z</time>
      </trkpt>
      <trkpt lat="48.46982" lon="-2.84393">
        <ele>120</ele>
        <time>2014-02-12T13:55:49Z</time>
      </trkpt>
      <trkpt lat="48.46984" lon="-2.84396">
        <ele>119</ele>
        <time>2014-02-12T13:55:51Z</time>
      </trkpt>
      <trkpt lat="48.46985" lon="-2.84399">
        <ele>119</ele>
        <time>2014-02-12T13:55:53Z</time>
      </trkpt>
      <trkpt lat="48.46986" lon="-2.84401">
        <ele>118</ele>
        <time>2014-02-12T13:55:55Z</time>
      </trkpt>
      <trkpt lat="48.46988" lon="-2.84405">
        <ele>118</ele>
        <time>2014-02-12T13:55:57Z</time>
      </trkpt>
      <trkpt lat="48.46989" lon="-2.8441">
        <ele>117</ele>
        <time>2014-02-12T13:55:59Z</time>
      </trkpt>
      <trkpt lat="48.4699" lon="-2.84415">
        <ele>116</ele>
        <time>2014-02-12T13:56:01Z</time>
      </trkpt>
      <trkpt lat="48.46991" lon="-2.84419">
        <ele>115</ele>
        <time>2014-02-12T13:56:03Z</time>
      </trkpt>
      <trkpt lat="48.46992" lon="-2.84424">
        <ele>114</ele>
        <time>2014-02-12T13:56:05Z</time>
      </trkpt>
      <trkpt lat="48.46991" lon="-2.84427">
        <ele>113</ele>
        <time>2014-02-12T13:56:07Z</time>
      </trkpt>
      <trkpt lat="48.46991" lon="-2.84431">
        <ele>112</ele>
        <time>2014-02-12T13:56:09Z</time>
      </trkpt>
      <trkpt lat="48.46991" lon="-2.84435">
        <ele>111</ele>
        <time>2014-02-12T13:56:11Z</time>
      </trkpt>
      <trkpt lat="48.46991" lon="-2.84439">
        <ele>110</ele>
        <time>2014-02-12T13:56:13Z</time>
      </trkpt>
      <trkpt lat="48.46991" lon="-2.84443">
        <ele>109</ele>
        <time>2014-02-12T13:56:15Z</time>
      </trkpt>
      <trkpt lat="48.46991" lon="-2.84447">
        <ele>109</ele>
        <time>2014-02-12T13:56:17Z</time>
      </trkpt>
      <trkpt lat="48.46991" lon="-2.84451">
        <ele>109</ele>
        <time>2014-02-12T13:56:19Z</time>
      </trkpt>
      <trkpt lat="48.46992" lon="-2.84455">
        <ele>109</ele>
        <time>2014-02-12T13:56:21Z</time>
      </trkpt>
      <trkpt lat="48.46994" lon="-2.84459">
        <ele>109</ele>
        <time>2014-02-12T13:56:23Z</time>
      </trkpt>
      <trkpt lat="48.46994" lon="-2.84463">
        <ele>109</ele>
        <time>2014-02-12T13:56:25Z</time>
      </trkpt>
      <trkpt lat="48.46996" lon="-2.84466">
        <ele>109</ele>
        <time>2014-02-12T13:56:27Z</time>
      </trkpt>
      <trkpt lat="48.46997" lon="-2.8447">
        <ele>109</ele>
        <time>2014-02-12T13:56:29Z</time>
      </trkpt>
      <trkpt lat="48.46999" lon="-2.84473">
        <ele>109</ele>
        <time>2014-02-12T13:56:31Z</time>
      </trkpt>
      <trkpt lat="48.47001" lon="-2.84478">
        <ele>108</ele>
        <time>2014-02-12T13:56:34Z</time>
      </trkpt>
      <trkpt lat="48.47002" lon="-2.84482">
        <ele>107</ele>
        <time>2014-02-12T13:56:36Z</time>
      </trkpt>
      <trkpt lat="48.47004" lon="-2.84486">
        <ele>106</ele>
        <time>2014-02-12T13:56:38Z</time>
      </trkpt>
      <trkpt lat="48.47006" lon="-2.8449">
        <ele>105</ele>
        <time>2014-02-12T13:56:40Z</time>
      </trkpt>
      <trkpt lat="48.47007" lon="-2.84495">
        <ele>105</ele>
        <time>2014-02-12T13:56:42Z</time>
      </trkpt>
      <trkpt lat="48.47009" lon="-2.84501">
        <ele>105</ele>
        <time>2014-02-12T13:56:44Z</time>
      </trkpt>
      <trkpt lat="48.4701" lon="-2.84504">
        <ele>105</ele>
        <time>2014-02-12T13:56:46Z</time>
      </trkpt>
      <trkpt lat="48.47012" lon="-2.84508">
        <ele>105</ele>
        <time>2014-02-12T13:56:48Z</time>
      </trkpt>
      <trkpt lat="48.47013" lon="-2.84511">
        <ele>104</ele>
        <time>2014-02-12T13:56:50Z</time>
      </trkpt>
      <trkpt lat="48.47015" lon="-2.84515">
        <ele>103</ele>
        <time>2014-02-12T13:56:52Z</time>
      </trkpt>
      <trkpt lat="48.47017" lon="-2.84519">
        <ele>102</ele>
        <time>2014-02-12T13:56:54Z</time>
      </trkpt>
      <trkpt lat="48.47018" lon="-2.84524">
        <ele>101</ele>
        <time>2014-02-12T13:56:56Z</time>
      </trkpt>
      <trkpt lat="48.4702" lon="-2.84527">
        <ele>99</ele>
        <time>2014-02-12T13:56:58Z</time>
      </trkpt>
      <trkpt lat="48.4702" lon="-2.84531">
        <ele>98</ele>
        <time>2014-02-12T13:57:00Z</time>
      </trkpt>
      <trkpt lat="48.47021" lon="-2.84536">
        <ele>98</ele>
        <time>2014-02-12T13:57:02Z</time>
      </trkpt>
      <trkpt lat="48.47022" lon="-2.8454">
        <ele>97</ele>
        <time>2014-02-12T13:57:04Z</time>
      </trkpt>
      <trkpt lat="48.47021" lon="-2.84543">
        <ele>97</ele>
        <time>2014-02-12T13:57:06Z</time>
      </trkpt>
      <trkpt lat="48.47022" lon="-2.84548">
        <ele>96</ele>
        <time>2014-02-12T13:57:08Z</time>
      </trkpt>
      <trkpt lat="48.47021" lon="-2.84552">
        <ele>96</ele>
        <time>2014-02-12T13:57:10Z</time>
      </trkpt>
      <trkpt lat="48.47019" lon="-2.84556">
        <ele>96</ele>
        <time>2014-02-12T13:57:12Z</time>
      </trkpt>
      <trkpt lat="48.47017" lon="-2.8456">
        <ele>96</ele>
        <time>2014-02-12T13:57:14Z</time>
      </trkpt>
      <trkpt lat="48.47015" lon="-2.84563">
        <ele>95</ele>
        <time>2014-02-12T13:57:17Z</time>
      </trkpt>
      <trkpt lat="48.47014" lon="-2.84566">
        <ele>95</ele>
        <time>2014-02-12T13:57:19Z</time>
      </trkpt>
      <trkpt lat="48.47012" lon="-2.84571">
        <ele>95</ele>
        <time>2014-02-12T13:57:22Z</time>
      </trkpt>
      <trkpt lat="48.4701" lon="-2.84576">
        <ele>95</ele>
        <time>2014-02-12T13:57:25Z</time>
      </trkpt>
      <trkpt lat="48.47009" lon="-2.8458">
        <ele>95</ele>
        <time>2014-02-12T13:57:27Z</time>
      </trkpt>
      <trkpt lat="48.47007" lon="-2.84584">
        <ele>95</ele>
        <time>2014-02-12T13:57:29Z</time>
      </trkpt>
      <trkpt lat="48.47005" lon="-2.84589">
        <ele>95</ele>
        <time>2014-02-12T13:57:31Z</time>
      </trkpt>
      <trkpt lat="48.47003" lon="-2.84593">
        <ele>95</ele>
        <time>2014-02-12T13:57:33Z</time>
      </trkpt>
      <trkpt lat="48.47001" lon="-2.84598">
        <ele>95</ele>
        <time>2014-02-12T13:57:35Z</time>
      </trkpt>
      <trkpt lat="48.46999" lon="-2.84602">
        <ele>95</ele>
        <time>2014-02-12T13:57:37Z</time>
      </trkpt>
      <trkpt lat="48.46997" lon="-2.84608">
        <ele>95</ele>
        <time>2014-02-12T13:57:39Z</time>
      </trkpt>
      <trkpt lat="48.46995" lon="-2.84613">
        <ele>95</ele>
        <time>2014-02-12T13:57:41Z</time>
      </trkpt>
      <trkpt lat="48.46993" lon="-2.84617">
        <ele>95</ele>
        <time>2014-02-12T13:57:43Z</time>
      </trkpt>
      <trkpt lat="48.46991" lon="-2.84622">
        <ele>95</ele>
        <time>2014-02-12T13:57:45Z</time>
      </trkpt>
      <trkpt lat="48.4699" lon="-2.84626">
        <ele>95</ele>
        <time>2014-02-12T13:57:47Z</time>
      </trkpt>
      <trkpt lat="48.46989" lon="-2.84631">
        <ele>95</ele>
        <time>2014-02-12T13:57:50Z</time>
      </trkpt>
      <trkpt lat="48.46987" lon="-2.84635">
        <ele>95</ele>
        <time>2014-02-12T13:57:52Z</time>
      </trkpt>
      <trkpt lat="48.46986" lon="-2.84639">
        <ele>95</ele>
        <time>2014-02-12T13:57:54Z</time>
      </trkpt>
      <trkpt lat="48.46984" lon="-2.84641">
        <ele>95</ele>
        <time>2014-02-12T13:57:56Z</time>
      </trkpt>
      <trkpt lat="48.46982" lon="-2.84645">
        <ele>94</ele>
        <time>2014-02-12T13:57:58Z</time>
      </trkpt>
      <trkpt lat="48.46981" lon="-2.84649">
        <ele>94</ele>
        <time>2014-02-12T13:58:00Z</time>
      </trkpt>
      <trkpt lat="48.46979" lon="-2.84652">
        <ele>94</ele>
        <time>2014-02-12T13:58:02Z</time>
      </trkpt>
      <trkpt lat="48.46977" lon="-2.84655">
        <ele>94</ele>
        <time>2014-02-12T13:58:04Z</time>
      </trkpt>
      <trkpt lat="48.46974" lon="-2.8466">
        <ele>94</ele>
        <time>2014-02-12T13:58:06Z</time>
      </trkpt>
      <trkpt lat="48.46972" lon="-2.84664">
        <ele>94</ele>
        <time>2014-02-12T13:58:08Z</time>
      </trkpt>
      <trkpt lat="48.4697" lon="-2.84668">
        <ele>94</ele>
        <time>2014-02-12T13:58:10Z</time>
      </trkpt>
      <trkpt lat="48.46969" lon="-2.8467">
        <ele>94</ele>
        <time>2014-02-12T13:58:12Z</time>
      </trkpt>
      <trkpt lat="48.46967" lon="-2.84675">
        <ele>94</ele>
        <time>2014-02-12T13:58:14Z</time>
      </trkpt>
      <trkpt lat="48.46965" lon="-2.84679">
        <ele>94</ele>
        <time>2014-02-12T13:58:16Z</time>
      </trkpt>
      <trkpt lat="48.46963" lon="-2.84682">
        <ele>94</ele>
        <time>2014-02-12T13:58:18Z</time>
      </trkpt>
      <trkpt lat="48.46961" lon="-2.84687">
        <ele>94</ele>
        <time>2014-02-12T13:58:20Z</time>
      </trkpt>
      <trkpt lat="48.4696" lon="-2.84693">
        <ele>94</ele>
        <time>2014-02-12T13:58:22Z</time>
      </trkpt>
      <trkpt lat="48.46957" lon="-2.84698">
        <ele>94</ele>
        <time>2014-02-12T13:58:24Z</time>
      </trkpt>
      <trkpt lat="48.46956" lon="-2.84701">
        <ele>94</ele>
        <time>2014-02-12T13:58:26Z</time>
      </trkpt>
      <trkpt lat="48.46955" lon="-2.84704">
        <ele>94</ele>
        <time>2014-02-12T13:58:28Z</time>
      </trkpt>
      <trkpt lat="48.46954" lon="-2.84707">
        <ele>94</ele>
        <time>2014-02-12T13:58:30Z</time>
      </trkpt>
      <trkpt lat="48.46952" lon="-2.84711">
        <ele>94</ele>
        <time>2014-02-12T13:58:33Z</time>
      </trkpt>
      <trkpt lat="48.46951" lon="-2.84715">
        <ele>94</ele>
        <time>2014-02-12T13:58:35Z</time>
      </trkpt>
      <trkpt lat="48.46949" lon="-2.84719">
        <ele>93</ele>
        <time>2014-02-12T13:58:37Z</time>
      </trkpt>
      <trkpt lat="48.46947" lon="-2.84722">
        <ele>93</ele>
        <time>2014-02-12T13:58:39Z</time>
      </trkpt>
      <trkpt lat="48.46944" lon="-2.84726">
        <ele>93</ele>
        <time>2014-02-12T13:58:41Z</time>
      </trkpt>
      <trkpt lat="48.46942" lon="-2.84731">
        <ele>93</ele>
        <time>2014-02-12T13:58:43Z</time>
      </trkpt>
      <trkpt lat="48.46941" lon="-2.84735">
        <ele>93</ele>
        <time>2014-02-12T13:58:45Z</time>
      </trkpt>
      <trkpt lat="48.46941" lon="-2.84739">
        <ele>93</ele>
        <time>2014-02-12T13:58:47Z</time>
      </trkpt>
      <trkpt lat="48.46939" lon="-2.84745">
        <ele>93</ele>
        <time>2014-02-12T13:58:50Z</time>
      </trkpt>
      <trkpt lat="48.46937" lon="-2.84749">
        <ele>93</ele>
        <time>2014-02-12T13:58:52Z</time>
      </trkpt>
      <trkpt lat="48.46936" lon="-2.84753">
        <ele>93</ele>
        <time>2014-02-12T13:58:54Z</time>
      </trkpt>
      <trkpt lat="48.46935" lon="-2.84757">
        <ele>93</ele>
        <time>2014-02-12T13:58:56Z</time>
      </trkpt>
      <trkpt lat="48.46933" lon="-2.84761">
        <ele>93</ele>
        <time>2014-02-12T13:58:58Z</time>
      </trkpt>
      <trkpt lat="48.46932" lon="-2.84765">
        <ele>92</ele>
        <time>2014-02-12T13:59:00Z</time>
      </trkpt>
      <trkpt lat="48.46931" lon="-2.84769">
        <ele>92</ele>
        <time>2014-02-12T13:59:02Z</time>
      </trkpt>
      <trkpt lat="48.46929" lon="-2.84773">
        <ele>91</ele>
        <time>2014-02-12T13:59:04Z</time>
      </trkpt>
      <trkpt lat="48.46926" lon="-2.84777">
        <ele>91</ele>
        <time>2014-02-12T13:59:07Z</time>
      </trkpt>
      <trkpt lat="48.46923" lon="-2.8478">
        <ele>91</ele>
        <time>2014-02-12T13:59:09Z</time>
      </trkpt>
      <trkpt lat="48.46921" lon="-2.84782">
        <ele>91</ele>
        <time>2014-02-12T13:59:11Z</time>
      </trkpt>
      <trkpt lat="48.46919" lon="-2.84783">
        <ele>91</ele>
        <time>2014-02-12T13:59:13Z</time>
      </trkpt>
      <trkpt lat="48.46917" lon="-2.84785">
        <ele>90</ele>
        <time>2014-02-12T13:59:15Z</time>
      </trkpt>
      <trkpt lat="48.46915" lon="-2.84786">
        <ele>89</ele>
        <time>2014-02-12T13:59:17Z</time>
      </trkpt>
      <trkpt lat="48.46912" lon="-2.84788">
        <ele>88</ele>
        <time>2014-02-12T13:59:19Z</time>
      </trkpt>
      <trkpt lat="48.4691" lon="-2.84789">
        <ele>87</ele>
        <time>2014-02-12T13:59:21Z</time>
      </trkpt>
      <trkpt lat="48.46907" lon="-2.8479">
        <ele>87</ele>
        <time>2014-02-12T13:59:23Z</time>
      </trkpt>
      <trkpt lat="48.46904" lon="-2.84792">
        <ele>87</ele>
        <time>2014-02-12T13:59:25Z</time>
      </trkpt>
      <trkpt lat="48.46902" lon="-2.84794">
        <ele>87</ele>
        <time>2014-02-12T13:59:27Z</time>
      </trkpt>
      <trkpt lat="48.46899" lon="-2.84795">
        <ele>87</ele>
        <time>2014-02-12T13:59:29Z</time>
      </trkpt>
      <trkpt lat="48.46896" lon="-2.84797">
        <ele>87</ele>
        <time>2014-02-12T13:59:31Z</time>
      </trkpt>
      <trkpt lat="48.46894" lon="-2.84798">
        <ele>87</ele>
        <time>2014-02-12T13:59:33Z</time>
      </trkpt>
      <trkpt lat="48.46891" lon="-2.848">
        <ele>87</ele>
        <time>2014-02-12T13:59:35Z</time>
      </trkpt>
      <trkpt lat="48.46888" lon="-2.84801">
        <ele>87</ele>
        <time>2014-02-12T13:59:37Z</time>
      </trkpt>
      <trkpt lat="48.46886" lon="-2.84803">
        <ele>87</ele>
        <time>2014-02-12T13:59:39Z</time>
      </trkpt>
      <trkpt lat="48.46883" lon="-2.84805">
        <ele>87</ele>
        <time>2014-02-12T13:59:41Z</time>
      </trkpt>
      <trkpt lat="48.46881" lon="-2.84807">
        <ele>86</ele>
        <time>2014-02-12T13:59:43Z</time>
      </trkpt>
      <trkpt lat="48.46878" lon="-2.8481">
        <ele>86</ele>
        <time>2014-02-12T13:59:45Z</time>
      </trkpt>
      <trkpt lat="48.46875" lon="-2.84813">
        <ele>86</ele>
        <time>2014-02-12T13:59:47Z</time>
      </trkpt>
      <trkpt lat="48.46872" lon="-2.84815">
        <ele>86</ele>
        <time>2014-02-12T13:59:49Z</time>
      </trkpt>
      <trkpt lat="48.46868" lon="-2.84817">
        <ele>86</ele>
        <time>2014-02-12T13:59:52Z</time>
      </trkpt>
      <trkpt lat="48.46865" lon="-2.84818">
        <ele>86</ele>
        <time>2014-02-12T13:59:54Z</time>
      </trkpt>
      <trkpt lat="48.46862" lon="-2.84819">
        <ele>86</ele>
        <time>2014-02-12T13:59:56Z</time>
      </trkpt>
      <trkpt lat="48.46858" lon="-2.84821">
        <ele>86</ele>
        <time>2014-02-12T13:59:58Z</time>
      </trkpt>
      <trkpt lat="48.46855" lon="-2.84822">
        <ele>86</ele>
        <time>2014-02-12T14:00:00Z</time>
      </trkpt>
      <trkpt lat="48.46852" lon="-2.84822">
        <ele>86</ele>
        <time>2014-02-12T14:00:02Z</time>
      </trkpt>
      <trkpt lat="48.46849" lon="-2.84821">
        <ele>86</ele>
        <time>2014-02-12T14:00:04Z</time>
      </trkpt>
      <trkpt lat="48.46846" lon="-2.84821">
        <ele>86</ele>
        <time>2014-02-12T14:00:06Z</time>
      </trkpt>
      <trkpt lat="48.46842" lon="-2.84823">
        <ele>87</ele>
        <time>2014-02-12T14:00:08Z</time>
      </trkpt>
      <trkpt lat="48.46838" lon="-2.84823">
        <ele>89</ele>
        <time>2014-02-12T14:00:10Z</time>
      </trkpt>
      <trkpt lat="48.46835" lon="-2.84822">
        <ele>90</ele>
        <time>2014-02-12T14:00:12Z</time>
      </trkpt>
      <trkpt lat="48.46831" lon="-2.84822">
        <ele>92</ele>
        <time>2014-02-12T14:00:14Z</time>
      </trkpt>
      <trkpt lat="48.46828" lon="-2.84823">
        <ele>93</ele>
        <time>2014-02-12T14:00:16Z</time>
      </trkpt>
      <trkpt lat="48.46825" lon="-2.84824">
        <ele>94</ele>
        <time>2014-02-12T14:00:18Z</time>
      </trkpt>
      <trkpt lat="48.46821" lon="-2.84825">
        <ele>95</ele>
        <time>2014-02-12T14:00:20Z</time>
      </trkpt>
      <trkpt lat="48.46818" lon="-2.84826">
        <ele>95</ele>
        <time>2014-02-12T14:00:22Z</time>
      </trkpt>
      <trkpt lat="48.46814" lon="-2.84824">
        <ele>96</ele>
        <time>2014-02-12T14:00:24Z</time>
      </trkpt>
      <trkpt lat="48.46811" lon="-2.84824">
        <ele>96</ele>
        <time>2014-02-12T14:00:26Z</time>
      </trkpt>
      <trkpt lat="48.46809" lon="-2.84824">
        <ele>97</ele>
        <time>2014-02-12T14:00:28Z</time>
      </trkpt>
      <trkpt lat="48.46806" lon="-2.84823">
        <ele>97</ele>
        <time>2014-02-12T14:00:30Z</time>
      </trkpt>
      <trkpt lat="48.46803" lon="-2.84823">
        <ele>97</ele>
        <time>2014-02-12T14:00:32Z</time>
      </trkpt>
      <trkpt lat="48.468" lon="-2.84823">
        <ele>97</ele>
        <time>2014-02-12T14:00:34Z</time>
      </trkpt>
      <trkpt lat="48.46796" lon="-2.84821">
        <ele>97</ele>
        <time>2014-02-12T14:00:36Z</time>
      </trkpt>
      <trkpt lat="48.46793" lon="-2.8482">
        <ele>97</ele>
        <time>2014-02-12T14:00:38Z</time>
      </trkpt>
      <trkpt lat="48.4679" lon="-2.84819">
        <ele>97</ele>
        <time>2014-02-12T14:00:40Z</time>
      </trkpt>
      <trkpt lat="48.46786" lon="-2.84819">
        <ele>98</ele>
        <time>2014-02-12T14:00:42Z</time>
      </trkpt>
      <trkpt lat="48.46783" lon="-2.84819">
        <ele>99</ele>
        <time>2014-02-12T14:00:44Z</time>
      </trkpt>
      <trkpt lat="48.4678" lon="-2.84817">
        <ele>100</ele>
        <time>2014-02-12T14:00:46Z</time>
      </trkpt>
      <trkpt lat="48.46777" lon="-2.84816">
        <ele>100</ele>
        <time>2014-02-12T14:00:48Z</time>
      </trkpt>
      <trkpt lat="48.46773" lon="-2.84816">
        <ele>100</ele>
        <time>2014-02-12T14:00:50Z</time>
      </trkpt>
      <trkpt lat="48.46769" lon="-2.84815">
        <ele>100</ele>
        <time>2014-02-12T14:00:52Z</time>
      </trkpt>
      <trkpt lat="48.46767" lon="-2.84815">
        <ele>100</ele>
        <time>2014-02-12T14:00:54Z</time>
      </trkpt>
      <trkpt lat="48.46764" lon="-2.84813">
        <ele>100</ele>
        <time>2014-02-12T14:00:56Z</time>
      </trkpt>
      <trkpt lat="48.46761" lon="-2.84813">
        <ele>100</ele>
        <time>2014-02-12T14:00:58Z</time>
      </trkpt>
      <trkpt lat="48.46759" lon="-2.84814">
        <ele>100</ele>
        <time>2014-02-12T14:01:00Z</time>
      </trkpt>
      <trkpt lat="48.46756" lon="-2.84816">
        <ele>100</ele>
        <time>2014-02-12T14:01:02Z</time>
      </trkpt>
      <trkpt lat="48.46753" lon="-2.84817">
        <ele>100</ele>
        <time>2014-02-12T14:01:04Z</time>
      </trkpt>
      <trkpt lat="48.46751" lon="-2.84819">
        <ele>100</ele>
        <time>2014-02-12T14:01:07Z</time>
      </trkpt>
      <trkpt lat="48.4675" lon="-2.84821">
        <ele>100</ele>
        <time>2014-02-12T14:01:11Z</time>
      </trkpt>
      <trkpt lat="48.46749" lon="-2.84824">
        <ele>100</ele>
        <time>2014-02-12T14:01:13Z</time>
      </trkpt>
      <trkpt lat="48.4675" lon="-2.84827">
        <ele>100</ele>
        <time>2014-02-12T14:01:15Z</time>
      </trkpt>
      <trkpt lat="48.46751" lon="-2.8483">
        <ele>100</ele>
        <time>2014-02-12T14:01:17Z</time>
      </trkpt>
      <trkpt lat="48.46751" lon="-2.84834">
        <ele>100</ele>
        <time>2014-02-12T14:01:19Z</time>
      </trkpt>
      <trkpt lat="48.46751" lon="-2.84838">
        <ele>100</ele>
        <time>2014-02-12T14:01:21Z</time>
      </trkpt>
      <trkpt lat="48.46752" lon="-2.84841">
        <ele>100</ele>
        <time>2014-02-12T14:01:23Z</time>
      </trkpt>
      <trkpt lat="48.46753" lon="-2.84843">
        <ele>101</ele>
        <time>2014-02-12T14:01:25Z</time>
      </trkpt>
      <trkpt lat="48.46753" lon="-2.84845">
        <ele>103</ele>
        <time>2014-02-12T14:01:27Z</time>
      </trkpt>
      <trkpt lat="48.46754" lon="-2.84845">
        <ele>106</ele>
        <time>2014-02-12T14:01:30Z</time>
      </trkpt>
      <trkpt lat="48.46756" lon="-2.84845">
        <ele>114</ele>
        <time>2014-02-12T14:01:36Z</time>
      </trkpt>
      <trkpt lat="48.46759" lon="-2.84847">
        <ele>116</ele>
        <time>2014-02-12T14:01:38Z</time>
      </trkpt>
      <trkpt lat="48.46761" lon="-2.84849">
        <ele>118</ele>
        <time>2014-02-12T14:01:40Z</time>
      </trkpt>
      <trkpt lat="48.46764" lon="-2.84852">
        <ele>120</ele>
        <time>2014-02-12T14:01:42Z</time>
      </trkpt>
      <trkpt lat="48.46767" lon="-2.84854">
        <ele>122</ele>
        <time>2014-02-12T14:01:44Z</time>
      </trkpt>
      <trkpt lat="48.46771" lon="-2.84855">
        <ele>124</ele>
        <time>2014-02-12T14:01:46Z</time>
      </trkpt>
      <trkpt lat="48.46775" lon="-2.84856">
        <ele>125</ele>
        <time>2014-02-12T14:01:49Z</time>
      </trkpt>
      <trkpt lat="48.46777" lon="-2.84858">
        <ele>125</ele>
        <time>2014-02-12T14:01:51Z</time>
      </trkpt>
      <trkpt lat="48.4678" lon="-2.84859">
        <ele>125</ele>
        <time>2014-02-12T14:01:53Z</time>
      </trkpt>
      <trkpt lat="48.46783" lon="-2.84861">
        <ele>125</ele>
        <time>2014-02-12T14:01:55Z</time>
      </trkpt>
      <trkpt lat="48.46786" lon="-2.84864">
        <ele>125</ele>
        <time>2014-02-12T14:01:58Z</time>
      </trkpt>
      <trkpt lat="48.46788" lon="-2.84866">
        <ele>124</ele>
        <time>2014-02-12T14:02:00Z</time>
      </trkpt>
      <trkpt lat="48.46791" lon="-2.84867">
        <ele>124</ele>
        <time>2014-02-12T14:02:02Z</time>
      </trkpt>
      <trkpt lat="48.46793" lon="-2.8487">
        <ele>123</ele>
        <time>2014-02-12T14:02:04Z</time>
      </trkpt>
      <trkpt lat="48.46795" lon="-2.84872">
        <ele>123</ele>
        <time>2014-02-12T14:02:06Z</time>
      </trkpt>
      <trkpt lat="48.46798" lon="-2.84874">
        <ele>122</ele>
        <time>2014-02-12T14:02:08Z</time>
      </trkpt>
      <trkpt lat="48.46801" lon="-2.84876">
        <ele>121</ele>
        <time>2014-02-12T14:02:10Z</time>
      </trkpt>
      <trkpt lat="48.46802" lon="-2.84877">
        <ele>119</ele>
        <time>2014-02-12T14:02:12Z</time>
      </trkpt>
      <trkpt lat="48.46804" lon="-2.84878">
        <ele>117</ele>
        <time>2014-02-12T14:02:14Z</time>
      </trkpt>
      <trkpt lat="48.46806" lon="-2.84879">
        <ele>114</ele>
        <time>2014-02-12T14:02:16Z</time>
      </trkpt>
      <trkpt lat="48.46808" lon="-2.8488">
        <ele>110</ele>
        <time>2014-02-12T14:02:20Z</time>
      </trkpt>
      <trkpt lat="48.46809" lon="-2.84881">
        <ele>108</ele>
        <time>2014-02-12T14:02:22Z</time>
      </trkpt>
      <trkpt lat="48.46812" lon="-2.84882">
        <ele>106</ele>
        <time>2014-02-12T14:02:24Z</time>
      </trkpt>
      <trkpt lat="48.46814" lon="-2.84883">
        <ele>105</ele>
        <time>2014-02-12T14:02:26Z</time>
      </trkpt>
      <trkpt lat="48.46815" lon="-2.84885">
        <ele>105</ele>
        <time>2014-02-12T14:02:28Z</time>
      </trkpt>
      <trkpt lat="48.46818" lon="-2.84886">
        <ele>105</ele>
        <time>2014-02-12T14:02:30Z</time>
      </trkpt>
      <trkpt lat="48.4682" lon="-2.84888">
        <ele>105</ele>
        <time>2014-02-12T14:02:32Z</time>
      </trkpt>
      <trkpt lat="48.46823" lon="-2.84891">
        <ele>105</ele>
        <time>2014-02-12T14:02:34Z</time>
      </trkpt>
      <trkpt lat="48.46826" lon="-2.84893">
        <ele>105</ele>
        <time>2014-02-12T14:02:36Z</time>
      </trkpt>
      <trkpt lat="48.46829" lon="-2.84896">
        <ele>105</ele>
        <time>2014-02-12T14:02:39Z</time>
      </trkpt>
      <trkpt lat="48.46831" lon="-2.84897">
        <ele>104</ele>
        <time>2014-02-12T14:02:41Z</time>
      </trkpt>
      <trkpt lat="48.46833" lon="-2.84898">
        <ele>104</ele>
        <time>2014-02-12T14:02:43Z</time>
      </trkpt>
      <trkpt lat="48.46835" lon="-2.84898">
        <ele>104</ele>
        <time>2014-02-12T14:02:45Z</time>
      </trkpt>
      <trkpt lat="48.46838" lon="-2.849">
        <ele>104</ele>
        <time>2014-02-12T14:02:47Z</time>
      </trkpt>
      <trkpt lat="48.46841" lon="-2.84902">
        <ele>104</ele>
        <time>2014-02-12T14:02:50Z</time>
      </trkpt>
      <trkpt lat="48.46844" lon="-2.84904">
        <ele>104</ele>
        <time>2014-02-12T14:02:53Z</time>
      </trkpt>
      <trkpt lat="48.46846" lon="-2.84905">
        <ele>104</ele>
        <time>2014-02-12T14:02:55Z</time>
      </trkpt>
      <trkpt lat="48.46848" lon="-2.84908">
        <ele>104</ele>
        <time>2014-02-12T14:02:57Z</time>
      </trkpt>
      <trkpt lat="48.4685" lon="-2.84909">
        <ele>104</ele>
        <time>2014-02-12T14:02:59Z</time>
      </trkpt>
      <trkpt lat="48.46851" lon="-2.84912">
        <ele>104</ele>
        <time>2014-02-12T14:03:01Z</time>
      </trkpt>
      <trkpt lat="48.46854" lon="-2.84913">
        <ele>104</ele>
        <time>2014-02-12T14:03:03Z</time>
      </trkpt>
      <trkpt lat="48.46857" lon="-2.84915">
        <ele>104</ele>
        <time>2014-02-12T14:03:05Z</time>
      </trkpt>
      <trkpt lat="48.4686" lon="-2.84917">
        <ele>104</ele>
        <time>2014-02-12T14:03:07Z</time>
      </trkpt>
      <trkpt lat="48.46862" lon="-2.84918">
        <ele>104</ele>
        <time>2014-02-12T14:03:09Z</time>
      </trkpt>
      <trkpt lat="48.46864" lon="-2.8492">
        <ele>104</ele>
        <time>2014-02-12T14:03:11Z</time>
      </trkpt>
      <trkpt lat="48.46867" lon="-2.84921">
        <ele>104</ele>
        <time>2014-02-12T14:03:13Z</time>
      </trkpt>
      <trkpt lat="48.4687" lon="-2.84923">
        <ele>103</ele>
        <time>2014-02-12T14:03:16Z</time>
      </trkpt>
      <trkpt lat="48.46873" lon="-2.84923">
        <ele>103</ele>
        <time>2014-02-12T14:03:18Z</time>
      </trkpt>
      <trkpt lat="48.46876" lon="-2.84925">
        <ele>103</ele>
        <time>2014-02-12T14:03:20Z</time>
      </trkpt>
      <trkpt lat="48.46879" lon="-2.84928">
        <ele>103</ele>
        <time>2014-02-12T14:03:22Z</time>
      </trkpt>
      <trkpt lat="48.46881" lon="-2.84928">
        <ele>103</ele>
        <time>2014-02-12T14:03:24Z</time>
      </trkpt>
      <trkpt lat="48.46884" lon="-2.84931">
        <ele>103</ele>
        <time>2014-02-12T14:03:26Z</time>
      </trkpt>
      <trkpt lat="48.46888" lon="-2.84932">
        <ele>103</ele>
        <time>2014-02-12T14:03:28Z</time>
      </trkpt>
      <trkpt lat="48.46891" lon="-2.84934">
        <ele>103</ele>
        <time>2014-02-12T14:03:30Z</time>
      </trkpt>
      <trkpt lat="48.46893" lon="-2.84936">
        <ele>103</ele>
        <time>2014-02-12T14:03:32Z</time>
      </trkpt>
      <trkpt lat="48.46895" lon="-2.84937">
        <ele>103</ele>
        <time>2014-02-12T14:03:34Z</time>
      </trkpt>
      <trkpt lat="48.46898" lon="-2.84937">
        <ele>103</ele>
        <time>2014-02-12T14:03:36Z</time>
      </trkpt>
      <trkpt lat="48.46901" lon="-2.8494">
        <ele>103</ele>
        <time>2014-02-12T14:03:39Z</time>
      </trkpt>
      <trkpt lat="48.46905" lon="-2.84942">
        <ele>103</ele>
        <time>2014-02-12T14:03:41Z</time>
      </trkpt>
      <trkpt lat="48.46907" lon="-2.84943">
        <ele>103</ele>
        <time>2014-02-12T14:03:43Z</time>
      </trkpt>
      <trkpt lat="48.46909" lon="-2.84944">
        <ele>103</ele>
        <time>2014-02-12T14:03:45Z</time>
      </trkpt>
      <trkpt lat="48.46911" lon="-2.84946">
        <ele>103</ele>
        <time>2014-02-12T14:03:47Z</time>
      </trkpt>
      <trkpt lat="48.46914" lon="-2.84948">
        <ele>103</ele>
        <time>2014-02-12T14:03:49Z</time>
      </trkpt>
      <trkpt lat="48.46918" lon="-2.84951">
        <ele>103</ele>
        <time>2014-02-12T14:03:52Z</time>
      </trkpt>
      <trkpt lat="48.4692" lon="-2.84953">
        <ele>104</ele>
        <time>2014-02-12T14:03:54Z</time>
      </trkpt>
      <trkpt lat="48.46923" lon="-2.84957">
        <ele>105</ele>
        <time>2014-02-12T14:03:57Z</time>
      </trkpt>
      <trkpt lat="48.46925" lon="-2.84959">
        <ele>105</ele>
        <time>2014-02-12T14:03:59Z</time>
      </trkpt>
      <trkpt lat="48.46927" lon="-2.84962">
        <ele>105</ele>
        <time>2014-02-12T14:04:01Z</time>
      </trkpt>
      <trkpt lat="48.46929" lon="-2.84965">
        <ele>105</ele>
        <time>2014-02-12T14:04:03Z</time>
      </trkpt>
      <trkpt lat="48.46931" lon="-2.84967">
        <ele>105</ele>
        <time>2014-02-12T14:04:05Z</time>
      </trkpt>
      <trkpt lat="48.46934" lon="-2.84972">
        <ele>105</ele>
        <time>2014-02-12T14:04:08Z</time>
      </trkpt>
      <trkpt lat="48.46936" lon="-2.84976">
        <ele>106</ele>
        <time>2014-02-12T14:04:10Z</time>
      </trkpt>
      <trkpt lat="48.46938" lon="-2.84979">
        <ele>107</ele>
        <time>2014-02-12T14:04:12Z</time>
      </trkpt>
      <trkpt lat="48.46939" lon="-2.84983">
        <ele>107</ele>
        <time>2014-02-12T14:04:14Z</time>
      </trkpt>
      <trkpt lat="48.46941" lon="-2.84986">
        <ele>107</ele>
        <time>2014-02-12T14:04:16Z</time>
      </trkpt>
      <trkpt lat="48.46943" lon="-2.84991">
        <ele>107</ele>
        <time>2014-02-12T14:04:19Z</time>
      </trkpt>
      <trkpt lat="48.46945" lon="-2.84995">
        <ele>108</ele>
        <time>2014-02-12T14:04:21Z</time>
      </trkpt>
      <trkpt lat="48.46947" lon="-2.85">
        <ele>108</ele>
        <time>2014-02-12T14:04:24Z</time>
      </trkpt>
      <trkpt lat="48.46948" lon="-2.85002">
        <ele>108</ele>
        <time>2014-02-12T14:04:26Z</time>
      </trkpt>
      <trkpt lat="48.46949" lon="-2.85005">
        <ele>108</ele>
        <time>2014-02-12T14:04:28Z</time>
      </trkpt>
      <trkpt lat="48.46951" lon="-2.85008">
        <ele>108</ele>
        <time>2014-02-12T14:04:30Z</time>
      </trkpt>
      <trkpt lat="48.46953" lon="-2.85011">
        <ele>108</ele>
        <time>2014-02-12T14:04:32Z</time>
      </trkpt>
      <trkpt lat="48.46955" lon="-2.85015">
        <ele>108</ele>
        <time>2014-02-12T14:04:35Z</time>
      </trkpt>
      <trkpt lat="48.46957" lon="-2.85017">
        <ele>108</ele>
        <time>2014-02-12T14:04:37Z</time>
      </trkpt>
      <trkpt lat="48.46959" lon="-2.8502">
        <ele>108</ele>
        <time>2014-02-12T14:04:39Z</time>
      </trkpt>
      <trkpt lat="48.4696" lon="-2.85021">
        <ele>108</ele>
        <time>2014-02-12T14:04:41Z</time>
      </trkpt>
      <trkpt lat="48.46962" lon="-2.85023">
        <ele>108</ele>
        <time>2014-02-12T14:04:43Z</time>
      </trkpt>
      <trkpt lat="48.46965" lon="-2.85025">
        <ele>108</ele>
        <time>2014-02-12T14:04:45Z</time>
      </trkpt>
      <trkpt lat="48.46968" lon="-2.85027">
        <ele>108</ele>
        <time>2014-02-12T14:04:47Z</time>
      </trkpt>
      <trkpt lat="48.46971" lon="-2.85028">
        <ele>108</ele>
        <time>2014-02-12T14:04:49Z</time>
      </trkpt>
      <trkpt lat="48.46974" lon="-2.85029">
        <ele>108</ele>
        <time>2014-02-12T14:04:52Z</time>
      </trkpt>
      <trkpt lat="48.46976" lon="-2.8503">
        <ele>108</ele>
        <time>2014-02-12T14:04:54Z</time>
      </trkpt>
      <trkpt lat="48.46979" lon="-2.85031">
        <ele>108</ele>
        <time>2014-02-12T14:04:56Z</time>
      </trkpt>
      <trkpt lat="48.46983" lon="-2.85032">
        <ele>108</ele>
        <time>2014-02-12T14:04:58Z</time>
      </trkpt>
      <trkpt lat="48.46986" lon="-2.85034">
        <ele>108</ele>
        <time>2014-02-12T14:05:00Z</time>
      </trkpt>
      <trkpt lat="48.46988" lon="-2.85034">
        <ele>108</ele>
        <time>2014-02-12T14:05:02Z</time>
      </trkpt>
      <trkpt lat="48.46991" lon="-2.85034">
        <ele>108</ele>
        <time>2014-02-12T14:05:04Z</time>
      </trkpt>
      <trkpt lat="48.46994" lon="-2.85032">
        <ele>109</ele>
        <time>2014-02-12T14:05:06Z</time>
      </trkpt>
      <trkpt lat="48.46995" lon="-2.85028">
        <ele>111</ele>
        <time>2014-02-12T14:05:08Z</time>
      </trkpt>
      <trkpt lat="48.46997" lon="-2.85024">
        <ele>112</ele>
        <time>2014-02-12T14:05:10Z</time>
      </trkpt>
      <trkpt lat="48.46998" lon="-2.85022">
        <ele>113</ele>
        <time>2014-02-12T14:05:12Z</time>
      </trkpt>
      <trkpt lat="48.46999" lon="-2.8502">
        <ele>114</ele>
        <time>2014-02-12T14:05:14Z</time>
      </trkpt>
      <trkpt lat="48.46999" lon="-2.85017">
        <ele>115</ele>
        <time>2014-02-12T14:05:16Z</time>
      </trkpt>
      <trkpt lat="48.46999" lon="-2.85013">
        <ele>115</ele>
        <time>2014-02-12T14:05:18Z</time>
      </trkpt>
      <trkpt lat="48.47" lon="-2.85009">
        <ele>115</ele>
        <time>2014-02-12T14:05:20Z</time>
      </trkpt>
      <trkpt lat="48.47001" lon="-2.85004">
        <ele>115</ele>
        <time>2014-02-12T14:05:22Z</time>
      </trkpt>
      <trkpt lat="48.47002" lon="-2.85">
        <ele>115</ele>
        <time>2014-02-12T14:05:24Z</time>
      </trkpt>
      <trkpt lat="48.47004" lon="-2.84996">
        <ele>115</ele>
        <time>2014-02-12T14:05:26Z</time>
      </trkpt>
      <trkpt lat="48.47005" lon="-2.84991">
        <ele>115</ele>
        <time>2014-02-12T14:05:28Z</time>
      </trkpt>
      <trkpt lat="48.47006" lon="-2.84987">
        <ele>115</ele>
        <time>2014-02-12T14:05:30Z</time>
      </trkpt>
      <trkpt lat="48.47007" lon="-2.84983">
        <ele>115</ele>
        <time>2014-02-12T14:05:32Z</time>
      </trkpt>
      <trkpt lat="48.47007" lon="-2.84977">
        <ele>115</ele>
        <time>2014-02-12T14:05:34Z</time>
      </trkpt>
      <trkpt lat="48.47007" lon="-2.84973">
        <ele>115</ele>
        <time>2014-02-12T14:05:36Z</time>
      </trkpt>
      <trkpt lat="48.47008" lon="-2.84969">
        <ele>115</ele>
        <time>2014-02-12T14:05:38Z</time>
      </trkpt>
      <trkpt lat="48.47008" lon="-2.84965">
        <ele>115</ele>
        <time>2014-02-12T14:05:40Z</time>
      </trkpt>
      <trkpt lat="48.47009" lon="-2.8496">
        <ele>115</ele>
        <time>2014-02-12T14:05:42Z</time>
      </trkpt>
      <trkpt lat="48.4701" lon="-2.84955">
        <ele>115</ele>
        <time>2014-02-12T14:05:44Z</time>
      </trkpt>
      <trkpt lat="48.47011" lon="-2.84951">
        <ele>115</ele>
        <time>2014-02-12T14:05:46Z</time>
      </trkpt>
      <trkpt lat="48.47012" lon="-2.84947">
        <ele>115</ele>
        <time>2014-02-12T14:05:48Z</time>
      </trkpt>
      <trkpt lat="48.47014" lon="-2.84943">
        <ele>115</ele>
        <time>2014-02-12T14:05:50Z</time>
      </trkpt>
      <trkpt lat="48.47015" lon="-2.84939">
        <ele>115</ele>
        <time>2014-02-12T14:05:52Z</time>
      </trkpt>
      <trkpt lat="48.47017" lon="-2.84934">
        <ele>114</ele>
        <time>2014-02-12T14:05:55Z</time>
      </trkpt>
      <trkpt lat="48.47019" lon="-2.84931">
        <ele>114</ele>
        <time>2014-02-12T14:05:57Z</time>
      </trkpt>
      <trkpt lat="48.47022" lon="-2.84927">
        <ele>112</ele>
        <time>2014-02-12T14:06:00Z</time>
      </trkpt>
      <trkpt lat="48.47024" lon="-2.84925">
        <ele>111</ele>
        <time>2014-02-12T14:06:02Z</time>
      </trkpt>
      <trkpt lat="48.47026" lon="-2.84922">
        <ele>111</ele>
        <time>2014-02-12T14:06:04Z</time>
      </trkpt>
      <trkpt lat="48.47029" lon="-2.84917">
        <ele>109</ele>
        <time>2014-02-12T14:06:07Z</time>
      </trkpt>
      <trkpt lat="48.47031" lon="-2.84914">
        <ele>108</ele>
        <time>2014-02-12T14:06:09Z</time>
      </trkpt>
      <trkpt lat="48.47034" lon="-2.84912">
        <ele>107</ele>
        <time>2014-02-12T14:06:11Z</time>
      </trkpt>
      <trkpt lat="48.47036" lon="-2.8491">
        <ele>107</ele>
        <time>2014-02-12T14:06:13Z</time>
      </trkpt>
      <trkpt lat="48.47038" lon="-2.84907">
        <ele>107</ele>
        <time>2014-02-12T14:06:15Z</time>
      </trkpt>
      <trkpt lat="48.47041" lon="-2.84905">
        <ele>107</ele>
        <time>2014-02-12T14:06:17Z</time>
      </trkpt>
      <trkpt lat="48.47044" lon="-2.84902">
        <ele>106</ele>
        <time>2014-02-12T14:06:19Z</time>
      </trkpt>
      <trkpt lat="48.47047" lon="-2.84899">
        <ele>105</ele>
        <time>2014-02-12T14:06:22Z</time>
      </trkpt>
      <trkpt lat="48.4705" lon="-2.84896">
        <ele>105</ele>
        <time>2014-02-12T14:06:24Z</time>
      </trkpt>
      <trkpt lat="48.47052" lon="-2.84894">
        <ele>104</ele>
        <time>2014-02-12T14:06:26Z</time>
      </trkpt>
      <trkpt lat="48.47055" lon="-2.84892">
        <ele>104</ele>
        <time>2014-02-12T14:06:28Z</time>
      </trkpt>
      <trkpt lat="48.47057" lon="-2.8489">
        <ele>103</ele>
        <time>2014-02-12T14:06:30Z</time>
      </trkpt>
      <trkpt lat="48.4706" lon="-2.84888">
        <ele>103</ele>
        <time>2014-02-12T14:06:32Z</time>
      </trkpt>
      <trkpt lat="48.47063" lon="-2.84887">
        <ele>103</ele>
        <time>2014-02-12T14:06:34Z</time>
      </trkpt>
      <trkpt lat="48.47065" lon="-2.84882">
        <ele>103</ele>
        <time>2014-02-12T14:06:36Z</time>
      </trkpt>
      <trkpt lat="48.47068" lon="-2.84876">
        <ele>103</ele>
        <time>2014-02-12T14:06:38Z</time>
      </trkpt>
      <trkpt lat="48.47071" lon="-2.84876">
        <ele>103</ele>
        <time>2014-02-12T14:06:40Z</time>
      </trkpt>
      <trkpt lat="48.47074" lon="-2.84873">
        <ele>103</ele>
        <time>2014-02-12T14:06:42Z</time>
      </trkpt>
      <trkpt lat="48.47076" lon="-2.84871">
        <ele>103</ele>
        <time>2014-02-12T14:06:44Z</time>
      </trkpt>
      <trkpt lat="48.47078" lon="-2.84868">
        <ele>103</ele>
        <time>2014-02-12T14:06:46Z</time>
      </trkpt>
      <trkpt lat="48.47081" lon="-2.84865">
        <ele>103</ele>
        <time>2014-02-12T14:06:48Z</time>
      </trkpt>
      <trkpt lat="48.47083" lon="-2.84862">
        <ele>103</ele>
        <time>2014-02-12T14:06:50Z</time>
      </trkpt>
      <trkpt lat="48.47086" lon="-2.84858">
        <ele>103</ele>
        <time>2014-02-12T14:06:53Z</time>
      </trkpt>
      <trkpt lat="48.47088" lon="-2.84854">
        <ele>102</ele>
        <time>2014-02-12T14:06:55Z</time>
      </trkpt>
      <trkpt lat="48.47092" lon="-2.8485">
        <ele>102</ele>
        <time>2014-02-12T14:06:58Z</time>
      </trkpt>
      <trkpt lat="48.47095" lon="-2.84845">
        <ele>101</ele>
        <time>2014-02-12T14:07:01Z</time>
      </trkpt>
      <trkpt lat="48.47097" lon="-2.8484">
        <ele>99</ele>
        <time>2014-02-12T14:07:04Z</time>
      </trkpt>
      <trkpt lat="48.47098" lon="-2.84837">
        <ele>99</ele>
        <time>2014-02-12T14:07:06Z</time>
      </trkpt>
      <trkpt lat="48.471" lon="-2.84834">
        <ele>99</ele>
        <time>2014-02-12T14:07:08Z</time>
      </trkpt>
      <trkpt lat="48.47102" lon="-2.8483">
        <ele>99</ele>
        <time>2014-02-12T14:07:10Z</time>
      </trkpt>
      <trkpt lat="48.47103" lon="-2.84828">
        <ele>99</ele>
        <time>2014-02-12T14:07:12Z</time>
      </trkpt>
      <trkpt lat="48.47104" lon="-2.84824">
        <ele>99</ele>
        <time>2014-02-12T14:07:14Z</time>
      </trkpt>
      <trkpt lat="48.47106" lon="-2.84823">
        <ele>98</ele>
        <time>2014-02-12T14:07:16Z</time>
      </trkpt>
      <trkpt lat="48.47107" lon="-2.84821">
        <ele>98</ele>
        <time>2014-02-12T14:07:18Z</time>
      </trkpt>
      <trkpt lat="48.47111" lon="-2.84819">
        <ele>97</ele>
        <time>2014-02-12T14:07:21Z</time>
      </trkpt>
      <trkpt lat="48.47112" lon="-2.84816">
        <ele>97</ele>
        <time>2014-02-12T14:07:23Z</time>
      </trkpt>
      <trkpt lat="48.47115" lon="-2.84816">
        <ele>97</ele>
        <time>2014-02-12T14:07:25Z</time>
      </trkpt>
      <trkpt lat="48.47117" lon="-2.84815">
        <ele>97</ele>
        <time>2014-02-12T14:07:27Z</time>
      </trkpt>
      <trkpt lat="48.4712" lon="-2.84816">
        <ele>97</ele>
        <time>2014-02-12T14:07:30Z</time>
      </trkpt>
      <trkpt lat="48.47122" lon="-2.84818">
        <ele>97</ele>
        <time>2014-02-12T14:07:32Z</time>
      </trkpt>
      <trkpt lat="48.47124" lon="-2.84819">
        <ele>97</ele>
        <time>2014-02-12T14:07:34Z</time>
      </trkpt>
      <trkpt lat="48.47127" lon="-2.84821">
        <ele>97</ele>
        <time>2014-02-12T14:07:36Z</time>
      </trkpt>
      <trkpt lat="48.4713" lon="-2.84822">
        <ele>97</ele>
        <time>2014-02-12T14:07:38Z</time>
      </trkpt>
      <trkpt lat="48.47132" lon="-2.84823">
        <ele>97</ele>
        <time>2014-02-12T14:07:40Z</time>
      </trkpt>
      <trkpt lat="48.47136" lon="-2.84824">
        <ele>97</ele>
        <time>2014-02-12T14:07:42Z</time>
      </trkpt>
      <trkpt lat="48.4714" lon="-2.84824">
        <ele>97</ele>
        <time>2014-02-12T14:07:45Z</time>
      </trkpt>
      <trkpt lat="48.47142" lon="-2.84823">
        <ele>97</ele>
        <time>2014-02-12T14:07:47Z</time>
      </trkpt>
      <trkpt lat="48.47145" lon="-2.84822">
        <ele>97</ele>
        <time>2014-02-12T14:07:50Z</time>
      </trkpt>
      <trkpt lat="48.47149" lon="-2.84821">
        <ele>97</ele>
        <time>2014-02-12T14:07:53Z</time>
      </trkpt>
      <trkpt lat="48.47151" lon="-2.8482">
        <ele>97</ele>
        <time>2014-02-12T14:07:55Z</time>
      </trkpt>
      <trkpt lat="48.47156" lon="-2.84818">
        <ele>97</ele>
        <time>2014-02-12T14:07:59Z</time>
      </trkpt>
      <trkpt lat="48.47158" lon="-2.84817">
        <ele>96</ele>
        <time>2014-02-12T14:08:01Z</time>
      </trkpt>
      <trkpt lat="48.47161" lon="-2.84815">
        <ele>95</ele>
        <time>2014-02-12T14:08:03Z</time>
      </trkpt>
      <trkpt lat="48.47164" lon="-2.8481">
        <ele>93</ele>
        <time>2014-02-12T14:08:06Z</time>
      </trkpt>
      <trkpt lat="48.47168" lon="-2.84806">
        <ele>91</ele>
        <time>2014-02-12T14:08:09Z</time>
      </trkpt>
      <trkpt lat="48.4717" lon="-2.84802">
        <ele>91</ele>
        <time>2014-02-12T14:08:11Z</time>
      </trkpt>
      <trkpt lat="48.47174" lon="-2.84796">
        <ele>91</ele>
        <time>2014-02-12T14:08:14Z</time>
      </trkpt>
      <trkpt lat="48.47176" lon="-2.84791">
        <ele>91</ele>
        <time>2014-02-12T14:08:16Z</time>
      </trkpt>
      <trkpt lat="48.47177" lon="-2.84786">
        <ele>91</ele>
        <time>2014-02-12T14:08:18Z</time>
      </trkpt>
      <trkpt lat="48.47179" lon="-2.84779">
        <ele>91</ele>
        <time>2014-02-12T14:08:21Z</time>
      </trkpt>
      <trkpt lat="48.4718" lon="-2.84774">
        <ele>91</ele>
        <time>2014-02-12T14:08:24Z</time>
      </trkpt>
      <trkpt lat="48.47179" lon="-2.8477">
        <ele>91</ele>
        <time>2014-02-12T14:08:26Z</time>
      </trkpt>
      <trkpt lat="48.47179" lon="-2.84766">
        <ele>91</ele>
        <time>2014-02-12T14:08:28Z</time>
      </trkpt>
      <trkpt lat="48.47179" lon="-2.84763">
        <ele>91</ele>
        <time>2014-02-12T14:08:30Z</time>
      </trkpt>
      <trkpt lat="48.4718" lon="-2.84759">
        <ele>91</ele>
        <time>2014-02-12T14:08:32Z</time>
      </trkpt>
      <trkpt lat="48.47181" lon="-2.84752">
        <ele>91</ele>
        <time>2014-02-12T14:08:41Z</time>
      </trkpt>
      <trkpt lat="48.47181" lon="-2.8475">
        <ele>92</ele>
        <time>2014-02-12T14:08:43Z</time>
      </trkpt>
      <trkpt lat="48.47181" lon="-2.84744">
        <ele>93</ele>
        <time>2014-02-12T14:08:45Z</time>
      </trkpt>
      <trkpt lat="48.47183" lon="-2.84737">
        <ele>93</ele>
        <time>2014-02-12T14:08:48Z</time>
      </trkpt>
      <trkpt lat="48.47186" lon="-2.84734">
        <ele>93</ele>
        <time>2014-02-12T14:08:50Z</time>
      </trkpt>
      <trkpt lat="48.47189" lon="-2.8473">
        <ele>93</ele>
        <time>2014-02-12T14:08:52Z</time>
      </trkpt>
      <trkpt lat="48.47193" lon="-2.84726">
        <ele>93</ele>
        <time>2014-02-12T14:08:55Z</time>
      </trkpt>
      <trkpt lat="48.47195" lon="-2.84724">
        <ele>93</ele>
        <time>2014-02-12T14:08:57Z</time>
      </trkpt>
      <trkpt lat="48.47198" lon="-2.84722">
        <ele>93</ele>
        <time>2014-02-12T14:08:59Z</time>
      </trkpt>
      <trkpt lat="48.47202" lon="-2.84716">
        <ele>93</ele>
        <time>2014-02-12T14:09:03Z</time>
      </trkpt>
      <trkpt lat="48.47203" lon="-2.84712">
        <ele>92</ele>
        <time>2014-02-12T14:09:06Z</time>
      </trkpt>
      <trkpt lat="48.47205" lon="-2.8471">
        <ele>91</ele>
        <time>2014-02-12T14:09:09Z</time>
      </trkpt>
      <trkpt lat="48.47208" lon="-2.84707">
        <ele>89</ele>
        <time>2014-02-12T14:09:12Z</time>
      </trkpt>
      <trkpt lat="48.47211" lon="-2.84705">
        <ele>87</ele>
        <time>2014-02-12T14:09:14Z</time>
      </trkpt>
      <trkpt lat="48.47215" lon="-2.84701">
        <ele>85</ele>
        <time>2014-02-12T14:09:17Z</time>
      </trkpt>
      <trkpt lat="48.47217" lon="-2.847">
        <ele>83</ele>
        <time>2014-02-12T14:09:19Z</time>
      </trkpt>
      <trkpt lat="48.47221" lon="-2.84698">
        <ele>82</ele>
        <time>2014-02-12T14:09:22Z</time>
      </trkpt>
      <trkpt lat="48.47224" lon="-2.84698">
        <ele>81</ele>
        <time>2014-02-12T14:09:24Z</time>
      </trkpt>
      <trkpt lat="48.47227" lon="-2.84696">
        <ele>81</ele>
        <time>2014-02-12T14:09:27Z</time>
      </trkpt>
      <trkpt lat="48.47229" lon="-2.84694">
        <ele>81</ele>
        <time>2014-02-12T14:09:29Z</time>
      </trkpt>
      <trkpt lat="48.47232" lon="-2.84689">
        <ele>81</ele>
        <time>2014-02-12T14:09:32Z</time>
      </trkpt>
      <trkpt lat="48.47234" lon="-2.84687">
        <ele>81</ele>
        <time>2014-02-12T14:09:34Z</time>
      </trkpt>
      <trkpt lat="48.47237" lon="-2.84682">
        <ele>81</ele>
        <time>2014-02-12T14:09:37Z</time>
      </trkpt>
      <trkpt lat="48.47239" lon="-2.84681">
        <ele>81</ele>
        <time>2014-02-12T14:09:39Z</time>
      </trkpt>
      <trkpt lat="48.47242" lon="-2.84678">
        <ele>81</ele>
        <time>2014-02-12T14:09:41Z</time>
      </trkpt>
      <trkpt lat="48.47246" lon="-2.84674">
        <ele>81</ele>
        <time>2014-02-12T14:09:44Z</time>
      </trkpt>
      <trkpt lat="48.4725" lon="-2.84671">
        <ele>81</ele>
        <time>2014-02-12T14:09:47Z</time>
      </trkpt>
      <trkpt lat="48.47252" lon="-2.84669">
        <ele>81</ele>
        <time>2014-02-12T14:09:49Z</time>
      </trkpt>
      <trkpt lat="48.47254" lon="-2.84661">
        <ele>81</ele>
        <time>2014-02-12T14:09:52Z</time>
      </trkpt>
      <trkpt lat="48.47256" lon="-2.84657">
        <ele>83</ele>
        <time>2014-02-12T14:09:54Z</time>
      </trkpt>
      <trkpt lat="48.47258" lon="-2.84652">
        <ele>87</ele>
        <time>2014-02-12T14:09:58Z</time>
      </trkpt>
      <trkpt lat="48.47258" lon="-2.8465">
        <ele>89</ele>
        <time>2014-02-12T14:10:00Z</time>
      </trkpt>
      <trkpt lat="48.47259" lon="-2.84645">
        <ele>92</ele>
        <time>2014-02-12T14:10:05Z</time>
      </trkpt>
      <trkpt lat="48.47261" lon="-2.8464">
        <ele>93</ele>
        <time>2014-02-12T14:10:09Z</time>
      </trkpt>
      <trkpt lat="48.47261" lon="-2.84638">
        <ele>94</ele>
        <time>2014-02-12T14:10:13Z</time>
      </trkpt>
      <trkpt lat="48.47261" lon="-2.84632">
        <ele>95</ele>
        <time>2014-02-12T14:10:16Z</time>
      </trkpt>
      <trkpt lat="48.47261" lon="-2.84628">
        <ele>95</ele>
        <time>2014-02-12T14:10:18Z</time>
      </trkpt>
      <trkpt lat="48.4726" lon="-2.84624">
        <ele>96</ele>
        <time>2014-02-12T14:10:21Z</time>
      </trkpt>
      <trkpt lat="48.47259" lon="-2.84619">
        <ele>96</ele>
        <time>2014-02-12T14:10:23Z</time>
      </trkpt>
      <trkpt lat="48.47259" lon="-2.84615">
        <ele>96</ele>
        <time>2014-02-12T14:10:25Z</time>
      </trkpt>
      <trkpt lat="48.47258" lon="-2.84609">
        <ele>96</ele>
        <time>2014-02-12T14:10:28Z</time>
      </trkpt>
      <trkpt lat="48.47258" lon="-2.84605">
        <ele>96</ele>
        <time>2014-02-12T14:10:30Z</time>
      </trkpt>
      <trkpt lat="48.47258" lon="-2.846">
        <ele>96</ele>
        <time>2014-02-12T14:10:32Z</time>
      </trkpt>
      <trkpt lat="48.47258" lon="-2.84596">
        <ele>96</ele>
        <time>2014-02-12T14:10:34Z</time>
      </trkpt>
      <trkpt lat="48.47258" lon="-2.84589">
        <ele>96</ele>
        <time>2014-02-12T14:10:37Z</time>
      </trkpt>
      <trkpt lat="48.47257" lon="-2.84584">
        <ele>96</ele>
        <time>2014-02-12T14:10:39Z</time>
      </trkpt>
      <trkpt lat="48.47258" lon="-2.8458">
        <ele>96</ele>
        <time>2014-02-12T14:10:41Z</time>
      </trkpt>
      <trkpt lat="48.47258" lon="-2.84575">
        <ele>96</ele>
        <time>2014-02-12T14:10:43Z</time>
      </trkpt>
      <trkpt lat="48.47258" lon="-2.8457">
        <ele>96</ele>
        <time>2014-02-12T14:10:45Z</time>
      </trkpt>
      <trkpt lat="48.47258" lon="-2.84566">
        <ele>96</ele>
        <time>2014-02-12T14:10:47Z</time>
      </trkpt>
      <trkpt lat="48.47258" lon="-2.84563">
        <ele>96</ele>
        <time>2014-02-12T14:10:49Z</time>
      </trkpt>
      <trkpt lat="48.47258" lon="-2.84558">
        <ele>96</ele>
        <time>2014-02-12T14:10:51Z</time>
      </trkpt>
      <trkpt lat="48.4726" lon="-2.84552">
        <ele>96</ele>
        <time>2014-02-12T14:10:54Z</time>
      </trkpt>
      <trkpt lat="48.4726" lon="-2.84547">
        <ele>96</ele>
        <time>2014-02-12T14:10:56Z</time>
      </trkpt>
      <trkpt lat="48.47262" lon="-2.84541">
        <ele>96</ele>
        <time>2014-02-12T14:11:00Z</time>
      </trkpt>
      <trkpt lat="48.47263" lon="-2.84538">
        <ele>96</ele>
        <time>2014-02-12T14:11:02Z</time>
      </trkpt>
      <trkpt lat="48.47264" lon="-2.84531">
        <ele>96</ele>
        <time>2014-02-12T14:11:06Z</time>
      </trkpt>
      <trkpt lat="48.47265" lon="-2.84529">
        <ele>96</ele>
        <time>2014-02-12T14:11:09Z</time>
      </trkpt>
      <trkpt lat="48.47264" lon="-2.84527">
        <ele>96</ele>
        <time>2014-02-12T14:11:12Z</time>
      </trkpt>
      <trkpt lat="48.47263" lon="-2.84528">
        <ele>96</ele>
        <time>2014-02-12T14:11:15Z</time>
      </trkpt>
      <trkpt lat="48.47261" lon="-2.84528">
        <ele>96</ele>
        <time>2014-02-12T14:11:19Z</time>
      </trkpt>
      <trkpt lat="48.47262" lon="-2.8453">
        <ele>96</ele>
        <time>2014-02-12T14:11:23Z</time>
      </trkpt>
      <trkpt lat="48.47262" lon="-2.84532">
        <ele>96</ele>
        <time>2014-02-12T14:11:29Z</time>
      </trkpt>
      <trkpt lat="48.47263" lon="-2.84533">
        <ele>97</ele>
        <time>2014-02-12T14:11:35Z</time>
      </trkpt>
      <trkpt lat="48.47262" lon="-2.84535">
        <ele>102</ele>
        <time>2014-02-12T14:11:48Z</time>
      </trkpt>
      <trkpt lat="48.47261" lon="-2.84536">
        <ele>104</ele>
        <time>2014-02-12T14:11:52Z</time>
      </trkpt>
      <trkpt lat="48.4726" lon="-2.84536">
        <ele>105</ele>
        <time>2014-02-12T14:11:58Z</time>
      </trkpt>
      <trkpt lat="48.4726" lon="-2.84533">
        <ele>106</ele>
        <time>2014-02-12T14:12:08Z</time>
      </trkpt>
      <trkpt lat="48.47263" lon="-2.84528">
        <ele>106</ele>
        <time>2014-02-12T14:12:12Z</time>
      </trkpt>
      <trkpt lat="48.47264" lon="-2.84525">
        <ele>106</ele>
        <time>2014-02-12T14:12:14Z</time>
      </trkpt>
      <trkpt lat="48.47267" lon="-2.84519">
        <ele>106</ele>
        <time>2014-02-12T14:12:17Z</time>
      </trkpt>
      <trkpt lat="48.47267" lon="-2.84516">
        <ele>106</ele>
        <time>2014-02-12T14:12:19Z</time>
      </trkpt>
      <trkpt lat="48.47268" lon="-2.84509">
        <ele>104</ele>
        <time>2014-02-12T14:12:22Z</time>
      </trkpt>
      <trkpt lat="48.47267" lon="-2.84508">
        <ele>104</ele>
        <time>2014-02-12T14:12:24Z</time>
      </trkpt>
      <trkpt lat="48.47267" lon="-2.84506">
        <ele>104</ele>
        <time>2014-02-12T14:12:26Z</time>
      </trkpt>
      <trkpt lat="48.47268" lon="-2.84503">
        <ele>104</ele>
        <time>2014-02-12T14:12:28Z</time>
      </trkpt>
      <trkpt lat="48.47269" lon="-2.84499">
        <ele>104</ele>
        <time>2014-02-12T14:12:30Z</time>
      </trkpt>
      <trkpt lat="48.4727" lon="-2.84495">
        <ele>104</ele>
        <time>2014-02-12T14:12:32Z</time>
      </trkpt>
      <trkpt lat="48.47271" lon="-2.84492">
        <ele>103</ele>
        <time>2014-02-12T14:12:34Z</time>
      </trkpt>
      <trkpt lat="48.47273" lon="-2.84487">
        <ele>103</ele>
        <time>2014-02-12T14:12:37Z</time>
      </trkpt>
      <trkpt lat="48.47272" lon="-2.84481">
        <ele>103</ele>
        <time>2014-02-12T14:12:39Z</time>
      </trkpt>
      <trkpt lat="48.47273" lon="-2.84472">
        <ele>103</ele>
        <time>2014-02-12T14:12:42Z</time>
      </trkpt>
      <trkpt lat="48.47272" lon="-2.84466">
        <ele>103</ele>
        <time>2014-02-12T14:12:44Z</time>
      </trkpt>
      <trkpt lat="48.47271" lon="-2.84458">
        <ele>103</ele>
        <time>2014-02-12T14:12:47Z</time>
      </trkpt>
      <trkpt lat="48.4727" lon="-2.84453">
        <ele>103</ele>
        <time>2014-02-12T14:12:49Z</time>
      </trkpt>
      <trkpt lat="48.47273" lon="-2.84449">
        <ele>103</ele>
        <time>2014-02-12T14:12:52Z</time>
      </trkpt>
      <trkpt lat="48.47273" lon="-2.84444">
        <ele>103</ele>
        <time>2014-02-12T14:12:54Z</time>
      </trkpt>
      <trkpt lat="48.47273" lon="-2.84438">
        <ele>103</ele>
        <time>2014-02-12T14:12:58Z</time>
      </trkpt>
      <trkpt lat="48.47273" lon="-2.84433">
        <ele>103</ele>
        <time>2014-02-12T14:13:00Z</time>
      </trkpt>
      <trkpt lat="48.47274" lon="-2.84429">
        <ele>103</ele>
        <time>2014-02-12T14:13:02Z</time>
      </trkpt>
      <trkpt lat="48.47275" lon="-2.84426">
        <ele>103</ele>
        <time>2014-02-12T14:13:04Z</time>
      </trkpt>
      <trkpt lat="48.47276" lon="-2.84419">
        <ele>103</ele>
        <time>2014-02-12T14:13:07Z</time>
      </trkpt>
      <trkpt lat="48.47276" lon="-2.84415">
        <ele>103</ele>
        <time>2014-02-12T14:13:09Z</time>
      </trkpt>
      <trkpt lat="48.47277" lon="-2.8441">
        <ele>103</ele>
        <time>2014-02-12T14:13:12Z</time>
      </trkpt>
      <trkpt lat="48.47277" lon="-2.84406">
        <ele>103</ele>
        <time>2014-02-12T14:13:14Z</time>
      </trkpt>
      <trkpt lat="48.47277" lon="-2.84399">
        <ele>101</ele>
        <time>2014-02-12T14:13:17Z</time>
      </trkpt>
      <trkpt lat="48.47279" lon="-2.84394">
        <ele>100</ele>
        <time>2014-02-12T14:13:19Z</time>
      </trkpt>
      <trkpt lat="48.47281" lon="-2.8439">
        <ele>100</ele>
        <time>2014-02-12T14:13:21Z</time>
      </trkpt>
      <trkpt lat="48.47283" lon="-2.84386">
        <ele>100</ele>
        <time>2014-02-12T14:13:23Z</time>
      </trkpt>
      <trkpt lat="48.47286" lon="-2.84384">
        <ele>100</ele>
        <time>2014-02-12T14:13:25Z</time>
      </trkpt>
      <trkpt lat="48.47287" lon="-2.8438">
        <ele>100</ele>
        <time>2014-02-12T14:13:27Z</time>
      </trkpt>
      <trkpt lat="48.47288" lon="-2.84374">
        <ele>100</ele>
        <time>2014-02-12T14:13:29Z</time>
      </trkpt>
      <trkpt lat="48.4729" lon="-2.8437">
        <ele>100</ele>
        <time>2014-02-12T14:13:31Z</time>
      </trkpt>
      <trkpt lat="48.47292" lon="-2.84365">
        <ele>100</ele>
        <time>2014-02-12T14:13:33Z</time>
      </trkpt>
      <trkpt lat="48.47294" lon="-2.84361">
        <ele>100</ele>
        <time>2014-02-12T14:13:35Z</time>
      </trkpt>
      <trkpt lat="48.47297" lon="-2.84356">
        <ele>100</ele>
        <time>2014-02-12T14:13:38Z</time>
      </trkpt>
      <trkpt lat="48.47299" lon="-2.84352">
        <ele>100</ele>
        <time>2014-02-12T14:13:40Z</time>
      </trkpt>
      <trkpt lat="48.47301" lon="-2.84347">
        <ele>100</ele>
        <time>2014-02-12T14:13:42Z</time>
      </trkpt>
      <trkpt lat="48.47304" lon="-2.84343">
        <ele>100</ele>
        <time>2014-02-12T14:13:44Z</time>
      </trkpt>
      <trkpt lat="48.47307" lon="-2.84338">
        <ele>100</ele>
        <time>2014-02-12T14:13:47Z</time>
      </trkpt>
      <trkpt lat="48.47307" lon="-2.8434">
        <ele>100</ele>
        <time>2014-02-12T14:13:58Z</time>
      </trkpt>
      <trkpt lat="48.47307" lon="-2.84342">
        <ele>100</ele>
        <time>2014-02-12T14:14:04Z</time>
      </trkpt>
      <trkpt lat="48.47305" lon="-2.84343">
        <ele>100</ele>
        <time>2014-02-12T14:14:06Z</time>
      </trkpt>
      <trkpt lat="48.47304" lon="-2.84344">
        <ele>101</ele>
        <time>2014-02-12T14:14:08Z</time>
      </trkpt>
      <trkpt lat="48.47305" lon="-2.84344">
        <ele>104</ele>
        <time>2014-02-12T14:14:16Z</time>
      </trkpt>
      <trkpt lat="48.47309" lon="-2.84338">
        <ele>104</ele>
        <time>2014-02-12T14:14:19Z</time>
      </trkpt>
      <trkpt lat="48.47312" lon="-2.84336">
        <ele>104</ele>
        <time>2014-02-12T14:14:21Z</time>
      </trkpt>
      <trkpt lat="48.47314" lon="-2.84334">
        <ele>104</ele>
        <time>2014-02-12T14:14:23Z</time>
      </trkpt>
      <trkpt lat="48.47317" lon="-2.8433">
        <ele>103</ele>
        <time>2014-02-12T14:14:25Z</time>
      </trkpt>
      <trkpt lat="48.47319" lon="-2.84325">
        <ele>102</ele>
        <time>2014-02-12T14:14:27Z</time>
      </trkpt>
      <trkpt lat="48.47321" lon="-2.84321">
        <ele>100</ele>
        <time>2014-02-12T14:14:29Z</time>
      </trkpt>
      <trkpt lat="48.47323" lon="-2.84317">
        <ele>98</ele>
        <time>2014-02-12T14:14:31Z</time>
      </trkpt>
      <trkpt lat="48.47325" lon="-2.84312">
        <ele>97</ele>
        <time>2014-02-12T14:14:33Z</time>
      </trkpt>
      <trkpt lat="48.47326" lon="-2.84309">
        <ele>96</ele>
        <time>2014-02-12T14:14:35Z</time>
      </trkpt>
      <trkpt lat="48.47327" lon="-2.84306">
        <ele>95</ele>
        <time>2014-02-12T14:14:37Z</time>
      </trkpt>
      <trkpt lat="48.47327" lon="-2.84302">
        <ele>94</ele>
        <time>2014-02-12T14:14:39Z</time>
      </trkpt>
      <trkpt lat="48.47326" lon="-2.84298">
        <ele>94</ele>
        <time>2014-02-12T14:14:41Z</time>
      </trkpt>
      <trkpt lat="48.47325" lon="-2.84293">
        <ele>94</ele>
        <time>2014-02-12T14:14:43Z</time>
      </trkpt>
      <trkpt lat="48.47325" lon="-2.84288">
        <ele>94</ele>
        <time>2014-02-12T14:14:45Z</time>
      </trkpt>
      <trkpt lat="48.47325" lon="-2.84283">
        <ele>94</ele>
        <time>2014-02-12T14:14:47Z</time>
      </trkpt>
      <trkpt lat="48.47326" lon="-2.84279">
        <ele>94</ele>
        <time>2014-02-12T14:14:49Z</time>
      </trkpt>
      <trkpt lat="48.47327" lon="-2.84275">
        <ele>94</ele>
        <time>2014-02-12T14:14:51Z</time>
      </trkpt>
      <trkpt lat="48.47331" lon="-2.8427">
        <ele>94</ele>
        <time>2014-02-12T14:14:54Z</time>
      </trkpt>
      <trkpt lat="48.47334" lon="-2.84267">
        <ele>94</ele>
        <time>2014-02-12T14:14:56Z</time>
      </trkpt>
      <trkpt lat="48.47337" lon="-2.84265">
        <ele>94</ele>
        <time>2014-02-12T14:14:58Z</time>
      </trkpt>
      <trkpt lat="48.47341" lon="-2.84262">
        <ele>94</ele>
        <time>2014-02-12T14:15:01Z</time>
      </trkpt>
      <trkpt lat="48.47344" lon="-2.84258">
        <ele>94</ele>
        <time>2014-02-12T14:15:04Z</time>
      </trkpt>
      <trkpt lat="48.47347" lon="-2.84255">
        <ele>94</ele>
        <time>2014-02-12T14:15:06Z</time>
      </trkpt>
      <trkpt lat="48.47349" lon="-2.84253">
        <ele>94</ele>
        <time>2014-02-12T14:15:08Z</time>
      </trkpt>
      <trkpt lat="48.47353" lon="-2.84248">
        <ele>94</ele>
        <time>2014-02-12T14:15:11Z</time>
      </trkpt>
      <trkpt lat="48.47355" lon="-2.84245">
        <ele>94</ele>
        <time>2014-02-12T14:15:13Z</time>
      </trkpt>
      <trkpt lat="48.47357" lon="-2.8424">
        <ele>94</ele>
        <time>2014-02-12T14:15:16Z</time>
      </trkpt>
      <trkpt lat="48.47359" lon="-2.84237">
        <ele>94</ele>
        <time>2014-02-12T14:15:18Z</time>
      </trkpt>
      <trkpt lat="48.47361" lon="-2.84231">
        <ele>94</ele>
        <time>2014-02-12T14:15:21Z</time>
      </trkpt>
      <trkpt lat="48.47364" lon="-2.84225">
        <ele>94</ele>
        <time>2014-02-12T14:15:24Z</time>
      </trkpt>
      <trkpt lat="48.47366" lon="-2.84223">
        <ele>95</ele>
        <time>2014-02-12T14:15:26Z</time>
      </trkpt>
      <trkpt lat="48.47368" lon="-2.8422">
        <ele>95</ele>
        <time>2014-02-12T14:15:28Z</time>
      </trkpt>
      <trkpt lat="48.47371" lon="-2.84217">
        <ele>95</ele>
        <time>2014-02-12T14:15:30Z</time>
      </trkpt>
      <trkpt lat="48.47373" lon="-2.84214">
        <ele>95</ele>
        <time>2014-02-12T14:15:32Z</time>
      </trkpt>
      <trkpt lat="48.47376" lon="-2.84211">
        <ele>95</ele>
        <time>2014-02-12T14:15:34Z</time>
      </trkpt>
      <trkpt lat="48.47378" lon="-2.84208">
        <ele>95</ele>
        <time>2014-02-12T14:15:36Z</time>
      </trkpt>
      <trkpt lat="48.47381" lon="-2.84204">
        <ele>95</ele>
        <time>2014-02-12T14:15:38Z</time>
      </trkpt>
      <trkpt lat="48.47384" lon="-2.84202">
        <ele>95</ele>
        <time>2014-02-12T14:15:40Z</time>
      </trkpt>
      <trkpt lat="48.47387" lon="-2.84199">
        <ele>95</ele>
        <time>2014-02-12T14:15:43Z</time>
      </trkpt>
      <trkpt lat="48.4739" lon="-2.84197">
        <ele>95</ele>
        <time>2014-02-12T14:15:45Z</time>
      </trkpt>
      <trkpt lat="48.47393" lon="-2.84196">
        <ele>95</ele>
        <time>2014-02-12T14:15:47Z</time>
      </trkpt>
      <trkpt lat="48.47395" lon="-2.84195">
        <ele>95</ele>
        <time>2014-02-12T14:15:49Z</time>
      </trkpt>
      <trkpt lat="48.47398" lon="-2.84192">
        <ele>95</ele>
        <time>2014-02-12T14:15:51Z</time>
      </trkpt>
      <trkpt lat="48.474" lon="-2.84191">
        <ele>95</ele>
        <time>2014-02-12T14:15:53Z</time>
      </trkpt>
      <trkpt lat="48.47401" lon="-2.8419">
        <ele>95</ele>
        <time>2014-02-12T14:15:55Z</time>
      </trkpt>
      <trkpt lat="48.47404" lon="-2.8419">
        <ele>95</ele>
        <time>2014-02-12T14:15:57Z</time>
      </trkpt>
      <trkpt lat="48.47407" lon="-2.8419">
        <ele>95</ele>
        <time>2014-02-12T14:15:59Z</time>
      </trkpt>
      <trkpt lat="48.4741" lon="-2.84189">
        <ele>95</ele>
        <time>2014-02-12T14:16:01Z</time>
      </trkpt>
      <trkpt lat="48.47412" lon="-2.84188">
        <ele>95</ele>
        <time>2014-02-12T14:16:03Z</time>
      </trkpt>
      <trkpt lat="48.47415" lon="-2.84187">
        <ele>95</ele>
        <time>2014-02-12T14:16:05Z</time>
      </trkpt>
      <trkpt lat="48.47417" lon="-2.84183">
        <ele>95</ele>
        <time>2014-02-12T14:16:07Z</time>
      </trkpt>
      <trkpt lat="48.47421" lon="-2.84182">
        <ele>95</ele>
        <time>2014-02-12T14:16:09Z</time>
      </trkpt>
      <trkpt lat="48.47424" lon="-2.84179">
        <ele>95</ele>
        <time>2014-02-12T14:16:12Z</time>
      </trkpt>
      <trkpt lat="48.47427" lon="-2.84177">
        <ele>95</ele>
        <time>2014-02-12T14:16:15Z</time>
      </trkpt>
      <trkpt lat="48.4743" lon="-2.84176">
        <ele>95</ele>
        <time>2014-02-12T14:16:17Z</time>
      </trkpt>
      <trkpt lat="48.47431" lon="-2.84175">
        <ele>95</ele>
        <time>2014-02-12T14:16:21Z</time>
      </trkpt>
      <trkpt lat="48.47432" lon="-2.84174">
        <ele>95</ele>
        <time>2014-02-12T14:16:24Z</time>
      </trkpt>
      <trkpt lat="48.47434" lon="-2.84174">
        <ele>96</ele>
        <time>2014-02-12T14:16:26Z</time>
      </trkpt>
      <trkpt lat="48.47435" lon="-2.84173">
        <ele>96</ele>
        <time>2014-02-12T14:16:28Z</time>
      </trkpt>
      <trkpt lat="48.47438" lon="-2.84171">
        <ele>97</ele>
        <time>2014-02-12T14:16:30Z</time>
      </trkpt>
      <trkpt lat="48.47441" lon="-2.84169">
        <ele>97</ele>
        <time>2014-02-12T14:16:33Z</time>
      </trkpt>
      <trkpt lat="48.47444" lon="-2.84168">
        <ele>97</ele>
        <time>2014-02-12T14:16:35Z</time>
      </trkpt>
      <trkpt lat="48.47446" lon="-2.84167">
        <ele>97</ele>
        <time>2014-02-12T14:16:37Z</time>
      </trkpt>
      <trkpt lat="48.47451" lon="-2.84166">
        <ele>97</ele>
        <time>2014-02-12T14:16:39Z</time>
      </trkpt>
      <trkpt lat="48.47454" lon="-2.84165">
        <ele>97</ele>
        <time>2014-02-12T14:16:41Z</time>
      </trkpt>
      <trkpt lat="48.47456" lon="-2.84163">
        <ele>97</ele>
        <time>2014-02-12T14:16:43Z</time>
      </trkpt>
      <trkpt lat="48.47459" lon="-2.84162">
        <ele>97</ele>
        <time>2014-02-12T14:16:45Z</time>
      </trkpt>
      <trkpt lat="48.47461" lon="-2.84159">
        <ele>97</ele>
        <time>2014-02-12T14:16:47Z</time>
      </trkpt>
      <trkpt lat="48.47464" lon="-2.84157">
        <ele>97</ele>
        <time>2014-02-12T14:16:49Z</time>
      </trkpt>
      <trkpt lat="48.47467" lon="-2.84155">
        <ele>97</ele>
        <time>2014-02-12T14:16:51Z</time>
      </trkpt>
      <trkpt lat="48.4747" lon="-2.84153">
        <ele>97</ele>
        <time>2014-02-12T14:16:53Z</time>
      </trkpt>
      <trkpt lat="48.47473" lon="-2.84151">
        <ele>97</ele>
        <time>2014-02-12T14:16:56Z</time>
      </trkpt>
      <trkpt lat="48.47475" lon="-2.84148">
        <ele>97</ele>
        <time>2014-02-12T14:16:58Z</time>
      </trkpt>
      <trkpt lat="48.47476" lon="-2.84145">
        <ele>97</ele>
        <time>2014-02-12T14:17:00Z</time>
      </trkpt>
      <trkpt lat="48.47477" lon="-2.84141">
        <ele>97</ele>
        <time>2014-02-12T14:17:02Z</time>
      </trkpt>
      <trkpt lat="48.47478" lon="-2.84136">
        <ele>97</ele>
        <time>2014-02-12T14:17:05Z</time>
      </trkpt>
      <trkpt lat="48.47476" lon="-2.84133">
        <ele>97</ele>
        <time>2014-02-12T14:17:07Z</time>
      </trkpt>
      <trkpt lat="48.47474" lon="-2.84128">
        <ele>97</ele>
        <time>2014-02-12T14:17:09Z</time>
      </trkpt>
      <trkpt lat="48.47472" lon="-2.84124">
        <ele>97</ele>
        <time>2014-02-12T14:17:11Z</time>
      </trkpt>
      <trkpt lat="48.4747" lon="-2.8412">
        <ele>97</ele>
        <time>2014-02-12T14:17:14Z</time>
      </trkpt>
      <trkpt lat="48.47468" lon="-2.84118">
        <ele>97</ele>
        <time>2014-02-12T14:17:16Z</time>
      </trkpt>
      <trkpt lat="48.47465" lon="-2.84115">
        <ele>96</ele>
        <time>2014-02-12T14:17:19Z</time>
      </trkpt>
      <trkpt lat="48.47464" lon="-2.84112">
        <ele>96</ele>
        <time>2014-02-12T14:17:21Z</time>
      </trkpt>
      <trkpt lat="48.47463" lon="-2.84108">
        <ele>96</ele>
        <time>2014-02-12T14:17:23Z</time>
      </trkpt>
      <trkpt lat="48.47464" lon="-2.84104">
        <ele>95</ele>
        <time>2014-02-12T14:17:25Z</time>
      </trkpt>
      <trkpt lat="48.47466" lon="-2.841">
        <ele>94</ele>
        <time>2014-02-12T14:17:27Z</time>
      </trkpt>
      <trkpt lat="48.47467" lon="-2.84096">
        <ele>93</ele>
        <time>2014-02-12T14:17:29Z</time>
      </trkpt>
      <trkpt lat="48.4747" lon="-2.84091">
        <ele>93</ele>
        <time>2014-02-12T14:17:32Z</time>
      </trkpt>
      <trkpt lat="48.47473" lon="-2.84088">
        <ele>93</ele>
        <time>2014-02-12T14:17:34Z</time>
      </trkpt>
      <trkpt lat="48.47476" lon="-2.84085">
        <ele>92</ele>
        <time>2014-02-12T14:17:36Z</time>
      </trkpt>
      <trkpt lat="48.47478" lon="-2.84086">
        <ele>92</ele>
        <time>2014-02-12T14:17:38Z</time>
      </trkpt>
      <trkpt lat="48.4748" lon="-2.84087">
        <ele>92</ele>
        <time>2014-02-12T14:17:40Z</time>
      </trkpt>
      <trkpt lat="48.47482" lon="-2.84088">
        <ele>91</ele>
        <time>2014-02-12T14:17:42Z</time>
      </trkpt>
      <trkpt lat="48.47485" lon="-2.84089">
        <ele>91</ele>
        <time>2014-02-12T14:17:44Z</time>
      </trkpt>
      <trkpt lat="48.47488" lon="-2.84089">
        <ele>91</ele>
        <time>2014-02-12T14:17:46Z</time>
      </trkpt>
      <trkpt lat="48.47491" lon="-2.8409">
        <ele>91</ele>
        <time>2014-02-12T14:17:49Z</time>
      </trkpt>
      <trkpt lat="48.47493" lon="-2.84091">
        <ele>91</ele>
        <time>2014-02-12T14:17:51Z</time>
      </trkpt>
      <trkpt lat="48.47496" lon="-2.84091">
        <ele>91</ele>
        <time>2014-02-12T14:17:53Z</time>
      </trkpt>
      <trkpt lat="48.47499" lon="-2.84091">
        <ele>91</ele>
        <time>2014-02-12T14:17:55Z</time>
      </trkpt>
      <trkpt lat="48.47503" lon="-2.84087">
        <ele>91</ele>
        <time>2014-02-12T14:17:58Z</time>
      </trkpt>
      <trkpt lat="48.47506" lon="-2.84087">
        <ele>91</ele>
        <time>2014-02-12T14:18:00Z</time>
      </trkpt>
      <trkpt lat="48.47509" lon="-2.84086">
        <ele>91</ele>
        <time>2014-02-12T14:18:02Z</time>
      </trkpt>
      <trkpt lat="48.47513" lon="-2.84085">
        <ele>91</ele>
        <time>2014-02-12T14:18:04Z</time>
      </trkpt>
      <trkpt lat="48.47516" lon="-2.84085">
        <ele>91</ele>
        <time>2014-02-12T14:18:06Z</time>
      </trkpt>
      <trkpt lat="48.47519" lon="-2.84086">
        <ele>91</ele>
        <time>2014-02-12T14:18:08Z</time>
      </trkpt>
      <trkpt lat="48.47523" lon="-2.84086">
        <ele>91</ele>
        <time>2014-02-12T14:18:10Z</time>
      </trkpt>
      <trkpt lat="48.47526" lon="-2.84086">
        <ele>91</ele>
        <time>2014-02-12T14:18:12Z</time>
      </trkpt>
      <trkpt lat="48.47529" lon="-2.84086">
        <ele>92</ele>
        <time>2014-02-12T14:18:14Z</time>
      </trkpt>
      <trkpt lat="48.47532" lon="-2.84087">
        <ele>92</ele>
        <time>2014-02-12T14:18:16Z</time>
      </trkpt>
      <trkpt lat="48.47535" lon="-2.84087">
        <ele>92</ele>
        <time>2014-02-12T14:18:18Z</time>
      </trkpt>
      <trkpt lat="48.47539" lon="-2.84087">
        <ele>92</ele>
        <time>2014-02-12T14:18:20Z</time>
      </trkpt>
      <trkpt lat="48.47542" lon="-2.84087">
        <ele>92</ele>
        <time>2014-02-12T14:18:22Z</time>
      </trkpt>
      <trkpt lat="48.47545" lon="-2.84088">
        <ele>92</ele>
        <time>2014-02-12T14:18:24Z</time>
      </trkpt>
      <trkpt lat="48.47549" lon="-2.84088">
        <ele>92</ele>
        <time>2014-02-12T14:18:26Z</time>
      </trkpt>
      <trkpt lat="48.47552" lon="-2.84088">
        <ele>92</ele>
        <time>2014-02-12T14:18:28Z</time>
      </trkpt>
      <trkpt lat="48.47556" lon="-2.84088">
        <ele>92</ele>
        <time>2014-02-12T14:18:30Z</time>
      </trkpt>
      <trkpt lat="48.4756" lon="-2.84089">
        <ele>92</ele>
        <time>2014-02-12T14:18:32Z</time>
      </trkpt>
      <trkpt lat="48.47562" lon="-2.84089">
        <ele>92</ele>
        <time>2014-02-12T14:18:34Z</time>
      </trkpt>
      <trkpt lat="48.47565" lon="-2.84089">
        <ele>92</ele>
        <time>2014-02-12T14:18:36Z</time>
      </trkpt>
      <trkpt lat="48.47568" lon="-2.8409">
        <ele>92</ele>
        <time>2014-02-12T14:18:38Z</time>
      </trkpt>
      <trkpt lat="48.47571" lon="-2.8409">
        <ele>92</ele>
        <time>2014-02-12T14:18:40Z</time>
      </trkpt>
      <trkpt lat="48.47573" lon="-2.84091">
        <ele>92</ele>
        <time>2014-02-12T14:18:42Z</time>
      </trkpt>
      <trkpt lat="48.47576" lon="-2.84092">
        <ele>92</ele>
        <time>2014-02-12T14:18:44Z</time>
      </trkpt>
      <trkpt lat="48.47578" lon="-2.84092">
        <ele>92</ele>
        <time>2014-02-12T14:18:46Z</time>
      </trkpt>
      <trkpt lat="48.47582" lon="-2.84094">
        <ele>92</ele>
        <time>2014-02-12T14:18:48Z</time>
      </trkpt>
      <trkpt lat="48.47586" lon="-2.84095">
        <ele>91</ele>
        <time>2014-02-12T14:18:50Z</time>
      </trkpt>
      <trkpt lat="48.47589" lon="-2.84096">
        <ele>91</ele>
        <time>2014-02-12T14:18:52Z</time>
      </trkpt>
      <trkpt lat="48.47591" lon="-2.84097">
        <ele>90</ele>
        <time>2014-02-12T14:18:54Z</time>
      </trkpt>
      <trkpt lat="48.47594" lon="-2.84099">
        <ele>90</ele>
        <time>2014-02-12T14:18:56Z</time>
      </trkpt>
      <trkpt lat="48.47595" lon="-2.84101">
        <ele>89</ele>
        <time>2014-02-12T14:18:58Z</time>
      </trkpt>
      <trkpt lat="48.47597" lon="-2.84104">
        <ele>89</ele>
        <time>2014-02-12T14:19:00Z</time>
      </trkpt>
      <trkpt lat="48.47598" lon="-2.84106">
        <ele>88</ele>
        <time>2014-02-12T14:19:02Z</time>
      </trkpt>
      <trkpt lat="48.47597" lon="-2.84109">
        <ele>88</ele>
        <time>2014-02-12T14:19:04Z</time>
      </trkpt>
      <trkpt lat="48.47597" lon="-2.84113">
        <ele>86</ele>
        <time>2014-02-12T14:19:06Z</time>
      </trkpt>
      <trkpt lat="48.47596" lon="-2.84116">
        <ele>85</ele>
        <time>2014-02-12T14:19:08Z</time>
      </trkpt>
      <trkpt lat="48.47595" lon="-2.84119">
        <ele>85</ele>
        <time>2014-02-12T14:19:10Z</time>
      </trkpt>
      <trkpt lat="48.47595" lon="-2.84123">
        <ele>85</ele>
        <time>2014-02-12T14:19:12Z</time>
      </trkpt>
      <trkpt lat="48.47595" lon="-2.84127">
        <ele>85</ele>
        <time>2014-02-12T14:19:14Z</time>
      </trkpt>
      <trkpt lat="48.47596" lon="-2.84131">
        <ele>84</ele>
        <time>2014-02-12T14:19:16Z</time>
      </trkpt>
      <trkpt lat="48.47596" lon="-2.84135">
        <ele>84</ele>
        <time>2014-02-12T14:19:18Z</time>
      </trkpt>
      <trkpt lat="48.47598" lon="-2.84139">
        <ele>83</ele>
        <time>2014-02-12T14:19:20Z</time>
      </trkpt>
      <trkpt lat="48.47599" lon="-2.84143">
        <ele>83</ele>
        <time>2014-02-12T14:19:22Z</time>
      </trkpt>
      <trkpt lat="48.47599" lon="-2.84147">
        <ele>83</ele>
        <time>2014-02-12T14:19:24Z</time>
      </trkpt>
      <trkpt lat="48.47599" lon="-2.84151">
        <ele>83</ele>
        <time>2014-02-12T14:19:26Z</time>
      </trkpt>
      <trkpt lat="48.47599" lon="-2.84154">
        <ele>83</ele>
        <time>2014-02-12T14:19:28Z</time>
      </trkpt>
      <trkpt lat="48.47599" lon="-2.84157">
        <ele>82</ele>
        <time>2014-02-12T14:19:30Z</time>
      </trkpt>
      <trkpt lat="48.47598" lon="-2.84161">
        <ele>82</ele>
        <time>2014-02-12T14:19:32Z</time>
      </trkpt>
      <trkpt lat="48.47597" lon="-2.84165">
        <ele>82</ele>
        <time>2014-02-12T14:19:34Z</time>
      </trkpt>
      <trkpt lat="48.47597" lon="-2.84168">
        <ele>82</ele>
        <time>2014-02-12T14:19:36Z</time>
      </trkpt>
      <trkpt lat="48.47596" lon="-2.84172">
        <ele>81</ele>
        <time>2014-02-12T14:19:38Z</time>
      </trkpt>
      <trkpt lat="48.47596" lon="-2.84175">
        <ele>81</ele>
        <time>2014-02-12T14:19:40Z</time>
      </trkpt>
      <trkpt lat="48.47596" lon="-2.84178">
        <ele>81</ele>
        <time>2014-02-12T14:19:42Z</time>
      </trkpt>
      <trkpt lat="48.47598" lon="-2.84182">
        <ele>81</ele>
        <time>2014-02-12T14:19:44Z</time>
      </trkpt>
      <trkpt lat="48.47597" lon="-2.84187">
        <ele>81</ele>
        <time>2014-02-12T14:19:46Z</time>
      </trkpt>
      <trkpt lat="48.47597" lon="-2.84191">
        <ele>81</ele>
        <time>2014-02-12T14:19:48Z</time>
      </trkpt>
      <trkpt lat="48.47597" lon="-2.84195">
        <ele>81</ele>
        <time>2014-02-12T14:19:50Z</time>
      </trkpt>
      <trkpt lat="48.47598" lon="-2.84199">
        <ele>81</ele>
        <time>2014-02-12T14:19:52Z</time>
      </trkpt>
      <trkpt lat="48.47598" lon="-2.84202">
        <ele>81</ele>
        <time>2014-02-12T14:19:54Z</time>
      </trkpt>
      <trkpt lat="48.47599" lon="-2.84206">
        <ele>81</ele>
        <time>2014-02-12T14:19:56Z</time>
      </trkpt>
      <trkpt lat="48.47599" lon="-2.84211">
        <ele>81</ele>
        <time>2014-02-12T14:19:59Z</time>
      </trkpt>
      <trkpt lat="48.47601" lon="-2.84215">
        <ele>81</ele>
        <time>2014-02-12T14:20:01Z</time>
      </trkpt>
      <trkpt lat="48.47602" lon="-2.8422">
        <ele>81</ele>
        <time>2014-02-12T14:20:03Z</time>
      </trkpt>
      <trkpt lat="48.47603" lon="-2.84224">
        <ele>81</ele>
        <time>2014-02-12T14:20:05Z</time>
      </trkpt>
      <trkpt lat="48.47604" lon="-2.84228">
        <ele>81</ele>
        <time>2014-02-12T14:20:08Z</time>
      </trkpt>
      <trkpt lat="48.47604" lon="-2.84233">
        <ele>81</ele>
        <time>2014-02-12T14:20:10Z</time>
      </trkpt>
      <trkpt lat="48.47605" lon="-2.84237">
        <ele>81</ele>
        <time>2014-02-12T14:20:12Z</time>
      </trkpt>
      <trkpt lat="48.47606" lon="-2.84241">
        <ele>81</ele>
        <time>2014-02-12T14:20:15Z</time>
      </trkpt>
      <trkpt lat="48.47608" lon="-2.84244">
        <ele>83</ele>
        <time>2014-02-12T14:20:17Z</time>
      </trkpt>
      <trkpt lat="48.47611" lon="-2.84248">
        <ele>85</ele>
        <time>2014-02-12T14:20:19Z</time>
      </trkpt>
      <trkpt lat="48.47614" lon="-2.84251">
        <ele>86</ele>
        <time>2014-02-12T14:20:21Z</time>
      </trkpt>
      <trkpt lat="48.47617" lon="-2.84254">
        <ele>87</ele>
        <time>2014-02-12T14:20:23Z</time>
      </trkpt>
      <trkpt lat="48.47619" lon="-2.84257">
        <ele>87</ele>
        <time>2014-02-12T14:20:25Z</time>
      </trkpt>
      <trkpt lat="48.47622" lon="-2.84258">
        <ele>88</ele>
        <time>2014-02-12T14:20:27Z</time>
      </trkpt>
      <trkpt lat="48.47625" lon="-2.8426">
        <ele>89</ele>
        <time>2014-02-12T14:20:29Z</time>
      </trkpt>
      <trkpt lat="48.4763" lon="-2.84258">
        <ele>90</ele>
        <time>2014-02-12T14:20:32Z</time>
      </trkpt>
      <trkpt lat="48.47632" lon="-2.84257">
        <ele>91</ele>
        <time>2014-02-12T14:20:34Z</time>
      </trkpt>
      <trkpt lat="48.47634" lon="-2.84255">
        <ele>92</ele>
        <time>2014-02-12T14:20:36Z</time>
      </trkpt>
      <trkpt lat="48.47636" lon="-2.84253">
        <ele>92</ele>
        <time>2014-02-12T14:20:38Z</time>
      </trkpt>
      <trkpt lat="48.47636" lon="-2.8425">
        <ele>92</ele>
        <time>2014-02-12T14:20:40Z</time>
      </trkpt>
      <trkpt lat="48.47638" lon="-2.84246">
        <ele>93</ele>
        <time>2014-02-12T14:20:42Z</time>
      </trkpt>
      <trkpt lat="48.47639" lon="-2.84243">
        <ele>93</ele>
        <time>2014-02-12T14:20:44Z</time>
      </trkpt>
      <trkpt lat="48.47641" lon="-2.84237">
        <ele>93</ele>
        <time>2014-02-12T14:20:47Z</time>
      </trkpt>
      <trkpt lat="48.47642" lon="-2.84232">
        <ele>94</ele>
        <time>2014-02-12T14:20:49Z</time>
      </trkpt>
      <trkpt lat="48.47643" lon="-2.84228">
        <ele>94</ele>
        <time>2014-02-12T14:20:51Z</time>
      </trkpt>
      <trkpt lat="48.47644" lon="-2.84224">
        <ele>94</ele>
        <time>2014-02-12T14:20:53Z</time>
      </trkpt>
      <trkpt lat="48.47644" lon="-2.8422">
        <ele>94</ele>
        <time>2014-02-12T14:20:55Z</time>
      </trkpt>
      <trkpt lat="48.47644" lon="-2.84215">
        <ele>94</ele>
        <time>2014-02-12T14:20:57Z</time>
      </trkpt>
      <trkpt lat="48.47645" lon="-2.8421">
        <ele>94</ele>
        <time>2014-02-12T14:20:59Z</time>
      </trkpt>
      <trkpt lat="48.47645" lon="-2.84206">
        <ele>94</ele>
        <time>2014-02-12T14:21:01Z</time>
      </trkpt>
      <trkpt lat="48.47644" lon="-2.84202">
        <ele>94</ele>
        <time>2014-02-12T14:21:03Z</time>
      </trkpt>
      <trkpt lat="48.47644" lon="-2.84197">
        <ele>95</ele>
        <time>2014-02-12T14:21:05Z</time>
      </trkpt>
      <trkpt lat="48.47643" lon="-2.84193">
        <ele>95</ele>
        <time>2014-02-12T14:21:07Z</time>
      </trkpt>
      <trkpt lat="48.47642" lon="-2.8419">
        <ele>95</ele>
        <time>2014-02-12T14:21:09Z</time>
      </trkpt>
      <trkpt lat="48.47641" lon="-2.84186">
        <ele>95</ele>
        <time>2014-02-12T14:21:11Z</time>
      </trkpt>
      <trkpt lat="48.4764" lon="-2.8418">
        <ele>95</ele>
        <time>2014-02-12T14:21:13Z</time>
      </trkpt>
      <trkpt lat="48.47639" lon="-2.84176">
        <ele>95</ele>
        <time>2014-02-12T14:21:15Z</time>
      </trkpt>
      <trkpt lat="48.47639" lon="-2.84173">
        <ele>95</ele>
        <time>2014-02-12T14:21:17Z</time>
      </trkpt>
      <trkpt lat="48.47638" lon="-2.84169">
        <ele>95</ele>
        <time>2014-02-12T14:21:19Z</time>
      </trkpt>
      <trkpt lat="48.47638" lon="-2.84165">
        <ele>95</ele>
        <time>2014-02-12T14:21:21Z</time>
      </trkpt>
      <trkpt lat="48.47637" lon="-2.84161">
        <ele>95</ele>
        <time>2014-02-12T14:21:23Z</time>
      </trkpt>
      <trkpt lat="48.47637" lon="-2.84156">
        <ele>95</ele>
        <time>2014-02-12T14:21:25Z</time>
      </trkpt>
      <trkpt lat="48.47636" lon="-2.84152">
        <ele>95</ele>
        <time>2014-02-12T14:21:27Z</time>
      </trkpt>
      <trkpt lat="48.47636" lon="-2.84149">
        <ele>95</ele>
        <time>2014-02-12T14:21:29Z</time>
      </trkpt>
      <trkpt lat="48.47636" lon="-2.84144">
        <ele>95</ele>
        <time>2014-02-12T14:21:31Z</time>
      </trkpt>
      <trkpt lat="48.47636" lon="-2.84139">
        <ele>95</ele>
        <time>2014-02-12T14:21:33Z</time>
      </trkpt>
      <trkpt lat="48.47636" lon="-2.84134">
        <ele>95</ele>
        <time>2014-02-12T14:21:35Z</time>
      </trkpt>
      <trkpt lat="48.47637" lon="-2.84129">
        <ele>95</ele>
        <time>2014-02-12T14:21:37Z</time>
      </trkpt>
      <trkpt lat="48.47638" lon="-2.84124">
        <ele>95</ele>
        <time>2014-02-12T14:21:39Z</time>
      </trkpt>
      <trkpt lat="48.4764" lon="-2.84121">
        <ele>95</ele>
        <time>2014-02-12T14:21:41Z</time>
      </trkpt>
      <trkpt lat="48.47641" lon="-2.84119">
        <ele>95</ele>
        <time>2014-02-12T14:21:43Z</time>
      </trkpt>
      <trkpt lat="48.47643" lon="-2.84119">
        <ele>95</ele>
        <time>2014-02-12T14:21:46Z</time>
      </trkpt>
      <trkpt lat="48.47646" lon="-2.84119">
        <ele>94</ele>
        <time>2014-02-12T14:21:49Z</time>
      </trkpt>
      <trkpt lat="48.47648" lon="-2.8412">
        <ele>94</ele>
        <time>2014-02-12T14:21:52Z</time>
      </trkpt>
      <trkpt lat="48.47649" lon="-2.8412">
        <ele>94</ele>
        <time>2014-02-12T14:21:54Z</time>
      </trkpt>
      <trkpt lat="48.47651" lon="-2.84119">
        <ele>94</ele>
        <time>2014-02-12T14:21:56Z</time>
      </trkpt>
      <trkpt lat="48.47652" lon="-2.84119">
        <ele>94</ele>
        <time>2014-02-12T14:21:58Z</time>
      </trkpt>
      <trkpt lat="48.47654" lon="-2.84117">
        <ele>94</ele>
        <time>2014-02-12T14:22:01Z</time>
      </trkpt>
      <trkpt lat="48.47657" lon="-2.84117">
        <ele>94</ele>
        <time>2014-02-12T14:22:03Z</time>
      </trkpt>
      <trkpt lat="48.47658" lon="-2.84118">
        <ele>94</ele>
        <time>2014-02-12T14:22:17Z</time>
      </trkpt>
      <trkpt lat="48.4766" lon="-2.84119">
        <ele>94</ele>
        <time>2014-02-12T14:22:19Z</time>
      </trkpt>
      <trkpt lat="48.47662" lon="-2.84121">
        <ele>94</ele>
        <time>2014-02-12T14:22:21Z</time>
      </trkpt>
      <trkpt lat="48.47665" lon="-2.84123">
        <ele>94</ele>
        <time>2014-02-12T14:22:23Z</time>
      </trkpt>
      <trkpt lat="48.47668" lon="-2.84125">
        <ele>94</ele>
        <time>2014-02-12T14:22:25Z</time>
      </trkpt>
      <trkpt lat="48.4767" lon="-2.84125">
        <ele>94</ele>
        <time>2014-02-12T14:22:27Z</time>
      </trkpt>
      <trkpt lat="48.47672" lon="-2.84127">
        <ele>94</ele>
        <time>2014-02-12T14:22:29Z</time>
      </trkpt>
      <trkpt lat="48.47675" lon="-2.84129">
        <ele>94</ele>
        <time>2014-02-12T14:22:31Z</time>
      </trkpt>
      <trkpt lat="48.47678" lon="-2.84131">
        <ele>94</ele>
        <time>2014-02-12T14:22:33Z</time>
      </trkpt>
      <trkpt lat="48.47681" lon="-2.84132">
        <ele>94</ele>
        <time>2014-02-12T14:22:35Z</time>
      </trkpt>
      <trkpt lat="48.47684" lon="-2.84132">
        <ele>94</ele>
        <time>2014-02-12T14:22:37Z</time>
      </trkpt>
      <trkpt lat="48.47687" lon="-2.84134">
        <ele>93</ele>
        <time>2014-02-12T14:22:39Z</time>
      </trkpt>
      <trkpt lat="48.4769" lon="-2.84135">
        <ele>93</ele>
        <time>2014-02-12T14:22:41Z</time>
      </trkpt>
      <trkpt lat="48.47693" lon="-2.84135">
        <ele>93</ele>
        <time>2014-02-12T14:22:43Z</time>
      </trkpt>
      <trkpt lat="48.47696" lon="-2.84136">
        <ele>93</ele>
        <time>2014-02-12T14:22:45Z</time>
      </trkpt>
      <trkpt lat="48.47699" lon="-2.84137">
        <ele>93</ele>
        <time>2014-02-12T14:22:48Z</time>
      </trkpt>
      <trkpt lat="48.47702" lon="-2.84138">
        <ele>93</ele>
        <time>2014-02-12T14:22:50Z</time>
      </trkpt>
      <trkpt lat="48.47706" lon="-2.84139">
        <ele>93</ele>
        <time>2014-02-12T14:22:52Z</time>
      </trkpt>
      <trkpt lat="48.47709" lon="-2.8414">
        <ele>93</ele>
        <time>2014-02-12T14:22:54Z</time>
      </trkpt>
      <trkpt lat="48.47712" lon="-2.84141">
        <ele>93</ele>
        <time>2014-02-12T14:22:56Z</time>
      </trkpt>
      <trkpt lat="48.47714" lon="-2.84141">
        <ele>93</ele>
        <time>2014-02-12T14:22:58Z</time>
      </trkpt>
      <trkpt lat="48.47717" lon="-2.84141">
        <ele>93</ele>
        <time>2014-02-12T14:23:00Z</time>
      </trkpt>
      <trkpt lat="48.4772" lon="-2.84142">
        <ele>93</ele>
        <time>2014-02-12T14:23:02Z</time>
      </trkpt>
      <trkpt lat="48.47722" lon="-2.84143">
        <ele>93</ele>
        <time>2014-02-12T14:23:04Z</time>
      </trkpt>
      <trkpt lat="48.47725" lon="-2.84144">
        <ele>93</ele>
        <time>2014-02-12T14:23:06Z</time>
      </trkpt>
      <trkpt lat="48.47728" lon="-2.84146">
        <ele>93</ele>
        <time>2014-02-12T14:23:08Z</time>
      </trkpt>
      <trkpt lat="48.47731" lon="-2.84146">
        <ele>93</ele>
        <time>2014-02-12T14:23:10Z</time>
      </trkpt>
      <trkpt lat="48.47733" lon="-2.84146">
        <ele>93</ele>
        <time>2014-02-12T14:23:12Z</time>
      </trkpt>
      <trkpt lat="48.47735" lon="-2.84146">
        <ele>93</ele>
        <time>2014-02-12T14:23:14Z</time>
      </trkpt>
      <trkpt lat="48.47738" lon="-2.84146">
        <ele>93</ele>
        <time>2014-02-12T14:23:16Z</time>
      </trkpt>
      <trkpt lat="48.47741" lon="-2.84147">
        <ele>93</ele>
        <time>2014-02-12T14:23:18Z</time>
      </trkpt>
      <trkpt lat="48.47744" lon="-2.84148">
        <ele>93</ele>
        <time>2014-02-12T14:23:20Z</time>
      </trkpt>
      <trkpt lat="48.47748" lon="-2.84148">
        <ele>93</ele>
        <time>2014-02-12T14:23:22Z</time>
      </trkpt>
      <trkpt lat="48.4775" lon="-2.84148">
        <ele>93</ele>
        <time>2014-02-12T14:23:24Z</time>
      </trkpt>
      <trkpt lat="48.47753" lon="-2.84148">
        <ele>93</ele>
        <time>2014-02-12T14:23:26Z</time>
      </trkpt>
      <trkpt lat="48.47756" lon="-2.84149">
        <ele>93</ele>
        <time>2014-02-12T14:23:28Z</time>
      </trkpt>
      <trkpt lat="48.47758" lon="-2.84149">
        <ele>93</ele>
        <time>2014-02-12T14:23:30Z</time>
      </trkpt>
      <trkpt lat="48.4776" lon="-2.84148">
        <ele>94</ele>
        <time>2014-02-12T14:23:32Z</time>
      </trkpt>
      <trkpt lat="48.47763" lon="-2.84148">
        <ele>96</ele>
        <time>2014-02-12T14:23:35Z</time>
      </trkpt>
      <trkpt lat="48.47766" lon="-2.84149">
        <ele>97</ele>
        <time>2014-02-12T14:23:37Z</time>
      </trkpt>
      <trkpt lat="48.47768" lon="-2.84149">
        <ele>97</ele>
        <time>2014-02-12T14:23:39Z</time>
      </trkpt>
      <trkpt lat="48.47771" lon="-2.84148">
        <ele>97</ele>
        <time>2014-02-12T14:23:41Z</time>
      </trkpt>
      <trkpt lat="48.47774" lon="-2.84149">
        <ele>98</ele>
        <time>2014-02-12T14:23:43Z</time>
      </trkpt>
      <trkpt lat="48.47777" lon="-2.84149">
        <ele>98</ele>
        <time>2014-02-12T14:23:45Z</time>
      </trkpt>
      <trkpt lat="48.4778" lon="-2.84148">
        <ele>98</ele>
        <time>2014-02-12T14:23:47Z</time>
      </trkpt>
      <trkpt lat="48.47784" lon="-2.84147">
        <ele>98</ele>
        <time>2014-02-12T14:23:49Z</time>
      </trkpt>
      <trkpt lat="48.47787" lon="-2.84146">
        <ele>98</ele>
        <time>2014-02-12T14:23:51Z</time>
      </trkpt>
      <trkpt lat="48.4779" lon="-2.84146">
        <ele>98</ele>
        <time>2014-02-12T14:23:53Z</time>
      </trkpt>
      <trkpt lat="48.47793" lon="-2.84146">
        <ele>98</ele>
        <time>2014-02-12T14:23:55Z</time>
      </trkpt>
      <trkpt lat="48.47797" lon="-2.84146">
        <ele>99</ele>
        <time>2014-02-12T14:23:57Z</time>
      </trkpt>
      <trkpt lat="48.478" lon="-2.84148">
        <ele>100</ele>
        <time>2014-02-12T14:23:59Z</time>
      </trkpt>
      <trkpt lat="48.47801" lon="-2.84147">
        <ele>100</ele>
        <time>2014-02-12T14:24:01Z</time>
      </trkpt>
      <trkpt lat="48.47805" lon="-2.84145">
        <ele>100</ele>
        <time>2014-02-12T14:24:03Z</time>
      </trkpt>
      <trkpt lat="48.47807" lon="-2.84145">
        <ele>100</ele>
        <time>2014-02-12T14:24:05Z</time>
      </trkpt>
      <trkpt lat="48.4781" lon="-2.84146">
        <ele>100</ele>
        <time>2014-02-12T14:24:07Z</time>
      </trkpt>
      <trkpt lat="48.47813" lon="-2.84146">
        <ele>100</ele>
        <time>2014-02-12T14:24:09Z</time>
      </trkpt>
      <trkpt lat="48.47816" lon="-2.84147">
        <ele>100</ele>
        <time>2014-02-12T14:24:11Z</time>
      </trkpt>
      <trkpt lat="48.47819" lon="-2.84149">
        <ele>100</ele>
        <time>2014-02-12T14:24:13Z</time>
      </trkpt>
      <trkpt lat="48.47821" lon="-2.84151">
        <ele>100</ele>
        <time>2014-02-12T14:24:15Z</time>
      </trkpt>
      <trkpt lat="48.47824" lon="-2.84152">
        <ele>100</ele>
        <time>2014-02-12T14:24:17Z</time>
      </trkpt>
      <trkpt lat="48.47827" lon="-2.84153">
        <ele>100</ele>
        <time>2014-02-12T14:24:19Z</time>
      </trkpt>
      <trkpt lat="48.47831" lon="-2.84154">
        <ele>100</ele>
        <time>2014-02-12T14:24:21Z</time>
      </trkpt>
      <trkpt lat="48.47833" lon="-2.84154">
        <ele>100</ele>
        <time>2014-02-12T14:24:23Z</time>
      </trkpt>
      <trkpt lat="48.47836" lon="-2.84153">
        <ele>100</ele>
        <time>2014-02-12T14:24:25Z</time>
      </trkpt>
      <trkpt lat="48.47839" lon="-2.84153">
        <ele>99</ele>
        <time>2014-02-12T14:24:27Z</time>
      </trkpt>
      <trkpt lat="48.47843" lon="-2.8415">
        <ele>98</ele>
        <time>2014-02-12T14:24:30Z</time>
      </trkpt>
      <trkpt lat="48.47846" lon="-2.84149">
        <ele>96</ele>
        <time>2014-02-12T14:24:32Z</time>
      </trkpt>
      <trkpt lat="48.47849" lon="-2.84148">
        <ele>95</ele>
        <time>2014-02-12T14:24:34Z</time>
      </trkpt>
      <trkpt lat="48.47852" lon="-2.84148">
        <ele>94</ele>
        <time>2014-02-12T14:24:36Z</time>
      </trkpt>
      <trkpt lat="48.47857" lon="-2.84148">
        <ele>94</ele>
        <time>2014-02-12T14:24:38Z</time>
      </trkpt>
      <trkpt lat="48.47859" lon="-2.84145">
        <ele>94</ele>
        <time>2014-02-12T14:24:40Z</time>
      </trkpt>
      <trkpt lat="48.47863" lon="-2.84144">
        <ele>94</ele>
        <time>2014-02-12T14:24:42Z</time>
      </trkpt>
      <trkpt lat="48.47867" lon="-2.84143">
        <ele>94</ele>
        <time>2014-02-12T14:24:45Z</time>
      </trkpt>
      <trkpt lat="48.4787" lon="-2.84143">
        <ele>94</ele>
        <time>2014-02-12T14:24:47Z</time>
      </trkpt>
      <trkpt lat="48.47873" lon="-2.84143">
        <ele>94</ele>
        <time>2014-02-12T14:24:49Z</time>
      </trkpt>
      <trkpt lat="48.47876" lon="-2.84142">
        <ele>94</ele>
        <time>2014-02-12T14:24:52Z</time>
      </trkpt>
      <trkpt lat="48.47879" lon="-2.84141">
        <ele>93</ele>
        <time>2014-02-12T14:24:54Z</time>
      </trkpt>
      <trkpt lat="48.47882" lon="-2.8414">
        <ele>93</ele>
        <time>2014-02-12T14:24:56Z</time>
      </trkpt>
      <trkpt lat="48.47885" lon="-2.8414">
        <ele>93</ele>
        <time>2014-02-12T14:24:58Z</time>
      </trkpt>
      <trkpt lat="48.47887" lon="-2.8414">
        <ele>93</ele>
        <time>2014-02-12T14:25:00Z</time>
      </trkpt>
      <trkpt lat="48.4789" lon="-2.8414">
        <ele>93</ele>
        <time>2014-02-12T14:25:02Z</time>
      </trkpt>
      <trkpt lat="48.47893" lon="-2.84139">
        <ele>93</ele>
        <time>2014-02-12T14:25:04Z</time>
      </trkpt>
      <trkpt lat="48.47896" lon="-2.84138">
        <ele>93</ele>
        <time>2014-02-12T14:25:06Z</time>
      </trkpt>
      <trkpt lat="48.47899" lon="-2.84138">
        <ele>93</ele>
        <time>2014-02-12T14:25:08Z</time>
      </trkpt>
      <trkpt lat="48.47902" lon="-2.84138">
        <ele>93</ele>
        <time>2014-02-12T14:25:10Z</time>
      </trkpt>
      <trkpt lat="48.47905" lon="-2.84139">
        <ele>93</ele>
        <time>2014-02-12T14:25:12Z</time>
      </trkpt>
      <trkpt lat="48.47908" lon="-2.8414">
        <ele>93</ele>
        <time>2014-02-12T14:25:14Z</time>
      </trkpt>
      <trkpt lat="48.47911" lon="-2.84144">
        <ele>93</ele>
        <time>2014-02-12T14:25:16Z</time>
      </trkpt>
      <trkpt lat="48.47913" lon="-2.84148">
        <ele>92</ele>
        <time>2014-02-12T14:25:18Z</time>
      </trkpt>
      <trkpt lat="48.47913" lon="-2.84152">
        <ele>91</ele>
        <time>2014-02-12T14:25:20Z</time>
      </trkpt>
      <trkpt lat="48.47915" lon="-2.84156">
        <ele>91</ele>
        <time>2014-02-12T14:25:22Z</time>
      </trkpt>
      <trkpt lat="48.47915" lon="-2.8416">
        <ele>91</ele>
        <time>2014-02-12T14:25:24Z</time>
      </trkpt>
      <trkpt lat="48.47914" lon="-2.84164">
        <ele>90</ele>
        <time>2014-02-12T14:25:26Z</time>
      </trkpt>
      <trkpt lat="48.47914" lon="-2.84168">
        <ele>90</ele>
        <time>2014-02-12T14:25:28Z</time>
      </trkpt>
      <trkpt lat="48.47913" lon="-2.84172">
        <ele>90</ele>
        <time>2014-02-12T14:25:30Z</time>
      </trkpt>
      <trkpt lat="48.47913" lon="-2.84176">
        <ele>90</ele>
        <time>2014-02-12T14:25:32Z</time>
      </trkpt>
      <trkpt lat="48.47912" lon="-2.8418">
        <ele>89</ele>
        <time>2014-02-12T14:25:34Z</time>
      </trkpt>
      <trkpt lat="48.47913" lon="-2.84184">
        <ele>88</ele>
        <time>2014-02-12T14:25:36Z</time>
      </trkpt>
      <trkpt lat="48.47912" lon="-2.84188">
        <ele>88</ele>
        <time>2014-02-12T14:25:38Z</time>
      </trkpt>
      <trkpt lat="48.47911" lon="-2.84192">
        <ele>87</ele>
        <time>2014-02-12T14:25:40Z</time>
      </trkpt>
      <trkpt lat="48.47909" lon="-2.84197">
        <ele>86</ele>
        <time>2014-02-12T14:25:43Z</time>
      </trkpt>
      <trkpt lat="48.47909" lon="-2.84202">
        <ele>86</ele>
        <time>2014-02-12T14:25:46Z</time>
      </trkpt>
      <trkpt lat="48.4791" lon="-2.84206">
        <ele>86</ele>
        <time>2014-02-12T14:25:48Z</time>
      </trkpt>
      <trkpt lat="48.47912" lon="-2.84211">
        <ele>86</ele>
        <time>2014-02-12T14:25:51Z</time>
      </trkpt>
      <trkpt lat="48.47913" lon="-2.84213">
        <ele>86</ele>
        <time>2014-02-12T14:25:53Z</time>
      </trkpt>
      <trkpt lat="48.47917" lon="-2.84215">
        <ele>86</ele>
        <time>2014-02-12T14:25:56Z</time>
      </trkpt>
      <trkpt lat="48.47921" lon="-2.84218">
        <ele>86</ele>
        <time>2014-02-12T14:25:58Z</time>
      </trkpt>
      <trkpt lat="48.47924" lon="-2.84219">
        <ele>86</ele>
        <time>2014-02-12T14:26:00Z</time>
      </trkpt>
      <trkpt lat="48.47927" lon="-2.84219">
        <ele>86</ele>
        <time>2014-02-12T14:26:03Z</time>
      </trkpt>
      <trkpt lat="48.47929" lon="-2.84219">
        <ele>86</ele>
        <time>2014-02-12T14:26:05Z</time>
      </trkpt>
      <trkpt lat="48.47933" lon="-2.84218">
        <ele>86</ele>
        <time>2014-02-12T14:26:07Z</time>
      </trkpt>
      <trkpt lat="48.47935" lon="-2.84218">
        <ele>86</ele>
        <time>2014-02-12T14:26:09Z</time>
      </trkpt>
      <trkpt lat="48.47939" lon="-2.84217">
        <ele>86</ele>
        <time>2014-02-12T14:26:11Z</time>
      </trkpt>
      <trkpt lat="48.47941" lon="-2.84216">
        <ele>86</ele>
        <time>2014-02-12T14:26:13Z</time>
      </trkpt>
      <trkpt lat="48.47943" lon="-2.84215">
        <ele>86</ele>
        <time>2014-02-12T14:26:15Z</time>
      </trkpt>
      <trkpt lat="48.47945" lon="-2.84214">
        <ele>86</ele>
        <time>2014-02-12T14:26:17Z</time>
      </trkpt>
      <trkpt lat="48.47947" lon="-2.84212">
        <ele>86</ele>
        <time>2014-02-12T14:26:19Z</time>
      </trkpt>
      <trkpt lat="48.47951" lon="-2.84211">
        <ele>86</ele>
        <time>2014-02-12T14:26:22Z</time>
      </trkpt>
      <trkpt lat="48.47955" lon="-2.84209">
        <ele>86</ele>
        <time>2014-02-12T14:26:25Z</time>
      </trkpt>
      <trkpt lat="48.47957" lon="-2.84207">
        <ele>86</ele>
        <time>2014-02-12T14:26:27Z</time>
      </trkpt>
      <trkpt lat="48.4796" lon="-2.84202">
        <ele>86</ele>
        <time>2014-02-12T14:26:30Z</time>
      </trkpt>
      <trkpt lat="48.47962" lon="-2.84198">
        <ele>86</ele>
        <time>2014-02-12T14:26:32Z</time>
      </trkpt>
      <trkpt lat="48.47965" lon="-2.84194">
        <ele>87</ele>
        <time>2014-02-12T14:26:35Z</time>
      </trkpt>
      <trkpt lat="48.47966" lon="-2.8419">
        <ele>88</ele>
        <time>2014-02-12T14:26:37Z</time>
      </trkpt>
      <trkpt lat="48.47968" lon="-2.84188">
        <ele>88</ele>
        <time>2014-02-12T14:26:39Z</time>
      </trkpt>
      <trkpt lat="48.47969" lon="-2.84185">
        <ele>88</ele>
        <time>2014-02-12T14:26:41Z</time>
      </trkpt>
      <trkpt lat="48.47971" lon="-2.84182">
        <ele>88</ele>
        <time>2014-02-12T14:26:43Z</time>
      </trkpt>
      <trkpt lat="48.47972" lon="-2.84178">
        <ele>88</ele>
        <time>2014-02-12T14:26:45Z</time>
      </trkpt>
      <trkpt lat="48.47974" lon="-2.84174">
        <ele>88</ele>
        <time>2014-02-12T14:26:47Z</time>
      </trkpt>
      <trkpt lat="48.47976" lon="-2.8417">
        <ele>88</ele>
        <time>2014-02-12T14:26:49Z</time>
      </trkpt>
      <trkpt lat="48.47976" lon="-2.84165">
        <ele>89</ele>
        <time>2014-02-12T14:26:51Z</time>
      </trkpt>
      <trkpt lat="48.47978" lon="-2.84159">
        <ele>90</ele>
        <time>2014-02-12T14:26:53Z</time>
      </trkpt>
      <trkpt lat="48.4798" lon="-2.84155">
        <ele>90</ele>
        <time>2014-02-12T14:26:55Z</time>
      </trkpt>
      <trkpt lat="48.47982" lon="-2.84151">
        <ele>91</ele>
        <time>2014-02-12T14:26:57Z</time>
      </trkpt>
      <trkpt lat="48.47985" lon="-2.84146">
        <ele>92</ele>
        <time>2014-02-12T14:27:00Z</time>
      </trkpt>
      <trkpt lat="48.47988" lon="-2.84143">
        <ele>93</ele>
        <time>2014-02-12T14:27:02Z</time>
      </trkpt>
      <trkpt lat="48.47991" lon="-2.84138">
        <ele>94</ele>
        <time>2014-02-12T14:27:05Z</time>
      </trkpt>
      <trkpt lat="48.47993" lon="-2.84136">
        <ele>94</ele>
        <time>2014-02-12T14:27:07Z</time>
      </trkpt>
      <trkpt lat="48.47996" lon="-2.84134">
        <ele>94</ele>
        <time>2014-02-12T14:27:09Z</time>
      </trkpt>
      <trkpt lat="48.47998" lon="-2.84132">
        <ele>94</ele>
        <time>2014-02-12T14:27:11Z</time>
      </trkpt>
      <trkpt lat="48.48001" lon="-2.84131">
        <ele>95</ele>
        <time>2014-02-12T14:27:13Z</time>
      </trkpt>
      <trkpt lat="48.48004" lon="-2.84132">
        <ele>95</ele>
        <time>2014-02-12T14:27:15Z</time>
      </trkpt>
      <trkpt lat="48.48007" lon="-2.84133">
        <ele>95</ele>
        <time>2014-02-12T14:27:17Z</time>
      </trkpt>
      <trkpt lat="48.48011" lon="-2.84137">
        <ele>96</ele>
        <time>2014-02-12T14:27:20Z</time>
      </trkpt>
      <trkpt lat="48.48014" lon="-2.84139">
        <ele>96</ele>
        <time>2014-02-12T14:27:22Z</time>
      </trkpt>
      <trkpt lat="48.48016" lon="-2.84141">
        <ele>96</ele>
        <time>2014-02-12T14:27:24Z</time>
      </trkpt>
      <trkpt lat="48.48019" lon="-2.84143">
        <ele>96</ele>
        <time>2014-02-12T14:27:26Z</time>
      </trkpt>
      <trkpt lat="48.48022" lon="-2.84146">
        <ele>96</ele>
        <time>2014-02-12T14:27:28Z</time>
      </trkpt>
      <trkpt lat="48.48025" lon="-2.84149">
        <ele>96</ele>
        <time>2014-02-12T14:27:30Z</time>
      </trkpt>
      <trkpt lat="48.48027" lon="-2.84152">
        <ele>96</ele>
        <time>2014-02-12T14:27:32Z</time>
      </trkpt>
      <trkpt lat="48.4803" lon="-2.84155">
        <ele>96</ele>
        <time>2014-02-12T14:27:35Z</time>
      </trkpt>
      <trkpt lat="48.48033" lon="-2.84158">
        <ele>96</ele>
        <time>2014-02-12T14:27:38Z</time>
      </trkpt>
      <trkpt lat="48.48036" lon="-2.84161">
        <ele>96</ele>
        <time>2014-02-12T14:27:40Z</time>
      </trkpt>
      <trkpt lat="48.48038" lon="-2.84163">
        <ele>96</ele>
        <time>2014-02-12T14:27:42Z</time>
      </trkpt>
      <trkpt lat="48.4804" lon="-2.84166">
        <ele>96</ele>
        <time>2014-02-12T14:27:44Z</time>
      </trkpt>
      <trkpt lat="48.48043" lon="-2.8417">
        <ele>96</ele>
        <time>2014-02-12T14:27:46Z</time>
      </trkpt>
      <trkpt lat="48.48045" lon="-2.84174">
        <ele>96</ele>
        <time>2014-02-12T14:27:49Z</time>
      </trkpt>
      <trkpt lat="48.48047" lon="-2.84177">
        <ele>96</ele>
        <time>2014-02-12T14:27:51Z</time>
      </trkpt>
      <trkpt lat="48.48048" lon="-2.84181">
        <ele>96</ele>
        <time>2014-02-12T14:27:53Z</time>
      </trkpt>
      <trkpt lat="48.4805" lon="-2.84185">
        <ele>95</ele>
        <time>2014-02-12T14:27:55Z</time>
      </trkpt>
      <trkpt lat="48.4805" lon="-2.84189">
        <ele>94</ele>
        <time>2014-02-12T14:27:57Z</time>
      </trkpt>
      <trkpt lat="48.48053" lon="-2.84193">
        <ele>94</ele>
        <time>2014-02-12T14:27:59Z</time>
      </trkpt>
      <trkpt lat="48.48054" lon="-2.84197">
        <ele>94</ele>
        <time>2014-02-12T14:28:02Z</time>
      </trkpt>
      <trkpt lat="48.48056" lon="-2.842">
        <ele>94</ele>
        <time>2014-02-12T14:28:04Z</time>
      </trkpt>
      <trkpt lat="48.48057" lon="-2.84205">
        <ele>94</ele>
        <time>2014-02-12T14:28:07Z</time>
      </trkpt>
      <trkpt lat="48.48058" lon="-2.84207">
        <ele>94</ele>
        <time>2014-02-12T14:28:09Z</time>
      </trkpt>
      <trkpt lat="48.4806" lon="-2.84209">
        <ele>94</ele>
        <time>2014-02-12T14:28:11Z</time>
      </trkpt>
      <trkpt lat="48.48063" lon="-2.8421">
        <ele>94</ele>
        <time>2014-02-12T14:28:13Z</time>
      </trkpt>
      <trkpt lat="48.48064" lon="-2.84208">
        <ele>94</ele>
        <time>2014-02-12T14:28:15Z</time>
      </trkpt>
      <trkpt lat="48.48065" lon="-2.84207">
        <ele>95</ele>
        <time>2014-02-12T14:28:20Z</time>
      </trkpt>
      <trkpt lat="48.48065" lon="-2.84205">
        <ele>96</ele>
        <time>2014-02-12T14:28:24Z</time>
      </trkpt>
      <trkpt lat="48.48065" lon="-2.84203">
        <ele>96</ele>
        <time>2014-02-12T14:28:26Z</time>
      </trkpt>
      <trkpt lat="48.48065" lon="-2.84201">
        <ele>96</ele>
        <time>2014-02-12T14:28:29Z</time>
      </trkpt>
      <trkpt lat="48.48064" lon="-2.84199">
        <ele>96</ele>
        <time>2014-02-12T14:28:35Z</time>
      </trkpt>
      <trkpt lat="48.48065" lon="-2.84196">
        <ele>96</ele>
        <time>2014-02-12T14:28:37Z</time>
      </trkpt>
      <trkpt lat="48.48065" lon="-2.84193">
        <ele>96</ele>
        <time>2014-02-12T14:28:39Z</time>
      </trkpt>
      <trkpt lat="48.48064" lon="-2.84188">
        <ele>96</ele>
        <time>2014-02-12T14:28:41Z</time>
      </trkpt>
      <trkpt lat="48.48065" lon="-2.84186">
        <ele>96</ele>
        <time>2014-02-12T14:28:43Z</time>
      </trkpt>
      <trkpt lat="48.48065" lon="-2.84181">
        <ele>96</ele>
        <time>2014-02-12T14:28:46Z</time>
      </trkpt>
      <trkpt lat="48.48065" lon="-2.84179">
        <ele>96</ele>
        <time>2014-02-12T14:28:48Z</time>
      </trkpt>
      <trkpt lat="48.48065" lon="-2.84177">
        <ele>96</ele>
        <time>2014-02-12T14:28:50Z</time>
      </trkpt>
      <trkpt lat="48.48066" lon="-2.84175">
        <ele>93</ele>
        <time>2014-02-12T14:28:54Z</time>
      </trkpt>
      <trkpt lat="48.48066" lon="-2.84172">
        <ele>93</ele>
        <time>2014-02-12T14:28:56Z</time>
      </trkpt>
      <trkpt lat="48.48066" lon="-2.84168">
        <ele>93</ele>
        <time>2014-02-12T14:28:58Z</time>
      </trkpt>
      <trkpt lat="48.48068" lon="-2.84165">
        <ele>92</ele>
        <time>2014-02-12T14:29:00Z</time>
      </trkpt>
      <trkpt lat="48.48069" lon="-2.84163">
        <ele>92</ele>
        <time>2014-02-12T14:29:02Z</time>
      </trkpt>
      <trkpt lat="48.4807" lon="-2.84162">
        <ele>92</ele>
        <time>2014-02-12T14:29:05Z</time>
      </trkpt>
      <trkpt lat="48.4807" lon="-2.8416">
        <ele>92</ele>
        <time>2014-02-12T14:29:09Z</time>
      </trkpt>
      <trkpt lat="48.48072" lon="-2.84158">
        <ele>92</ele>
        <time>2014-02-12T14:29:11Z</time>
      </trkpt>
      <trkpt lat="48.48074" lon="-2.84157">
        <ele>91</ele>
        <time>2014-02-12T14:29:13Z</time>
      </trkpt>
      <trkpt lat="48.48075" lon="-2.84155">
        <ele>91</ele>
        <time>2014-02-12T14:29:16Z</time>
      </trkpt>
      <trkpt lat="48.48077" lon="-2.84152">
        <ele>91</ele>
        <time>2014-02-12T14:29:18Z</time>
      </trkpt>
      <trkpt lat="48.48079" lon="-2.84148">
        <ele>90</ele>
        <time>2014-02-12T14:29:21Z</time>
      </trkpt>
      <trkpt lat="48.48081" lon="-2.84143">
        <ele>89</ele>
        <time>2014-02-12T14:29:24Z</time>
      </trkpt>
      <trkpt lat="48.48083" lon="-2.84142">
        <ele>88</ele>
        <time>2014-02-12T14:29:26Z</time>
      </trkpt>
      <trkpt lat="48.48085" lon="-2.84139">
        <ele>86</ele>
        <time>2014-02-12T14:29:28Z</time>
      </trkpt>
      <trkpt lat="48.48087" lon="-2.84136">
        <ele>86</ele>
        <time>2014-02-12T14:29:30Z</time>
      </trkpt>
      <trkpt lat="48.48088" lon="-2.84133">
        <ele>85</ele>
        <time>2014-02-12T14:29:32Z</time>
      </trkpt>
      <trkpt lat="48.4809" lon="-2.8413">
        <ele>85</ele>
        <time>2014-02-12T14:29:34Z</time>
      </trkpt>
      <trkpt lat="48.48091" lon="-2.84126">
        <ele>85</ele>
        <time>2014-02-12T14:29:36Z</time>
      </trkpt>
      <trkpt lat="48.48093" lon="-2.84121">
        <ele>85</ele>
        <time>2014-02-12T14:29:39Z</time>
      </trkpt>
      <trkpt lat="48.48093" lon="-2.8412">
        <ele>85</ele>
        <time>2014-02-12T14:29:41Z</time>
      </trkpt>
      <trkpt lat="48.48092" lon="-2.84118">
        <ele>85</ele>
        <time>2014-02-12T14:29:45Z</time>
      </trkpt>
      <trkpt lat="48.48091" lon="-2.84116">
        <ele>85</ele>
        <time>2014-02-12T14:29:50Z</time>
      </trkpt>
      <trkpt lat="48.48091" lon="-2.84114">
        <ele>85</ele>
        <time>2014-02-12T14:29:56Z</time>
      </trkpt>
      <trkpt lat="48.48091" lon="-2.84112">
        <ele>85</ele>
        <time>2014-02-12T14:29:58Z</time>
      </trkpt>
      <trkpt lat="48.48092" lon="-2.8411">
        <ele>86</ele>
        <time>2014-02-12T14:30:00Z</time>
      </trkpt>
      <trkpt lat="48.48093" lon="-2.84108">
        <ele>87</ele>
        <time>2014-02-12T14:30:02Z</time>
      </trkpt>
      <trkpt lat="48.48095" lon="-2.84106">
        <ele>87</ele>
        <time>2014-02-12T14:30:04Z</time>
      </trkpt>
      <trkpt lat="48.48099" lon="-2.84105">
        <ele>88</ele>
        <time>2014-02-12T14:30:06Z</time>
      </trkpt>
      <trkpt lat="48.48101" lon="-2.84101">
        <ele>88</ele>
        <time>2014-02-12T14:30:08Z</time>
      </trkpt>
      <trkpt lat="48.48103" lon="-2.84101">
        <ele>88</ele>
        <time>2014-02-12T14:30:10Z</time>
      </trkpt>
      <trkpt lat="48.48105" lon="-2.84102">
        <ele>89</ele>
        <time>2014-02-12T14:30:12Z</time>
      </trkpt>
      <trkpt lat="48.48107" lon="-2.84103">
        <ele>89</ele>
        <time>2014-02-12T14:30:14Z</time>
      </trkpt>
      <trkpt lat="48.48109" lon="-2.84104">
        <ele>89</ele>
        <time>2014-02-12T14:30:16Z</time>
      </trkpt>
      <trkpt lat="48.48111" lon="-2.84105">
        <ele>89</ele>
        <time>2014-02-12T14:30:18Z</time>
      </trkpt>
      <trkpt lat="48.48113" lon="-2.84106">
        <ele>89</ele>
        <time>2014-02-12T14:30:20Z</time>
      </trkpt>
      <trkpt lat="48.48115" lon="-2.84105">
        <ele>89</ele>
        <time>2014-02-12T14:30:22Z</time>
      </trkpt>
      <trkpt lat="48.48117" lon="-2.84107">
        <ele>89</ele>
        <time>2014-02-12T14:30:24Z</time>
      </trkpt>
      <trkpt lat="48.48118" lon="-2.84107">
        <ele>90</ele>
        <time>2014-02-12T14:30:26Z</time>
      </trkpt>
      <trkpt lat="48.48122" lon="-2.84109">
        <ele>90</ele>
        <time>2014-02-12T14:30:28Z</time>
      </trkpt>
      <trkpt lat="48.48124" lon="-2.8411">
        <ele>91</ele>
        <time>2014-02-12T14:30:30Z</time>
      </trkpt>
      <trkpt lat="48.48127" lon="-2.84111">
        <ele>91</ele>
        <time>2014-02-12T14:30:32Z</time>
      </trkpt>
      <trkpt lat="48.4813" lon="-2.84112">
        <ele>91</ele>
        <time>2014-02-12T14:30:34Z</time>
      </trkpt>
      <trkpt lat="48.48133" lon="-2.84111">
        <ele>92</ele>
        <time>2014-02-12T14:30:37Z</time>
      </trkpt>
      <trkpt lat="48.48136" lon="-2.84115">
        <ele>93</ele>
        <time>2014-02-12T14:30:40Z</time>
      </trkpt>
      <trkpt lat="48.48139" lon="-2.84116">
        <ele>93</ele>
        <time>2014-02-12T14:30:42Z</time>
      </trkpt>
      <trkpt lat="48.48141" lon="-2.84116">
        <ele>94</ele>
        <time>2014-02-12T14:30:44Z</time>
      </trkpt>
      <trkpt lat="48.48145" lon="-2.84116">
        <ele>94</ele>
        <time>2014-02-12T14:30:46Z</time>
      </trkpt>
      <trkpt lat="48.48148" lon="-2.84117">
        <ele>94</ele>
        <time>2014-02-12T14:30:48Z</time>
      </trkpt>
      <trkpt lat="48.48151" lon="-2.84117">
        <ele>94</ele>
        <time>2014-02-12T14:30:50Z</time>
      </trkpt>
      <trkpt lat="48.48154" lon="-2.84117">
        <ele>95</ele>
        <time>2014-02-12T14:30:52Z</time>
      </trkpt>
      <trkpt lat="48.48157" lon="-2.84116">
        <ele>95</ele>
        <time>2014-02-12T14:30:54Z</time>
      </trkpt>
      <trkpt lat="48.4816" lon="-2.84115">
        <ele>95</ele>
        <time>2014-02-12T14:30:56Z</time>
      </trkpt>
      <trkpt lat="48.48163" lon="-2.84113">
        <ele>96</ele>
        <time>2014-02-12T14:30:58Z</time>
      </trkpt>
      <trkpt lat="48.48167" lon="-2.84113">
        <ele>96</ele>
        <time>2014-02-12T14:31:00Z</time>
      </trkpt>
      <trkpt lat="48.48169" lon="-2.84112">
        <ele>96</ele>
        <time>2014-02-12T14:31:03Z</time>
      </trkpt>
      <trkpt lat="48.48172" lon="-2.84112">
        <ele>96</ele>
        <time>2014-02-12T14:31:05Z</time>
      </trkpt>
      <trkpt lat="48.48175" lon="-2.84112">
        <ele>96</ele>
        <time>2014-02-12T14:31:07Z</time>
      </trkpt>
      <trkpt lat="48.48178" lon="-2.84111">
        <ele>96</ele>
        <time>2014-02-12T14:31:09Z</time>
      </trkpt>
      <trkpt lat="48.48181" lon="-2.84109">
        <ele>96</ele>
        <time>2014-02-12T14:31:11Z</time>
      </trkpt>
      <trkpt lat="48.48185" lon="-2.84107">
        <ele>96</ele>
        <time>2014-02-12T14:31:13Z</time>
      </trkpt>
      <trkpt lat="48.48188" lon="-2.84107">
        <ele>96</ele>
        <time>2014-02-12T14:31:15Z</time>
      </trkpt>
      <trkpt lat="48.48191" lon="-2.84107">
        <ele>96</ele>
        <time>2014-02-12T14:31:17Z</time>
      </trkpt>
      <trkpt lat="48.48194" lon="-2.84107">
        <ele>96</ele>
        <time>2014-02-12T14:31:19Z</time>
      </trkpt>
      <trkpt lat="48.48198" lon="-2.84106">
        <ele>96</ele>
        <time>2014-02-12T14:31:21Z</time>
      </trkpt>
      <trkpt lat="48.482" lon="-2.84105">
        <ele>96</ele>
        <time>2014-02-12T14:31:23Z</time>
      </trkpt>
      <trkpt lat="48.48203" lon="-2.84104">
        <ele>96</ele>
        <time>2014-02-12T14:31:25Z</time>
      </trkpt>
      <trkpt lat="48.48206" lon="-2.84104">
        <ele>97</ele>
        <time>2014-02-12T14:31:27Z</time>
      </trkpt>
      <trkpt lat="48.48209" lon="-2.84105">
        <ele>97</ele>
        <time>2014-02-12T14:31:29Z</time>
      </trkpt>
      <trkpt lat="48.48213" lon="-2.84107">
        <ele>97</ele>
        <time>2014-02-12T14:31:32Z</time>
      </trkpt>
      <trkpt lat="48.48216" lon="-2.84107">
        <ele>97</ele>
        <time>2014-02-12T14:31:34Z</time>
      </trkpt>
      <trkpt lat="48.4822" lon="-2.84107">
        <ele>97</ele>
        <time>2014-02-12T14:31:36Z</time>
      </trkpt>
      <trkpt lat="48.48223" lon="-2.84106">
        <ele>97</ele>
        <time>2014-02-12T14:31:38Z</time>
      </trkpt>
      <trkpt lat="48.48226" lon="-2.84105">
        <ele>97</ele>
        <time>2014-02-12T14:31:40Z</time>
      </trkpt>
      <trkpt lat="48.48229" lon="-2.84105">
        <ele>97</ele>
        <time>2014-02-12T14:31:42Z</time>
      </trkpt>
      <trkpt lat="48.48232" lon="-2.84105">
        <ele>97</ele>
        <time>2014-02-12T14:31:44Z</time>
      </trkpt>
      <trkpt lat="48.48235" lon="-2.84105">
        <ele>97</ele>
        <time>2014-02-12T14:31:46Z</time>
      </trkpt>
      <trkpt lat="48.48238" lon="-2.84106">
        <ele>97</ele>
        <time>2014-02-12T14:31:48Z</time>
      </trkpt>
      <trkpt lat="48.48242" lon="-2.84105">
        <ele>97</ele>
        <time>2014-02-12T14:31:51Z</time>
      </trkpt>
      <trkpt lat="48.48246" lon="-2.84105">
        <ele>97</ele>
        <time>2014-02-12T14:31:54Z</time>
      </trkpt>
      <trkpt lat="48.4825" lon="-2.84104">
        <ele>97</ele>
        <time>2014-02-12T14:31:56Z</time>
      </trkpt>
      <trkpt lat="48.48252" lon="-2.84103">
        <ele>97</ele>
        <time>2014-02-12T14:31:58Z</time>
      </trkpt>
      <trkpt lat="48.48255" lon="-2.84102">
        <ele>97</ele>
        <time>2014-02-12T14:32:00Z</time>
      </trkpt>
      <trkpt lat="48.48258" lon="-2.84103">
        <ele>97</ele>
        <time>2014-02-12T14:32:02Z</time>
      </trkpt>
      <trkpt lat="48.4826" lon="-2.84102">
        <ele>97</ele>
        <time>2014-02-12T14:32:04Z</time>
      </trkpt>
      <trkpt lat="48.48263" lon="-2.841">
        <ele>97</ele>
        <time>2014-02-12T14:32:06Z</time>
      </trkpt>
      <trkpt lat="48.48266" lon="-2.84099">
        <ele>97</ele>
        <time>2014-02-12T14:32:08Z</time>
      </trkpt>
      <trkpt lat="48.48269" lon="-2.84099">
        <ele>97</ele>
        <time>2014-02-12T14:32:10Z</time>
      </trkpt>
      <trkpt lat="48.48272" lon="-2.84098">
        <ele>97</ele>
        <time>2014-02-12T14:32:12Z</time>
      </trkpt>
      <trkpt lat="48.48275" lon="-2.84097">
        <ele>97</ele>
        <time>2014-02-12T14:32:14Z</time>
      </trkpt>
      <trkpt lat="48.48279" lon="-2.84097">
        <ele>97</ele>
        <time>2014-02-12T14:32:16Z</time>
      </trkpt>
      <trkpt lat="48.48282" lon="-2.84097">
        <ele>97</ele>
        <time>2014-02-12T14:32:18Z</time>
      </trkpt>
      <trkpt lat="48.48285" lon="-2.84096">
        <ele>97</ele>
        <time>2014-02-12T14:32:20Z</time>
      </trkpt>
      <trkpt lat="48.48288" lon="-2.84096">
        <ele>97</ele>
        <time>2014-02-12T14:32:22Z</time>
      </trkpt>
      <trkpt lat="48.48292" lon="-2.84096">
        <ele>97</ele>
        <time>2014-02-12T14:32:24Z</time>
      </trkpt>
      <trkpt lat="48.48295" lon="-2.84095">
        <ele>97</ele>
        <time>2014-02-12T14:32:26Z</time>
      </trkpt>
      <trkpt lat="48.48298" lon="-2.84095">
        <ele>97</ele>
        <time>2014-02-12T14:32:28Z</time>
      </trkpt>
      <trkpt lat="48.48301" lon="-2.84095">
        <ele>97</ele>
        <time>2014-02-12T14:32:30Z</time>
      </trkpt>
      <trkpt lat="48.48304" lon="-2.84092">
        <ele>97</ele>
        <time>2014-02-12T14:32:32Z</time>
      </trkpt>
      <trkpt lat="48.48306" lon="-2.84092">
        <ele>97</ele>
        <time>2014-02-12T14:32:34Z</time>
      </trkpt>
      <trkpt lat="48.48308" lon="-2.84091">
        <ele>97</ele>
        <time>2014-02-12T14:32:36Z</time>
      </trkpt>
      <trkpt lat="48.48311" lon="-2.84092">
        <ele>97</ele>
        <time>2014-02-12T14:32:38Z</time>
      </trkpt>
      <trkpt lat="48.48314" lon="-2.84093">
        <ele>97</ele>
        <time>2014-02-12T14:32:40Z</time>
      </trkpt>
      <trkpt lat="48.48317" lon="-2.84093">
        <ele>97</ele>
        <time>2014-02-12T14:32:43Z</time>
      </trkpt>
      <trkpt lat="48.4832" lon="-2.84093">
        <ele>97</ele>
        <time>2014-02-12T14:32:45Z</time>
      </trkpt>
      <trkpt lat="48.48323" lon="-2.84094">
        <ele>97</ele>
        <time>2014-02-12T14:32:47Z</time>
      </trkpt>
      <trkpt lat="48.48328" lon="-2.84096">
        <ele>97</ele>
        <time>2014-02-12T14:32:49Z</time>
      </trkpt>
      <trkpt lat="48.48331" lon="-2.84095">
        <ele>97</ele>
        <time>2014-02-12T14:32:51Z</time>
      </trkpt>
      <trkpt lat="48.48336" lon="-2.84095">
        <ele>97</ele>
        <time>2014-02-12T14:32:53Z</time>
      </trkpt>
      <trkpt lat="48.48339" lon="-2.84095">
        <ele>97</ele>
        <time>2014-02-12T14:32:55Z</time>
      </trkpt>
      <trkpt lat="48.48341" lon="-2.84093">
        <ele>97</ele>
        <time>2014-02-12T14:32:57Z</time>
      </trkpt>
      <trkpt lat="48.48344" lon="-2.84094">
        <ele>97</ele>
        <time>2014-02-12T14:32:59Z</time>
      </trkpt>
      <trkpt lat="48.48347" lon="-2.84095">
        <ele>97</ele>
        <time>2014-02-12T14:33:01Z</time>
      </trkpt>
      <trkpt lat="48.4835" lon="-2.84096">
        <ele>97</ele>
        <time>2014-02-12T14:33:03Z</time>
      </trkpt>
      <trkpt lat="48.48353" lon="-2.84098">
        <ele>97</ele>
        <time>2014-02-12T14:33:05Z</time>
      </trkpt>
      <trkpt lat="48.48356" lon="-2.84098">
        <ele>97</ele>
        <time>2014-02-12T14:33:09Z</time>
      </trkpt>
      <trkpt lat="48.48359" lon="-2.84099">
        <ele>97</ele>
        <time>2014-02-12T14:33:11Z</time>
      </trkpt>
      <trkpt lat="48.48362" lon="-2.841">
        <ele>97</ele>
        <time>2014-02-12T14:33:13Z</time>
      </trkpt>
      <trkpt lat="48.48365" lon="-2.84101">
        <ele>97</ele>
        <time>2014-02-12T14:33:15Z</time>
      </trkpt>
      <trkpt lat="48.48368" lon="-2.84102">
        <ele>97</ele>
        <time>2014-02-12T14:33:18Z</time>
      </trkpt>
      <trkpt lat="48.4837" lon="-2.84106">
        <ele>97</ele>
        <time>2014-02-12T14:33:20Z</time>
      </trkpt>
      <trkpt lat="48.48372" lon="-2.8411">
        <ele>96</ele>
        <time>2014-02-12T14:33:22Z</time>
      </trkpt>
      <trkpt lat="48.48373" lon="-2.84115">
        <ele>96</ele>
        <time>2014-02-12T14:33:24Z</time>
      </trkpt>
      <trkpt lat="48.48373" lon="-2.84119">
        <ele>95</ele>
        <time>2014-02-12T14:33:26Z</time>
      </trkpt>
      <trkpt lat="48.48373" lon="-2.84123">
        <ele>95</ele>
        <time>2014-02-12T14:33:28Z</time>
      </trkpt>
      <trkpt lat="48.48371" lon="-2.84127">
        <ele>95</ele>
        <time>2014-02-12T14:33:30Z</time>
      </trkpt>
      <trkpt lat="48.4837" lon="-2.84131">
        <ele>95</ele>
        <time>2014-02-12T14:33:32Z</time>
      </trkpt>
      <trkpt lat="48.48369" lon="-2.84136">
        <ele>95</ele>
        <time>2014-02-12T14:33:34Z</time>
      </trkpt>
      <trkpt lat="48.48368" lon="-2.84139">
        <ele>95</ele>
        <time>2014-02-12T14:33:36Z</time>
      </trkpt>
      <trkpt lat="48.48367" lon="-2.84144">
        <ele>95</ele>
        <time>2014-02-12T14:33:39Z</time>
      </trkpt>
      <trkpt lat="48.48367" lon="-2.84149">
        <ele>95</ele>
        <time>2014-02-12T14:33:41Z</time>
      </trkpt>
      <trkpt lat="48.48366" lon="-2.84153">
        <ele>95</ele>
        <time>2014-02-12T14:33:43Z</time>
      </trkpt>
      <trkpt lat="48.48364" lon="-2.84157">
        <ele>95</ele>
        <time>2014-02-12T14:33:45Z</time>
      </trkpt>
      <trkpt lat="48.48362" lon="-2.84161">
        <ele>94</ele>
        <time>2014-02-12T14:33:47Z</time>
      </trkpt>
      <trkpt lat="48.4836" lon="-2.84166">
        <ele>93</ele>
        <time>2014-02-12T14:33:49Z</time>
      </trkpt>
      <trkpt lat="48.48359" lon="-2.84167">
        <ele>93</ele>
        <time>2014-02-12T14:33:51Z</time>
      </trkpt>
      <trkpt lat="48.48357" lon="-2.84171">
        <ele>93</ele>
        <time>2014-02-12T14:33:53Z</time>
      </trkpt>
      <trkpt lat="48.48357" lon="-2.84174">
        <ele>93</ele>
        <time>2014-02-12T14:33:55Z</time>
      </trkpt>
      <trkpt lat="48.48356" lon="-2.84178">
        <ele>93</ele>
        <time>2014-02-12T14:33:57Z</time>
      </trkpt>
      <trkpt lat="48.48355" lon="-2.84181">
        <ele>93</ele>
        <time>2014-02-12T14:33:59Z</time>
      </trkpt>
      <trkpt lat="48.48354" lon="-2.84185">
        <ele>92</ele>
        <time>2014-02-12T14:34:01Z</time>
      </trkpt>
      <trkpt lat="48.48354" lon="-2.84188">
        <ele>91</ele>
        <time>2014-02-12T14:34:03Z</time>
      </trkpt>
      <trkpt lat="48.48354" lon="-2.84191">
        <ele>91</ele>
        <time>2014-02-12T14:34:05Z</time>
      </trkpt>
      <trkpt lat="48.48356" lon="-2.84194">
        <ele>91</ele>
        <time>2014-02-12T14:34:07Z</time>
      </trkpt>
      <trkpt lat="48.48358" lon="-2.84199">
        <ele>91</ele>
        <time>2014-02-12T14:34:10Z</time>
      </trkpt>
      <trkpt lat="48.48359" lon="-2.84203">
        <ele>90</ele>
        <time>2014-02-12T14:34:12Z</time>
      </trkpt>
      <trkpt lat="48.48363" lon="-2.84206">
        <ele>90</ele>
        <time>2014-02-12T14:34:14Z</time>
      </trkpt>
      <trkpt lat="48.48366" lon="-2.84208">
        <ele>90</ele>
        <time>2014-02-12T14:34:16Z</time>
      </trkpt>
      <trkpt lat="48.48369" lon="-2.84212">
        <ele>90</ele>
        <time>2014-02-12T14:34:19Z</time>
      </trkpt>
      <trkpt lat="48.48372" lon="-2.84215">
        <ele>90</ele>
        <time>2014-02-12T14:34:21Z</time>
      </trkpt>
      <trkpt lat="48.48374" lon="-2.84216">
        <ele>90</ele>
        <time>2014-02-12T14:34:23Z</time>
      </trkpt>
      <trkpt lat="48.48377" lon="-2.8422">
        <ele>90</ele>
        <time>2014-02-12T14:34:26Z</time>
      </trkpt>
      <trkpt lat="48.48379" lon="-2.84222">
        <ele>90</ele>
        <time>2014-02-12T14:34:28Z</time>
      </trkpt>
      <trkpt lat="48.48382" lon="-2.84224">
        <ele>90</ele>
        <time>2014-02-12T14:34:30Z</time>
      </trkpt>
      <trkpt lat="48.48385" lon="-2.84225">
        <ele>90</ele>
        <time>2014-02-12T14:34:33Z</time>
      </trkpt>
      <trkpt lat="48.48387" lon="-2.84226">
        <ele>90</ele>
        <time>2014-02-12T14:34:35Z</time>
      </trkpt>
      <trkpt lat="48.48389" lon="-2.84226">
        <ele>90</ele>
        <time>2014-02-12T14:34:37Z</time>
      </trkpt>
      <trkpt lat="48.48392" lon="-2.84227">
        <ele>90</ele>
        <time>2014-02-12T14:34:39Z</time>
      </trkpt>
      <trkpt lat="48.48395" lon="-2.84226">
        <ele>90</ele>
        <time>2014-02-12T14:34:42Z</time>
      </trkpt>
      <trkpt lat="48.48397" lon="-2.84223">
        <ele>91</ele>
        <time>2014-02-12T14:34:44Z</time>
      </trkpt>
      <trkpt lat="48.484" lon="-2.84223">
        <ele>93</ele>
        <time>2014-02-12T14:34:46Z</time>
      </trkpt>
      <trkpt lat="48.48402" lon="-2.84224">
        <ele>95</ele>
        <time>2014-02-12T14:34:48Z</time>
      </trkpt>
      <trkpt lat="48.48405" lon="-2.84226">
        <ele>95</ele>
        <time>2014-02-12T14:34:51Z</time>
      </trkpt>
      <trkpt lat="48.48408" lon="-2.84225">
        <ele>96</ele>
        <time>2014-02-12T14:34:53Z</time>
      </trkpt>
      <trkpt lat="48.4841" lon="-2.84226">
        <ele>96</ele>
        <time>2014-02-12T14:34:55Z</time>
      </trkpt>
      <trkpt lat="48.48413" lon="-2.84226">
        <ele>96</ele>
        <time>2014-02-12T14:34:57Z</time>
      </trkpt>
      <trkpt lat="48.48415" lon="-2.84226">
        <ele>96</ele>
        <time>2014-02-12T14:34:59Z</time>
      </trkpt>
      <trkpt lat="48.48418" lon="-2.84227">
        <ele>96</ele>
        <time>2014-02-12T14:35:01Z</time>
      </trkpt>
      <trkpt lat="48.48421" lon="-2.84228">
        <ele>96</ele>
        <time>2014-02-12T14:35:03Z</time>
      </trkpt>
      <trkpt lat="48.48425" lon="-2.84229">
        <ele>96</ele>
        <time>2014-02-12T14:35:06Z</time>
      </trkpt>
      <trkpt lat="48.48428" lon="-2.8423">
        <ele>96</ele>
        <time>2014-02-12T14:35:08Z</time>
      </trkpt>
      <trkpt lat="48.48429" lon="-2.84229">
        <ele>96</ele>
        <time>2014-02-12T14:35:10Z</time>
      </trkpt>
      <trkpt lat="48.48431" lon="-2.84228">
        <ele>96</ele>
        <time>2014-02-12T14:35:12Z</time>
      </trkpt>
      <trkpt lat="48.48434" lon="-2.84228">
        <ele>97</ele>
        <time>2014-02-12T14:35:14Z</time>
      </trkpt>
      <trkpt lat="48.48437" lon="-2.84229">
        <ele>98</ele>
        <time>2014-02-12T14:35:16Z</time>
      </trkpt>
      <trkpt lat="48.48441" lon="-2.8423">
        <ele>98</ele>
        <time>2014-02-12T14:35:18Z</time>
      </trkpt>
      <trkpt lat="48.48444" lon="-2.84229">
        <ele>98</ele>
        <time>2014-02-12T14:35:21Z</time>
      </trkpt>
      <trkpt lat="48.48447" lon="-2.84232">
        <ele>98</ele>
        <time>2014-02-12T14:35:23Z</time>
      </trkpt>
      <trkpt lat="48.48451" lon="-2.84234">
        <ele>98</ele>
        <time>2014-02-12T14:35:25Z</time>
      </trkpt>
      <trkpt lat="48.48454" lon="-2.84234">
        <ele>98</ele>
        <time>2014-02-12T14:35:27Z</time>
      </trkpt>
      <trkpt lat="48.48457" lon="-2.84235">
        <ele>98</ele>
        <time>2014-02-12T14:35:30Z</time>
      </trkpt>
      <trkpt lat="48.48459" lon="-2.84234">
        <ele>98</ele>
        <time>2014-02-12T14:35:32Z</time>
      </trkpt>
      <trkpt lat="48.48462" lon="-2.84236">
        <ele>98</ele>
        <time>2014-02-12T14:35:34Z</time>
      </trkpt>
      <trkpt lat="48.48464" lon="-2.84238">
        <ele>98</ele>
        <time>2014-02-12T14:35:36Z</time>
      </trkpt>
      <trkpt lat="48.48467" lon="-2.84237">
        <ele>98</ele>
        <time>2014-02-12T14:35:38Z</time>
      </trkpt>
      <trkpt lat="48.4847" lon="-2.84237">
        <ele>98</ele>
        <time>2014-02-12T14:35:40Z</time>
      </trkpt>
      <trkpt lat="48.48473" lon="-2.84237">
        <ele>98</ele>
        <time>2014-02-12T14:35:42Z</time>
      </trkpt>
      <trkpt lat="48.48476" lon="-2.84237">
        <ele>98</ele>
        <time>2014-02-12T14:35:44Z</time>
      </trkpt>
      <trkpt lat="48.48478" lon="-2.84235">
        <ele>98</ele>
        <time>2014-02-12T14:35:46Z</time>
      </trkpt>
      <trkpt lat="48.48481" lon="-2.84235">
        <ele>98</ele>
        <time>2014-02-12T14:35:48Z</time>
      </trkpt>
      <trkpt lat="48.48484" lon="-2.84236">
        <ele>98</ele>
        <time>2014-02-12T14:35:50Z</time>
      </trkpt>
      <trkpt lat="48.48486" lon="-2.84236">
        <ele>98</ele>
        <time>2014-02-12T14:35:52Z</time>
      </trkpt>
      <trkpt lat="48.48489" lon="-2.84237">
        <ele>98</ele>
        <time>2014-02-12T14:35:54Z</time>
      </trkpt>
      <trkpt lat="48.48493" lon="-2.84239">
        <ele>98</ele>
        <time>2014-02-12T14:35:56Z</time>
      </trkpt>
      <trkpt lat="48.48496" lon="-2.8424">
        <ele>97</ele>
        <time>2014-02-12T14:35:58Z</time>
      </trkpt>
      <trkpt lat="48.48499" lon="-2.84241">
        <ele>97</ele>
        <time>2014-02-12T14:36:00Z</time>
      </trkpt>
      <trkpt lat="48.48502" lon="-2.84241">
        <ele>97</ele>
        <time>2014-02-12T14:36:02Z</time>
      </trkpt>
      <trkpt lat="48.48504" lon="-2.84243">
        <ele>97</ele>
        <time>2014-02-12T14:36:04Z</time>
      </trkpt>
      <trkpt lat="48.48507" lon="-2.84244">
        <ele>97</ele>
        <time>2014-02-12T14:36:06Z</time>
      </trkpt>
      <trkpt lat="48.4851" lon="-2.84246">
        <ele>97</ele>
        <time>2014-02-12T14:36:08Z</time>
      </trkpt>
      <trkpt lat="48.48513" lon="-2.84249">
        <ele>96</ele>
        <time>2014-02-12T14:36:10Z</time>
      </trkpt>
      <trkpt lat="48.48516" lon="-2.84251">
        <ele>96</ele>
        <time>2014-02-12T14:36:12Z</time>
      </trkpt>
      <trkpt lat="48.48519" lon="-2.84255">
        <ele>95</ele>
        <time>2014-02-12T14:36:14Z</time>
      </trkpt>
      <trkpt lat="48.48522" lon="-2.84259">
        <ele>94</ele>
        <time>2014-02-12T14:36:17Z</time>
      </trkpt>
      <trkpt lat="48.48526" lon="-2.84262">
        <ele>93</ele>
        <time>2014-02-12T14:36:20Z</time>
      </trkpt>
      <trkpt lat="48.48529" lon="-2.84263">
        <ele>92</ele>
        <time>2014-02-12T14:36:22Z</time>
      </trkpt>
      <trkpt lat="48.48531" lon="-2.84264">
        <ele>91</ele>
        <time>2014-02-12T14:36:24Z</time>
      </trkpt>
      <trkpt lat="48.48534" lon="-2.84264">
        <ele>91</ele>
        <time>2014-02-12T14:36:26Z</time>
      </trkpt>
      <trkpt lat="48.48537" lon="-2.84264">
        <ele>91</ele>
        <time>2014-02-12T14:36:28Z</time>
      </trkpt>
      <trkpt lat="48.48541" lon="-2.84265">
        <ele>91</ele>
        <time>2014-02-12T14:36:30Z</time>
      </trkpt>
      <trkpt lat="48.48544" lon="-2.84265">
        <ele>91</ele>
        <time>2014-02-12T14:36:32Z</time>
      </trkpt>
      <trkpt lat="48.48547" lon="-2.84264">
        <ele>90</ele>
        <time>2014-02-12T14:36:34Z</time>
      </trkpt>
      <trkpt lat="48.4855" lon="-2.84264">
        <ele>89</ele>
        <time>2014-02-12T14:36:36Z</time>
      </trkpt>
      <trkpt lat="48.48552" lon="-2.84263">
        <ele>89</ele>
        <time>2014-02-12T14:36:38Z</time>
      </trkpt>
      <trkpt lat="48.48555" lon="-2.84261">
        <ele>88</ele>
        <time>2014-02-12T14:36:40Z</time>
      </trkpt>
      <trkpt lat="48.48557" lon="-2.8426">
        <ele>88</ele>
        <time>2014-02-12T14:36:42Z</time>
      </trkpt>
      <trkpt lat="48.4856" lon="-2.84261">
        <ele>88</ele>
        <time>2014-02-12T14:36:44Z</time>
      </trkpt>
      <trkpt lat="48.48563" lon="-2.84263">
        <ele>88</ele>
        <time>2014-02-12T14:36:46Z</time>
      </trkpt>
      <trkpt lat="48.48566" lon="-2.84265">
        <ele>88</ele>
        <time>2014-02-12T14:36:48Z</time>
      </trkpt>
      <trkpt lat="48.48569" lon="-2.84267">
        <ele>88</ele>
        <time>2014-02-12T14:36:50Z</time>
      </trkpt>
      <trkpt lat="48.48572" lon="-2.84268">
        <ele>88</ele>
        <time>2014-02-12T14:36:52Z</time>
      </trkpt>
      <trkpt lat="48.48575" lon="-2.84268">
        <ele>88</ele>
        <time>2014-02-12T14:36:54Z</time>
      </trkpt>
      <trkpt lat="48.48579" lon="-2.8427">
        <ele>88</ele>
        <time>2014-02-12T14:36:57Z</time>
      </trkpt>
      <trkpt lat="48.48582" lon="-2.84272">
        <ele>88</ele>
        <time>2014-02-12T14:36:59Z</time>
      </trkpt>
      <trkpt lat="48.48586" lon="-2.84275">
        <ele>88</ele>
        <time>2014-02-12T14:37:02Z</time>
      </trkpt>
      <trkpt lat="48.48588" lon="-2.84276">
        <ele>88</ele>
        <time>2014-02-12T14:37:04Z</time>
      </trkpt>
      <trkpt lat="48.48592" lon="-2.84279">
        <ele>88</ele>
        <time>2014-02-12T14:37:06Z</time>
      </trkpt>
      <trkpt lat="48.48594" lon="-2.84282">
        <ele>88</ele>
        <time>2014-02-12T14:37:08Z</time>
      </trkpt>
      <trkpt lat="48.48597" lon="-2.84284">
        <ele>88</ele>
        <time>2014-02-12T14:37:11Z</time>
      </trkpt>
      <trkpt lat="48.486" lon="-2.84286">
        <ele>88</ele>
        <time>2014-02-12T14:37:13Z</time>
      </trkpt>
      <trkpt lat="48.48604" lon="-2.84291">
        <ele>88</ele>
        <time>2014-02-12T14:37:16Z</time>
      </trkpt>
      <trkpt lat="48.48608" lon="-2.84294">
        <ele>88</ele>
        <time>2014-02-12T14:37:19Z</time>
      </trkpt>
      <trkpt lat="48.48611" lon="-2.84297">
        <ele>88</ele>
        <time>2014-02-12T14:37:21Z</time>
      </trkpt>
      <trkpt lat="48.48614" lon="-2.843">
        <ele>88</ele>
        <time>2014-02-12T14:37:23Z</time>
      </trkpt>
      <trkpt lat="48.48617" lon="-2.84304">
        <ele>88</ele>
        <time>2014-02-12T14:37:26Z</time>
      </trkpt>
      <trkpt lat="48.48619" lon="-2.84307">
        <ele>88</ele>
        <time>2014-02-12T14:37:28Z</time>
      </trkpt>
      <trkpt lat="48.48622" lon="-2.84312">
        <ele>88</ele>
        <time>2014-02-12T14:37:31Z</time>
      </trkpt>
      <trkpt lat="48.48626" lon="-2.84315">
        <ele>88</ele>
        <time>2014-02-12T14:37:34Z</time>
      </trkpt>
      <trkpt lat="48.48628" lon="-2.84317">
        <ele>88</ele>
        <time>2014-02-12T14:37:36Z</time>
      </trkpt>
      <trkpt lat="48.48631" lon="-2.8432">
        <ele>88</ele>
        <time>2014-02-12T14:37:38Z</time>
      </trkpt>
      <trkpt lat="48.48634" lon="-2.84324">
        <ele>88</ele>
        <time>2014-02-12T14:37:41Z</time>
      </trkpt>
      <trkpt lat="48.48637" lon="-2.84327">
        <ele>88</ele>
        <time>2014-02-12T14:37:43Z</time>
      </trkpt>
      <trkpt lat="48.4864" lon="-2.84329">
        <ele>88</ele>
        <time>2014-02-12T14:37:45Z</time>
      </trkpt>
      <trkpt lat="48.48643" lon="-2.84331">
        <ele>88</ele>
        <time>2014-02-12T14:37:47Z</time>
      </trkpt>
      <trkpt lat="48.48645" lon="-2.84332">
        <ele>88</ele>
        <time>2014-02-12T14:37:49Z</time>
      </trkpt>
      <trkpt lat="48.48647" lon="-2.84334">
        <ele>88</ele>
        <time>2014-02-12T14:37:51Z</time>
      </trkpt>
      <trkpt lat="48.48649" lon="-2.84335">
        <ele>88</ele>
        <time>2014-02-12T14:37:53Z</time>
      </trkpt>
      <trkpt lat="48.48652" lon="-2.84336">
        <ele>88</ele>
        <time>2014-02-12T14:37:55Z</time>
      </trkpt>
      <trkpt lat="48.48655" lon="-2.84338">
        <ele>88</ele>
        <time>2014-02-12T14:37:57Z</time>
      </trkpt>
      <trkpt lat="48.48658" lon="-2.84341">
        <ele>88</ele>
        <time>2014-02-12T14:37:59Z</time>
      </trkpt>
      <trkpt lat="48.48661" lon="-2.84341">
        <ele>88</ele>
        <time>2014-02-12T14:38:01Z</time>
      </trkpt>
      <trkpt lat="48.48664" lon="-2.84342">
        <ele>88</ele>
        <time>2014-02-12T14:38:04Z</time>
      </trkpt>
      <trkpt lat="48.48667" lon="-2.84344">
        <ele>89</ele>
        <time>2014-02-12T14:38:06Z</time>
      </trkpt>
      <trkpt lat="48.4867" lon="-2.84347">
        <ele>89</ele>
        <time>2014-02-12T14:38:08Z</time>
      </trkpt>
      <trkpt lat="48.48673" lon="-2.84349">
        <ele>89</ele>
        <time>2014-02-12T14:38:10Z</time>
      </trkpt>
      <trkpt lat="48.48677" lon="-2.8435">
        <ele>89</ele>
        <time>2014-02-12T14:38:12Z</time>
      </trkpt>
      <trkpt lat="48.48679" lon="-2.84351">
        <ele>89</ele>
        <time>2014-02-12T14:38:14Z</time>
      </trkpt>
      <trkpt lat="48.48682" lon="-2.84352">
        <ele>89</ele>
        <time>2014-02-12T14:38:16Z</time>
      </trkpt>
      <trkpt lat="48.48684" lon="-2.84351">
        <ele>89</ele>
        <time>2014-02-12T14:38:18Z</time>
      </trkpt>
      <trkpt lat="48.48687" lon="-2.84353">
        <ele>89</ele>
        <time>2014-02-12T14:38:20Z</time>
      </trkpt>
      <trkpt lat="48.4869" lon="-2.84354">
        <ele>89</ele>
        <time>2014-02-12T14:38:22Z</time>
      </trkpt>
      <trkpt lat="48.48694" lon="-2.84356">
        <ele>89</ele>
        <time>2014-02-12T14:38:24Z</time>
      </trkpt>
      <trkpt lat="48.48697" lon="-2.84358">
        <ele>89</ele>
        <time>2014-02-12T14:38:26Z</time>
      </trkpt>
      <trkpt lat="48.487" lon="-2.8436">
        <ele>89</ele>
        <time>2014-02-12T14:38:28Z</time>
      </trkpt>
      <trkpt lat="48.48703" lon="-2.84361">
        <ele>89</ele>
        <time>2014-02-12T14:38:30Z</time>
      </trkpt>
      <trkpt lat="48.48707" lon="-2.84362">
        <ele>89</ele>
        <time>2014-02-12T14:38:32Z</time>
      </trkpt>
      <trkpt lat="48.4871" lon="-2.84363">
        <ele>89</ele>
        <time>2014-02-12T14:38:34Z</time>
      </trkpt>
      <trkpt lat="48.48713" lon="-2.84364">
        <ele>89</ele>
        <time>2014-02-12T14:38:36Z</time>
      </trkpt>
      <trkpt lat="48.48716" lon="-2.84365">
        <ele>89</ele>
        <time>2014-02-12T14:38:38Z</time>
      </trkpt>
      <trkpt lat="48.48719" lon="-2.84367">
        <ele>89</ele>
        <time>2014-02-12T14:38:40Z</time>
      </trkpt>
      <trkpt lat="48.48722" lon="-2.84368">
        <ele>89</ele>
        <time>2014-02-12T14:38:42Z</time>
      </trkpt>
      <trkpt lat="48.48725" lon="-2.84369">
        <ele>89</ele>
        <time>2014-02-12T14:38:44Z</time>
      </trkpt>
      <trkpt lat="48.48729" lon="-2.84371">
        <ele>89</ele>
        <time>2014-02-12T14:38:46Z</time>
      </trkpt>
      <trkpt lat="48.48732" lon="-2.84373">
        <ele>89</ele>
        <time>2014-02-12T14:38:49Z</time>
      </trkpt>
      <trkpt lat="48.48735" lon="-2.84374">
        <ele>89</ele>
        <time>2014-02-12T14:38:51Z</time>
      </trkpt>
      <trkpt lat="48.48737" lon="-2.84374">
        <ele>88</ele>
        <time>2014-02-12T14:38:53Z</time>
      </trkpt>
      <trkpt lat="48.4874" lon="-2.84375">
        <ele>88</ele>
        <time>2014-02-12T14:38:55Z</time>
      </trkpt>
      <trkpt lat="48.48743" lon="-2.84375">
        <ele>87</ele>
        <time>2014-02-12T14:38:57Z</time>
      </trkpt>
      <trkpt lat="48.48746" lon="-2.84376">
        <ele>87</ele>
        <time>2014-02-12T14:38:59Z</time>
      </trkpt>
      <trkpt lat="48.48749" lon="-2.84376">
        <ele>87</ele>
        <time>2014-02-12T14:39:01Z</time>
      </trkpt>
      <trkpt lat="48.48751" lon="-2.84377">
        <ele>86</ele>
        <time>2014-02-12T14:39:03Z</time>
      </trkpt>
      <trkpt lat="48.48754" lon="-2.84377">
        <ele>85</ele>
        <time>2014-02-12T14:39:05Z</time>
      </trkpt>
      <trkpt lat="48.48758" lon="-2.84379">
        <ele>84</ele>
        <time>2014-02-12T14:39:07Z</time>
      </trkpt>
      <trkpt lat="48.48761" lon="-2.84381">
        <ele>84</ele>
        <time>2014-02-12T14:39:09Z</time>
      </trkpt>
      <trkpt lat="48.48764" lon="-2.8438">
        <ele>84</ele>
        <time>2014-02-12T14:39:11Z</time>
      </trkpt>
      <trkpt lat="48.48769" lon="-2.8438">
        <ele>84</ele>
        <time>2014-02-12T14:39:14Z</time>
      </trkpt>
      <trkpt lat="48.48772" lon="-2.84378">
        <ele>84</ele>
        <time>2014-02-12T14:39:16Z</time>
      </trkpt>
      <trkpt lat="48.48774" lon="-2.84378">
        <ele>84</ele>
        <time>2014-02-12T14:39:18Z</time>
      </trkpt>
      <trkpt lat="48.48777" lon="-2.84378">
        <ele>84</ele>
        <time>2014-02-12T14:39:20Z</time>
      </trkpt>
      <trkpt lat="48.4878" lon="-2.84377">
        <ele>84</ele>
        <time>2014-02-12T14:39:22Z</time>
      </trkpt>
      <trkpt lat="48.48783" lon="-2.84376">
        <ele>84</ele>
        <time>2014-02-12T14:39:24Z</time>
      </trkpt>
      <trkpt lat="48.48785" lon="-2.84376">
        <ele>84</ele>
        <time>2014-02-12T14:39:26Z</time>
      </trkpt>
      <trkpt lat="48.48789" lon="-2.84374">
        <ele>84</ele>
        <time>2014-02-12T14:39:29Z</time>
      </trkpt>
      <trkpt lat="48.4879" lon="-2.84373">
        <ele>84</ele>
        <time>2014-02-12T14:39:31Z</time>
      </trkpt>
      <trkpt lat="48.48793" lon="-2.84376">
        <ele>84</ele>
        <time>2014-02-12T14:39:34Z</time>
      </trkpt>
      <trkpt lat="48.48795" lon="-2.84377">
        <ele>84</ele>
        <time>2014-02-12T14:39:36Z</time>
      </trkpt>
      <trkpt lat="48.48797" lon="-2.84376">
        <ele>84</ele>
        <time>2014-02-12T14:39:38Z</time>
      </trkpt>
      <trkpt lat="48.488" lon="-2.84377">
        <ele>84</ele>
        <time>2014-02-12T14:39:40Z</time>
      </trkpt>
      <trkpt lat="48.48803" lon="-2.84377">
        <ele>84</ele>
        <time>2014-02-12T14:39:42Z</time>
      </trkpt>
      <trkpt lat="48.48807" lon="-2.84376">
        <ele>84</ele>
        <time>2014-02-12T14:39:45Z</time>
      </trkpt>
      <trkpt lat="48.4881" lon="-2.84376">
        <ele>84</ele>
        <time>2014-02-12T14:39:47Z</time>
      </trkpt>
      <trkpt lat="48.48813" lon="-2.84375">
        <ele>84</ele>
        <time>2014-02-12T14:39:51Z</time>
      </trkpt>
      <trkpt lat="48.48816" lon="-2.84375">
        <ele>84</ele>
        <time>2014-02-12T14:39:53Z</time>
      </trkpt>
      <trkpt lat="48.48819" lon="-2.84375">
        <ele>84</ele>
        <time>2014-02-12T14:39:55Z</time>
      </trkpt>
      <trkpt lat="48.48821" lon="-2.84377">
        <ele>84</ele>
        <time>2014-02-12T14:39:57Z</time>
      </trkpt>
      <trkpt lat="48.48824" lon="-2.84378">
        <ele>84</ele>
        <time>2014-02-12T14:39:59Z</time>
      </trkpt>
      <trkpt lat="48.4883" lon="-2.84377">
        <ele>84</ele>
        <time>2014-02-12T14:40:03Z</time>
      </trkpt>
      <trkpt lat="48.48832" lon="-2.84377">
        <ele>84</ele>
        <time>2014-02-12T14:40:05Z</time>
      </trkpt>
      <trkpt lat="48.48835" lon="-2.84377">
        <ele>84</ele>
        <time>2014-02-12T14:40:07Z</time>
      </trkpt>
      <trkpt lat="48.48837" lon="-2.84379">
        <ele>84</ele>
        <time>2014-02-12T14:40:09Z</time>
      </trkpt>
      <trkpt lat="48.48839" lon="-2.84379">
        <ele>84</ele>
        <time>2014-02-12T14:40:11Z</time>
      </trkpt>
      <trkpt lat="48.48842" lon="-2.8438">
        <ele>84</ele>
        <time>2014-02-12T14:40:13Z</time>
      </trkpt>
      <trkpt lat="48.48845" lon="-2.84379">
        <ele>84</ele>
        <time>2014-02-12T14:40:15Z</time>
      </trkpt>
      <trkpt lat="48.48847" lon="-2.84378">
        <ele>84</ele>
        <time>2014-02-12T14:40:17Z</time>
      </trkpt>
      <trkpt lat="48.48849" lon="-2.84378">
        <ele>84</ele>
        <time>2014-02-12T14:40:19Z</time>
      </trkpt>
      <trkpt lat="48.48853" lon="-2.84378">
        <ele>84</ele>
        <time>2014-02-12T14:40:22Z</time>
      </trkpt>
      <trkpt lat="48.48854" lon="-2.84377">
        <ele>84</ele>
        <time>2014-02-12T14:40:24Z</time>
      </trkpt>
      <trkpt lat="48.48857" lon="-2.84377">
        <ele>84</ele>
        <time>2014-02-12T14:40:26Z</time>
      </trkpt>
      <trkpt lat="48.4886" lon="-2.84376">
        <ele>84</ele>
        <time>2014-02-12T14:40:28Z</time>
      </trkpt>
      <trkpt lat="48.48862" lon="-2.84376">
        <ele>84</ele>
        <time>2014-02-12T14:40:30Z</time>
      </trkpt>
      <trkpt lat="48.48864" lon="-2.84375">
        <ele>85</ele>
        <time>2014-02-12T14:40:32Z</time>
      </trkpt>
      <trkpt lat="48.48867" lon="-2.84376">
        <ele>85</ele>
        <time>2014-02-12T14:40:34Z</time>
      </trkpt>
      <trkpt lat="48.48869" lon="-2.84377">
        <ele>86</ele>
        <time>2014-02-12T14:40:36Z</time>
      </trkpt>
      <trkpt lat="48.48873" lon="-2.84377">
        <ele>86</ele>
        <time>2014-02-12T14:40:38Z</time>
      </trkpt>
      <trkpt lat="48.48876" lon="-2.84376">
        <ele>86</ele>
        <time>2014-02-12T14:40:40Z</time>
      </trkpt>
      <trkpt lat="48.4888" lon="-2.84376">
        <ele>86</ele>
        <time>2014-02-12T14:40:42Z</time>
      </trkpt>
      <trkpt lat="48.48883" lon="-2.84376">
        <ele>87</ele>
        <time>2014-02-12T14:40:44Z</time>
      </trkpt>
      <trkpt lat="48.48886" lon="-2.84376">
        <ele>87</ele>
        <time>2014-02-12T14:40:46Z</time>
      </trkpt>
      <trkpt lat="48.48889" lon="-2.84376">
        <ele>87</ele>
        <time>2014-02-12T14:40:48Z</time>
      </trkpt>
      <trkpt lat="48.48893" lon="-2.84377">
        <ele>87</ele>
        <time>2014-02-12T14:40:50Z</time>
      </trkpt>
      <trkpt lat="48.48895" lon="-2.84377">
        <ele>87</ele>
        <time>2014-02-12T14:40:52Z</time>
      </trkpt>
      <trkpt lat="48.48898" lon="-2.84378">
        <ele>87</ele>
        <time>2014-02-12T14:40:54Z</time>
      </trkpt>
      <trkpt lat="48.48901" lon="-2.84378">
        <ele>87</ele>
        <time>2014-02-12T14:40:56Z</time>
      </trkpt>
      <trkpt lat="48.48904" lon="-2.84379">
        <ele>87</ele>
        <time>2014-02-12T14:40:58Z</time>
      </trkpt>
      <trkpt lat="48.48907" lon="-2.84379">
        <ele>87</ele>
        <time>2014-02-12T14:41:00Z</time>
      </trkpt>
      <trkpt lat="48.4891" lon="-2.84379">
        <ele>87</ele>
        <time>2014-02-12T14:41:02Z</time>
      </trkpt>
      <trkpt lat="48.48913" lon="-2.8438">
        <ele>87</ele>
        <time>2014-02-12T14:41:04Z</time>
      </trkpt>
      <trkpt lat="48.48912" lon="-2.8438">
        <ele>87</ele>
        <time>2014-02-12T14:41:06Z</time>
      </trkpt>
      <trkpt lat="48.4891" lon="-2.8438">
        <ele>87</ele>
        <time>2014-02-12T14:41:08Z</time>
      </trkpt>
      <trkpt lat="48.48912" lon="-2.8438">
        <ele>87</ele>
        <time>2014-02-12T14:41:13Z</time>
      </trkpt>
      <trkpt lat="48.48915" lon="-2.84381">
        <ele>87</ele>
        <time>2014-02-12T14:41:15Z</time>
      </trkpt>
      <trkpt lat="48.48918" lon="-2.8438">
        <ele>87</ele>
        <time>2014-02-12T14:41:17Z</time>
      </trkpt>
      <trkpt lat="48.48921" lon="-2.8438">
        <ele>87</ele>
        <time>2014-02-12T14:41:19Z</time>
      </trkpt>
      <trkpt lat="48.48924" lon="-2.8438">
        <ele>87</ele>
        <time>2014-02-12T14:41:21Z</time>
      </trkpt>
      <trkpt lat="48.48927" lon="-2.8438">
        <ele>87</ele>
        <time>2014-02-12T14:41:23Z</time>
      </trkpt>
      <trkpt lat="48.4893" lon="-2.8438">
        <ele>87</ele>
        <time>2014-02-12T14:41:25Z</time>
      </trkpt>
      <trkpt lat="48.48933" lon="-2.84381">
        <ele>87</ele>
        <time>2014-02-12T14:41:27Z</time>
      </trkpt>
      <trkpt lat="48.48937" lon="-2.84381">
        <ele>87</ele>
        <time>2014-02-12T14:41:29Z</time>
      </trkpt>
      <trkpt lat="48.4894" lon="-2.84381">
        <ele>87</ele>
        <time>2014-02-12T14:41:31Z</time>
      </trkpt>
      <trkpt lat="48.48942" lon="-2.84381">
        <ele>87</ele>
        <time>2014-02-12T14:41:33Z</time>
      </trkpt>
      <trkpt lat="48.48945" lon="-2.84381">
        <ele>87</ele>
        <time>2014-02-12T14:41:35Z</time>
      </trkpt>
      <trkpt lat="48.48949" lon="-2.84381">
        <ele>87</ele>
        <time>2014-02-12T14:41:37Z</time>
      </trkpt>
      <trkpt lat="48.48951" lon="-2.8438">
        <ele>87</ele>
        <time>2014-02-12T14:41:39Z</time>
      </trkpt>
      <trkpt lat="48.48955" lon="-2.8438">
        <ele>87</ele>
        <time>2014-02-12T14:41:41Z</time>
      </trkpt>
      <trkpt lat="48.48958" lon="-2.8438">
        <ele>87</ele>
        <time>2014-02-12T14:41:43Z</time>
      </trkpt>
      <trkpt lat="48.48961" lon="-2.84381">
        <ele>87</ele>
        <time>2014-02-12T14:41:45Z</time>
      </trkpt>
      <trkpt lat="48.48964" lon="-2.84382">
        <ele>87</ele>
        <time>2014-02-12T14:41:47Z</time>
      </trkpt>
      <trkpt lat="48.48967" lon="-2.84382">
        <ele>87</ele>
        <time>2014-02-12T14:41:49Z</time>
      </trkpt>
      <trkpt lat="48.4897" lon="-2.8438">
        <ele>87</ele>
        <time>2014-02-12T14:41:51Z</time>
      </trkpt>
      <trkpt lat="48.48973" lon="-2.84378">
        <ele>87</ele>
        <time>2014-02-12T14:41:53Z</time>
      </trkpt>
      <trkpt lat="48.48976" lon="-2.84377">
        <ele>87</ele>
        <time>2014-02-12T14:41:55Z</time>
      </trkpt>
      <trkpt lat="48.48979" lon="-2.84375">
        <ele>88</ele>
        <time>2014-02-12T14:41:57Z</time>
      </trkpt>
      <trkpt lat="48.48982" lon="-2.84373">
        <ele>88</ele>
        <time>2014-02-12T14:42:00Z</time>
      </trkpt>
      <trkpt lat="48.48984" lon="-2.84373">
        <ele>89</ele>
        <time>2014-02-12T14:42:05Z</time>
      </trkpt>
      <trkpt lat="48.48985" lon="-2.84367">
        <ele>89</ele>
        <time>2014-02-12T14:42:09Z</time>
      </trkpt>
      <trkpt lat="48.48985" lon="-2.84363">
        <ele>89</ele>
        <time>2014-02-12T14:42:11Z</time>
      </trkpt>
      <trkpt lat="48.48985" lon="-2.84359">
        <ele>89</ele>
        <time>2014-02-12T14:42:13Z</time>
      </trkpt>
      <trkpt lat="48.48984" lon="-2.84355">
        <ele>89</ele>
        <time>2014-02-12T14:42:15Z</time>
      </trkpt>
      <trkpt lat="48.48984" lon="-2.84351">
        <ele>89</ele>
        <time>2014-02-12T14:42:17Z</time>
      </trkpt>
      <trkpt lat="48.48984" lon="-2.84346">
        <ele>89</ele>
        <time>2014-02-12T14:42:19Z</time>
      </trkpt>
      <trkpt lat="48.48983" lon="-2.84342">
        <ele>89</ele>
        <time>2014-02-12T14:42:21Z</time>
      </trkpt>
      <trkpt lat="48.48983" lon="-2.84337">
        <ele>89</ele>
        <time>2014-02-12T14:42:23Z</time>
      </trkpt>
      <trkpt lat="48.48983" lon="-2.84332">
        <ele>89</ele>
        <time>2014-02-12T14:42:25Z</time>
      </trkpt>
      <trkpt lat="48.48983" lon="-2.84328">
        <ele>89</ele>
        <time>2014-02-12T14:42:27Z</time>
      </trkpt>
      <trkpt lat="48.48983" lon="-2.84324">
        <ele>89</ele>
        <time>2014-02-12T14:42:29Z</time>
      </trkpt>
      <trkpt lat="48.48982" lon="-2.84319">
        <ele>89</ele>
        <time>2014-02-12T14:42:31Z</time>
      </trkpt>
      <trkpt lat="48.48982" lon="-2.84314">
        <ele>89</ele>
        <time>2014-02-12T14:42:33Z</time>
      </trkpt>
      <trkpt lat="48.48982" lon="-2.8431">
        <ele>89</ele>
        <time>2014-02-12T14:42:35Z</time>
      </trkpt>
      <trkpt lat="48.48981" lon="-2.84305">
        <ele>89</ele>
        <time>2014-02-12T14:42:37Z</time>
      </trkpt>
      <trkpt lat="48.48981" lon="-2.843">
        <ele>89</ele>
        <time>2014-02-12T14:42:39Z</time>
      </trkpt>
      <trkpt lat="48.48981" lon="-2.84296">
        <ele>89</ele>
        <time>2014-02-12T14:42:41Z</time>
      </trkpt>
      <trkpt lat="48.48981" lon="-2.84291">
        <ele>89</ele>
        <time>2014-02-12T14:42:43Z</time>
      </trkpt>
      <trkpt lat="48.48981" lon="-2.84286">
        <ele>89</ele>
        <time>2014-02-12T14:42:45Z</time>
      </trkpt>
      <trkpt lat="48.48981" lon="-2.84282">
        <ele>89</ele>
        <time>2014-02-12T14:42:47Z</time>
      </trkpt>
      <trkpt lat="48.48981" lon="-2.84277">
        <ele>89</ele>
        <time>2014-02-12T14:42:49Z</time>
      </trkpt>
      <trkpt lat="48.48981" lon="-2.84273">
        <ele>89</ele>
        <time>2014-02-12T14:42:51Z</time>
      </trkpt>
      <trkpt lat="48.4898" lon="-2.84265">
        <ele>89</ele>
        <time>2014-02-12T14:42:54Z</time>
      </trkpt>
      <trkpt lat="48.4898" lon="-2.84261">
        <ele>89</ele>
        <time>2014-02-12T14:42:56Z</time>
      </trkpt>
      <trkpt lat="48.48979" lon="-2.84257">
        <ele>89</ele>
        <time>2014-02-12T14:42:58Z</time>
      </trkpt>
      <trkpt lat="48.48979" lon="-2.84252">
        <ele>89</ele>
        <time>2014-02-12T14:43:00Z</time>
      </trkpt>
      <trkpt lat="48.48978" lon="-2.84247">
        <ele>89</ele>
        <time>2014-02-12T14:43:02Z</time>
      </trkpt>
      <trkpt lat="48.48978" lon="-2.84242">
        <ele>89</ele>
        <time>2014-02-12T14:43:04Z</time>
      </trkpt>
      <trkpt lat="48.48978" lon="-2.84238">
        <ele>89</ele>
        <time>2014-02-12T14:43:06Z</time>
      </trkpt>
      <trkpt lat="48.48978" lon="-2.84233">
        <ele>89</ele>
        <time>2014-02-12T14:43:08Z</time>
      </trkpt>
      <trkpt lat="48.48978" lon="-2.84228">
        <ele>89</ele>
        <time>2014-02-12T14:43:10Z</time>
      </trkpt>
      <trkpt lat="48.48977" lon="-2.84223">
        <ele>89</ele>
        <time>2014-02-12T14:43:12Z</time>
      </trkpt>
      <trkpt lat="48.48977" lon="-2.84219">
        <ele>89</ele>
        <time>2014-02-12T14:43:14Z</time>
      </trkpt>
      <trkpt lat="48.48977" lon="-2.84214">
        <ele>89</ele>
        <time>2014-02-12T14:43:16Z</time>
      </trkpt>
      <trkpt lat="48.48976" lon="-2.8421">
        <ele>89</ele>
        <time>2014-02-12T14:43:18Z</time>
      </trkpt>
      <trkpt lat="48.48976" lon="-2.84205">
        <ele>89</ele>
        <time>2014-02-12T14:43:20Z</time>
      </trkpt>
      <trkpt lat="48.48976" lon="-2.842">
        <ele>89</ele>
        <time>2014-02-12T14:43:22Z</time>
      </trkpt>
      <trkpt lat="48.48976" lon="-2.84196">
        <ele>89</ele>
        <time>2014-02-12T14:43:24Z</time>
      </trkpt>
      <trkpt lat="48.48975" lon="-2.84191">
        <ele>89</ele>
        <time>2014-02-12T14:43:26Z</time>
      </trkpt>
      <trkpt lat="48.48975" lon="-2.84187">
        <ele>89</ele>
        <time>2014-02-12T14:43:28Z</time>
      </trkpt>
      <trkpt lat="48.48975" lon="-2.84182">
        <ele>89</ele>
        <time>2014-02-12T14:43:30Z</time>
      </trkpt>
      <trkpt lat="48.48975" lon="-2.84178">
        <ele>89</ele>
        <time>2014-02-12T14:43:32Z</time>
      </trkpt>
      <trkpt lat="48.48975" lon="-2.84174">
        <ele>89</ele>
        <time>2014-02-12T14:43:34Z</time>
      </trkpt>
      <trkpt lat="48.48975" lon="-2.84169">
        <ele>89</ele>
        <time>2014-02-12T14:43:36Z</time>
      </trkpt>
      <trkpt lat="48.48974" lon="-2.84164">
        <ele>89</ele>
        <time>2014-02-12T14:43:38Z</time>
      </trkpt>
      <trkpt lat="48.48974" lon="-2.8416">
        <ele>89</ele>
        <time>2014-02-12T14:43:40Z</time>
      </trkpt>
      <trkpt lat="48.48974" lon="-2.84157">
        <ele>89</ele>
        <time>2014-02-12T14:43:42Z</time>
      </trkpt>
      <trkpt lat="48.48974" lon="-2.84152">
        <ele>89</ele>
        <time>2014-02-12T14:43:44Z</time>
      </trkpt>
      <trkpt lat="48.48973" lon="-2.84147">
        <ele>89</ele>
        <time>2014-02-12T14:43:46Z</time>
      </trkpt>
      <trkpt lat="48.48973" lon="-2.84143">
        <ele>89</ele>
        <time>2014-02-12T14:43:48Z</time>
      </trkpt>
      <trkpt lat="48.48973" lon="-2.84139">
        <ele>89</ele>
        <time>2014-02-12T14:43:50Z</time>
      </trkpt>
      <trkpt lat="48.48972" lon="-2.84134">
        <ele>89</ele>
        <time>2014-02-12T14:43:52Z</time>
      </trkpt>
      <trkpt lat="48.48972" lon="-2.8413">
        <ele>89</ele>
        <time>2014-02-12T14:43:54Z</time>
      </trkpt>
      <trkpt lat="48.48971" lon="-2.84125">
        <ele>89</ele>
        <time>2014-02-12T14:43:56Z</time>
      </trkpt>
      <trkpt lat="48.48971" lon="-2.84121">
        <ele>89</ele>
        <time>2014-02-12T14:43:58Z</time>
      </trkpt>
      <trkpt lat="48.4897" lon="-2.84117">
        <ele>89</ele>
        <time>2014-02-12T14:44:00Z</time>
      </trkpt>
      <trkpt lat="48.4897" lon="-2.84112">
        <ele>89</ele>
        <time>2014-02-12T14:44:02Z</time>
      </trkpt>
      <trkpt lat="48.48969" lon="-2.84107">
        <ele>89</ele>
        <time>2014-02-12T14:44:04Z</time>
      </trkpt>
      <trkpt lat="48.48969" lon="-2.84102">
        <ele>89</ele>
        <time>2014-02-12T14:44:06Z</time>
      </trkpt>
      <trkpt lat="48.48969" lon="-2.84098">
        <ele>89</ele>
        <time>2014-02-12T14:44:08Z</time>
      </trkpt>
      <trkpt lat="48.48968" lon="-2.84093">
        <ele>89</ele>
        <time>2014-02-12T14:44:10Z</time>
      </trkpt>
      <trkpt lat="48.48968" lon="-2.84088">
        <ele>89</ele>
        <time>2014-02-12T14:44:12Z</time>
      </trkpt>
      <trkpt lat="48.48968" lon="-2.84084">
        <ele>89</ele>
        <time>2014-02-12T14:44:14Z</time>
      </trkpt>
      <trkpt lat="48.48967" lon="-2.84079">
        <ele>89</ele>
        <time>2014-02-12T14:44:16Z</time>
      </trkpt>
      <trkpt lat="48.48967" lon="-2.84074">
        <ele>89</ele>
        <time>2014-02-12T14:44:18Z</time>
      </trkpt>
      <trkpt lat="48.48967" lon="-2.8407">
        <ele>89</ele>
        <time>2014-02-12T14:44:20Z</time>
      </trkpt>
      <trkpt lat="48.48967" lon="-2.84066">
        <ele>89</ele>
        <time>2014-02-12T14:44:22Z</time>
      </trkpt>
      <trkpt lat="48.48967" lon="-2.84061">
        <ele>89</ele>
        <time>2014-02-12T14:44:24Z</time>
      </trkpt>
      <trkpt lat="48.48966" lon="-2.84056">
        <ele>89</ele>
        <time>2014-02-12T14:44:26Z</time>
      </trkpt>
      <trkpt lat="48.48966" lon="-2.84051">
        <ele>89</ele>
        <time>2014-02-12T14:44:28Z</time>
      </trkpt>
      <trkpt lat="48.48965" lon="-2.84047">
        <ele>89</ele>
        <time>2014-02-12T14:44:30Z</time>
      </trkpt>
      <trkpt lat="48.48965" lon="-2.84043">
        <ele>89</ele>
        <time>2014-02-12T14:44:32Z</time>
      </trkpt>
      <trkpt lat="48.48964" lon="-2.8404">
        <ele>89</ele>
        <time>2014-02-12T14:44:34Z</time>
      </trkpt>
      <trkpt lat="48.48963" lon="-2.84039">
        <ele>89</ele>
        <time>2014-02-12T14:44:36Z</time>
      </trkpt>
      <trkpt lat="48.48962" lon="-2.8404">
        <ele>89</ele>
        <time>2014-02-12T14:44:38Z</time>
      </trkpt>
      <trkpt lat="48.48961" lon="-2.84043">
        <ele>89</ele>
        <time>2014-02-12T14:44:40Z</time>
      </trkpt>
      <trkpt lat="48.4896" lon="-2.84046">
        <ele>89</ele>
        <time>2014-02-12T14:44:42Z</time>
      </trkpt>
      <trkpt lat="48.4896" lon="-2.84049">
        <ele>89</ele>
        <time>2014-02-12T14:44:44Z</time>
      </trkpt>
      <trkpt lat="48.48959" lon="-2.84051">
        <ele>89</ele>
        <time>2014-02-12T14:44:46Z</time>
      </trkpt>
      <trkpt lat="48.48954" lon="-2.84089">
        <ele>92</ele>
        <time>2014-02-12T14:44:49Z</time>
      </trkpt>
      <trkpt lat="48.48966" lon="-2.84022">
        <ele>92</ele>
        <time>2014-02-12T14:44:54Z</time>
      </trkpt>
      <trkpt lat="48.4897" lon="-2.84013">
        <ele>92</ele>
        <time>2014-02-12T14:44:56Z</time>
      </trkpt>
      <trkpt lat="48.4897" lon="-2.84013">
        <ele>92</ele>
        <time>2014-02-12T14:44:56Z</time>
      </trkpt>
    </trkseg>
  </trk>
</gpx>